<?xml version="1.0" encoding="UTF-8" standalone="no" ?>
<gpx xmlns="http://www.topografix.com/GPX/1/1" xmlns:xsi="http://www.w3.org/2001/XMLSchema-instance" xsi:schemaLocation="http://www.topografix.com/GPX/1/1 http://www.topografix.com/GPX/1/1/gpx.xsd" version="1.1" creator="VisuGPX - https://www.visugpx.com">
  <metadata>
    <name>Verdon - Boucle vélo et Trail</name>
    <desc><![CDATA[Une superbe sortie ou l\'on mélange vélo de route et trail ...
]]></desc>
  </metadata>
  <trk>
    <name><![CDATA[Verdon]]></name>
    <trkseg>
      <trkpt lat="43.99784" lon="6.19651">
        <ele>587</ele>
        <time>2014-04-29T07:36:26Z</time>
      </trkpt>
      <trkpt lat="43.99761" lon="6.19662">
        <ele>583</ele>
        <time>2014-04-29T07:42:21Z</time>
      </trkpt>
      <trkpt lat="43.99791" lon="6.19671">
        <ele>579</ele>
        <time>2014-04-29T07:42:30Z</time>
      </trkpt>
      <trkpt lat="43.99841" lon="6.19688">
        <ele>585</ele>
        <time>2014-04-29T07:42:45Z</time>
      </trkpt>
      <trkpt lat="43.9989" lon="6.19709">
        <ele>587</ele>
        <time>2014-04-29T07:42:57Z</time>
      </trkpt>
      <trkpt lat="43.99937" lon="6.1973">
        <ele>593</ele>
        <time>2014-04-29T07:43:07Z</time>
      </trkpt>
      <trkpt lat="43.99956" lon="6.19741">
        <ele>594</ele>
        <time>2014-04-29T07:43:11Z</time>
      </trkpt>
      <trkpt lat="44.00009" lon="6.19767">
        <ele>589</ele>
        <time>2014-04-29T07:43:23Z</time>
      </trkpt>
      <trkpt lat="44.0005" lon="6.19785">
        <ele>588</ele>
        <time>2014-04-29T07:43:32Z</time>
      </trkpt>
      <trkpt lat="44.00084" lon="6.19799">
        <ele>593</ele>
        <time>2014-04-29T07:43:40Z</time>
      </trkpt>
      <trkpt lat="44.00126" lon="6.19815">
        <ele>594</ele>
        <time>2014-04-29T07:43:49Z</time>
      </trkpt>
      <trkpt lat="44.00147" lon="6.19829">
        <ele>595</ele>
        <time>2014-04-29T07:43:53Z</time>
      </trkpt>
      <trkpt lat="44.00178" lon="6.19857">
        <ele>591</ele>
        <time>2014-04-29T07:43:59Z</time>
      </trkpt>
      <trkpt lat="44.00197" lon="6.1987">
        <ele>590</ele>
        <time>2014-04-29T07:44:03Z</time>
      </trkpt>
      <trkpt lat="44.00238" lon="6.19886">
        <ele>590</ele>
        <time>2014-04-29T07:44:11Z</time>
      </trkpt>
      <trkpt lat="44.00271" lon="6.19896">
        <ele>594</ele>
        <time>2014-04-29T07:44:17Z</time>
      </trkpt>
      <trkpt lat="44.00317" lon="6.19912">
        <ele>595</ele>
        <time>2014-04-29T07:44:25Z</time>
      </trkpt>
      <trkpt lat="44.00354" lon="6.19937">
        <ele>591</ele>
        <time>2014-04-29T07:44:31Z</time>
      </trkpt>
      <trkpt lat="44.00404" lon="6.1997">
        <ele>589</ele>
        <time>2014-04-29T07:44:39Z</time>
      </trkpt>
      <trkpt lat="44.00458" lon="6.20001">
        <ele>586</ele>
        <time>2014-04-29T07:44:47Z</time>
      </trkpt>
      <trkpt lat="44.00472" lon="6.20013">
        <ele>586</ele>
        <time>2014-04-29T07:44:49Z</time>
      </trkpt>
      <trkpt lat="44.00517" lon="6.20062">
        <ele>590</ele>
        <time>2014-04-29T07:44:57Z</time>
      </trkpt>
      <trkpt lat="44.00545" lon="6.20108">
        <ele>585</ele>
        <time>2014-04-29T07:45:03Z</time>
      </trkpt>
      <trkpt lat="44.00581" lon="6.20132">
        <ele>584</ele>
        <time>2014-04-29T07:45:09Z</time>
      </trkpt>
      <trkpt lat="44.00626" lon="6.20183">
        <ele>583</ele>
        <time>2014-04-29T07:45:17Z</time>
      </trkpt>
      <trkpt lat="44.00676" lon="6.20242">
        <ele>585</ele>
        <time>2014-04-29T07:45:27Z</time>
      </trkpt>
      <trkpt lat="44.00697" lon="6.20265">
        <ele>586</ele>
        <time>2014-04-29T07:45:31Z</time>
      </trkpt>
      <trkpt lat="44.00736" lon="6.20314">
        <ele>587</ele>
        <time>2014-04-29T07:45:39Z</time>
      </trkpt>
      <trkpt lat="44.00753" lon="6.20337">
        <ele>590</ele>
        <time>2014-04-29T07:45:43Z</time>
      </trkpt>
      <trkpt lat="44.00776" lon="6.20372">
        <ele>592</ele>
        <time>2014-04-29T07:45:49Z</time>
      </trkpt>
      <trkpt lat="44.00799" lon="6.20405">
        <ele>592</ele>
        <time>2014-04-29T07:45:55Z</time>
      </trkpt>
      <trkpt lat="44.00829" lon="6.20446">
        <ele>588</ele>
        <time>2014-04-29T07:46:03Z</time>
      </trkpt>
      <trkpt lat="44.0086" lon="6.2048">
        <ele>596</ele>
        <time>2014-04-29T07:46:11Z</time>
      </trkpt>
      <trkpt lat="44.00891" lon="6.2051">
        <ele>594</ele>
        <time>2014-04-29T07:46:19Z</time>
      </trkpt>
      <trkpt lat="44.0093" lon="6.20552">
        <ele>599</ele>
        <time>2014-04-29T07:46:29Z</time>
      </trkpt>
      <trkpt lat="44.00947" lon="6.20565">
        <ele>599</ele>
        <time>2014-04-29T07:46:33Z</time>
      </trkpt>
      <trkpt lat="44.00979" lon="6.20593">
        <ele>597</ele>
        <time>2014-04-29T07:46:41Z</time>
      </trkpt>
      <trkpt lat="44.01004" lon="6.20617">
        <ele>601</ele>
        <time>2014-04-29T07:46:47Z</time>
      </trkpt>
      <trkpt lat="44.01039" lon="6.2067">
        <ele>598</ele>
        <time>2014-04-29T07:46:57Z</time>
      </trkpt>
      <trkpt lat="44.01072" lon="6.20705">
        <ele>599</ele>
        <time>2014-04-29T07:47:05Z</time>
      </trkpt>
      <trkpt lat="44.0112" lon="6.20733">
        <ele>608</ele>
        <time>2014-04-29T07:47:16Z</time>
      </trkpt>
      <trkpt lat="44.0115" lon="6.20753">
        <ele>609</ele>
        <time>2014-04-29T07:47:23Z</time>
      </trkpt>
      <trkpt lat="44.01161" lon="6.20807">
        <ele>609</ele>
        <time>2014-04-29T07:47:31Z</time>
      </trkpt>
      <trkpt lat="44.01172" lon="6.20849">
        <ele>612</ele>
        <time>2014-04-29T07:47:38Z</time>
      </trkpt>
      <trkpt lat="44.01202" lon="6.2091">
        <ele>612</ele>
        <time>2014-04-29T07:47:48Z</time>
      </trkpt>
      <trkpt lat="44.01226" lon="6.20945">
        <ele>608</ele>
        <time>2014-04-29T07:47:54Z</time>
      </trkpt>
      <trkpt lat="44.01252" lon="6.20983">
        <ele>607</ele>
        <time>2014-04-29T07:48:00Z</time>
      </trkpt>
      <trkpt lat="44.0127" lon="6.21006">
        <ele>603</ele>
        <time>2014-04-29T07:48:04Z</time>
      </trkpt>
      <trkpt lat="44.01314" lon="6.21025">
        <ele>605</ele>
        <time>2014-04-29T07:48:12Z</time>
      </trkpt>
      <trkpt lat="44.01361" lon="6.21025">
        <ele>608</ele>
        <time>2014-04-29T07:48:20Z</time>
      </trkpt>
      <trkpt lat="44.01393" lon="6.21034">
        <ele>609</ele>
        <time>2014-04-29T07:48:26Z</time>
      </trkpt>
      <trkpt lat="44.0142" lon="6.21058">
        <ele>610</ele>
        <time>2014-04-29T07:48:32Z</time>
      </trkpt>
      <trkpt lat="44.01441" lon="6.21108">
        <ele>608</ele>
        <time>2014-04-29T07:48:40Z</time>
      </trkpt>
      <trkpt lat="44.0145" lon="6.21166">
        <ele>608</ele>
        <time>2014-04-29T07:48:48Z</time>
      </trkpt>
      <trkpt lat="44.01456" lon="6.21211">
        <ele>608</ele>
        <time>2014-04-29T07:48:54Z</time>
      </trkpt>
      <trkpt lat="44.01464" lon="6.21278">
        <ele>612</ele>
        <time>2014-04-29T07:49:04Z</time>
      </trkpt>
      <trkpt lat="44.01465" lon="6.21315">
        <ele>614</ele>
        <time>2014-04-29T07:49:10Z</time>
      </trkpt>
      <trkpt lat="44.01439" lon="6.21342">
        <ele>619</ele>
        <time>2014-04-29T07:49:17Z</time>
      </trkpt>
      <trkpt lat="44.01375" lon="6.21359">
        <ele>614</ele>
        <time>2014-04-29T07:49:25Z</time>
      </trkpt>
      <trkpt lat="44.01327" lon="6.21367">
        <ele>608</ele>
        <time>2014-04-29T07:49:30Z</time>
      </trkpt>
      <trkpt lat="44.01285" lon="6.21373">
        <ele>607</ele>
        <time>2014-04-29T07:49:34Z</time>
      </trkpt>
      <trkpt lat="44.01241" lon="6.2138">
        <ele>602</ele>
        <time>2014-04-29T07:49:38Z</time>
      </trkpt>
      <trkpt lat="44.01207" lon="6.21388">
        <ele>601</ele>
        <time>2014-04-29T07:49:41Z</time>
      </trkpt>
      <trkpt lat="44.01173" lon="6.21399">
        <ele>600</ele>
        <time>2014-04-29T07:49:44Z</time>
      </trkpt>
      <trkpt lat="44.01129" lon="6.21421">
        <ele>595</ele>
        <time>2014-04-29T07:49:48Z</time>
      </trkpt>
      <trkpt lat="44.01098" lon="6.21441">
        <ele>594</ele>
        <time>2014-04-29T07:49:51Z</time>
      </trkpt>
      <trkpt lat="44.01078" lon="6.21456">
        <ele>591</ele>
        <time>2014-04-29T07:49:53Z</time>
      </trkpt>
      <trkpt lat="44.01041" lon="6.21492">
        <ele>592</ele>
        <time>2014-04-29T07:49:57Z</time>
      </trkpt>
      <trkpt lat="44.01009" lon="6.21532">
        <ele>597</ele>
        <time>2014-04-29T07:50:01Z</time>
      </trkpt>
      <trkpt lat="44.00977" lon="6.21587">
        <ele>594</ele>
        <time>2014-04-29T07:50:06Z</time>
      </trkpt>
      <trkpt lat="44.00958" lon="6.21633">
        <ele>592</ele>
        <time>2014-04-29T07:50:10Z</time>
      </trkpt>
      <trkpt lat="44.00948" lon="6.21668">
        <ele>593</ele>
        <time>2014-04-29T07:50:13Z</time>
      </trkpt>
      <trkpt lat="44.00941" lon="6.21714">
        <ele>594</ele>
        <time>2014-04-29T07:50:17Z</time>
      </trkpt>
      <trkpt lat="44.0094" lon="6.21758">
        <ele>595</ele>
        <time>2014-04-29T07:50:21Z</time>
      </trkpt>
      <trkpt lat="44.00946" lon="6.21801">
        <ele>597</ele>
        <time>2014-04-29T07:50:25Z</time>
      </trkpt>
      <trkpt lat="44.00958" lon="6.2184">
        <ele>594</ele>
        <time>2014-04-29T07:50:29Z</time>
      </trkpt>
      <trkpt lat="44.00974" lon="6.21874">
        <ele>594</ele>
        <time>2014-04-29T07:50:33Z</time>
      </trkpt>
      <trkpt lat="44.01008" lon="6.21916">
        <ele>597</ele>
        <time>2014-04-29T07:50:39Z</time>
      </trkpt>
      <trkpt lat="44.01046" lon="6.21946">
        <ele>597</ele>
        <time>2014-04-29T07:50:45Z</time>
      </trkpt>
      <trkpt lat="44.01095" lon="6.21987">
        <ele>604</ele>
        <time>2014-04-29T07:50:53Z</time>
      </trkpt>
      <trkpt lat="44.01119" lon="6.22009">
        <ele>598</ele>
        <time>2014-04-29T07:50:57Z</time>
      </trkpt>
      <trkpt lat="44.01141" lon="6.22035">
        <ele>599</ele>
        <time>2014-04-29T07:51:01Z</time>
      </trkpt>
      <trkpt lat="44.0117" lon="6.22076">
        <ele>603</ele>
        <time>2014-04-29T07:51:07Z</time>
      </trkpt>
      <trkpt lat="44.01208" lon="6.22131">
        <ele>599</ele>
        <time>2014-04-29T07:51:15Z</time>
      </trkpt>
      <trkpt lat="44.01228" lon="6.22156">
        <ele>600</ele>
        <time>2014-04-29T07:51:19Z</time>
      </trkpt>
      <trkpt lat="44.01259" lon="6.22191">
        <ele>602</ele>
        <time>2014-04-29T07:51:25Z</time>
      </trkpt>
      <trkpt lat="44.0129" lon="6.22223">
        <ele>603</ele>
        <time>2014-04-29T07:51:31Z</time>
      </trkpt>
      <trkpt lat="44.01329" lon="6.22268">
        <ele>598</ele>
        <time>2014-04-29T07:51:39Z</time>
      </trkpt>
      <trkpt lat="44.01356" lon="6.22306">
        <ele>608</ele>
        <time>2014-04-29T07:51:45Z</time>
      </trkpt>
      <trkpt lat="44.01383" lon="6.22346">
        <ele>602</ele>
        <time>2014-04-29T07:51:51Z</time>
      </trkpt>
      <trkpt lat="44.01418" lon="6.22401">
        <ele>610</ele>
        <time>2014-04-29T07:51:59Z</time>
      </trkpt>
      <trkpt lat="44.01437" lon="6.22427">
        <ele>604</ele>
        <time>2014-04-29T07:52:03Z</time>
      </trkpt>
      <trkpt lat="44.01474" lon="6.22482">
        <ele>607</ele>
        <time>2014-04-29T07:52:11Z</time>
      </trkpt>
      <trkpt lat="44.01494" lon="6.22511">
        <ele>605</ele>
        <time>2014-04-29T07:52:15Z</time>
      </trkpt>
      <trkpt lat="44.01524" lon="6.22577">
        <ele>611</ele>
        <time>2014-04-29T07:52:23Z</time>
      </trkpt>
      <trkpt lat="44.01531" lon="6.22593">
        <ele>606</ele>
        <time>2014-04-29T07:52:25Z</time>
      </trkpt>
      <trkpt lat="44.01551" lon="6.22662">
        <ele>607</ele>
        <time>2014-04-29T07:52:33Z</time>
      </trkpt>
      <trkpt lat="44.01557" lon="6.22696">
        <ele>604</ele>
        <time>2014-04-29T07:52:37Z</time>
      </trkpt>
      <trkpt lat="44.01561" lon="6.22759">
        <ele>604</ele>
        <time>2014-04-29T07:52:45Z</time>
      </trkpt>
      <trkpt lat="44.0156" lon="6.22818">
        <ele>605</ele>
        <time>2014-04-29T07:52:53Z</time>
      </trkpt>
      <trkpt lat="44.01555" lon="6.22901">
        <ele>607</ele>
        <time>2014-04-29T07:53:05Z</time>
      </trkpt>
      <trkpt lat="44.01551" lon="6.22961">
        <ele>609</ele>
        <time>2014-04-29T07:53:13Z</time>
      </trkpt>
      <trkpt lat="44.01548" lon="6.23007">
        <ele>612</ele>
        <time>2014-04-29T07:53:19Z</time>
      </trkpt>
      <trkpt lat="44.01544" lon="6.23039">
        <ele>612</ele>
        <time>2014-04-29T07:53:23Z</time>
      </trkpt>
      <trkpt lat="44.01541" lon="6.231">
        <ele>614</ele>
        <time>2014-04-29T07:53:31Z</time>
      </trkpt>
      <trkpt lat="44.01543" lon="6.2318">
        <ele>616</ele>
        <time>2014-04-29T07:53:41Z</time>
      </trkpt>
      <trkpt lat="44.01549" lon="6.23243">
        <ele>616</ele>
        <time>2014-04-29T07:53:49Z</time>
      </trkpt>
      <trkpt lat="44.01553" lon="6.23274">
        <ele>617</ele>
        <time>2014-04-29T07:53:53Z</time>
      </trkpt>
      <trkpt lat="44.01561" lon="6.23336">
        <ele>617</ele>
        <time>2014-04-29T07:54:01Z</time>
      </trkpt>
      <trkpt lat="44.01564" lon="6.23368">
        <ele>616</ele>
        <time>2014-04-29T07:54:05Z</time>
      </trkpt>
      <trkpt lat="44.0157" lon="6.23418">
        <ele>616</ele>
        <time>2014-04-29T07:54:11Z</time>
      </trkpt>
      <trkpt lat="44.0158" lon="6.23469">
        <ele>613</ele>
        <time>2014-04-29T07:54:17Z</time>
      </trkpt>
      <trkpt lat="44.0159" lon="6.23505">
        <ele>615</ele>
        <time>2014-04-29T07:54:21Z</time>
      </trkpt>
      <trkpt lat="44.01612" lon="6.23587">
        <ele>610</ele>
        <time>2014-04-29T07:54:29Z</time>
      </trkpt>
      <trkpt lat="44.01633" lon="6.23668">
        <ele>607</ele>
        <time>2014-04-29T07:54:36Z</time>
      </trkpt>
      <trkpt lat="44.01647" lon="6.23744">
        <ele>607</ele>
        <time>2014-04-29T07:54:42Z</time>
      </trkpt>
      <trkpt lat="44.0165" lon="6.2377">
        <ele>604</ele>
        <time>2014-04-29T07:54:44Z</time>
      </trkpt>
      <trkpt lat="44.01651" lon="6.23838">
        <ele>604</ele>
        <time>2014-04-29T07:54:49Z</time>
      </trkpt>
      <trkpt lat="44.01652" lon="6.23907">
        <ele>606</ele>
        <time>2014-04-29T07:54:54Z</time>
      </trkpt>
      <trkpt lat="44.01652" lon="6.23976">
        <ele>608</ele>
        <time>2014-04-29T07:54:59Z</time>
      </trkpt>
      <trkpt lat="44.01653" lon="6.24042">
        <ele>609</ele>
        <time>2014-04-29T07:55:04Z</time>
      </trkpt>
      <trkpt lat="44.01657" lon="6.24104">
        <ele>609</ele>
        <time>2014-04-29T07:55:09Z</time>
      </trkpt>
      <trkpt lat="44.01669" lon="6.24165">
        <ele>611</ele>
        <time>2014-04-29T07:55:14Z</time>
      </trkpt>
      <trkpt lat="44.01681" lon="6.24213">
        <ele>616</ele>
        <time>2014-04-29T07:55:18Z</time>
      </trkpt>
      <trkpt lat="44.01691" lon="6.24262">
        <ele>610</ele>
        <time>2014-04-29T07:55:22Z</time>
      </trkpt>
      <trkpt lat="44.01697" lon="6.24312">
        <ele>611</ele>
        <time>2014-04-29T07:55:26Z</time>
      </trkpt>
      <trkpt lat="44.01699" lon="6.24385">
        <ele>609</ele>
        <time>2014-04-29T07:55:32Z</time>
      </trkpt>
      <trkpt lat="44.017" lon="6.24431">
        <ele>609</ele>
        <time>2014-04-29T07:55:36Z</time>
      </trkpt>
      <trkpt lat="44.01697" lon="6.24544">
        <ele>611</ele>
        <time>2014-04-29T07:55:46Z</time>
      </trkpt>
      <trkpt lat="44.01693" lon="6.24634">
        <ele>613</ele>
        <time>2014-04-29T07:55:54Z</time>
      </trkpt>
      <trkpt lat="44.01689" lon="6.24719">
        <ele>612</ele>
        <time>2014-04-29T07:56:02Z</time>
      </trkpt>
      <trkpt lat="44.01687" lon="6.24761">
        <ele>609</ele>
        <time>2014-04-29T07:56:06Z</time>
      </trkpt>
      <trkpt lat="44.01685" lon="6.24843">
        <ele>608</ele>
        <time>2014-04-29T07:56:14Z</time>
      </trkpt>
      <trkpt lat="44.01681" lon="6.24927">
        <ele>607</ele>
        <time>2014-04-29T07:56:22Z</time>
      </trkpt>
      <trkpt lat="44.0168" lon="6.24949">
        <ele>608</ele>
        <time>2014-04-29T07:56:24Z</time>
      </trkpt>
      <trkpt lat="44.01677" lon="6.25011">
        <ele>605</ele>
        <time>2014-04-29T07:56:30Z</time>
      </trkpt>
      <trkpt lat="44.01674" lon="6.25083">
        <ele>606</ele>
        <time>2014-04-29T07:56:38Z</time>
      </trkpt>
      <trkpt lat="44.01676" lon="6.2514">
        <ele>606</ele>
        <time>2014-04-29T07:56:47Z</time>
      </trkpt>
      <trkpt lat="44.01683" lon="6.25169">
        <ele>606</ele>
        <time>2014-04-29T07:56:55Z</time>
      </trkpt>
      <trkpt lat="44.0168" lon="6.25226">
        <ele>608</ele>
        <time>2014-04-29T07:57:36Z</time>
      </trkpt>
      <trkpt lat="44.0167" lon="6.25258">
        <ele>608</ele>
        <time>2014-04-29T07:57:42Z</time>
      </trkpt>
      <trkpt lat="44.01643" lon="6.25292">
        <ele>609</ele>
        <time>2014-04-29T07:57:49Z</time>
      </trkpt>
      <trkpt lat="44.01623" lon="6.25306">
        <ele>609</ele>
        <time>2014-04-29T07:57:53Z</time>
      </trkpt>
      <trkpt lat="44.01588" lon="6.25322">
        <ele>608</ele>
        <time>2014-04-29T07:57:59Z</time>
      </trkpt>
      <trkpt lat="44.01565" lon="6.25333">
        <ele>615</ele>
        <time>2014-04-29T07:58:03Z</time>
      </trkpt>
      <trkpt lat="44.01516" lon="6.25356">
        <ele>623</ele>
        <time>2014-04-29T07:58:11Z</time>
      </trkpt>
      <trkpt lat="44.01492" lon="6.2537">
        <ele>638</ele>
        <time>2014-04-29T07:58:15Z</time>
      </trkpt>
      <trkpt lat="44.01466" lon="6.25372">
        <ele>642</ele>
        <time>2014-04-29T07:58:19Z</time>
      </trkpt>
      <trkpt lat="44.01437" lon="6.25368">
        <ele>644</ele>
        <time>2014-04-29T07:58:23Z</time>
      </trkpt>
      <trkpt lat="44.01394" lon="6.25368">
        <ele>663</ele>
        <time>2014-04-29T07:58:28Z</time>
      </trkpt>
      <trkpt lat="44.0134" lon="6.25366">
        <ele>671</ele>
        <time>2014-04-29T07:58:34Z</time>
      </trkpt>
      <trkpt lat="44.01294" lon="6.25336">
        <ele>680</ele>
        <time>2014-04-29T07:58:41Z</time>
      </trkpt>
      <trkpt lat="44.01262" lon="6.25303">
        <ele>657</ele>
        <time>2014-04-29T07:58:47Z</time>
      </trkpt>
      <trkpt lat="44.01232" lon="6.25292">
        <ele>644</ele>
        <time>2014-04-29T07:58:55Z</time>
      </trkpt>
      <trkpt lat="44.01211" lon="6.25305">
        <ele>643</ele>
        <time>2014-04-29T07:58:59Z</time>
      </trkpt>
      <trkpt lat="44.01151" lon="6.25373">
        <ele>632</ele>
        <time>2014-04-29T07:59:06Z</time>
      </trkpt>
      <trkpt lat="44.01105" lon="6.25399">
        <ele>630</ele>
        <time>2014-04-29T07:59:12Z</time>
      </trkpt>
      <trkpt lat="44.01075" lon="6.25445">
        <ele>626</ele>
        <time>2014-04-29T07:59:20Z</time>
      </trkpt>
      <trkpt lat="44.01069" lon="6.25487">
        <ele>627</ele>
        <time>2014-04-29T07:59:24Z</time>
      </trkpt>
      <trkpt lat="44.01069" lon="6.25555">
        <ele>630</ele>
        <time>2014-04-29T07:59:30Z</time>
      </trkpt>
      <trkpt lat="44.01075" lon="6.25617">
        <ele>631</ele>
        <time>2014-04-29T07:59:36Z</time>
      </trkpt>
      <trkpt lat="44.01072" lon="6.25644">
        <ele>630</ele>
        <time>2014-04-29T07:59:38Z</time>
      </trkpt>
      <trkpt lat="44.01074" lon="6.25722">
        <ele>631</ele>
        <time>2014-04-29T07:59:45Z</time>
      </trkpt>
      <trkpt lat="44.01065" lon="6.25786">
        <ele>630</ele>
        <time>2014-04-29T07:59:51Z</time>
      </trkpt>
      <trkpt lat="44.01038" lon="6.25858">
        <ele>632</ele>
        <time>2014-04-29T07:59:58Z</time>
      </trkpt>
      <trkpt lat="44.01014" lon="6.25921">
        <ele>634</ele>
        <time>2014-04-29T08:00:04Z</time>
      </trkpt>
      <trkpt lat="44.00997" lon="6.25982">
        <ele>628</ele>
        <time>2014-04-29T08:00:10Z</time>
      </trkpt>
      <trkpt lat="44.00986" lon="6.26045">
        <ele>629</ele>
        <time>2014-04-29T08:00:16Z</time>
      </trkpt>
      <trkpt lat="44.0098" lon="6.26108">
        <ele>631</ele>
        <time>2014-04-29T08:00:22Z</time>
      </trkpt>
      <trkpt lat="44.00979" lon="6.26147">
        <ele>631</ele>
        <time>2014-04-29T08:00:26Z</time>
      </trkpt>
      <trkpt lat="44.00973" lon="6.26229">
        <ele>628</ele>
        <time>2014-04-29T08:00:34Z</time>
      </trkpt>
      <trkpt lat="44.0097" lon="6.2629">
        <ele>626</ele>
        <time>2014-04-29T08:00:40Z</time>
      </trkpt>
      <trkpt lat="44.00969" lon="6.2631">
        <ele>626</ele>
        <time>2014-04-29T08:00:42Z</time>
      </trkpt>
      <trkpt lat="44.00964" lon="6.26389">
        <ele>623</ele>
        <time>2014-04-29T08:00:50Z</time>
      </trkpt>
      <trkpt lat="44.00958" lon="6.26484">
        <ele>620</ele>
        <time>2014-04-29T08:01:00Z</time>
      </trkpt>
      <trkpt lat="44.00956" lon="6.26522">
        <ele>620</ele>
        <time>2014-04-29T08:01:04Z</time>
      </trkpt>
      <trkpt lat="44.00953" lon="6.26598">
        <ele>623</ele>
        <time>2014-04-29T08:01:12Z</time>
      </trkpt>
      <trkpt lat="44.0095" lon="6.26655">
        <ele>624</ele>
        <time>2014-04-29T08:01:18Z</time>
      </trkpt>
      <trkpt lat="44.00946" lon="6.26713">
        <ele>626</ele>
        <time>2014-04-29T08:01:24Z</time>
      </trkpt>
      <trkpt lat="44.00941" lon="6.26791">
        <ele>629</ele>
        <time>2014-04-29T08:01:32Z</time>
      </trkpt>
      <trkpt lat="44.00939" lon="6.26829">
        <ele>628</ele>
        <time>2014-04-29T08:01:36Z</time>
      </trkpt>
      <trkpt lat="44.00934" lon="6.26907">
        <ele>629</ele>
        <time>2014-04-29T08:01:44Z</time>
      </trkpt>
      <trkpt lat="44.00928" lon="6.26965">
        <ele>631</ele>
        <time>2014-04-29T08:01:50Z</time>
      </trkpt>
      <trkpt lat="44.00926" lon="6.27003">
        <ele>628</ele>
        <time>2014-04-29T08:01:54Z</time>
      </trkpt>
      <trkpt lat="44.00939" lon="6.27096">
        <ele>634</ele>
        <time>2014-04-29T08:02:04Z</time>
      </trkpt>
      <trkpt lat="44.00935" lon="6.27153">
        <ele>634</ele>
        <time>2014-04-29T08:02:10Z</time>
      </trkpt>
      <trkpt lat="44.00928" lon="6.27187">
        <ele>634</ele>
        <time>2014-04-29T08:02:14Z</time>
      </trkpt>
      <trkpt lat="44.00924" lon="6.27223">
        <ele>635</ele>
        <time>2014-04-29T08:02:18Z</time>
      </trkpt>
      <trkpt lat="44.00924" lon="6.2726">
        <ele>633</ele>
        <time>2014-04-29T08:02:22Z</time>
      </trkpt>
      <trkpt lat="44.00921" lon="6.27316">
        <ele>637</ele>
        <time>2014-04-29T08:02:28Z</time>
      </trkpt>
      <trkpt lat="44.00921" lon="6.27388">
        <ele>645</ele>
        <time>2014-04-29T08:02:36Z</time>
      </trkpt>
      <trkpt lat="44.00917" lon="6.27463">
        <ele>654</ele>
        <time>2014-04-29T08:02:44Z</time>
      </trkpt>
      <trkpt lat="44.00909" lon="6.275">
        <ele>647</ele>
        <time>2014-04-29T08:02:48Z</time>
      </trkpt>
      <trkpt lat="44.00898" lon="6.27535">
        <ele>648</ele>
        <time>2014-04-29T08:02:52Z</time>
      </trkpt>
      <trkpt lat="44.0087" lon="6.27621">
        <ele>647</ele>
        <time>2014-04-29T08:03:02Z</time>
      </trkpt>
      <trkpt lat="44.0085" lon="6.27678">
        <ele>644</ele>
        <time>2014-04-29T08:03:08Z</time>
      </trkpt>
      <trkpt lat="44.00832" lon="6.2774">
        <ele>637</ele>
        <time>2014-04-29T08:03:14Z</time>
      </trkpt>
      <trkpt lat="44.00815" lon="6.27782">
        <ele>639</ele>
        <time>2014-04-29T08:03:18Z</time>
      </trkpt>
      <trkpt lat="44.00796" lon="6.27817">
        <ele>639</ele>
        <time>2014-04-29T08:03:22Z</time>
      </trkpt>
      <trkpt lat="44.00761" lon="6.27873">
        <ele>640</ele>
        <time>2014-04-29T08:03:30Z</time>
      </trkpt>
      <trkpt lat="44.00739" lon="6.27937">
        <ele>638</ele>
        <time>2014-04-29T08:03:38Z</time>
      </trkpt>
      <trkpt lat="44.00733" lon="6.27974">
        <ele>639</ele>
        <time>2014-04-29T08:03:42Z</time>
      </trkpt>
      <trkpt lat="44.00723" lon="6.28055">
        <ele>643</ele>
        <time>2014-04-29T08:03:50Z</time>
      </trkpt>
      <trkpt lat="44.00712" lon="6.28095">
        <ele>647</ele>
        <time>2014-04-29T08:03:54Z</time>
      </trkpt>
      <trkpt lat="44.00698" lon="6.28131">
        <ele>646</ele>
        <time>2014-04-29T08:03:58Z</time>
      </trkpt>
      <trkpt lat="44.00666" lon="6.28204">
        <ele>639</ele>
        <time>2014-04-29T08:04:06Z</time>
      </trkpt>
      <trkpt lat="44.00635" lon="6.28279">
        <ele>643</ele>
        <time>2014-04-29T08:04:14Z</time>
      </trkpt>
      <trkpt lat="44.00607" lon="6.28349">
        <ele>649</ele>
        <time>2014-04-29T08:04:22Z</time>
      </trkpt>
      <trkpt lat="44.00585" lon="6.28383">
        <ele>651</ele>
        <time>2014-04-29T08:04:26Z</time>
      </trkpt>
      <trkpt lat="44.00572" lon="6.28396">
        <ele>644</ele>
        <time>2014-04-29T08:04:28Z</time>
      </trkpt>
      <trkpt lat="44.00515" lon="6.28434">
        <ele>647</ele>
        <time>2014-04-29T08:04:36Z</time>
      </trkpt>
      <trkpt lat="44.00461" lon="6.28465">
        <ele>642</ele>
        <time>2014-04-29T08:04:44Z</time>
      </trkpt>
      <trkpt lat="44.00448" lon="6.28473">
        <ele>642</ele>
        <time>2014-04-29T08:04:46Z</time>
      </trkpt>
      <trkpt lat="44.00413" lon="6.28504">
        <ele>641</ele>
        <time>2014-04-29T08:04:52Z</time>
      </trkpt>
      <trkpt lat="44.00371" lon="6.28557">
        <ele>641</ele>
        <time>2014-04-29T08:05:00Z</time>
      </trkpt>
      <trkpt lat="44.00336" lon="6.28592">
        <ele>641</ele>
        <time>2014-04-29T08:05:06Z</time>
      </trkpt>
      <trkpt lat="44.00284" lon="6.28628">
        <ele>640</ele>
        <time>2014-04-29T08:05:14Z</time>
      </trkpt>
      <trkpt lat="44.00228" lon="6.28661">
        <ele>640</ele>
        <time>2014-04-29T08:05:22Z</time>
      </trkpt>
      <trkpt lat="44.002" lon="6.28679">
        <ele>645</ele>
        <time>2014-04-29T08:05:26Z</time>
      </trkpt>
      <trkpt lat="44.00143" lon="6.28716">
        <ele>644</ele>
        <time>2014-04-29T08:05:34Z</time>
      </trkpt>
      <trkpt lat="44.00102" lon="6.28751">
        <ele>647</ele>
        <time>2014-04-29T08:05:40Z</time>
      </trkpt>
      <trkpt lat="44.00078" lon="6.2878">
        <ele>645</ele>
        <time>2014-04-29T08:05:44Z</time>
      </trkpt>
      <trkpt lat="44.0006" lon="6.28814">
        <ele>648</ele>
        <time>2014-04-29T08:05:48Z</time>
      </trkpt>
      <trkpt lat="44.00047" lon="6.28854">
        <ele>653</ele>
        <time>2014-04-29T08:05:52Z</time>
      </trkpt>
      <trkpt lat="44.00037" lon="6.28895">
        <ele>654</ele>
        <time>2014-04-29T08:05:56Z</time>
      </trkpt>
      <trkpt lat="44.00024" lon="6.28956">
        <ele>662</ele>
        <time>2014-04-29T08:06:02Z</time>
      </trkpt>
      <trkpt lat="43.99999" lon="6.29029">
        <ele>654</ele>
        <time>2014-04-29T08:06:10Z</time>
      </trkpt>
      <trkpt lat="43.99986" lon="6.29064">
        <ele>658</ele>
        <time>2014-04-29T08:06:14Z</time>
      </trkpt>
      <trkpt lat="43.99965" lon="6.29095">
        <ele>666</ele>
        <time>2014-04-29T08:06:18Z</time>
      </trkpt>
      <trkpt lat="43.99942" lon="6.2912">
        <ele>666</ele>
        <time>2014-04-29T08:06:22Z</time>
      </trkpt>
      <trkpt lat="43.99916" lon="6.29137">
        <ele>657</ele>
        <time>2014-04-29T08:06:26Z</time>
      </trkpt>
      <trkpt lat="43.99869" lon="6.29146">
        <ele>656</ele>
        <time>2014-04-29T08:06:32Z</time>
      </trkpt>
      <trkpt lat="43.99798" lon="6.29149">
        <ele>654</ele>
        <time>2014-04-29T08:06:40Z</time>
      </trkpt>
      <trkpt lat="43.9978" lon="6.29149">
        <ele>654</ele>
        <time>2014-04-29T08:06:42Z</time>
      </trkpt>
      <trkpt lat="43.99734" lon="6.29151">
        <ele>654</ele>
        <time>2014-04-29T08:06:47Z</time>
      </trkpt>
      <trkpt lat="43.99691" lon="6.29155">
        <ele>652</ele>
        <time>2014-04-29T08:06:52Z</time>
      </trkpt>
      <trkpt lat="43.99659" lon="6.29168">
        <ele>651</ele>
        <time>2014-04-29T08:06:56Z</time>
      </trkpt>
      <trkpt lat="43.996" lon="6.29211">
        <ele>658</ele>
        <time>2014-04-29T08:07:04Z</time>
      </trkpt>
      <trkpt lat="43.99544" lon="6.29251">
        <ele>667</ele>
        <time>2014-04-29T08:07:12Z</time>
      </trkpt>
      <trkpt lat="43.99517" lon="6.29272">
        <ele>665</ele>
        <time>2014-04-29T08:07:16Z</time>
      </trkpt>
      <trkpt lat="43.99473" lon="6.29295">
        <ele>663</ele>
        <time>2014-04-29T08:07:22Z</time>
      </trkpt>
      <trkpt lat="43.99425" lon="6.29306">
        <ele>664</ele>
        <time>2014-04-29T08:07:28Z</time>
      </trkpt>
      <trkpt lat="43.99378" lon="6.29315">
        <ele>663</ele>
        <time>2014-04-29T08:07:34Z</time>
      </trkpt>
      <trkpt lat="43.99346" lon="6.29317">
        <ele>663</ele>
        <time>2014-04-29T08:07:38Z</time>
      </trkpt>
      <trkpt lat="43.99299" lon="6.29316">
        <ele>665</ele>
        <time>2014-04-29T08:07:44Z</time>
      </trkpt>
      <trkpt lat="43.99265" lon="6.29354">
        <ele>663</ele>
        <time>2014-04-29T08:07:50Z</time>
      </trkpt>
      <trkpt lat="43.99254" lon="6.29434">
        <ele>668</ele>
        <time>2014-04-29T08:07:58Z</time>
      </trkpt>
      <trkpt lat="43.99236" lon="6.29511">
        <ele>666</ele>
        <time>2014-04-29T08:08:06Z</time>
      </trkpt>
      <trkpt lat="43.99225" lon="6.29548">
        <ele>666</ele>
        <time>2014-04-29T08:08:10Z</time>
      </trkpt>
      <trkpt lat="43.99198" lon="6.29597">
        <ele>668</ele>
        <time>2014-04-29T08:08:16Z</time>
      </trkpt>
      <trkpt lat="43.99154" lon="6.29649">
        <ele>663</ele>
        <time>2014-04-29T08:08:24Z</time>
      </trkpt>
      <trkpt lat="43.99143" lon="6.29661">
        <ele>662</ele>
        <time>2014-04-29T08:08:26Z</time>
      </trkpt>
      <trkpt lat="43.99093" lon="6.29696">
        <ele>667</ele>
        <time>2014-04-29T08:08:34Z</time>
      </trkpt>
      <trkpt lat="43.99069" lon="6.29708">
        <ele>667</ele>
        <time>2014-04-29T08:08:38Z</time>
      </trkpt>
      <trkpt lat="43.99031" lon="6.29707">
        <ele>668</ele>
        <time>2014-04-29T08:08:44Z</time>
      </trkpt>
      <trkpt lat="43.98984" lon="6.29687">
        <ele>670</ele>
        <time>2014-04-29T08:08:52Z</time>
      </trkpt>
      <trkpt lat="43.9895" lon="6.29673">
        <ele>671</ele>
        <time>2014-04-29T08:08:58Z</time>
      </trkpt>
      <trkpt lat="43.98927" lon="6.29663">
        <ele>667</ele>
        <time>2014-04-29T08:09:02Z</time>
      </trkpt>
      <trkpt lat="43.98894" lon="6.2965">
        <ele>665</ele>
        <time>2014-04-29T08:09:08Z</time>
      </trkpt>
      <trkpt lat="43.98873" lon="6.29644">
        <ele>664</ele>
        <time>2014-04-29T08:09:12Z</time>
      </trkpt>
      <trkpt lat="43.98833" lon="6.29659">
        <ele>664</ele>
        <time>2014-04-29T08:09:20Z</time>
      </trkpt>
      <trkpt lat="43.98818" lon="6.29681">
        <ele>665</ele>
        <time>2014-04-29T08:09:24Z</time>
      </trkpt>
      <trkpt lat="43.98799" lon="6.29739">
        <ele>668</ele>
        <time>2014-04-29T08:09:32Z</time>
      </trkpt>
      <trkpt lat="43.9878" lon="6.29788">
        <ele>674</ele>
        <time>2014-04-29T08:09:38Z</time>
      </trkpt>
      <trkpt lat="43.98763" lon="6.29818">
        <ele>673</ele>
        <time>2014-04-29T08:09:42Z</time>
      </trkpt>
      <trkpt lat="43.9874" lon="6.29842">
        <ele>672</ele>
        <time>2014-04-29T08:09:46Z</time>
      </trkpt>
      <trkpt lat="43.98696" lon="6.29862">
        <ele>672</ele>
        <time>2014-04-29T08:09:52Z</time>
      </trkpt>
      <trkpt lat="43.9863" lon="6.29876">
        <ele>665</ele>
        <time>2014-04-29T08:10:00Z</time>
      </trkpt>
      <trkpt lat="43.9858" lon="6.29893">
        <ele>663</ele>
        <time>2014-04-29T08:10:06Z</time>
      </trkpt>
      <trkpt lat="43.9855" lon="6.29914">
        <ele>663</ele>
        <time>2014-04-29T08:10:10Z</time>
      </trkpt>
      <trkpt lat="43.98524" lon="6.29944">
        <ele>667</ele>
        <time>2014-04-29T08:10:14Z</time>
      </trkpt>
      <trkpt lat="43.98504" lon="6.29981">
        <ele>668</ele>
        <time>2014-04-29T08:10:18Z</time>
      </trkpt>
      <trkpt lat="43.98492" lon="6.30022">
        <ele>668</ele>
        <time>2014-04-29T08:10:22Z</time>
      </trkpt>
      <trkpt lat="43.98477" lon="6.30086">
        <ele>669</ele>
        <time>2014-04-29T08:10:28Z</time>
      </trkpt>
      <trkpt lat="43.98461" lon="6.30145">
        <ele>668</ele>
        <time>2014-04-29T08:10:34Z</time>
      </trkpt>
      <trkpt lat="43.98446" lon="6.30182">
        <ele>670</ele>
        <time>2014-04-29T08:10:38Z</time>
      </trkpt>
      <trkpt lat="43.98427" lon="6.30214">
        <ele>671</ele>
        <time>2014-04-29T08:10:42Z</time>
      </trkpt>
      <trkpt lat="43.98405" lon="6.3024">
        <ele>668</ele>
        <time>2014-04-29T08:10:46Z</time>
      </trkpt>
      <trkpt lat="43.9838" lon="6.30261">
        <ele>671</ele>
        <time>2014-04-29T08:10:50Z</time>
      </trkpt>
      <trkpt lat="43.98326" lon="6.30292">
        <ele>669</ele>
        <time>2014-04-29T08:10:58Z</time>
      </trkpt>
      <trkpt lat="43.98271" lon="6.30318">
        <ele>669</ele>
        <time>2014-04-29T08:11:06Z</time>
      </trkpt>
      <trkpt lat="43.98229" lon="6.30337">
        <ele>674</ele>
        <time>2014-04-29T08:11:12Z</time>
      </trkpt>
      <trkpt lat="43.98152" lon="6.30349">
        <ele>673</ele>
        <time>2014-04-29T08:11:22Z</time>
      </trkpt>
      <trkpt lat="43.98124" lon="6.30365">
        <ele>674</ele>
        <time>2014-04-29T08:11:26Z</time>
      </trkpt>
      <trkpt lat="43.981" lon="6.30386">
        <ele>674</ele>
        <time>2014-04-29T08:11:30Z</time>
      </trkpt>
      <trkpt lat="43.98067" lon="6.3042">
        <ele>675</ele>
        <time>2014-04-29T08:11:36Z</time>
      </trkpt>
      <trkpt lat="43.98042" lon="6.30462">
        <ele>678</ele>
        <time>2014-04-29T08:11:42Z</time>
      </trkpt>
      <trkpt lat="43.98032" lon="6.30495">
        <ele>678</ele>
        <time>2014-04-29T08:11:46Z</time>
      </trkpt>
      <trkpt lat="43.9802" lon="6.30545">
        <ele>686</ele>
        <time>2014-04-29T08:11:52Z</time>
      </trkpt>
      <trkpt lat="43.98013" lon="6.30573">
        <ele>684</ele>
        <time>2014-04-29T08:11:56Z</time>
      </trkpt>
      <trkpt lat="43.97999" lon="6.3063">
        <ele>682</ele>
        <time>2014-04-29T08:12:04Z</time>
      </trkpt>
      <trkpt lat="43.9799" lon="6.3069">
        <ele>682</ele>
        <time>2014-04-29T08:12:12Z</time>
      </trkpt>
      <trkpt lat="43.97994" lon="6.30751">
        <ele>680</ele>
        <time>2014-04-29T08:12:20Z</time>
      </trkpt>
      <trkpt lat="43.97999" lon="6.30806">
        <ele>684</ele>
        <time>2014-04-29T08:12:28Z</time>
      </trkpt>
      <trkpt lat="43.97992" lon="6.30874">
        <ele>687</ele>
        <time>2014-04-29T08:12:38Z</time>
      </trkpt>
      <trkpt lat="43.97974" lon="6.30922">
        <ele>688</ele>
        <time>2014-04-29T08:12:46Z</time>
      </trkpt>
      <trkpt lat="43.9796" lon="6.30944">
        <ele>688</ele>
        <time>2014-04-29T08:12:50Z</time>
      </trkpt>
      <trkpt lat="43.97933" lon="6.30982">
        <ele>688</ele>
        <time>2014-04-29T08:12:58Z</time>
      </trkpt>
      <trkpt lat="43.97891" lon="6.31023">
        <ele>685</ele>
        <time>2014-04-29T08:18:54Z</time>
      </trkpt>
      <trkpt lat="43.97841" lon="6.31073">
        <ele>682</ele>
        <time>2014-04-29T08:19:06Z</time>
      </trkpt>
      <trkpt lat="43.97802" lon="6.31108">
        <ele>683</ele>
        <time>2014-04-29T08:19:12Z</time>
      </trkpt>
      <trkpt lat="43.97772" lon="6.31124">
        <ele>684</ele>
        <time>2014-04-29T08:19:16Z</time>
      </trkpt>
      <trkpt lat="43.97714" lon="6.31152">
        <ele>684</ele>
        <time>2014-04-29T08:19:24Z</time>
      </trkpt>
      <trkpt lat="43.97684" lon="6.31166">
        <ele>685</ele>
        <time>2014-04-29T08:19:28Z</time>
      </trkpt>
      <trkpt lat="43.97654" lon="6.31176">
        <ele>690</ele>
        <time>2014-04-29T08:19:32Z</time>
      </trkpt>
      <trkpt lat="43.97623" lon="6.31174">
        <ele>691</ele>
        <time>2014-04-29T08:19:36Z</time>
      </trkpt>
      <trkpt lat="43.97573" lon="6.31169">
        <ele>687</ele>
        <time>2014-04-29T08:19:42Z</time>
      </trkpt>
      <trkpt lat="43.97522" lon="6.31163">
        <ele>681</ele>
        <time>2014-04-29T08:19:48Z</time>
      </trkpt>
      <trkpt lat="43.97468" lon="6.31157">
        <ele>679</ele>
        <time>2014-04-29T08:19:54Z</time>
      </trkpt>
      <trkpt lat="43.97417" lon="6.31156">
        <ele>680</ele>
        <time>2014-04-29T08:20:00Z</time>
      </trkpt>
      <trkpt lat="43.97352" lon="6.31167">
        <ele>684</ele>
        <time>2014-04-29T08:20:08Z</time>
      </trkpt>
      <trkpt lat="43.97305" lon="6.31183">
        <ele>685</ele>
        <time>2014-04-29T08:20:14Z</time>
      </trkpt>
      <trkpt lat="43.97258" lon="6.3119">
        <ele>685</ele>
        <time>2014-04-29T08:20:20Z</time>
      </trkpt>
      <trkpt lat="43.97213" lon="6.31173">
        <ele>687</ele>
        <time>2014-04-29T08:20:26Z</time>
      </trkpt>
      <trkpt lat="43.97158" lon="6.31143">
        <ele>682</ele>
        <time>2014-04-29T08:20:34Z</time>
      </trkpt>
      <trkpt lat="43.97128" lon="6.31139">
        <ele>681</ele>
        <time>2014-04-29T08:20:38Z</time>
      </trkpt>
      <trkpt lat="43.97083" lon="6.31148">
        <ele>683</ele>
        <time>2014-04-29T08:20:44Z</time>
      </trkpt>
      <trkpt lat="43.9704" lon="6.31165">
        <ele>682</ele>
        <time>2014-04-29T08:20:50Z</time>
      </trkpt>
      <trkpt lat="43.96995" lon="6.31183">
        <ele>686</ele>
        <time>2014-04-29T08:20:56Z</time>
      </trkpt>
      <trkpt lat="43.96921" lon="6.31217">
        <ele>688</ele>
        <time>2014-04-29T08:21:06Z</time>
      </trkpt>
      <trkpt lat="43.96877" lon="6.31244">
        <ele>685</ele>
        <time>2014-04-29T08:21:12Z</time>
      </trkpt>
      <trkpt lat="43.96834" lon="6.31272">
        <ele>690</ele>
        <time>2014-04-29T08:21:18Z</time>
      </trkpt>
      <trkpt lat="43.96807" lon="6.31294">
        <ele>686</ele>
        <time>2014-04-29T08:21:22Z</time>
      </trkpt>
      <trkpt lat="43.96783" lon="6.3132">
        <ele>686</ele>
        <time>2014-04-29T08:21:26Z</time>
      </trkpt>
      <trkpt lat="43.96763" lon="6.31353">
        <ele>688</ele>
        <time>2014-04-29T08:21:30Z</time>
      </trkpt>
      <trkpt lat="43.96747" lon="6.31389">
        <ele>685</ele>
        <time>2014-04-29T08:21:34Z</time>
      </trkpt>
      <trkpt lat="43.96735" lon="6.3143">
        <ele>686</ele>
        <time>2014-04-29T08:21:38Z</time>
      </trkpt>
      <trkpt lat="43.96729" lon="6.31472">
        <ele>687</ele>
        <time>2014-04-29T08:21:42Z</time>
      </trkpt>
      <trkpt lat="43.96723" lon="6.31535">
        <ele>688</ele>
        <time>2014-04-29T08:21:48Z</time>
      </trkpt>
      <trkpt lat="43.96717" lon="6.31578">
        <ele>688</ele>
        <time>2014-04-29T08:21:52Z</time>
      </trkpt>
      <trkpt lat="43.96707" lon="6.31618">
        <ele>689</ele>
        <time>2014-04-29T08:21:56Z</time>
      </trkpt>
      <trkpt lat="43.96695" lon="6.31657">
        <ele>689</ele>
        <time>2014-04-29T08:22:00Z</time>
      </trkpt>
      <trkpt lat="43.96663" lon="6.31752">
        <ele>691</ele>
        <time>2014-04-29T08:22:10Z</time>
      </trkpt>
      <trkpt lat="43.96645" lon="6.31807">
        <ele>695</ele>
        <time>2014-04-29T08:22:16Z</time>
      </trkpt>
      <trkpt lat="43.96631" lon="6.31842">
        <ele>702</ele>
        <time>2014-04-29T08:22:20Z</time>
      </trkpt>
      <trkpt lat="43.96614" lon="6.31873">
        <ele>702</ele>
        <time>2014-04-29T08:22:24Z</time>
      </trkpt>
      <trkpt lat="43.96594" lon="6.31901">
        <ele>699</ele>
        <time>2014-04-29T08:22:28Z</time>
      </trkpt>
      <trkpt lat="43.96558" lon="6.31939">
        <ele>699</ele>
        <time>2014-04-29T08:22:34Z</time>
      </trkpt>
      <trkpt lat="43.96503" lon="6.31982">
        <ele>698</ele>
        <time>2014-04-29T08:22:42Z</time>
      </trkpt>
      <trkpt lat="43.96489" lon="6.31993">
        <ele>694</ele>
        <time>2014-04-29T08:22:44Z</time>
      </trkpt>
      <trkpt lat="43.96448" lon="6.32032">
        <ele>697</ele>
        <time>2014-04-29T08:22:50Z</time>
      </trkpt>
      <trkpt lat="43.9642" lon="6.32061">
        <ele>696</ele>
        <time>2014-04-29T08:22:54Z</time>
      </trkpt>
      <trkpt lat="43.96381" lon="6.32104">
        <ele>695</ele>
        <time>2014-04-29T08:23:00Z</time>
      </trkpt>
      <trkpt lat="43.9632" lon="6.32173">
        <ele>695</ele>
        <time>2014-04-29T08:23:10Z</time>
      </trkpt>
      <trkpt lat="43.96296" lon="6.32222">
        <ele>697</ele>
        <time>2014-04-29T08:23:16Z</time>
      </trkpt>
      <trkpt lat="43.96288" lon="6.3228">
        <ele>702</ele>
        <time>2014-04-29T08:23:22Z</time>
      </trkpt>
      <trkpt lat="43.96287" lon="6.32319">
        <ele>703</ele>
        <time>2014-04-29T08:23:26Z</time>
      </trkpt>
      <trkpt lat="43.96283" lon="6.32401">
        <ele>705</ele>
        <time>2014-04-29T08:23:34Z</time>
      </trkpt>
      <trkpt lat="43.9627" lon="6.32461">
        <ele>706</ele>
        <time>2014-04-29T08:23:40Z</time>
      </trkpt>
      <trkpt lat="43.96255" lon="6.32499">
        <ele>697</ele>
        <time>2014-04-29T08:23:44Z</time>
      </trkpt>
      <trkpt lat="43.96223" lon="6.32568">
        <ele>699</ele>
        <time>2014-04-29T08:23:52Z</time>
      </trkpt>
      <trkpt lat="43.96199" lon="6.32619">
        <ele>703</ele>
        <time>2014-04-29T08:23:58Z</time>
      </trkpt>
      <trkpt lat="43.96178" lon="6.32666">
        <ele>700</ele>
        <time>2014-04-29T08:24:04Z</time>
      </trkpt>
      <trkpt lat="43.96166" lon="6.32698">
        <ele>701</ele>
        <time>2014-04-29T08:24:08Z</time>
      </trkpt>
      <trkpt lat="43.96161" lon="6.32767">
        <ele>708</ele>
        <time>2014-04-29T08:24:16Z</time>
      </trkpt>
      <trkpt lat="43.96168" lon="6.32822">
        <ele>722</ele>
        <time>2014-04-29T08:24:22Z</time>
      </trkpt>
      <trkpt lat="43.96171" lon="6.32862">
        <ele>729</ele>
        <time>2014-04-29T08:24:26Z</time>
      </trkpt>
      <trkpt lat="43.96165" lon="6.32922">
        <ele>710</ele>
        <time>2014-04-29T08:24:32Z</time>
      </trkpt>
      <trkpt lat="43.96149" lon="6.32984">
        <ele>713</ele>
        <time>2014-04-29T08:24:38Z</time>
      </trkpt>
      <trkpt lat="43.9614" lon="6.33025">
        <ele>712</ele>
        <time>2014-04-29T08:24:42Z</time>
      </trkpt>
      <trkpt lat="43.96137" lon="6.33068">
        <ele>712</ele>
        <time>2014-04-29T08:24:46Z</time>
      </trkpt>
      <trkpt lat="43.96141" lon="6.33112">
        <ele>708</ele>
        <time>2014-04-29T08:24:50Z</time>
      </trkpt>
      <trkpt lat="43.96151" lon="6.33196">
        <ele>705</ele>
        <time>2014-04-29T08:24:58Z</time>
      </trkpt>
      <trkpt lat="43.96156" lon="6.33237">
        <ele>704</ele>
        <time>2014-04-29T08:25:02Z</time>
      </trkpt>
      <trkpt lat="43.96168" lon="6.33339">
        <ele>708</ele>
        <time>2014-04-29T08:25:12Z</time>
      </trkpt>
      <trkpt lat="43.9617" lon="6.33359">
        <ele>713</ele>
        <time>2014-04-29T08:25:14Z</time>
      </trkpt>
      <trkpt lat="43.9618" lon="6.33441">
        <ele>709</ele>
        <time>2014-04-29T08:25:22Z</time>
      </trkpt>
      <trkpt lat="43.96184" lon="6.33503">
        <ele>710</ele>
        <time>2014-04-29T08:25:28Z</time>
      </trkpt>
      <trkpt lat="43.96181" lon="6.33545">
        <ele>714</ele>
        <time>2014-04-29T08:25:32Z</time>
      </trkpt>
      <trkpt lat="43.96164" lon="6.33602">
        <ele>706</ele>
        <time>2014-04-29T08:25:38Z</time>
      </trkpt>
      <trkpt lat="43.96128" lon="6.33674">
        <ele>715</ele>
        <time>2014-04-29T08:25:46Z</time>
      </trkpt>
      <trkpt lat="43.96101" lon="6.33726">
        <ele>714</ele>
        <time>2014-04-29T08:25:52Z</time>
      </trkpt>
      <trkpt lat="43.96083" lon="6.33761">
        <ele>709</ele>
        <time>2014-04-29T08:25:56Z</time>
      </trkpt>
      <trkpt lat="43.96068" lon="6.338">
        <ele>714</ele>
        <time>2014-04-29T08:26:00Z</time>
      </trkpt>
      <trkpt lat="43.96053" lon="6.33862">
        <ele>720</ele>
        <time>2014-04-29T08:26:06Z</time>
      </trkpt>
      <trkpt lat="43.96034" lon="6.33978">
        <ele>723</ele>
        <time>2014-04-29T08:26:17Z</time>
      </trkpt>
      <trkpt lat="43.9603" lon="6.3404">
        <ele>726</ele>
        <time>2014-04-29T08:26:23Z</time>
      </trkpt>
      <trkpt lat="43.96024" lon="6.34102">
        <ele>725</ele>
        <time>2014-04-29T08:26:29Z</time>
      </trkpt>
      <trkpt lat="43.96024" lon="6.34115">
        <ele>726</ele>
        <time>2014-04-29T08:27:48Z</time>
      </trkpt>
      <trkpt lat="43.96019" lon="6.34184">
        <ele>722</ele>
        <time>2014-04-29T08:28:01Z</time>
      </trkpt>
      <trkpt lat="43.96014" lon="6.34253">
        <ele>717</ele>
        <time>2014-04-29T08:28:09Z</time>
      </trkpt>
      <trkpt lat="43.96011" lon="6.34305">
        <ele>722</ele>
        <time>2014-04-29T08:28:15Z</time>
      </trkpt>
      <trkpt lat="43.96016" lon="6.34338">
        <ele>716</ele>
        <time>2014-04-29T08:28:19Z</time>
      </trkpt>
      <trkpt lat="43.96037" lon="6.34381">
        <ele>721</ele>
        <time>2014-04-29T08:28:25Z</time>
      </trkpt>
      <trkpt lat="43.96067" lon="6.34418">
        <ele>718</ele>
        <time>2014-04-29T08:28:31Z</time>
      </trkpt>
      <trkpt lat="43.96111" lon="6.34462">
        <ele>732</ele>
        <time>2014-04-29T08:28:39Z</time>
      </trkpt>
      <trkpt lat="43.96143" lon="6.34497">
        <ele>735</ele>
        <time>2014-04-29T08:28:45Z</time>
      </trkpt>
      <trkpt lat="43.96172" lon="6.34537">
        <ele>743</ele>
        <time>2014-04-29T08:28:51Z</time>
      </trkpt>
      <trkpt lat="43.96184" lon="6.34571">
        <ele>736</ele>
        <time>2014-04-29T08:28:55Z</time>
      </trkpt>
      <trkpt lat="43.96188" lon="6.34631">
        <ele>733</ele>
        <time>2014-04-29T08:29:01Z</time>
      </trkpt>
      <trkpt lat="43.96191" lon="6.34708">
        <ele>732</ele>
        <time>2014-04-29T08:29:09Z</time>
      </trkpt>
      <trkpt lat="43.96191" lon="6.34769">
        <ele>728</ele>
        <time>2014-04-29T08:29:15Z</time>
      </trkpt>
      <trkpt lat="43.96188" lon="6.34807">
        <ele>727</ele>
        <time>2014-04-29T08:29:19Z</time>
      </trkpt>
      <trkpt lat="43.96176" lon="6.34865">
        <ele>723</ele>
        <time>2014-04-29T08:29:25Z</time>
      </trkpt>
      <trkpt lat="43.96157" lon="6.34941">
        <ele>714</ele>
        <time>2014-04-29T08:29:33Z</time>
      </trkpt>
      <trkpt lat="43.96149" lon="6.34999">
        <ele>715</ele>
        <time>2014-04-29T08:29:39Z</time>
      </trkpt>
      <trkpt lat="43.96151" lon="6.35039">
        <ele>714</ele>
        <time>2014-04-29T08:29:43Z</time>
      </trkpt>
      <trkpt lat="43.96165" lon="6.351">
        <ele>713</ele>
        <time>2014-04-29T08:29:49Z</time>
      </trkpt>
      <trkpt lat="43.96203" lon="6.35203">
        <ele>717</ele>
        <time>2014-04-29T08:29:59Z</time>
      </trkpt>
      <trkpt lat="43.96214" lon="6.35248">
        <ele>717</ele>
        <time>2014-04-29T08:30:03Z</time>
      </trkpt>
      <trkpt lat="43.96215" lon="6.35272">
        <ele>716</ele>
        <time>2014-04-29T08:30:05Z</time>
      </trkpt>
      <trkpt lat="43.96212" lon="6.35317">
        <ele>716</ele>
        <time>2014-04-29T08:30:09Z</time>
      </trkpt>
      <trkpt lat="43.96202" lon="6.3536">
        <ele>717</ele>
        <time>2014-04-29T08:30:13Z</time>
      </trkpt>
      <trkpt lat="43.96187" lon="6.35397">
        <ele>717</ele>
        <time>2014-04-29T08:30:17Z</time>
      </trkpt>
      <trkpt lat="43.96148" lon="6.35451">
        <ele>714</ele>
        <time>2014-04-29T08:30:25Z</time>
      </trkpt>
      <trkpt lat="43.96102" lon="6.35509">
        <ele>716</ele>
        <time>2014-04-29T08:30:33Z</time>
      </trkpt>
      <trkpt lat="43.96067" lon="6.35554">
        <ele>715</ele>
        <time>2014-04-29T08:30:39Z</time>
      </trkpt>
      <trkpt lat="43.9603" lon="6.35602">
        <ele>721</ele>
        <time>2014-04-29T08:30:45Z</time>
      </trkpt>
      <trkpt lat="43.9598" lon="6.35667">
        <ele>719</ele>
        <time>2014-04-29T08:30:53Z</time>
      </trkpt>
      <trkpt lat="43.9594" lon="6.35713">
        <ele>724</ele>
        <time>2014-04-29T08:30:59Z</time>
      </trkpt>
      <trkpt lat="43.95885" lon="6.35773">
        <ele>726</ele>
        <time>2014-04-29T08:31:07Z</time>
      </trkpt>
      <trkpt lat="43.95872" lon="6.35789">
        <ele>726</ele>
        <time>2014-04-29T08:31:09Z</time>
      </trkpt>
      <trkpt lat="43.95823" lon="6.35852">
        <ele>722</ele>
        <time>2014-04-29T08:31:17Z</time>
      </trkpt>
      <trkpt lat="43.95802" lon="6.35887">
        <ele>727</ele>
        <time>2014-04-29T08:31:21Z</time>
      </trkpt>
      <trkpt lat="43.95768" lon="6.35963">
        <ele>735</ele>
        <time>2014-04-29T08:31:29Z</time>
      </trkpt>
      <trkpt lat="43.95748" lon="6.35999">
        <ele>725</ele>
        <time>2014-04-29T08:31:33Z</time>
      </trkpt>
      <trkpt lat="43.95711" lon="6.36042">
        <ele>726</ele>
        <time>2014-04-29T08:31:39Z</time>
      </trkpt>
      <trkpt lat="43.95658" lon="6.3609">
        <ele>720</ele>
        <time>2014-04-29T08:31:47Z</time>
      </trkpt>
      <trkpt lat="43.95608" lon="6.36142">
        <ele>721</ele>
        <time>2014-04-29T08:31:55Z</time>
      </trkpt>
      <trkpt lat="43.95574" lon="6.3619">
        <ele>719</ele>
        <time>2014-04-29T08:32:01Z</time>
      </trkpt>
      <trkpt lat="43.95531" lon="6.36259">
        <ele>722</ele>
        <time>2014-04-29T08:32:09Z</time>
      </trkpt>
      <trkpt lat="43.95494" lon="6.36305">
        <ele>719</ele>
        <time>2014-04-29T08:32:15Z</time>
      </trkpt>
      <trkpt lat="43.95449" lon="6.36337">
        <ele>727</ele>
        <time>2014-04-29T08:32:21Z</time>
      </trkpt>
      <trkpt lat="43.95406" lon="6.36363">
        <ele>722</ele>
        <time>2014-04-29T08:32:27Z</time>
      </trkpt>
      <trkpt lat="43.9538" lon="6.36384">
        <ele>723</ele>
        <time>2014-04-29T08:32:31Z</time>
      </trkpt>
      <trkpt lat="43.95356" lon="6.3641">
        <ele>722</ele>
        <time>2014-04-29T08:32:35Z</time>
      </trkpt>
      <trkpt lat="43.95323" lon="6.36452">
        <ele>723</ele>
        <time>2014-04-29T08:32:41Z</time>
      </trkpt>
      <trkpt lat="43.95301" lon="6.36481">
        <ele>724</ele>
        <time>2014-04-29T08:32:45Z</time>
      </trkpt>
      <trkpt lat="43.95268" lon="6.36523">
        <ele>729</ele>
        <time>2014-04-29T08:32:51Z</time>
      </trkpt>
      <trkpt lat="43.95257" lon="6.36538">
        <ele>729</ele>
        <time>2014-04-29T08:32:53Z</time>
      </trkpt>
      <trkpt lat="43.95224" lon="6.36582">
        <ele>724</ele>
        <time>2014-04-29T08:32:59Z</time>
      </trkpt>
      <trkpt lat="43.95195" lon="6.36621">
        <ele>724</ele>
        <time>2014-04-29T08:33:05Z</time>
      </trkpt>
      <trkpt lat="43.95159" lon="6.36665">
        <ele>722</ele>
        <time>2014-04-29T08:33:13Z</time>
      </trkpt>
      <trkpt lat="43.9515" lon="6.36675">
        <ele>722</ele>
        <time>2014-04-29T08:33:15Z</time>
      </trkpt>
      <trkpt lat="43.95112" lon="6.36725">
        <ele>721</ele>
        <time>2014-04-29T08:33:23Z</time>
      </trkpt>
      <trkpt lat="43.9507" lon="6.36778">
        <ele>723</ele>
        <time>2014-04-29T08:33:31Z</time>
      </trkpt>
      <trkpt lat="43.95049" lon="6.36803">
        <ele>723</ele>
        <time>2014-04-29T08:33:35Z</time>
      </trkpt>
      <trkpt lat="43.95017" lon="6.36845">
        <ele>722</ele>
        <time>2014-04-29T08:33:41Z</time>
      </trkpt>
      <trkpt lat="43.94974" lon="6.36899">
        <ele>722</ele>
        <time>2014-04-29T08:33:49Z</time>
      </trkpt>
      <trkpt lat="43.94963" lon="6.36913">
        <ele>722</ele>
        <time>2014-04-29T08:33:51Z</time>
      </trkpt>
      <trkpt lat="43.9492" lon="6.36968">
        <ele>723</ele>
        <time>2014-04-29T08:33:59Z</time>
      </trkpt>
      <trkpt lat="43.9491" lon="6.36981">
        <ele>723</ele>
        <time>2014-04-29T08:34:01Z</time>
      </trkpt>
      <trkpt lat="43.94866" lon="6.37036">
        <ele>723</ele>
        <time>2014-04-29T08:34:09Z</time>
      </trkpt>
      <trkpt lat="43.94823" lon="6.3709">
        <ele>724</ele>
        <time>2014-04-29T08:34:17Z</time>
      </trkpt>
      <trkpt lat="43.94793" lon="6.37132">
        <ele>724</ele>
        <time>2014-04-29T08:34:23Z</time>
      </trkpt>
      <trkpt lat="43.94774" lon="6.37164">
        <ele>725</ele>
        <time>2014-04-29T08:34:27Z</time>
      </trkpt>
      <trkpt lat="43.94741" lon="6.37233">
        <ele>725</ele>
        <time>2014-04-29T08:34:35Z</time>
      </trkpt>
      <trkpt lat="43.94729" lon="6.3727">
        <ele>725</ele>
        <time>2014-04-29T08:34:39Z</time>
      </trkpt>
      <trkpt lat="43.94712" lon="6.37327">
        <ele>725</ele>
        <time>2014-04-29T08:34:45Z</time>
      </trkpt>
      <trkpt lat="43.94695" lon="6.37384">
        <ele>725</ele>
        <time>2014-04-29T08:34:51Z</time>
      </trkpt>
      <trkpt lat="43.94684" lon="6.37421">
        <ele>726</ele>
        <time>2014-04-29T08:34:55Z</time>
      </trkpt>
      <trkpt lat="43.94662" lon="6.37495">
        <ele>727</ele>
        <time>2014-04-29T08:35:03Z</time>
      </trkpt>
      <trkpt lat="43.94636" lon="6.37569">
        <ele>729</ele>
        <time>2014-04-29T08:35:11Z</time>
      </trkpt>
      <trkpt lat="43.94602" lon="6.37635">
        <ele>732</ele>
        <time>2014-04-29T08:35:19Z</time>
      </trkpt>
      <trkpt lat="43.94576" lon="6.37684">
        <ele>730</ele>
        <time>2014-04-29T08:35:25Z</time>
      </trkpt>
      <trkpt lat="43.94549" lon="6.37732">
        <ele>732</ele>
        <time>2014-04-29T08:35:31Z</time>
      </trkpt>
      <trkpt lat="43.94514" lon="6.37795">
        <ele>733</ele>
        <time>2014-04-29T08:35:39Z</time>
      </trkpt>
      <trkpt lat="43.94486" lon="6.37839">
        <ele>732</ele>
        <time>2014-04-29T08:35:45Z</time>
      </trkpt>
      <trkpt lat="43.94465" lon="6.37864">
        <ele>733</ele>
        <time>2014-04-29T08:35:49Z</time>
      </trkpt>
      <trkpt lat="43.94429" lon="6.37901">
        <ele>732</ele>
        <time>2014-04-29T08:35:55Z</time>
      </trkpt>
      <trkpt lat="43.94381" lon="6.37949">
        <ele>734</ele>
        <time>2014-04-29T08:36:03Z</time>
      </trkpt>
      <trkpt lat="43.94321" lon="6.38009">
        <ele>734</ele>
        <time>2014-04-29T08:36:13Z</time>
      </trkpt>
      <trkpt lat="43.94285" lon="6.38044">
        <ele>734</ele>
        <time>2014-04-29T08:36:19Z</time>
      </trkpt>
      <trkpt lat="43.94234" lon="6.38094">
        <ele>733</ele>
        <time>2014-04-29T08:36:27Z</time>
      </trkpt>
      <trkpt lat="43.94195" lon="6.38128">
        <ele>734</ele>
        <time>2014-04-29T08:36:33Z</time>
      </trkpt>
      <trkpt lat="43.94169" lon="6.3815">
        <ele>734</ele>
        <time>2014-04-29T08:36:37Z</time>
      </trkpt>
      <trkpt lat="43.94129" lon="6.38183">
        <ele>735</ele>
        <time>2014-04-29T08:36:43Z</time>
      </trkpt>
      <trkpt lat="43.94091" lon="6.38214">
        <ele>734</ele>
        <time>2014-04-29T08:36:49Z</time>
      </trkpt>
      <trkpt lat="43.94038" lon="6.38255">
        <ele>736</ele>
        <time>2014-04-29T08:36:57Z</time>
      </trkpt>
      <trkpt lat="43.93983" lon="6.38287">
        <ele>736</ele>
        <time>2014-04-29T08:37:05Z</time>
      </trkpt>
      <trkpt lat="43.93914" lon="6.38327">
        <ele>736</ele>
        <time>2014-04-29T08:37:15Z</time>
      </trkpt>
      <trkpt lat="43.93874" lon="6.3835">
        <ele>737</ele>
        <time>2014-04-29T08:37:21Z</time>
      </trkpt>
      <trkpt lat="43.93847" lon="6.38365">
        <ele>738</ele>
        <time>2014-04-29T08:37:25Z</time>
      </trkpt>
      <trkpt lat="43.93806" lon="6.38388">
        <ele>739</ele>
        <time>2014-04-29T08:37:31Z</time>
      </trkpt>
      <trkpt lat="43.93766" lon="6.38411">
        <ele>739</ele>
        <time>2014-04-29T08:37:37Z</time>
      </trkpt>
      <trkpt lat="43.9371" lon="6.38443">
        <ele>739</ele>
        <time>2014-04-29T08:37:45Z</time>
      </trkpt>
      <trkpt lat="43.93669" lon="6.38467">
        <ele>739</ele>
        <time>2014-04-29T08:37:51Z</time>
      </trkpt>
      <trkpt lat="43.93613" lon="6.38499">
        <ele>741</ele>
        <time>2014-04-29T08:37:59Z</time>
      </trkpt>
      <trkpt lat="43.93585" lon="6.38518">
        <ele>740</ele>
        <time>2014-04-29T08:38:03Z</time>
      </trkpt>
      <trkpt lat="43.93545" lon="6.38555">
        <ele>741</ele>
        <time>2014-04-29T08:38:09Z</time>
      </trkpt>
      <trkpt lat="43.93522" lon="6.38586">
        <ele>741</ele>
        <time>2014-04-29T08:38:13Z</time>
      </trkpt>
      <trkpt lat="43.93491" lon="6.3864">
        <ele>741</ele>
        <time>2014-04-29T08:38:19Z</time>
      </trkpt>
      <trkpt lat="43.93469" lon="6.38697">
        <ele>742</ele>
        <time>2014-04-29T08:38:25Z</time>
      </trkpt>
      <trkpt lat="43.93449" lon="6.38754">
        <ele>744</ele>
        <time>2014-04-29T08:38:31Z</time>
      </trkpt>
      <trkpt lat="43.93423" lon="6.3883">
        <ele>745</ele>
        <time>2014-04-29T08:38:39Z</time>
      </trkpt>
      <trkpt lat="43.93402" lon="6.38885">
        <ele>748</ele>
        <time>2014-04-29T08:38:45Z</time>
      </trkpt>
      <trkpt lat="43.93385" lon="6.38919">
        <ele>753</ele>
        <time>2014-04-29T08:38:49Z</time>
      </trkpt>
      <trkpt lat="43.93366" lon="6.3895">
        <ele>753</ele>
        <time>2014-04-29T08:38:53Z</time>
      </trkpt>
      <trkpt lat="43.93344" lon="6.38978">
        <ele>753</ele>
        <time>2014-04-29T08:38:57Z</time>
      </trkpt>
      <trkpt lat="43.933" lon="6.39029">
        <ele>752</ele>
        <time>2014-04-29T08:39:05Z</time>
      </trkpt>
      <trkpt lat="43.93267" lon="6.39068">
        <ele>751</ele>
        <time>2014-04-29T08:39:11Z</time>
      </trkpt>
      <trkpt lat="43.93234" lon="6.39106">
        <ele>749</ele>
        <time>2014-04-29T08:39:17Z</time>
      </trkpt>
      <trkpt lat="43.93201" lon="6.39144">
        <ele>750</ele>
        <time>2014-04-29T08:39:23Z</time>
      </trkpt>
      <trkpt lat="43.93178" lon="6.39169">
        <ele>752</ele>
        <time>2014-04-29T08:39:27Z</time>
      </trkpt>
      <trkpt lat="43.93145" lon="6.39208">
        <ele>752</ele>
        <time>2014-04-29T08:39:33Z</time>
      </trkpt>
      <trkpt lat="43.931" lon="6.39259">
        <ele>757</ele>
        <time>2014-04-29T08:39:41Z</time>
      </trkpt>
      <trkpt lat="43.93078" lon="6.39285">
        <ele>754</ele>
        <time>2014-04-29T08:39:45Z</time>
      </trkpt>
      <trkpt lat="43.93045" lon="6.39323">
        <ele>756</ele>
        <time>2014-04-29T08:39:51Z</time>
      </trkpt>
      <trkpt lat="43.93001" lon="6.39375">
        <ele>762</ele>
        <time>2014-04-29T08:39:59Z</time>
      </trkpt>
      <trkpt lat="43.92979" lon="6.39399">
        <ele>757</ele>
        <time>2014-04-29T08:40:03Z</time>
      </trkpt>
      <trkpt lat="43.92945" lon="6.39437">
        <ele>762</ele>
        <time>2014-04-29T08:40:09Z</time>
      </trkpt>
      <trkpt lat="43.92891" lon="6.395">
        <ele>758</ele>
        <time>2014-04-29T08:40:19Z</time>
      </trkpt>
      <trkpt lat="43.9288" lon="6.39512">
        <ele>762</ele>
        <time>2014-04-29T08:40:21Z</time>
      </trkpt>
      <trkpt lat="43.9285" lon="6.39555">
        <ele>762</ele>
        <time>2014-04-29T08:40:27Z</time>
      </trkpt>
      <trkpt lat="43.92811" lon="6.3962">
        <ele>761</ele>
        <time>2014-04-29T08:40:35Z</time>
      </trkpt>
      <trkpt lat="43.92775" lon="6.39683">
        <ele>765</ele>
        <time>2014-04-29T08:40:43Z</time>
      </trkpt>
      <trkpt lat="43.92738" lon="6.39747">
        <ele>759</ele>
        <time>2014-04-29T08:40:51Z</time>
      </trkpt>
      <trkpt lat="43.92728" lon="6.39762">
        <ele>760</ele>
        <time>2014-04-29T08:40:53Z</time>
      </trkpt>
      <trkpt lat="43.92688" lon="6.39819">
        <ele>760</ele>
        <time>2014-04-29T08:41:01Z</time>
      </trkpt>
      <trkpt lat="43.92659" lon="6.3986">
        <ele>759</ele>
        <time>2014-04-29T08:41:07Z</time>
      </trkpt>
      <trkpt lat="43.92617" lon="6.39917">
        <ele>760</ele>
        <time>2014-04-29T08:41:15Z</time>
      </trkpt>
      <trkpt lat="43.92596" lon="6.39945">
        <ele>760</ele>
        <time>2014-04-29T08:41:19Z</time>
      </trkpt>
      <trkpt lat="43.92556" lon="6.40001">
        <ele>760</ele>
        <time>2014-04-29T08:41:27Z</time>
      </trkpt>
      <trkpt lat="43.92535" lon="6.40028">
        <ele>760</ele>
        <time>2014-04-29T08:41:31Z</time>
      </trkpt>
      <trkpt lat="43.92505" lon="6.40069">
        <ele>760</ele>
        <time>2014-04-29T08:41:37Z</time>
      </trkpt>
      <trkpt lat="43.92485" lon="6.40096">
        <ele>761</ele>
        <time>2014-04-29T08:41:41Z</time>
      </trkpt>
      <trkpt lat="43.92456" lon="6.40137">
        <ele>762</ele>
        <time>2014-04-29T08:41:47Z</time>
      </trkpt>
      <trkpt lat="43.92446" lon="6.40151">
        <ele>762</ele>
        <time>2014-04-29T08:41:49Z</time>
      </trkpt>
      <trkpt lat="43.92415" lon="6.40193">
        <ele>764</ele>
        <time>2014-04-29T08:41:55Z</time>
      </trkpt>
      <trkpt lat="43.92394" lon="6.40221">
        <ele>765</ele>
        <time>2014-04-29T08:41:59Z</time>
      </trkpt>
      <trkpt lat="43.92354" lon="6.40276">
        <ele>770</ele>
        <time>2014-04-29T08:42:07Z</time>
      </trkpt>
      <trkpt lat="43.92327" lon="6.40312">
        <ele>768</ele>
        <time>2014-04-29T08:42:13Z</time>
      </trkpt>
      <trkpt lat="43.92304" lon="6.40345">
        <ele>775</ele>
        <time>2014-04-29T08:42:17Z</time>
      </trkpt>
      <trkpt lat="43.92262" lon="6.40403">
        <ele>775</ele>
        <time>2014-04-29T08:42:25Z</time>
      </trkpt>
      <trkpt lat="43.92222" lon="6.40458">
        <ele>776</ele>
        <time>2014-04-29T08:42:33Z</time>
      </trkpt>
      <trkpt lat="43.92192" lon="6.40498">
        <ele>774</ele>
        <time>2014-04-29T08:42:39Z</time>
      </trkpt>
      <trkpt lat="43.92173" lon="6.40525">
        <ele>781</ele>
        <time>2014-04-29T08:42:43Z</time>
      </trkpt>
      <trkpt lat="43.92132" lon="6.40579">
        <ele>774</ele>
        <time>2014-04-29T08:42:51Z</time>
      </trkpt>
      <trkpt lat="43.92112" lon="6.40607">
        <ele>777</ele>
        <time>2014-04-29T08:42:55Z</time>
      </trkpt>
      <trkpt lat="43.9208" lon="6.40647">
        <ele>769</ele>
        <time>2014-04-29T08:43:01Z</time>
      </trkpt>
      <trkpt lat="43.9205" lon="6.40688">
        <ele>770</ele>
        <time>2014-04-29T08:43:07Z</time>
      </trkpt>
      <trkpt lat="43.92019" lon="6.40728">
        <ele>769</ele>
        <time>2014-04-29T08:43:13Z</time>
      </trkpt>
      <trkpt lat="43.91966" lon="6.40797">
        <ele>770</ele>
        <time>2014-04-29T08:43:23Z</time>
      </trkpt>
      <trkpt lat="43.9193" lon="6.4084">
        <ele>777</ele>
        <time>2014-04-29T08:43:29Z</time>
      </trkpt>
      <trkpt lat="43.91905" lon="6.40867">
        <ele>778</ele>
        <time>2014-04-29T08:43:33Z</time>
      </trkpt>
      <trkpt lat="43.91864" lon="6.40894">
        <ele>780</ele>
        <time>2014-04-29T08:43:39Z</time>
      </trkpt>
      <trkpt lat="43.91837" lon="6.40906">
        <ele>781</ele>
        <time>2014-04-29T08:43:43Z</time>
      </trkpt>
      <trkpt lat="43.91799" lon="6.40917">
        <ele>789</ele>
        <time>2014-04-29T08:43:49Z</time>
      </trkpt>
      <trkpt lat="43.91773" lon="6.40922">
        <ele>788</ele>
        <time>2014-04-29T08:43:53Z</time>
      </trkpt>
      <trkpt lat="43.91724" lon="6.40924">
        <ele>788</ele>
        <time>2014-04-29T08:44:01Z</time>
      </trkpt>
      <trkpt lat="43.91688" lon="6.40922">
        <ele>788</ele>
        <time>2014-04-29T08:44:07Z</time>
      </trkpt>
      <trkpt lat="43.91654" lon="6.40914">
        <ele>782</ele>
        <time>2014-04-29T08:44:13Z</time>
      </trkpt>
      <trkpt lat="43.91623" lon="6.40902">
        <ele>783</ele>
        <time>2014-04-29T08:44:19Z</time>
      </trkpt>
      <trkpt lat="43.91643" lon="6.40876">
        <ele>781</ele>
        <time>2014-04-29T08:44:32Z</time>
      </trkpt>
      <trkpt lat="43.91623" lon="6.40815">
        <ele>781</ele>
        <time>2014-04-29T08:44:40Z</time>
      </trkpt>
      <trkpt lat="43.9158" lon="6.40804">
        <ele>777</ele>
        <time>2014-04-29T08:44:45Z</time>
      </trkpt>
      <trkpt lat="43.91549" lon="6.40788">
        <ele>777</ele>
        <time>2014-04-29T08:44:49Z</time>
      </trkpt>
      <trkpt lat="43.91514" lon="6.40749">
        <ele>778</ele>
        <time>2014-04-29T08:44:55Z</time>
      </trkpt>
      <trkpt lat="43.91488" lon="6.40747">
        <ele>776</ele>
        <time>2014-04-29T08:44:59Z</time>
      </trkpt>
      <trkpt lat="43.91466" lon="6.40728">
        <ele>776</ele>
        <time>2014-04-29T08:45:03Z</time>
      </trkpt>
      <trkpt lat="43.91439" lon="6.40689">
        <ele>777</ele>
        <time>2014-04-29T08:45:09Z</time>
      </trkpt>
      <trkpt lat="43.91409" lon="6.40648">
        <ele>781</ele>
        <time>2014-04-29T08:45:17Z</time>
      </trkpt>
      <trkpt lat="43.91391" lon="6.40636">
        <ele>782</ele>
        <time>2014-04-29T08:45:21Z</time>
      </trkpt>
      <trkpt lat="43.91338" lon="6.40608">
        <ele>784</ele>
        <time>2014-04-29T08:45:31Z</time>
      </trkpt>
      <trkpt lat="43.91318" lon="6.40599">
        <ele>785</ele>
        <time>2014-04-29T08:45:35Z</time>
      </trkpt>
      <trkpt lat="43.91293" lon="6.40603">
        <ele>785</ele>
        <time>2014-04-29T08:47:57Z</time>
      </trkpt>
      <trkpt lat="43.91324" lon="6.40647">
        <ele>784</ele>
        <time>2014-04-29T08:48:07Z</time>
      </trkpt>
      <trkpt lat="43.91333" lon="6.40688">
        <ele>784</ele>
        <time>2014-04-29T08:48:14Z</time>
      </trkpt>
      <trkpt lat="43.91352" lon="6.40721">
        <ele>779</ele>
        <time>2014-04-29T08:48:29Z</time>
      </trkpt>
      <trkpt lat="43.91361" lon="6.40765">
        <ele>777</ele>
        <time>2014-04-29T08:48:43Z</time>
      </trkpt>
      <trkpt lat="43.9137" lon="6.40757">
        <ele>777</ele>
        <time>2014-04-29T08:48:59Z</time>
      </trkpt>
      <trkpt lat="43.91391" lon="6.40689">
        <ele>779</ele>
        <time>2014-04-29T08:49:18Z</time>
      </trkpt>
      <trkpt lat="43.91414" lon="6.40666">
        <ele>778</ele>
        <time>2014-04-29T08:49:29Z</time>
      </trkpt>
      <trkpt lat="43.91448" lon="6.40705">
        <ele>776</ele>
        <time>2014-04-29T08:49:38Z</time>
      </trkpt>
      <trkpt lat="43.91471" lon="6.40739">
        <ele>776</ele>
        <time>2014-04-29T08:49:44Z</time>
      </trkpt>
      <trkpt lat="43.91501" lon="6.40757">
        <ele>776</ele>
        <time>2014-04-29T08:49:50Z</time>
      </trkpt>
      <trkpt lat="43.91522" lon="6.4076">
        <ele>777</ele>
        <time>2014-04-29T08:49:54Z</time>
      </trkpt>
      <trkpt lat="43.91551" lon="6.40793">
        <ele>777</ele>
        <time>2014-04-29T08:50:00Z</time>
      </trkpt>
      <trkpt lat="43.91573" lon="6.40811">
        <ele>777</ele>
        <time>2014-04-29T08:50:04Z</time>
      </trkpt>
      <trkpt lat="43.9161" lon="6.40815">
        <ele>780</ele>
        <time>2014-04-29T08:50:10Z</time>
      </trkpt>
      <trkpt lat="43.91645" lon="6.40851">
        <ele>780</ele>
        <time>2014-04-29T08:50:19Z</time>
      </trkpt>
      <trkpt lat="43.91636" lon="6.40906">
        <ele>782</ele>
        <time>2014-04-29T08:50:32Z</time>
      </trkpt>
      <trkpt lat="43.91591" lon="6.40893">
        <ele>784</ele>
        <time>2014-04-29T08:50:42Z</time>
      </trkpt>
      <trkpt lat="43.91548" lon="6.40892">
        <ele>781</ele>
        <time>2014-04-29T08:50:50Z</time>
      </trkpt>
      <trkpt lat="43.91528" lon="6.40947">
        <ele>785</ele>
        <time>2014-04-29T08:50:58Z</time>
      </trkpt>
      <trkpt lat="43.91528" lon="6.40982">
        <ele>786</ele>
        <time>2014-04-29T08:51:02Z</time>
      </trkpt>
      <trkpt lat="43.91534" lon="6.41036">
        <ele>787</ele>
        <time>2014-04-29T08:51:08Z</time>
      </trkpt>
      <trkpt lat="43.91531" lon="6.41094">
        <ele>785</ele>
        <time>2014-04-29T08:51:14Z</time>
      </trkpt>
      <trkpt lat="43.91518" lon="6.41129">
        <ele>786</ele>
        <time>2014-04-29T08:51:18Z</time>
      </trkpt>
      <trkpt lat="43.9148" lon="6.41175">
        <ele>785</ele>
        <time>2014-04-29T08:51:26Z</time>
      </trkpt>
      <trkpt lat="43.91451" lon="6.4121">
        <ele>785</ele>
        <time>2014-04-29T08:51:32Z</time>
      </trkpt>
      <trkpt lat="43.91431" lon="6.41236">
        <ele>785</ele>
        <time>2014-04-29T08:51:36Z</time>
      </trkpt>
      <trkpt lat="43.91414" lon="6.41266">
        <ele>785</ele>
        <time>2014-04-29T08:51:40Z</time>
      </trkpt>
      <trkpt lat="43.9138" lon="6.41331">
        <ele>787</ele>
        <time>2014-04-29T08:51:48Z</time>
      </trkpt>
      <trkpt lat="43.91359" lon="6.41358">
        <ele>795</ele>
        <time>2014-04-29T08:51:52Z</time>
      </trkpt>
      <trkpt lat="43.91336" lon="6.41378">
        <ele>796</ele>
        <time>2014-04-29T08:51:56Z</time>
      </trkpt>
      <trkpt lat="43.91312" lon="6.41393">
        <ele>791</ele>
        <time>2014-04-29T08:52:00Z</time>
      </trkpt>
      <trkpt lat="43.91287" lon="6.41403">
        <ele>791</ele>
        <time>2014-04-29T08:52:04Z</time>
      </trkpt>
      <trkpt lat="43.9125" lon="6.4141">
        <ele>792</ele>
        <time>2014-04-29T08:52:10Z</time>
      </trkpt>
      <trkpt lat="43.91205" lon="6.41416">
        <ele>789</ele>
        <time>2014-04-29T08:52:18Z</time>
      </trkpt>
      <trkpt lat="43.91183" lon="6.41424">
        <ele>797</ele>
        <time>2014-04-29T08:52:22Z</time>
      </trkpt>
      <trkpt lat="43.91151" lon="6.41441">
        <ele>799</ele>
        <time>2014-04-29T08:52:28Z</time>
      </trkpt>
      <trkpt lat="43.91106" lon="6.41461">
        <ele>801</ele>
        <time>2014-04-29T08:52:36Z</time>
      </trkpt>
      <trkpt lat="43.91072" lon="6.4147">
        <ele>798</ele>
        <time>2014-04-29T08:52:42Z</time>
      </trkpt>
      <trkpt lat="43.91038" lon="6.41476">
        <ele>797</ele>
        <time>2014-04-29T08:52:48Z</time>
      </trkpt>
      <trkpt lat="43.91016" lon="6.41481">
        <ele>796</ele>
        <time>2014-04-29T08:52:52Z</time>
      </trkpt>
      <trkpt lat="43.90987" lon="6.415">
        <ele>797</ele>
        <time>2014-04-29T08:52:58Z</time>
      </trkpt>
      <trkpt lat="43.90953" lon="6.41542">
        <ele>801</ele>
        <time>2014-04-29T08:53:06Z</time>
      </trkpt>
      <trkpt lat="43.90927" lon="6.41591">
        <ele>804</ele>
        <time>2014-04-29T08:53:14Z</time>
      </trkpt>
      <trkpt lat="43.90894" lon="6.41632">
        <ele>801</ele>
        <time>2014-04-29T08:53:22Z</time>
      </trkpt>
      <trkpt lat="43.90854" lon="6.41646">
        <ele>799</ele>
        <time>2014-04-29T08:53:30Z</time>
      </trkpt>
      <trkpt lat="43.90826" lon="6.41661">
        <ele>798</ele>
        <time>2014-04-29T08:53:36Z</time>
      </trkpt>
      <trkpt lat="43.90788" lon="6.41689">
        <ele>804</ele>
        <time>2014-04-29T08:53:45Z</time>
      </trkpt>
      <trkpt lat="43.90743" lon="6.41709">
        <ele>803</ele>
        <time>2014-04-29T08:53:53Z</time>
      </trkpt>
      <trkpt lat="43.90702" lon="6.41708">
        <ele>803</ele>
        <time>2014-04-29T08:53:59Z</time>
      </trkpt>
      <trkpt lat="43.90658" lon="6.41707">
        <ele>803</ele>
        <time>2014-04-29T08:54:05Z</time>
      </trkpt>
      <trkpt lat="43.90581" lon="6.41714">
        <ele>803</ele>
        <time>2014-04-29T08:54:15Z</time>
      </trkpt>
      <trkpt lat="43.90532" lon="6.41721">
        <ele>803</ele>
        <time>2014-04-29T08:54:21Z</time>
      </trkpt>
      <trkpt lat="43.90488" lon="6.41727">
        <ele>804</ele>
        <time>2014-04-29T08:54:27Z</time>
      </trkpt>
      <trkpt lat="43.90461" lon="6.41736">
        <ele>803</ele>
        <time>2014-04-29T08:54:31Z</time>
      </trkpt>
      <trkpt lat="43.90421" lon="6.41757">
        <ele>810</ele>
        <time>2014-04-29T08:54:37Z</time>
      </trkpt>
      <trkpt lat="43.90367" lon="6.41766">
        <ele>814</ele>
        <time>2014-04-29T08:54:45Z</time>
      </trkpt>
      <trkpt lat="43.90318" lon="6.41779">
        <ele>812</ele>
        <time>2014-04-29T08:54:53Z</time>
      </trkpt>
      <trkpt lat="43.90284" lon="6.41788">
        <ele>813</ele>
        <time>2014-04-29T08:54:59Z</time>
      </trkpt>
      <trkpt lat="43.90263" lon="6.41795">
        <ele>813</ele>
        <time>2014-04-29T08:55:03Z</time>
      </trkpt>
      <trkpt lat="43.90209" lon="6.41822">
        <ele>811</ele>
        <time>2014-04-29T08:55:13Z</time>
      </trkpt>
      <trkpt lat="43.90166" lon="6.41845">
        <ele>810</ele>
        <time>2014-04-29T08:55:21Z</time>
      </trkpt>
      <trkpt lat="43.90119" lon="6.4187">
        <ele>811</ele>
        <time>2014-04-29T08:55:29Z</time>
      </trkpt>
      <trkpt lat="43.90093" lon="6.41885">
        <ele>811</ele>
        <time>2014-04-29T08:55:33Z</time>
      </trkpt>
      <trkpt lat="43.90036" lon="6.41917">
        <ele>810</ele>
        <time>2014-04-29T08:55:41Z</time>
      </trkpt>
      <trkpt lat="43.90021" lon="6.41926">
        <ele>809</ele>
        <time>2014-04-29T08:55:43Z</time>
      </trkpt>
      <trkpt lat="43.89958" lon="6.41961">
        <ele>809</ele>
        <time>2014-04-29T08:55:51Z</time>
      </trkpt>
      <trkpt lat="43.89924" lon="6.41978">
        <ele>809</ele>
        <time>2014-04-29T08:55:55Z</time>
      </trkpt>
      <trkpt lat="43.89889" lon="6.41991">
        <ele>808</ele>
        <time>2014-04-29T08:55:59Z</time>
      </trkpt>
      <trkpt lat="43.89853" lon="6.42003">
        <ele>812</ele>
        <time>2014-04-29T08:56:03Z</time>
      </trkpt>
      <trkpt lat="43.89806" lon="6.42018">
        <ele>811</ele>
        <time>2014-04-29T08:56:08Z</time>
      </trkpt>
      <trkpt lat="43.89759" lon="6.42033">
        <ele>811</ele>
        <time>2014-04-29T08:56:13Z</time>
      </trkpt>
      <trkpt lat="43.89731" lon="6.42042">
        <ele>808</ele>
        <time>2014-04-29T08:56:16Z</time>
      </trkpt>
      <trkpt lat="43.89685" lon="6.42057">
        <ele>808</ele>
        <time>2014-04-29T08:56:21Z</time>
      </trkpt>
      <trkpt lat="43.89666" lon="6.42063">
        <ele>807</ele>
        <time>2014-04-29T08:56:23Z</time>
      </trkpt>
      <trkpt lat="43.89613" lon="6.4208">
        <ele>806</ele>
        <time>2014-04-29T08:56:29Z</time>
      </trkpt>
      <trkpt lat="43.89597" lon="6.42084">
        <ele>808</ele>
        <time>2014-04-29T08:56:31Z</time>
      </trkpt>
      <trkpt lat="43.89534" lon="6.4209">
        <ele>808</ele>
        <time>2014-04-29T08:56:39Z</time>
      </trkpt>
      <trkpt lat="43.89472" lon="6.42095">
        <ele>809</ele>
        <time>2014-04-29T08:56:47Z</time>
      </trkpt>
      <trkpt lat="43.89421" lon="6.421">
        <ele>809</ele>
        <time>2014-04-29T08:56:53Z</time>
      </trkpt>
      <trkpt lat="43.89356" lon="6.42105">
        <ele>809</ele>
        <time>2014-04-29T08:57:01Z</time>
      </trkpt>
      <trkpt lat="43.8931" lon="6.42108">
        <ele>809</ele>
        <time>2014-04-29T08:57:07Z</time>
      </trkpt>
      <trkpt lat="43.89274" lon="6.42134">
        <ele>810</ele>
        <time>2014-04-29T08:57:13Z</time>
      </trkpt>
      <trkpt lat="43.89261" lon="6.42167">
        <ele>812</ele>
        <time>2014-04-29T08:57:17Z</time>
      </trkpt>
      <trkpt lat="43.89242" lon="6.42231">
        <ele>813</ele>
        <time>2014-04-29T08:57:25Z</time>
      </trkpt>
      <trkpt lat="43.89222" lon="6.42289">
        <ele>814</ele>
        <time>2014-04-29T08:57:33Z</time>
      </trkpt>
      <trkpt lat="43.89213" lon="6.42318">
        <ele>814</ele>
        <time>2014-04-29T08:57:37Z</time>
      </trkpt>
      <trkpt lat="43.89194" lon="6.42375">
        <ele>817</ele>
        <time>2014-04-29T08:57:45Z</time>
      </trkpt>
      <trkpt lat="43.89179" lon="6.42418">
        <ele>820</ele>
        <time>2014-04-29T08:57:51Z</time>
      </trkpt>
      <trkpt lat="43.8916" lon="6.42459">
        <ele>820</ele>
        <time>2014-04-29T08:57:57Z</time>
      </trkpt>
      <trkpt lat="43.89127" lon="6.42518">
        <ele>828</ele>
        <time>2014-04-29T08:58:07Z</time>
      </trkpt>
      <trkpt lat="43.89119" lon="6.42541">
        <ele>829</ele>
        <time>2014-04-29T09:04:37Z</time>
      </trkpt>
      <trkpt lat="43.89086" lon="6.42599">
        <ele>831</ele>
        <time>2014-04-29T09:05:03Z</time>
      </trkpt>
      <trkpt lat="43.89056" lon="6.42653">
        <ele>827</ele>
        <time>2014-04-29T09:05:15Z</time>
      </trkpt>
      <trkpt lat="43.89041" lon="6.42685">
        <ele>831</ele>
        <time>2014-04-29T09:05:19Z</time>
      </trkpt>
      <trkpt lat="43.89014" lon="6.42735">
        <ele>830</ele>
        <time>2014-04-29T09:05:27Z</time>
      </trkpt>
      <trkpt lat="43.89002" lon="6.4276">
        <ele>831</ele>
        <time>2014-04-29T09:05:31Z</time>
      </trkpt>
      <trkpt lat="43.88978" lon="6.42809">
        <ele>831</ele>
        <time>2014-04-29T09:05:40Z</time>
      </trkpt>
      <trkpt lat="43.88957" lon="6.4285">
        <ele>835</ele>
        <time>2014-04-29T09:05:49Z</time>
      </trkpt>
      <trkpt lat="43.88924" lon="6.42904">
        <ele>834</ele>
        <time>2014-04-29T09:06:03Z</time>
      </trkpt>
      <trkpt lat="43.88888" lon="6.42973">
        <ele>839</ele>
        <time>2014-04-29T09:06:16Z</time>
      </trkpt>
      <trkpt lat="43.88874" lon="6.43034">
        <ele>846</ele>
        <time>2014-04-29T09:06:27Z</time>
      </trkpt>
      <trkpt lat="43.88877" lon="6.43086">
        <ele>853</ele>
        <time>2014-04-29T09:06:36Z</time>
      </trkpt>
      <trkpt lat="43.88885" lon="6.43156">
        <ele>854</ele>
        <time>2014-04-29T09:06:48Z</time>
      </trkpt>
      <trkpt lat="43.88887" lon="6.43173">
        <ele>856</ele>
        <time>2014-04-29T09:06:51Z</time>
      </trkpt>
      <trkpt lat="43.88891" lon="6.43237">
        <ele>858</ele>
        <time>2014-04-29T09:07:03Z</time>
      </trkpt>
      <trkpt lat="43.88891" lon="6.43253">
        <ele>861</ele>
        <time>2014-04-29T09:07:06Z</time>
      </trkpt>
      <trkpt lat="43.88895" lon="6.43317">
        <ele>863</ele>
        <time>2014-04-29T09:07:18Z</time>
      </trkpt>
      <trkpt lat="43.88895" lon="6.43367">
        <ele>867</ele>
        <time>2014-04-29T09:07:27Z</time>
      </trkpt>
      <trkpt lat="43.88866" lon="6.43408">
        <ele>869</ele>
        <time>2014-04-29T09:07:38Z</time>
      </trkpt>
      <trkpt lat="43.8884" lon="6.43366">
        <ele>867</ele>
        <time>2014-04-29T09:07:50Z</time>
      </trkpt>
      <trkpt lat="43.88841" lon="6.43303">
        <ele>862</ele>
        <time>2014-04-29T09:08:02Z</time>
      </trkpt>
      <trkpt lat="43.88834" lon="6.43259">
        <ele>860</ele>
        <time>2014-04-29T09:08:11Z</time>
      </trkpt>
      <trkpt lat="43.88819" lon="6.43221">
        <ele>856</ele>
        <time>2014-04-29T09:08:20Z</time>
      </trkpt>
      <trkpt lat="43.8878" lon="6.43205">
        <ele>855</ele>
        <time>2014-04-29T09:08:32Z</time>
      </trkpt>
      <trkpt lat="43.88761" lon="6.43219">
        <ele>856</ele>
        <time>2014-04-29T09:08:38Z</time>
      </trkpt>
      <trkpt lat="43.88745" lon="6.43258">
        <ele>862</ele>
        <time>2014-04-29T09:08:47Z</time>
      </trkpt>
      <trkpt lat="43.88744" lon="6.43336">
        <ele>871</ele>
        <time>2014-04-29T09:09:02Z</time>
      </trkpt>
      <trkpt lat="43.88744" lon="6.43397">
        <ele>871</ele>
        <time>2014-04-29T09:09:14Z</time>
      </trkpt>
      <trkpt lat="43.88743" lon="6.43443">
        <ele>877</ele>
        <time>2014-04-29T09:09:23Z</time>
      </trkpt>
      <trkpt lat="43.88718" lon="6.43496">
        <ele>879</ele>
        <time>2014-04-29T09:09:35Z</time>
      </trkpt>
      <trkpt lat="43.88689" lon="6.43524">
        <ele>886</ele>
        <time>2014-04-29T09:09:44Z</time>
      </trkpt>
      <trkpt lat="43.88673" lon="6.43546">
        <ele>889</ele>
        <time>2014-04-29T09:09:50Z</time>
      </trkpt>
      <trkpt lat="43.88646" lon="6.43615">
        <ele>892</ele>
        <time>2014-04-29T09:10:05Z</time>
      </trkpt>
      <trkpt lat="43.88628" lon="6.43635">
        <ele>893</ele>
        <time>2014-04-29T09:10:11Z</time>
      </trkpt>
      <trkpt lat="43.88601" lon="6.43662">
        <ele>892</ele>
        <time>2014-04-29T09:10:20Z</time>
      </trkpt>
      <trkpt lat="43.88573" lon="6.43709">
        <ele>895</ele>
        <time>2014-04-29T09:10:32Z</time>
      </trkpt>
      <trkpt lat="43.8855" lon="6.43762">
        <ele>907</ele>
        <time>2014-04-29T09:10:44Z</time>
      </trkpt>
      <trkpt lat="43.88536" lon="6.43789">
        <ele>909</ele>
        <time>2014-04-29T09:10:50Z</time>
      </trkpt>
      <trkpt lat="43.88508" lon="6.43813">
        <ele>911</ele>
        <time>2014-04-29T09:10:59Z</time>
      </trkpt>
      <trkpt lat="43.88476" lon="6.43794">
        <ele>915</ele>
        <time>2014-04-29T09:11:08Z</time>
      </trkpt>
      <trkpt lat="43.88448" lon="6.4374">
        <ele>902</ele>
        <time>2014-04-29T09:11:20Z</time>
      </trkpt>
      <trkpt lat="43.88408" lon="6.4372">
        <ele>909</ele>
        <time>2014-04-29T09:11:32Z</time>
      </trkpt>
      <trkpt lat="43.88364" lon="6.43716">
        <ele>908</ele>
        <time>2014-04-29T09:11:44Z</time>
      </trkpt>
      <trkpt lat="43.88319" lon="6.43731">
        <ele>913</ele>
        <time>2014-04-29T09:11:56Z</time>
      </trkpt>
      <trkpt lat="43.88292" lon="6.43756">
        <ele>929</ele>
        <time>2014-04-29T09:12:05Z</time>
      </trkpt>
      <trkpt lat="43.88273" lon="6.4377">
        <ele>928</ele>
        <time>2014-04-29T09:12:11Z</time>
      </trkpt>
      <trkpt lat="43.88238" lon="6.43802">
        <ele>925</ele>
        <time>2014-04-29T09:12:23Z</time>
      </trkpt>
      <trkpt lat="43.88193" lon="6.43832">
        <ele>922</ele>
        <time>2014-04-29T09:12:38Z</time>
      </trkpt>
      <trkpt lat="43.88167" lon="6.43878">
        <ele>926</ele>
        <time>2014-04-29T09:12:50Z</time>
      </trkpt>
      <trkpt lat="43.88195" lon="6.43921">
        <ele>955</ele>
        <time>2014-04-29T09:13:05Z</time>
      </trkpt>
      <trkpt lat="43.88236" lon="6.43933">
        <ele>956</ele>
        <time>2014-04-29T09:13:17Z</time>
      </trkpt>
      <trkpt lat="43.88272" lon="6.43908">
        <ele>950</ele>
        <time>2014-04-29T09:13:29Z</time>
      </trkpt>
      <trkpt lat="43.88282" lon="6.4388">
        <ele>950</ele>
        <time>2014-04-29T09:13:35Z</time>
      </trkpt>
      <trkpt lat="43.88289" lon="6.43836">
        <ele>947</ele>
        <time>2014-04-29T09:13:44Z</time>
      </trkpt>
      <trkpt lat="43.88332" lon="6.43839">
        <ele>949</ele>
        <time>2014-04-29T09:13:57Z</time>
      </trkpt>
      <trkpt lat="43.88359" lon="6.43882">
        <ele>953</ele>
        <time>2014-04-29T09:14:09Z</time>
      </trkpt>
      <trkpt lat="43.88376" lon="6.439">
        <ele>954</ele>
        <time>2014-04-29T09:14:15Z</time>
      </trkpt>
      <trkpt lat="43.88405" lon="6.43922">
        <ele>960</ele>
        <time>2014-04-29T09:14:24Z</time>
      </trkpt>
      <trkpt lat="43.88425" lon="6.43934">
        <ele>957</ele>
        <time>2014-04-29T09:14:30Z</time>
      </trkpt>
      <trkpt lat="43.88432" lon="6.43969">
        <ele>964</ele>
        <time>2014-04-29T09:14:39Z</time>
      </trkpt>
      <trkpt lat="43.88412" lon="6.43972">
        <ele>970</ele>
        <time>2014-04-29T09:14:45Z</time>
      </trkpt>
      <trkpt lat="43.88383" lon="6.4395">
        <ele>968</ele>
        <time>2014-04-29T09:14:54Z</time>
      </trkpt>
      <trkpt lat="43.88341" lon="6.43936">
        <ele>968</ele>
        <time>2014-04-29T09:15:06Z</time>
      </trkpt>
      <trkpt lat="43.88313" lon="6.43957">
        <ele>970</ele>
        <time>2014-04-29T09:15:15Z</time>
      </trkpt>
      <trkpt lat="43.88298" lon="6.43979">
        <ele>971</ele>
        <time>2014-04-29T09:15:21Z</time>
      </trkpt>
      <trkpt lat="43.88273" lon="6.44006">
        <ele>986</ele>
        <time>2014-04-29T09:15:30Z</time>
      </trkpt>
      <trkpt lat="43.88254" lon="6.44018">
        <ele>986</ele>
        <time>2014-04-29T09:15:36Z</time>
      </trkpt>
      <trkpt lat="43.88213" lon="6.44024">
        <ele>990</ele>
        <time>2014-04-29T09:15:48Z</time>
      </trkpt>
      <trkpt lat="43.88174" lon="6.44016">
        <ele>986</ele>
        <time>2014-04-29T09:16:00Z</time>
      </trkpt>
      <trkpt lat="43.88154" lon="6.4402">
        <ele>984</ele>
        <time>2014-04-29T09:16:06Z</time>
      </trkpt>
      <trkpt lat="43.88105" lon="6.44036">
        <ele>984</ele>
        <time>2014-04-29T09:16:21Z</time>
      </trkpt>
      <trkpt lat="43.88098" lon="6.44072">
        <ele>991</ele>
        <time>2014-04-29T09:16:31Z</time>
      </trkpt>
      <trkpt lat="43.88079" lon="6.44113">
        <ele>1000</ele>
        <time>2014-04-29T09:16:43Z</time>
      </trkpt>
      <trkpt lat="43.88021" lon="6.44134">
        <ele>998</ele>
        <time>2014-04-29T09:17:01Z</time>
      </trkpt>
      <trkpt lat="43.87995" lon="6.44148">
        <ele>986</ele>
        <time>2014-04-29T09:17:10Z</time>
      </trkpt>
      <trkpt lat="43.87977" lon="6.44181">
        <ele>997</ele>
        <time>2014-04-29T09:17:26Z</time>
      </trkpt>
      <trkpt lat="43.87976" lon="6.44218">
        <ele>1003</ele>
        <time>2014-04-29T09:19:38Z</time>
      </trkpt>
      <trkpt lat="43.87982" lon="6.44261">
        <ele>1026</ele>
        <time>2014-04-29T09:19:51Z</time>
      </trkpt>
      <trkpt lat="43.87951" lon="6.44279">
        <ele>1021</ele>
        <time>2014-04-29T09:20:03Z</time>
      </trkpt>
      <trkpt lat="43.87919" lon="6.4431">
        <ele>1021</ele>
        <time>2014-04-29T09:20:17Z</time>
      </trkpt>
      <trkpt lat="43.879" lon="6.44353">
        <ele>1024</ele>
        <time>2014-04-29T09:20:29Z</time>
      </trkpt>
      <trkpt lat="43.87875" lon="6.44373">
        <ele>1025</ele>
        <time>2014-04-29T09:20:38Z</time>
      </trkpt>
      <trkpt lat="43.87835" lon="6.4441">
        <ele>1029</ele>
        <time>2014-04-29T09:20:53Z</time>
      </trkpt>
      <trkpt lat="43.87789" lon="6.44434">
        <ele>1059</ele>
        <time>2014-04-29T09:21:08Z</time>
      </trkpt>
      <trkpt lat="43.87769" lon="6.44433">
        <ele>1059</ele>
        <time>2014-04-29T09:21:14Z</time>
      </trkpt>
      <trkpt lat="43.87749" lon="6.44396">
        <ele>1048</ele>
        <time>2014-04-29T09:21:23Z</time>
      </trkpt>
      <trkpt lat="43.8773" lon="6.44374">
        <ele>1047</ele>
        <time>2014-04-29T09:21:29Z</time>
      </trkpt>
      <trkpt lat="43.87693" lon="6.44375">
        <ele>1049</ele>
        <time>2014-04-29T09:21:38Z</time>
      </trkpt>
      <trkpt lat="43.87673" lon="6.44387">
        <ele>1049</ele>
        <time>2014-04-29T09:21:43Z</time>
      </trkpt>
      <trkpt lat="43.87642" lon="6.44386">
        <ele>1049</ele>
        <time>2014-04-29T09:21:50Z</time>
      </trkpt>
      <trkpt lat="43.87595" lon="6.444">
        <ele>1048</ele>
        <time>2014-04-29T09:22:00Z</time>
      </trkpt>
      <trkpt lat="43.87553" lon="6.44399">
        <ele>1047</ele>
        <time>2014-04-29T09:22:08Z</time>
      </trkpt>
      <trkpt lat="43.87521" lon="6.44405">
        <ele>1046</ele>
        <time>2014-04-29T09:22:14Z</time>
      </trkpt>
      <trkpt lat="43.875" lon="6.44418">
        <ele>1044</ele>
        <time>2014-04-29T09:22:18Z</time>
      </trkpt>
      <trkpt lat="43.87457" lon="6.44447">
        <ele>1046</ele>
        <time>2014-04-29T09:22:26Z</time>
      </trkpt>
      <trkpt lat="43.87437" lon="6.44466">
        <ele>1046</ele>
        <time>2014-04-29T09:22:30Z</time>
      </trkpt>
      <trkpt lat="43.87407" lon="6.44505">
        <ele>1045</ele>
        <time>2014-04-29T09:22:36Z</time>
      </trkpt>
      <trkpt lat="43.87361" lon="6.44549">
        <ele>1049</ele>
        <time>2014-04-29T09:22:44Z</time>
      </trkpt>
      <trkpt lat="43.87326" lon="6.44573">
        <ele>1051</ele>
        <time>2014-04-29T09:22:50Z</time>
      </trkpt>
      <trkpt lat="43.87289" lon="6.44619">
        <ele>1060</ele>
        <time>2014-04-29T09:22:58Z</time>
      </trkpt>
      <trkpt lat="43.87266" lon="6.44637">
        <ele>1060</ele>
        <time>2014-04-29T09:23:02Z</time>
      </trkpt>
      <trkpt lat="43.87241" lon="6.44647">
        <ele>1060</ele>
        <time>2014-04-29T09:23:06Z</time>
      </trkpt>
      <trkpt lat="43.87191" lon="6.44666">
        <ele>1058</ele>
        <time>2014-04-29T09:23:14Z</time>
      </trkpt>
      <trkpt lat="43.87153" lon="6.44681">
        <ele>1054</ele>
        <time>2014-04-29T09:23:20Z</time>
      </trkpt>
      <trkpt lat="43.87116" lon="6.44724">
        <ele>1054</ele>
        <time>2014-04-29T09:23:28Z</time>
      </trkpt>
      <trkpt lat="43.87107" lon="6.44772">
        <ele>1052</ele>
        <time>2014-04-29T09:23:34Z</time>
      </trkpt>
      <trkpt lat="43.87088" lon="6.44832">
        <ele>1052</ele>
        <time>2014-04-29T09:23:42Z</time>
      </trkpt>
      <trkpt lat="43.87063" lon="6.44867">
        <ele>1053</ele>
        <time>2014-04-29T09:23:48Z</time>
      </trkpt>
      <trkpt lat="43.87033" lon="6.44915">
        <ele>1054</ele>
        <time>2014-04-29T09:23:56Z</time>
      </trkpt>
      <trkpt lat="43.8701" lon="6.44955">
        <ele>1055</ele>
        <time>2014-04-29T09:24:02Z</time>
      </trkpt>
      <trkpt lat="43.86988" lon="6.44994">
        <ele>1056</ele>
        <time>2014-04-29T09:24:08Z</time>
      </trkpt>
      <trkpt lat="43.86959" lon="6.45043">
        <ele>1058</ele>
        <time>2014-04-29T09:24:16Z</time>
      </trkpt>
      <trkpt lat="43.86945" lon="6.45065">
        <ele>1058</ele>
        <time>2014-04-29T09:24:20Z</time>
      </trkpt>
      <trkpt lat="43.86919" lon="6.45109">
        <ele>1062</ele>
        <time>2014-04-29T09:24:28Z</time>
      </trkpt>
      <trkpt lat="43.86901" lon="6.45137">
        <ele>1062</ele>
        <time>2014-04-29T09:24:34Z</time>
      </trkpt>
      <trkpt lat="43.86875" lon="6.45182">
        <ele>1068</ele>
        <time>2014-04-29T09:24:42Z</time>
      </trkpt>
      <trkpt lat="43.86849" lon="6.45227">
        <ele>1069</ele>
        <time>2014-04-29T09:24:50Z</time>
      </trkpt>
      <trkpt lat="43.86823" lon="6.45285">
        <ele>1071</ele>
        <time>2014-04-29T09:25:00Z</time>
      </trkpt>
      <trkpt lat="43.86799" lon="6.45342">
        <ele>1072</ele>
        <time>2014-04-29T09:25:08Z</time>
      </trkpt>
      <trkpt lat="43.86786" lon="6.45368">
        <ele>1072</ele>
        <time>2014-04-29T09:25:12Z</time>
      </trkpt>
      <trkpt lat="43.86745" lon="6.45414">
        <ele>1070</ele>
        <time>2014-04-29T09:25:22Z</time>
      </trkpt>
      <trkpt lat="43.86727" lon="6.45425">
        <ele>1072</ele>
        <time>2014-04-29T09:25:26Z</time>
      </trkpt>
      <trkpt lat="43.8669" lon="6.45435">
        <ele>1073</ele>
        <time>2014-04-29T09:25:34Z</time>
      </trkpt>
      <trkpt lat="43.86665" lon="6.45449">
        <ele>1075</ele>
        <time>2014-04-29T09:25:40Z</time>
      </trkpt>
      <trkpt lat="43.86627" lon="6.45486">
        <ele>1077</ele>
        <time>2014-04-29T09:25:52Z</time>
      </trkpt>
      <trkpt lat="43.86607" lon="6.45537">
        <ele>1082</ele>
        <time>2014-04-29T09:26:04Z</time>
      </trkpt>
      <trkpt lat="43.86592" lon="6.45595">
        <ele>1086</ele>
        <time>2014-04-29T09:26:16Z</time>
      </trkpt>
      <trkpt lat="43.86578" lon="6.45637">
        <ele>1088</ele>
        <time>2014-04-29T09:26:25Z</time>
      </trkpt>
      <trkpt lat="43.86568" lon="6.45681">
        <ele>1091</ele>
        <time>2014-04-29T09:26:34Z</time>
      </trkpt>
      <trkpt lat="43.86567" lon="6.45729">
        <ele>1093</ele>
        <time>2014-04-29T09:26:43Z</time>
      </trkpt>
      <trkpt lat="43.86561" lon="6.45759">
        <ele>1096</ele>
        <time>2014-04-29T09:26:49Z</time>
      </trkpt>
      <trkpt lat="43.86545" lon="6.45817">
        <ele>1098</ele>
        <time>2014-04-29T09:27:01Z</time>
      </trkpt>
      <trkpt lat="43.86537" lon="6.45846">
        <ele>1103</ele>
        <time>2014-04-29T09:27:07Z</time>
      </trkpt>
      <trkpt lat="43.86521" lon="6.45902">
        <ele>1104</ele>
        <time>2014-04-29T09:27:19Z</time>
      </trkpt>
      <trkpt lat="43.86514" lon="6.45931">
        <ele>1107</ele>
        <time>2014-04-29T09:27:25Z</time>
      </trkpt>
      <trkpt lat="43.86508" lon="6.45977">
        <ele>1110</ele>
        <time>2014-04-29T09:27:34Z</time>
      </trkpt>
      <trkpt lat="43.86502" lon="6.46037">
        <ele>1115</ele>
        <time>2014-04-29T09:27:46Z</time>
      </trkpt>
      <trkpt lat="43.86492" lon="6.46126">
        <ele>1121</ele>
        <time>2014-04-29T09:28:04Z</time>
      </trkpt>
      <trkpt lat="43.86522" lon="6.46132">
        <ele>1125</ele>
        <time>2014-04-29T09:28:16Z</time>
      </trkpt>
      <trkpt lat="43.86538" lon="6.46086">
        <ele>1124</ele>
        <time>2014-04-29T09:28:25Z</time>
      </trkpt>
      <trkpt lat="43.86558" lon="6.46027">
        <ele>1120</ele>
        <time>2014-04-29T09:28:37Z</time>
      </trkpt>
      <trkpt lat="43.86572" lon="6.45986">
        <ele>1118</ele>
        <time>2014-04-29T09:28:46Z</time>
      </trkpt>
      <trkpt lat="43.86592" lon="6.45953">
        <ele>1127</ele>
        <time>2014-04-29T09:28:55Z</time>
      </trkpt>
      <trkpt lat="43.86632" lon="6.45921">
        <ele>1130</ele>
        <time>2014-04-29T09:29:07Z</time>
      </trkpt>
      <trkpt lat="43.86648" lon="6.45927">
        <ele>1133</ele>
        <time>2014-04-29T09:29:13Z</time>
      </trkpt>
      <trkpt lat="43.86626" lon="6.45982">
        <ele>1132</ele>
        <time>2014-04-29T09:29:25Z</time>
      </trkpt>
      <trkpt lat="43.86608" lon="6.46043">
        <ele>1134</ele>
        <time>2014-04-29T09:29:37Z</time>
      </trkpt>
      <trkpt lat="43.86586" lon="6.46102">
        <ele>1136</ele>
        <time>2014-04-29T09:29:49Z</time>
      </trkpt>
      <trkpt lat="43.86575" lon="6.46132">
        <ele>1130</ele>
        <time>2014-04-29T09:29:55Z</time>
      </trkpt>
      <trkpt lat="43.86551" lon="6.46208">
        <ele>1138</ele>
        <time>2014-04-29T09:30:10Z</time>
      </trkpt>
      <trkpt lat="43.86548" lon="6.46224">
        <ele>1138</ele>
        <time>2014-04-29T09:30:13Z</time>
      </trkpt>
      <trkpt lat="43.86546" lon="6.46288">
        <ele>1145</ele>
        <time>2014-04-29T09:30:25Z</time>
      </trkpt>
      <trkpt lat="43.86545" lon="6.4635">
        <ele>1148</ele>
        <time>2014-04-29T09:30:37Z</time>
      </trkpt>
      <trkpt lat="43.8655" lon="6.46419">
        <ele>1148</ele>
        <time>2014-04-29T09:35:13Z</time>
      </trkpt>
      <trkpt lat="43.86526" lon="6.4648">
        <ele>1146</ele>
        <time>2014-04-29T09:35:41Z</time>
      </trkpt>
      <trkpt lat="43.86508" lon="6.46533">
        <ele>1145</ele>
        <time>2014-04-29T09:35:49Z</time>
      </trkpt>
      <trkpt lat="43.86498" lon="6.46584">
        <ele>1140</ele>
        <time>2014-04-29T09:35:55Z</time>
      </trkpt>
      <trkpt lat="43.86499" lon="6.46646">
        <ele>1132</ele>
        <time>2014-04-29T09:36:05Z</time>
      </trkpt>
      <trkpt lat="43.86557" lon="6.46685">
        <ele>1138</ele>
        <time>2014-04-29T09:38:10Z</time>
      </trkpt>
      <trkpt lat="43.86579" lon="6.46716">
        <ele>1136</ele>
        <time>2014-04-29T09:38:14Z</time>
      </trkpt>
      <trkpt lat="43.86604" lon="6.46777">
        <ele>1130</ele>
        <time>2014-04-29T09:38:20Z</time>
      </trkpt>
      <trkpt lat="43.86633" lon="6.46801">
        <ele>1129</ele>
        <time>2014-04-29T09:38:24Z</time>
      </trkpt>
      <trkpt lat="43.8665" lon="6.46795">
        <ele>1130</ele>
        <time>2014-04-29T09:38:26Z</time>
      </trkpt>
      <trkpt lat="43.86696" lon="6.46767">
        <ele>1130</ele>
        <time>2014-04-29T09:38:31Z</time>
      </trkpt>
      <trkpt lat="43.86736" lon="6.46762">
        <ele>1129</ele>
        <time>2014-04-29T09:38:35Z</time>
      </trkpt>
      <trkpt lat="43.86766" lon="6.46771">
        <ele>1127</ele>
        <time>2014-04-29T09:38:38Z</time>
      </trkpt>
      <trkpt lat="43.86806" lon="6.46762">
        <ele>1127</ele>
        <time>2014-04-29T09:38:42Z</time>
      </trkpt>
      <trkpt lat="43.86843" lon="6.46737">
        <ele>1135</ele>
        <time>2014-04-29T09:38:46Z</time>
      </trkpt>
      <trkpt lat="43.86871" lon="6.46751">
        <ele>1131</ele>
        <time>2014-04-29T09:38:49Z</time>
      </trkpt>
      <trkpt lat="43.86898" lon="6.46798">
        <ele>1131</ele>
        <time>2014-04-29T09:38:53Z</time>
      </trkpt>
      <trkpt lat="43.869" lon="6.46842">
        <ele>1128</ele>
        <time>2014-04-29T09:38:56Z</time>
      </trkpt>
      <trkpt lat="43.86893" lon="6.4687">
        <ele>1125</ele>
        <time>2014-04-29T09:38:58Z</time>
      </trkpt>
      <trkpt lat="43.86896" lon="6.46928">
        <ele>1124</ele>
        <time>2014-04-29T09:39:02Z</time>
      </trkpt>
      <trkpt lat="43.86891" lon="6.46968">
        <ele>1123</ele>
        <time>2014-04-29T09:39:05Z</time>
      </trkpt>
      <trkpt lat="43.86875" lon="6.47007">
        <ele>1122</ele>
        <time>2014-04-29T09:39:08Z</time>
      </trkpt>
      <trkpt lat="43.86865" lon="6.47048">
        <ele>1121</ele>
        <time>2014-04-29T09:39:11Z</time>
      </trkpt>
      <trkpt lat="43.86862" lon="6.47118">
        <ele>1128</ele>
        <time>2014-04-29T09:39:16Z</time>
      </trkpt>
      <trkpt lat="43.86834" lon="6.47151">
        <ele>1122</ele>
        <time>2014-04-29T09:39:20Z</time>
      </trkpt>
      <trkpt lat="43.86817" lon="6.47167">
        <ele>1112</ele>
        <time>2014-04-29T09:39:22Z</time>
      </trkpt>
      <trkpt lat="43.86783" lon="6.47242">
        <ele>1108</ele>
        <time>2014-04-29T09:39:28Z</time>
      </trkpt>
      <trkpt lat="43.86751" lon="6.47302">
        <ele>1116</ele>
        <time>2014-04-29T09:39:33Z</time>
      </trkpt>
      <trkpt lat="43.86737" lon="6.47326">
        <ele>1095</ele>
        <time>2014-04-29T09:39:35Z</time>
      </trkpt>
      <trkpt lat="43.86725" lon="6.47367">
        <ele>1092</ele>
        <time>2014-04-29T09:39:38Z</time>
      </trkpt>
      <trkpt lat="43.8672" lon="6.47426">
        <ele>1099</ele>
        <time>2014-04-29T09:39:42Z</time>
      </trkpt>
      <trkpt lat="43.86706" lon="6.4745">
        <ele>1096</ele>
        <time>2014-04-29T09:39:44Z</time>
      </trkpt>
      <trkpt lat="43.86678" lon="6.47499">
        <ele>1092</ele>
        <time>2014-04-29T09:39:48Z</time>
      </trkpt>
      <trkpt lat="43.86662" lon="6.47556">
        <ele>1088</ele>
        <time>2014-04-29T09:39:52Z</time>
      </trkpt>
      <trkpt lat="43.86655" lon="6.47629">
        <ele>1095</ele>
        <time>2014-04-29T09:39:57Z</time>
      </trkpt>
      <trkpt lat="43.86641" lon="6.47682">
        <ele>1100</ele>
        <time>2014-04-29T09:40:01Z</time>
      </trkpt>
      <trkpt lat="43.86605" lon="6.47735">
        <ele>1095</ele>
        <time>2014-04-29T09:40:06Z</time>
      </trkpt>
      <trkpt lat="43.86581" lon="6.47765">
        <ele>1085</ele>
        <time>2014-04-29T09:40:09Z</time>
      </trkpt>
      <trkpt lat="43.86547" lon="6.47804">
        <ele>1081</ele>
        <time>2014-04-29T09:40:13Z</time>
      </trkpt>
      <trkpt lat="43.86528" lon="6.47857">
        <ele>1084</ele>
        <time>2014-04-29T09:40:17Z</time>
      </trkpt>
      <trkpt lat="43.86525" lon="6.47919">
        <ele>1087</ele>
        <time>2014-04-29T09:40:21Z</time>
      </trkpt>
      <trkpt lat="43.86517" lon="6.47978">
        <ele>1088</ele>
        <time>2014-04-29T09:40:25Z</time>
      </trkpt>
      <trkpt lat="43.86502" lon="6.48034">
        <ele>1092</ele>
        <time>2014-04-29T09:40:29Z</time>
      </trkpt>
      <trkpt lat="43.86484" lon="6.48105">
        <ele>1078</ele>
        <time>2014-04-29T09:40:34Z</time>
      </trkpt>
      <trkpt lat="43.86457" lon="6.48152">
        <ele>1075</ele>
        <time>2014-04-29T09:40:38Z</time>
      </trkpt>
      <trkpt lat="43.86421" lon="6.48192">
        <ele>1075</ele>
        <time>2014-04-29T09:40:42Z</time>
      </trkpt>
      <trkpt lat="43.86404" lon="6.48232">
        <ele>1055</ele>
        <time>2014-04-29T09:40:45Z</time>
      </trkpt>
      <trkpt lat="43.86394" lon="6.48296">
        <ele>1054</ele>
        <time>2014-04-29T09:40:49Z</time>
      </trkpt>
      <trkpt lat="43.8639" lon="6.48347">
        <ele>1056</ele>
        <time>2014-04-29T09:40:52Z</time>
      </trkpt>
      <trkpt lat="43.86392" lon="6.48381">
        <ele>1054</ele>
        <time>2014-04-29T09:40:54Z</time>
      </trkpt>
      <trkpt lat="43.86407" lon="6.48429">
        <ele>1055</ele>
        <time>2014-04-29T09:40:57Z</time>
      </trkpt>
      <trkpt lat="43.86412" lon="6.48492">
        <ele>1053</ele>
        <time>2014-04-29T09:41:01Z</time>
      </trkpt>
      <trkpt lat="43.86431" lon="6.48521">
        <ele>1054</ele>
        <time>2014-04-29T09:41:04Z</time>
      </trkpt>
      <trkpt lat="43.86452" lon="6.48522">
        <ele>1054</ele>
        <time>2014-04-29T09:41:06Z</time>
      </trkpt>
      <trkpt lat="43.86486" lon="6.48505">
        <ele>1056</ele>
        <time>2014-04-29T09:41:10Z</time>
      </trkpt>
      <trkpt lat="43.86464" lon="6.48541">
        <ele>1052</ele>
        <time>2014-04-29T09:41:18Z</time>
      </trkpt>
      <trkpt lat="43.86429" lon="6.48557">
        <ele>1052</ele>
        <time>2014-04-29T09:41:22Z</time>
      </trkpt>
      <trkpt lat="43.8639" lon="6.48557">
        <ele>1046</ele>
        <time>2014-04-29T09:41:26Z</time>
      </trkpt>
      <trkpt lat="43.86362" lon="6.48538">
        <ele>1044</ele>
        <time>2014-04-29T09:41:29Z</time>
      </trkpt>
      <trkpt lat="43.8634" lon="6.48561">
        <ele>1042</ele>
        <time>2014-04-29T09:41:33Z</time>
      </trkpt>
      <trkpt lat="43.8637" lon="6.48594">
        <ele>1040</ele>
        <time>2014-04-29T09:41:37Z</time>
      </trkpt>
      <trkpt lat="43.86386" lon="6.48613">
        <ele>1041</ele>
        <time>2014-04-29T09:41:39Z</time>
      </trkpt>
      <trkpt lat="43.86416" lon="6.48659">
        <ele>1038</ele>
        <time>2014-04-29T09:41:43Z</time>
      </trkpt>
      <trkpt lat="43.86443" lon="6.48692">
        <ele>1033</ele>
        <time>2014-04-29T09:41:46Z</time>
      </trkpt>
      <trkpt lat="43.86477" lon="6.48709">
        <ele>1031</ele>
        <time>2014-04-29T09:41:49Z</time>
      </trkpt>
      <trkpt lat="43.86524" lon="6.4869">
        <ele>1026</ele>
        <time>2014-04-29T09:41:53Z</time>
      </trkpt>
      <trkpt lat="43.86547" lon="6.48651">
        <ele>1033</ele>
        <time>2014-04-29T09:41:56Z</time>
      </trkpt>
      <trkpt lat="43.86565" lon="6.4864">
        <ele>1032</ele>
        <time>2014-04-29T09:41:58Z</time>
      </trkpt>
      <trkpt lat="43.86619" lon="6.48656">
        <ele>1025</ele>
        <time>2014-04-29T09:42:03Z</time>
      </trkpt>
      <trkpt lat="43.86666" lon="6.48653">
        <ele>1020</ele>
        <time>2014-04-29T09:42:07Z</time>
      </trkpt>
      <trkpt lat="43.86709" lon="6.48622">
        <ele>1017</ele>
        <time>2014-04-29T09:42:11Z</time>
      </trkpt>
      <trkpt lat="43.86727" lon="6.48611">
        <ele>1017</ele>
        <time>2014-04-29T09:42:13Z</time>
      </trkpt>
      <trkpt lat="43.86752" lon="6.4864">
        <ele>1008</ele>
        <time>2014-04-29T09:42:17Z</time>
      </trkpt>
      <trkpt lat="43.86735" lon="6.48678">
        <ele>1002</ele>
        <time>2014-04-29T09:42:20Z</time>
      </trkpt>
      <trkpt lat="43.86697" lon="6.48718">
        <ele>1000</ele>
        <time>2014-04-29T09:42:24Z</time>
      </trkpt>
      <trkpt lat="43.86674" lon="6.48734">
        <ele>999</ele>
        <time>2014-04-29T09:42:26Z</time>
      </trkpt>
      <trkpt lat="43.86638" lon="6.4874">
        <ele>1007</ele>
        <time>2014-04-29T09:42:29Z</time>
      </trkpt>
      <trkpt lat="43.86614" lon="6.48766">
        <ele>1000</ele>
        <time>2014-04-29T09:42:32Z</time>
      </trkpt>
      <trkpt lat="43.86602" lon="6.4881">
        <ele>997</ele>
        <time>2014-04-29T09:42:35Z</time>
      </trkpt>
      <trkpt lat="43.86577" lon="6.48865">
        <ele>994</ele>
        <time>2014-04-29T09:42:39Z</time>
      </trkpt>
      <trkpt lat="43.86544" lon="6.48908">
        <ele>991</ele>
        <time>2014-04-29T09:42:43Z</time>
      </trkpt>
      <trkpt lat="43.86498" lon="6.48927">
        <ele>985</ele>
        <time>2014-04-29T09:42:47Z</time>
      </trkpt>
      <trkpt lat="43.86454" lon="6.48959">
        <ele>979</ele>
        <time>2014-04-29T09:42:51Z</time>
      </trkpt>
      <trkpt lat="43.8643" lon="6.4897">
        <ele>977</ele>
        <time>2014-04-29T09:42:53Z</time>
      </trkpt>
      <trkpt lat="43.86391" lon="6.4898">
        <ele>976</ele>
        <time>2014-04-29T09:42:56Z</time>
      </trkpt>
      <trkpt lat="43.86341" lon="6.48998">
        <ele>973</ele>
        <time>2014-04-29T09:43:00Z</time>
      </trkpt>
      <trkpt lat="43.86307" lon="6.49">
        <ele>965</ele>
        <time>2014-04-29T09:43:03Z</time>
      </trkpt>
      <trkpt lat="43.86273" lon="6.48987">
        <ele>975</ele>
        <time>2014-04-29T09:43:06Z</time>
      </trkpt>
      <trkpt lat="43.86237" lon="6.48978">
        <ele>969</ele>
        <time>2014-04-29T09:43:09Z</time>
      </trkpt>
      <trkpt lat="43.86202" lon="6.48977">
        <ele>965</ele>
        <time>2014-04-29T09:43:12Z</time>
      </trkpt>
      <trkpt lat="43.86168" lon="6.48941">
        <ele>965</ele>
        <time>2014-04-29T09:43:17Z</time>
      </trkpt>
      <trkpt lat="43.86163" lon="6.48986">
        <ele>946</ele>
        <time>2014-04-29T09:43:23Z</time>
      </trkpt>
      <trkpt lat="43.86184" lon="6.49013">
        <ele>954</ele>
        <time>2014-04-29T09:43:26Z</time>
      </trkpt>
      <trkpt lat="43.86224" lon="6.49063">
        <ele>954</ele>
        <time>2014-04-29T09:43:31Z</time>
      </trkpt>
      <trkpt lat="43.86244" lon="6.49078">
        <ele>953</ele>
        <time>2014-04-29T09:43:33Z</time>
      </trkpt>
      <trkpt lat="43.86278" lon="6.49093">
        <ele>942</ele>
        <time>2014-04-29T09:43:36Z</time>
      </trkpt>
      <trkpt lat="43.86314" lon="6.49098">
        <ele>940</ele>
        <time>2014-04-29T09:43:39Z</time>
      </trkpt>
      <trkpt lat="43.86359" lon="6.49075">
        <ele>951</ele>
        <time>2014-04-29T09:43:43Z</time>
      </trkpt>
      <trkpt lat="43.86383" lon="6.49066">
        <ele>950</ele>
        <time>2014-04-29T09:43:45Z</time>
      </trkpt>
      <trkpt lat="43.8642" lon="6.49059">
        <ele>945</ele>
        <time>2014-04-29T09:43:48Z</time>
      </trkpt>
      <trkpt lat="43.86472" lon="6.49059">
        <ele>946</ele>
        <time>2014-04-29T09:43:52Z</time>
      </trkpt>
      <trkpt lat="43.86499" lon="6.4906">
        <ele>943</ele>
        <time>2014-04-29T09:43:54Z</time>
      </trkpt>
      <trkpt lat="43.86525" lon="6.49064">
        <ele>945</ele>
        <time>2014-04-29T09:43:56Z</time>
      </trkpt>
      <trkpt lat="43.86564" lon="6.49081">
        <ele>943</ele>
        <time>2014-04-29T09:43:59Z</time>
      </trkpt>
      <trkpt lat="43.86601" lon="6.49103">
        <ele>924</ele>
        <time>2014-04-29T09:44:02Z</time>
      </trkpt>
      <trkpt lat="43.86644" lon="6.49118">
        <ele>918</ele>
        <time>2014-04-29T09:44:06Z</time>
      </trkpt>
      <trkpt lat="43.86656" lon="6.4915">
        <ele>910</ele>
        <time>2014-04-29T09:44:11Z</time>
      </trkpt>
      <trkpt lat="43.8663" lon="6.49146">
        <ele>914</ele>
        <time>2014-04-29T09:44:14Z</time>
      </trkpt>
      <trkpt lat="43.86589" lon="6.49126">
        <ele>918</ele>
        <time>2014-04-29T09:44:18Z</time>
      </trkpt>
      <trkpt lat="43.86541" lon="6.49112">
        <ele>919</ele>
        <time>2014-04-29T09:44:22Z</time>
      </trkpt>
      <trkpt lat="43.86489" lon="6.49108">
        <ele>918</ele>
        <time>2014-04-29T09:44:26Z</time>
      </trkpt>
      <trkpt lat="43.8644" lon="6.49123">
        <ele>915</ele>
        <time>2014-04-29T09:44:30Z</time>
      </trkpt>
      <trkpt lat="43.86392" lon="6.49146">
        <ele>916</ele>
        <time>2014-04-29T09:44:34Z</time>
      </trkpt>
      <trkpt lat="43.8635" lon="6.49184">
        <ele>898</ele>
        <time>2014-04-29T09:44:38Z</time>
      </trkpt>
      <trkpt lat="43.86328" lon="6.49203">
        <ele>903</ele>
        <time>2014-04-29T09:44:40Z</time>
      </trkpt>
      <trkpt lat="43.86292" lon="6.49225">
        <ele>901</ele>
        <time>2014-04-29T09:44:43Z</time>
      </trkpt>
      <trkpt lat="43.86254" lon="6.49239">
        <ele>898</ele>
        <time>2014-04-29T09:44:46Z</time>
      </trkpt>
      <trkpt lat="43.86205" lon="6.49265">
        <ele>887</ele>
        <time>2014-04-29T09:44:50Z</time>
      </trkpt>
      <trkpt lat="43.86181" lon="6.49276">
        <ele>887</ele>
        <time>2014-04-29T09:44:52Z</time>
      </trkpt>
      <trkpt lat="43.86132" lon="6.4927">
        <ele>885</ele>
        <time>2014-04-29T09:44:56Z</time>
      </trkpt>
      <trkpt lat="43.86107" lon="6.49268">
        <ele>884</ele>
        <time>2014-04-29T09:44:58Z</time>
      </trkpt>
      <trkpt lat="43.86056" lon="6.4926">
        <ele>877</ele>
        <time>2014-04-29T09:45:02Z</time>
      </trkpt>
      <trkpt lat="43.8603" lon="6.49262">
        <ele>873</ele>
        <time>2014-04-29T09:45:04Z</time>
      </trkpt>
      <trkpt lat="43.85994" lon="6.49275">
        <ele>861</ele>
        <time>2014-04-29T09:45:07Z</time>
      </trkpt>
      <trkpt lat="43.85969" lon="6.49259">
        <ele>858</ele>
        <time>2014-04-29T09:45:12Z</time>
      </trkpt>
      <trkpt lat="43.85979" lon="6.49225">
        <ele>855</ele>
        <time>2014-04-29T09:45:15Z</time>
      </trkpt>
      <trkpt lat="43.86002" lon="6.49176">
        <ele>867</ele>
        <time>2014-04-29T09:45:19Z</time>
      </trkpt>
      <trkpt lat="43.86028" lon="6.49146">
        <ele>874</ele>
        <time>2014-04-29T09:45:22Z</time>
      </trkpt>
      <trkpt lat="43.86041" lon="6.49107">
        <ele>877</ele>
        <time>2014-04-29T09:45:25Z</time>
      </trkpt>
      <trkpt lat="43.86034" lon="6.49078">
        <ele>874</ele>
        <time>2014-04-29T09:45:27Z</time>
      </trkpt>
      <trkpt lat="43.8602" lon="6.49038">
        <ele>873</ele>
        <time>2014-04-29T09:45:30Z</time>
      </trkpt>
      <trkpt lat="43.86022" lon="6.49005">
        <ele>871</ele>
        <time>2014-04-29T09:45:32Z</time>
      </trkpt>
      <trkpt lat="43.86015" lon="6.48944">
        <ele>876</ele>
        <time>2014-04-29T09:45:36Z</time>
      </trkpt>
      <trkpt lat="43.85983" lon="6.48943">
        <ele>848</ele>
        <time>2014-04-29T09:45:42Z</time>
      </trkpt>
      <trkpt lat="43.85998" lon="6.48994">
        <ele>854</ele>
        <time>2014-04-29T09:45:46Z</time>
      </trkpt>
      <trkpt lat="43.85996" lon="6.49037">
        <ele>842</ele>
        <time>2014-04-29T09:45:49Z</time>
      </trkpt>
      <trkpt lat="43.86003" lon="6.4908">
        <ele>854</ele>
        <time>2014-04-29T09:45:52Z</time>
      </trkpt>
      <trkpt lat="43.85989" lon="6.49132">
        <ele>842</ele>
        <time>2014-04-29T09:45:56Z</time>
      </trkpt>
      <trkpt lat="43.8597" lon="6.49151">
        <ele>840</ele>
        <time>2014-04-29T09:45:58Z</time>
      </trkpt>
      <trkpt lat="43.8593" lon="6.49192">
        <ele>839</ele>
        <time>2014-04-29T09:46:02Z</time>
      </trkpt>
      <trkpt lat="43.85914" lon="6.49219">
        <ele>822</ele>
        <time>2014-04-29T09:46:04Z</time>
      </trkpt>
      <trkpt lat="43.85896" lon="6.49267">
        <ele>828</ele>
        <time>2014-04-29T09:46:07Z</time>
      </trkpt>
      <trkpt lat="43.85881" lon="6.49297">
        <ele>824</ele>
        <time>2014-04-29T09:46:09Z</time>
      </trkpt>
      <trkpt lat="43.85864" lon="6.49325">
        <ele>820</ele>
        <time>2014-04-29T09:46:11Z</time>
      </trkpt>
      <trkpt lat="43.85846" lon="6.49362">
        <ele>817</ele>
        <time>2014-04-29T09:46:14Z</time>
      </trkpt>
      <trkpt lat="43.85846" lon="6.49398">
        <ele>815</ele>
        <time>2014-04-29T09:46:17Z</time>
      </trkpt>
      <trkpt lat="43.85882" lon="6.49422">
        <ele>809</ele>
        <time>2014-04-29T09:46:21Z</time>
      </trkpt>
      <trkpt lat="43.85927" lon="6.49435">
        <ele>816</ele>
        <time>2014-04-29T09:46:25Z</time>
      </trkpt>
      <trkpt lat="43.85973" lon="6.49455">
        <ele>813</ele>
        <time>2014-04-29T09:46:29Z</time>
      </trkpt>
      <trkpt lat="43.86023" lon="6.49458">
        <ele>816</ele>
        <time>2014-04-29T09:46:33Z</time>
      </trkpt>
      <trkpt lat="43.86068" lon="6.49467">
        <ele>814</ele>
        <time>2014-04-29T09:46:37Z</time>
      </trkpt>
      <trkpt lat="43.86093" lon="6.49479">
        <ele>811</ele>
        <time>2014-04-29T09:46:40Z</time>
      </trkpt>
      <trkpt lat="43.86096" lon="6.49528">
        <ele>796</ele>
        <time>2014-04-29T09:46:44Z</time>
      </trkpt>
      <trkpt lat="43.86058" lon="6.49542">
        <ele>793</ele>
        <time>2014-04-29T09:46:48Z</time>
      </trkpt>
      <trkpt lat="43.86021" lon="6.49507">
        <ele>796</ele>
        <time>2014-04-29T09:46:52Z</time>
      </trkpt>
      <trkpt lat="43.85984" lon="6.49499">
        <ele>804</ele>
        <time>2014-04-29T09:46:55Z</time>
      </trkpt>
      <trkpt lat="43.85946" lon="6.49496">
        <ele>804</ele>
        <time>2014-04-29T09:46:58Z</time>
      </trkpt>
      <trkpt lat="43.8592" lon="6.49494">
        <ele>796</ele>
        <time>2014-04-29T09:47:00Z</time>
      </trkpt>
      <trkpt lat="43.8588" lon="6.49494">
        <ele>798</ele>
        <time>2014-04-29T09:47:03Z</time>
      </trkpt>
      <trkpt lat="43.85854" lon="6.49496">
        <ele>795</ele>
        <time>2014-04-29T09:47:05Z</time>
      </trkpt>
      <trkpt lat="43.85814" lon="6.49508">
        <ele>780</ele>
        <time>2014-04-29T09:47:08Z</time>
      </trkpt>
      <trkpt lat="43.85801" lon="6.49511">
        <ele>779</ele>
        <time>2014-04-29T09:47:09Z</time>
      </trkpt>
      <trkpt lat="43.85761" lon="6.49512">
        <ele>780</ele>
        <time>2014-04-29T09:47:12Z</time>
      </trkpt>
      <trkpt lat="43.85719" lon="6.49547">
        <ele>774</ele>
        <time>2014-04-29T09:47:16Z</time>
      </trkpt>
      <trkpt lat="43.85679" lon="6.49562">
        <ele>772</ele>
        <time>2014-04-29T09:47:20Z</time>
      </trkpt>
      <trkpt lat="43.85626" lon="6.49557">
        <ele>769</ele>
        <time>2014-04-29T09:47:25Z</time>
      </trkpt>
      <trkpt lat="43.85591" lon="6.49588">
        <ele>764</ele>
        <time>2014-04-29T09:47:29Z</time>
      </trkpt>
      <trkpt lat="43.85584" lon="6.4963">
        <ele>762</ele>
        <time>2014-04-29T09:47:32Z</time>
      </trkpt>
      <trkpt lat="43.85581" lon="6.49704">
        <ele>761</ele>
        <time>2014-04-29T09:47:37Z</time>
      </trkpt>
      <trkpt lat="43.85581" lon="6.49733">
        <ele>760</ele>
        <time>2014-04-29T09:47:39Z</time>
      </trkpt>
      <trkpt lat="43.85579" lon="6.49792">
        <ele>758</ele>
        <time>2014-04-29T09:47:43Z</time>
      </trkpt>
      <trkpt lat="43.85577" lon="6.49852">
        <ele>756</ele>
        <time>2014-04-29T09:47:47Z</time>
      </trkpt>
      <trkpt lat="43.85574" lon="6.49927">
        <ele>755</ele>
        <time>2014-04-29T09:47:52Z</time>
      </trkpt>
      <trkpt lat="43.85572" lon="6.49996">
        <ele>754</ele>
        <time>2014-04-29T09:47:57Z</time>
      </trkpt>
      <trkpt lat="43.85559" lon="6.50046">
        <ele>752</ele>
        <time>2014-04-29T09:48:01Z</time>
      </trkpt>
      <trkpt lat="43.85546" lon="6.50067">
        <ele>751</ele>
        <time>2014-04-29T09:48:03Z</time>
      </trkpt>
      <trkpt lat="43.85502" lon="6.50125">
        <ele>749</ele>
        <time>2014-04-29T09:48:09Z</time>
      </trkpt>
      <trkpt lat="43.85473" lon="6.50164">
        <ele>748</ele>
        <time>2014-04-29T09:48:13Z</time>
      </trkpt>
      <trkpt lat="43.85431" lon="6.50223">
        <ele>746</ele>
        <time>2014-04-29T09:48:19Z</time>
      </trkpt>
      <trkpt lat="43.85408" lon="6.50265">
        <ele>744</ele>
        <time>2014-04-29T09:48:23Z</time>
      </trkpt>
      <trkpt lat="43.8538" lon="6.5033">
        <ele>744</ele>
        <time>2014-04-29T09:48:29Z</time>
      </trkpt>
      <trkpt lat="43.85354" lon="6.50388">
        <ele>743</ele>
        <time>2014-04-29T09:48:35Z</time>
      </trkpt>
      <trkpt lat="43.85324" lon="6.50457">
        <ele>746</ele>
        <time>2014-04-29T09:48:43Z</time>
      </trkpt>
      <trkpt lat="43.85308" lon="6.5049">
        <ele>746</ele>
        <time>2014-04-29T09:48:47Z</time>
      </trkpt>
      <trkpt lat="43.85287" lon="6.50535">
        <ele>746</ele>
        <time>2014-04-29T09:48:53Z</time>
      </trkpt>
      <trkpt lat="43.85259" lon="6.50598">
        <ele>746</ele>
        <time>2014-04-29T09:49:01Z</time>
      </trkpt>
      <trkpt lat="43.8524" lon="6.50642">
        <ele>753</ele>
        <time>2014-04-29T09:49:07Z</time>
      </trkpt>
      <trkpt lat="43.85215" lon="6.50697">
        <ele>749</ele>
        <time>2014-04-29T09:49:15Z</time>
      </trkpt>
      <trkpt lat="43.85185" lon="6.50747">
        <ele>748</ele>
        <time>2014-04-29T09:49:23Z</time>
      </trkpt>
      <trkpt lat="43.85161" lon="6.5077">
        <ele>746</ele>
        <time>2014-04-29T09:49:29Z</time>
      </trkpt>
      <trkpt lat="43.85124" lon="6.50797">
        <ele>746</ele>
        <time>2014-04-29T09:49:37Z</time>
      </trkpt>
      <trkpt lat="43.85092" lon="6.50811">
        <ele>746</ele>
        <time>2014-04-29T09:49:43Z</time>
      </trkpt>
      <trkpt lat="43.85041" lon="6.50839">
        <ele>747</ele>
        <time>2014-04-29T09:49:51Z</time>
      </trkpt>
      <trkpt lat="43.85026" lon="6.50846">
        <ele>747</ele>
        <time>2014-04-29T09:49:53Z</time>
      </trkpt>
      <trkpt lat="43.84964" lon="6.50879">
        <ele>741</ele>
        <time>2014-04-29T09:50:01Z</time>
      </trkpt>
      <trkpt lat="43.84916" lon="6.50904">
        <ele>736</ele>
        <time>2014-04-29T09:50:07Z</time>
      </trkpt>
      <trkpt lat="43.84887" lon="6.50929">
        <ele>737</ele>
        <time>2014-04-29T09:50:11Z</time>
      </trkpt>
      <trkpt lat="43.84875" lon="6.50947">
        <ele>737</ele>
        <time>2014-04-29T09:50:13Z</time>
      </trkpt>
      <trkpt lat="43.84839" lon="6.51019">
        <ele>737</ele>
        <time>2014-04-29T09:50:21Z</time>
      </trkpt>
      <trkpt lat="43.8482" lon="6.51059">
        <ele>731</ele>
        <time>2014-04-29T09:50:31Z</time>
      </trkpt>
      <trkpt lat="43.84802" lon="6.51095">
        <ele>732</ele>
        <time>2014-04-29T09:50:42Z</time>
      </trkpt>
      <trkpt lat="43.84783" lon="6.51074">
        <ele>729</ele>
        <time>2014-04-29T09:50:49Z</time>
      </trkpt>
      <trkpt lat="43.84756" lon="6.51048">
        <ele>728</ele>
        <time>2014-04-29T09:51:47Z</time>
      </trkpt>
      <trkpt lat="43.84734" lon="6.51054">
        <ele>725</ele>
        <time>2014-04-29T09:54:22Z</time>
      </trkpt>
      <trkpt lat="43.84763" lon="6.51068">
        <ele>728</ele>
        <time>2014-04-29T09:54:34Z</time>
      </trkpt>
      <trkpt lat="43.84791" lon="6.51087">
        <ele>732</ele>
        <time>2014-04-29T09:54:46Z</time>
      </trkpt>
      <trkpt lat="43.84786" lon="6.51145">
        <ele>733</ele>
        <time>2014-04-29T09:55:02Z</time>
      </trkpt>
      <trkpt lat="43.84779" lon="6.51166">
        <ele>732</ele>
        <time>2014-04-29T09:56:57Z</time>
      </trkpt>
      <trkpt lat="43.84742" lon="6.5119">
        <ele>729</ele>
        <time>2014-04-29T09:57:10Z</time>
      </trkpt>
      <trkpt lat="43.84703" lon="6.51207">
        <ele>728</ele>
        <time>2014-04-29T09:57:18Z</time>
      </trkpt>
      <trkpt lat="43.84663" lon="6.5124">
        <ele>726</ele>
        <time>2014-04-29T09:57:27Z</time>
      </trkpt>
      <trkpt lat="43.84629" lon="6.51245">
        <ele>726</ele>
        <time>2014-04-29T09:57:36Z</time>
      </trkpt>
      <trkpt lat="43.84612" lon="6.5123">
        <ele>725</ele>
        <time>2014-04-29T09:57:42Z</time>
      </trkpt>
      <trkpt lat="43.84615" lon="6.51161">
        <ele>724</ele>
        <time>2014-04-29T09:57:52Z</time>
      </trkpt>
      <trkpt lat="43.84618" lon="6.51089">
        <ele>724</ele>
        <time>2014-04-29T09:58:02Z</time>
      </trkpt>
      <trkpt lat="43.8462" lon="6.5104">
        <ele>724</ele>
        <time>2014-04-29T09:58:08Z</time>
      </trkpt>
      <trkpt lat="43.84622" lon="6.51011">
        <ele>724</ele>
        <time>2014-04-29T09:58:12Z</time>
      </trkpt>
      <trkpt lat="43.84623" lon="6.50963">
        <ele>724</ele>
        <time>2014-04-29T09:58:18Z</time>
      </trkpt>
      <trkpt lat="43.84624" lon="6.50894">
        <ele>723</ele>
        <time>2014-04-29T09:58:26Z</time>
      </trkpt>
      <trkpt lat="43.84624" lon="6.50864">
        <ele>723</ele>
        <time>2014-04-29T09:58:30Z</time>
      </trkpt>
      <trkpt lat="43.84617" lon="6.50821">
        <ele>723</ele>
        <time>2014-04-29T09:58:36Z</time>
      </trkpt>
      <trkpt lat="43.84604" lon="6.50769">
        <ele>723</ele>
        <time>2014-04-29T09:58:44Z</time>
      </trkpt>
      <trkpt lat="43.84598" lon="6.50745">
        <ele>723</ele>
        <time>2014-04-29T09:58:48Z</time>
      </trkpt>
      <trkpt lat="43.84585" lon="6.50688">
        <ele>722</ele>
        <time>2014-04-29T09:58:56Z</time>
      </trkpt>
      <trkpt lat="43.84574" lon="6.50645">
        <ele>722</ele>
        <time>2014-04-29T09:59:02Z</time>
      </trkpt>
      <trkpt lat="43.8456" lon="6.50589">
        <ele>722</ele>
        <time>2014-04-29T09:59:10Z</time>
      </trkpt>
      <trkpt lat="43.8454" lon="6.50522">
        <ele>722</ele>
        <time>2014-04-29T09:59:20Z</time>
      </trkpt>
      <trkpt lat="43.84521" lon="6.50471">
        <ele>723</ele>
        <time>2014-04-29T09:59:28Z</time>
      </trkpt>
      <trkpt lat="43.84499" lon="6.5041">
        <ele>725</ele>
        <time>2014-04-29T09:59:38Z</time>
      </trkpt>
      <trkpt lat="43.84475" lon="6.50347">
        <ele>724</ele>
        <time>2014-04-29T09:59:48Z</time>
      </trkpt>
      <trkpt lat="43.84442" lon="6.50284">
        <ele>723</ele>
        <time>2014-04-29T10:00:00Z</time>
      </trkpt>
      <trkpt lat="43.84415" lon="6.50231">
        <ele>721</ele>
        <time>2014-04-29T10:00:08Z</time>
      </trkpt>
      <trkpt lat="43.844" lon="6.50201">
        <ele>723</ele>
        <time>2014-04-29T10:00:12Z</time>
      </trkpt>
      <trkpt lat="43.84359" lon="6.50123">
        <ele>729</ele>
        <time>2014-04-29T10:00:22Z</time>
      </trkpt>
      <trkpt lat="43.84336" lon="6.50077">
        <ele>729</ele>
        <time>2014-04-29T10:00:28Z</time>
      </trkpt>
      <trkpt lat="43.84322" lon="6.50047">
        <ele>725</ele>
        <time>2014-04-29T10:00:32Z</time>
      </trkpt>
      <trkpt lat="43.84309" lon="6.49984">
        <ele>729</ele>
        <time>2014-04-29T10:00:40Z</time>
      </trkpt>
      <trkpt lat="43.84303" lon="6.49923">
        <ele>731</ele>
        <time>2014-04-29T10:00:48Z</time>
      </trkpt>
      <trkpt lat="43.84297" lon="6.4988">
        <ele>737</ele>
        <time>2014-04-29T10:00:54Z</time>
      </trkpt>
      <trkpt lat="43.84289" lon="6.49853">
        <ele>737</ele>
        <time>2014-04-29T10:00:58Z</time>
      </trkpt>
      <trkpt lat="43.84263" lon="6.49804">
        <ele>741</ele>
        <time>2014-04-29T10:01:06Z</time>
      </trkpt>
      <trkpt lat="43.84248" lon="6.49776">
        <ele>726</ele>
        <time>2014-04-29T10:01:10Z</time>
      </trkpt>
      <trkpt lat="43.84221" lon="6.49713">
        <ele>731</ele>
        <time>2014-04-29T10:01:18Z</time>
      </trkpt>
      <trkpt lat="43.84191" lon="6.49644">
        <ele>732</ele>
        <time>2014-04-29T10:01:26Z</time>
      </trkpt>
      <trkpt lat="43.84172" lon="6.49616">
        <ele>731</ele>
        <time>2014-04-29T10:01:30Z</time>
      </trkpt>
      <trkpt lat="43.84124" lon="6.49563">
        <ele>725</ele>
        <time>2014-04-29T10:01:38Z</time>
      </trkpt>
      <trkpt lat="43.841" lon="6.49542">
        <ele>726</ele>
        <time>2014-04-29T10:01:42Z</time>
      </trkpt>
      <trkpt lat="43.84063" lon="6.49503">
        <ele>722</ele>
        <time>2014-04-29T10:01:50Z</time>
      </trkpt>
      <trkpt lat="43.84027" lon="6.49462">
        <ele>727</ele>
        <time>2014-04-29T10:01:58Z</time>
      </trkpt>
      <trkpt lat="43.8401" lon="6.49445">
        <ele>727</ele>
        <time>2014-04-29T10:02:02Z</time>
      </trkpt>
      <trkpt lat="43.83975" lon="6.49414">
        <ele>726</ele>
        <time>2014-04-29T10:02:10Z</time>
      </trkpt>
      <trkpt lat="43.83945" lon="6.49379">
        <ele>726</ele>
        <time>2014-04-29T10:02:18Z</time>
      </trkpt>
      <trkpt lat="43.83893" lon="6.49347">
        <ele>724</ele>
        <time>2014-04-29T10:02:30Z</time>
      </trkpt>
      <trkpt lat="43.83848" lon="6.49358">
        <ele>726</ele>
        <time>2014-04-29T10:02:41Z</time>
      </trkpt>
      <trkpt lat="43.8383" lon="6.49378">
        <ele>725</ele>
        <time>2014-04-29T10:02:47Z</time>
      </trkpt>
      <trkpt lat="43.83808" lon="6.49407">
        <ele>722</ele>
        <time>2014-04-29T10:02:53Z</time>
      </trkpt>
      <trkpt lat="43.83788" lon="6.49394">
        <ele>723</ele>
        <time>2014-04-29T10:02:58Z</time>
      </trkpt>
      <trkpt lat="43.8376" lon="6.49354">
        <ele>729</ele>
        <time>2014-04-29T10:03:07Z</time>
      </trkpt>
      <trkpt lat="43.83717" lon="6.49317">
        <ele>740</ele>
        <time>2014-04-29T10:03:18Z</time>
      </trkpt>
      <trkpt lat="43.83666" lon="6.49296">
        <ele>739</ele>
        <time>2014-04-29T10:03:29Z</time>
      </trkpt>
      <trkpt lat="43.83621" lon="6.49294">
        <ele>741</ele>
        <time>2014-04-29T10:03:40Z</time>
      </trkpt>
      <trkpt lat="43.83581" lon="6.49325">
        <ele>734</ele>
        <time>2014-04-29T10:03:52Z</time>
      </trkpt>
      <trkpt lat="43.8356" lon="6.49334">
        <ele>727</ele>
        <time>2014-04-29T10:03:57Z</time>
      </trkpt>
      <trkpt lat="43.83512" lon="6.49339">
        <ele>726</ele>
        <time>2014-04-29T10:04:07Z</time>
      </trkpt>
      <trkpt lat="43.8348" lon="6.49312">
        <ele>724</ele>
        <time>2014-04-29T10:04:15Z</time>
      </trkpt>
      <trkpt lat="43.8348" lon="6.49286">
        <ele>725</ele>
        <time>2014-04-29T10:04:19Z</time>
      </trkpt>
      <trkpt lat="43.835" lon="6.49215">
        <ele>726</ele>
        <time>2014-04-29T10:04:29Z</time>
      </trkpt>
      <trkpt lat="43.83521" lon="6.49155">
        <ele>740</ele>
        <time>2014-04-29T10:04:37Z</time>
      </trkpt>
      <trkpt lat="43.83515" lon="6.49105">
        <ele>739</ele>
        <time>2014-04-29T10:04:43Z</time>
      </trkpt>
      <trkpt lat="43.83499" lon="6.49043">
        <ele>724</ele>
        <time>2014-04-29T10:04:51Z</time>
      </trkpt>
      <trkpt lat="43.83511" lon="6.48984">
        <ele>732</ele>
        <time>2014-04-29T10:04:59Z</time>
      </trkpt>
      <trkpt lat="43.83546" lon="6.48935">
        <ele>734</ele>
        <time>2014-04-29T10:05:07Z</time>
      </trkpt>
      <trkpt lat="43.83544" lon="6.48899">
        <ele>734</ele>
        <time>2014-04-29T10:05:11Z</time>
      </trkpt>
      <trkpt lat="43.83531" lon="6.48847">
        <ele>733</ele>
        <time>2014-04-29T10:05:17Z</time>
      </trkpt>
      <trkpt lat="43.83519" lon="6.48778">
        <ele>738</ele>
        <time>2014-04-29T10:05:25Z</time>
      </trkpt>
      <trkpt lat="43.83506" lon="6.48729">
        <ele>737</ele>
        <time>2014-04-29T10:05:31Z</time>
      </trkpt>
      <trkpt lat="43.83507" lon="6.48696">
        <ele>738</ele>
        <time>2014-04-29T10:05:35Z</time>
      </trkpt>
      <trkpt lat="43.83521" lon="6.48627">
        <ele>735</ele>
        <time>2014-04-29T10:05:43Z</time>
      </trkpt>
      <trkpt lat="43.83536" lon="6.48596">
        <ele>736</ele>
        <time>2014-04-29T10:05:47Z</time>
      </trkpt>
      <trkpt lat="43.83557" lon="6.48573">
        <ele>739</ele>
        <time>2014-04-29T10:05:51Z</time>
      </trkpt>
      <trkpt lat="43.83554" lon="6.4852">
        <ele>738</ele>
        <time>2014-04-29T10:05:57Z</time>
      </trkpt>
      <trkpt lat="43.83539" lon="6.48451">
        <ele>742</ele>
        <time>2014-04-29T10:06:05Z</time>
      </trkpt>
      <trkpt lat="43.83521" lon="6.48403">
        <ele>749</ele>
        <time>2014-04-29T10:06:11Z</time>
      </trkpt>
      <trkpt lat="43.83501" lon="6.48378">
        <ele>752</ele>
        <time>2014-04-29T10:06:15Z</time>
      </trkpt>
      <trkpt lat="43.83477" lon="6.48358">
        <ele>734</ele>
        <time>2014-04-29T10:06:19Z</time>
      </trkpt>
      <trkpt lat="43.83457" lon="6.48333">
        <ele>732</ele>
        <time>2014-04-29T10:06:23Z</time>
      </trkpt>
      <trkpt lat="43.8343" lon="6.48296">
        <ele>749</ele>
        <time>2014-04-29T10:06:29Z</time>
      </trkpt>
      <trkpt lat="43.83381" lon="6.48267">
        <ele>736</ele>
        <time>2014-04-29T10:06:37Z</time>
      </trkpt>
      <trkpt lat="43.83357" lon="6.48252">
        <ele>733</ele>
        <time>2014-04-29T10:06:41Z</time>
      </trkpt>
      <trkpt lat="43.83333" lon="6.48233">
        <ele>730</ele>
        <time>2014-04-29T10:06:45Z</time>
      </trkpt>
      <trkpt lat="43.83307" lon="6.4819">
        <ele>731</ele>
        <time>2014-04-29T10:06:51Z</time>
      </trkpt>
      <trkpt lat="43.83291" lon="6.48135">
        <ele>737</ele>
        <time>2014-04-29T10:06:57Z</time>
      </trkpt>
      <trkpt lat="43.83287" lon="6.48092">
        <ele>738</ele>
        <time>2014-04-29T10:07:01Z</time>
      </trkpt>
      <trkpt lat="43.83275" lon="6.48051">
        <ele>741</ele>
        <time>2014-04-29T10:07:05Z</time>
      </trkpt>
      <trkpt lat="43.83248" lon="6.47996">
        <ele>734</ele>
        <time>2014-04-29T10:07:11Z</time>
      </trkpt>
      <trkpt lat="43.83218" lon="6.4794">
        <ele>730</ele>
        <time>2014-04-29T10:07:17Z</time>
      </trkpt>
      <trkpt lat="43.83205" lon="6.47895">
        <ele>734</ele>
        <time>2014-04-29T10:07:21Z</time>
      </trkpt>
      <trkpt lat="43.83206" lon="6.47847">
        <ele>735</ele>
        <time>2014-04-29T10:07:25Z</time>
      </trkpt>
      <trkpt lat="43.83196" lon="6.47813">
        <ele>737</ele>
        <time>2014-04-29T10:07:28Z</time>
      </trkpt>
      <trkpt lat="43.83186" lon="6.47767">
        <ele>736</ele>
        <time>2014-04-29T10:07:32Z</time>
      </trkpt>
      <trkpt lat="43.83162" lon="6.47678">
        <ele>722</ele>
        <time>2014-04-29T10:07:40Z</time>
      </trkpt>
      <trkpt lat="43.83156" lon="6.47609">
        <ele>723</ele>
        <time>2014-04-29T10:07:46Z</time>
      </trkpt>
      <trkpt lat="43.83142" lon="6.47567">
        <ele>725</ele>
        <time>2014-04-29T10:07:50Z</time>
      </trkpt>
      <trkpt lat="43.8313" lon="6.47523">
        <ele>724</ele>
        <time>2014-04-29T10:07:54Z</time>
      </trkpt>
      <trkpt lat="43.83124" lon="6.47478">
        <ele>728</ele>
        <time>2014-04-29T10:07:58Z</time>
      </trkpt>
      <trkpt lat="43.83122" lon="6.47431">
        <ele>728</ele>
        <time>2014-04-29T10:08:02Z</time>
      </trkpt>
      <trkpt lat="43.83112" lon="6.47386">
        <ele>735</ele>
        <time>2014-04-29T10:08:06Z</time>
      </trkpt>
      <trkpt lat="43.83101" lon="6.47368">
        <ele>735</ele>
        <time>2014-04-29T10:08:08Z</time>
      </trkpt>
      <trkpt lat="43.83059" lon="6.47326">
        <ele>724</ele>
        <time>2014-04-29T10:08:14Z</time>
      </trkpt>
      <trkpt lat="43.83035" lon="6.47266">
        <ele>722</ele>
        <time>2014-04-29T10:08:20Z</time>
      </trkpt>
      <trkpt lat="43.83019" lon="6.47224">
        <ele>727</ele>
        <time>2014-04-29T10:08:24Z</time>
      </trkpt>
      <trkpt lat="43.83003" lon="6.47183">
        <ele>729</ele>
        <time>2014-04-29T10:08:28Z</time>
      </trkpt>
      <trkpt lat="43.82963" lon="6.47138">
        <ele>722</ele>
        <time>2014-04-29T10:08:34Z</time>
      </trkpt>
      <trkpt lat="43.82944" lon="6.47097">
        <ele>721</ele>
        <time>2014-04-29T10:08:38Z</time>
      </trkpt>
      <trkpt lat="43.82917" lon="6.47009">
        <ele>717</ele>
        <time>2014-04-29T10:08:46Z</time>
      </trkpt>
      <trkpt lat="43.82907" lon="6.46964">
        <ele>714</ele>
        <time>2014-04-29T10:08:50Z</time>
      </trkpt>
      <trkpt lat="43.82915" lon="6.46896">
        <ele>716</ele>
        <time>2014-04-29T10:08:56Z</time>
      </trkpt>
      <trkpt lat="43.82909" lon="6.46831">
        <ele>716</ele>
        <time>2014-04-29T10:09:02Z</time>
      </trkpt>
      <trkpt lat="43.82893" lon="6.46768">
        <ele>714</ele>
        <time>2014-04-29T10:09:08Z</time>
      </trkpt>
      <trkpt lat="43.82899" lon="6.46723">
        <ele>713</ele>
        <time>2014-04-29T10:09:12Z</time>
      </trkpt>
      <trkpt lat="43.82906" lon="6.46677">
        <ele>714</ele>
        <time>2014-04-29T10:09:16Z</time>
      </trkpt>
      <trkpt lat="43.82902" lon="6.46633">
        <ele>713</ele>
        <time>2014-04-29T10:09:20Z</time>
      </trkpt>
      <trkpt lat="43.82869" lon="6.46548">
        <ele>710</ele>
        <time>2014-04-29T10:09:28Z</time>
      </trkpt>
      <trkpt lat="43.82866" lon="6.46525">
        <ele>709</ele>
        <time>2014-04-29T10:09:30Z</time>
      </trkpt>
      <trkpt lat="43.82872" lon="6.4641">
        <ele>714</ele>
        <time>2014-04-29T10:09:40Z</time>
      </trkpt>
      <trkpt lat="43.82854" lon="6.46372">
        <ele>713</ele>
        <time>2014-04-29T10:09:44Z</time>
      </trkpt>
      <trkpt lat="43.8283" lon="6.4634">
        <ele>705</ele>
        <time>2014-04-29T10:09:48Z</time>
      </trkpt>
      <trkpt lat="43.8281" lon="6.463">
        <ele>705</ele>
        <time>2014-04-29T10:09:52Z</time>
      </trkpt>
      <trkpt lat="43.8278" lon="6.46215">
        <ele>707</ele>
        <time>2014-04-29T10:10:00Z</time>
      </trkpt>
      <trkpt lat="43.82771" lon="6.46169">
        <ele>705</ele>
        <time>2014-04-29T10:10:04Z</time>
      </trkpt>
      <trkpt lat="43.82781" lon="6.46125">
        <ele>706</ele>
        <time>2014-04-29T10:10:08Z</time>
      </trkpt>
      <trkpt lat="43.82814" lon="6.46071">
        <ele>705</ele>
        <time>2014-04-29T10:10:14Z</time>
      </trkpt>
      <trkpt lat="43.82833" lon="6.4603">
        <ele>703</ele>
        <time>2014-04-29T10:10:18Z</time>
      </trkpt>
      <trkpt lat="43.82851" lon="6.46004">
        <ele>711</ele>
        <time>2014-04-29T10:10:21Z</time>
      </trkpt>
      <trkpt lat="43.82864" lon="6.45951">
        <ele>708</ele>
        <time>2014-04-29T10:10:26Z</time>
      </trkpt>
      <trkpt lat="43.82881" lon="6.45895">
        <ele>702</ele>
        <time>2014-04-29T10:10:31Z</time>
      </trkpt>
      <trkpt lat="43.829" lon="6.45867">
        <ele>701</ele>
        <time>2014-04-29T10:10:34Z</time>
      </trkpt>
      <trkpt lat="43.82921" lon="6.45845">
        <ele>709</ele>
        <time>2014-04-29T10:10:37Z</time>
      </trkpt>
      <trkpt lat="43.8296" lon="6.45764">
        <ele>708</ele>
        <time>2014-04-29T10:10:45Z</time>
      </trkpt>
      <trkpt lat="43.82981" lon="6.45724">
        <ele>704</ele>
        <time>2014-04-29T10:10:49Z</time>
      </trkpt>
      <trkpt lat="43.83029" lon="6.45654">
        <ele>710</ele>
        <time>2014-04-29T10:10:57Z</time>
      </trkpt>
      <trkpt lat="43.83051" lon="6.45617">
        <ele>714</ele>
        <time>2014-04-29T10:11:01Z</time>
      </trkpt>
      <trkpt lat="43.8306" lon="6.45549">
        <ele>709</ele>
        <time>2014-04-29T10:11:07Z</time>
      </trkpt>
      <trkpt lat="43.83052" lon="6.45478">
        <ele>703</ele>
        <time>2014-04-29T10:11:13Z</time>
      </trkpt>
      <trkpt lat="43.83052" lon="6.45428">
        <ele>703</ele>
        <time>2014-04-29T10:11:17Z</time>
      </trkpt>
      <trkpt lat="43.83059" lon="6.45356">
        <ele>700</ele>
        <time>2014-04-29T10:11:23Z</time>
      </trkpt>
      <trkpt lat="43.83073" lon="6.45312">
        <ele>699</ele>
        <time>2014-04-29T10:11:27Z</time>
      </trkpt>
      <trkpt lat="43.83094" lon="6.45272">
        <ele>703</ele>
        <time>2014-04-29T10:11:31Z</time>
      </trkpt>
      <trkpt lat="43.83129" lon="6.45232">
        <ele>702</ele>
        <time>2014-04-29T10:11:36Z</time>
      </trkpt>
      <trkpt lat="43.8315" lon="6.45206">
        <ele>703</ele>
        <time>2014-04-29T10:11:39Z</time>
      </trkpt>
      <trkpt lat="43.8317" lon="6.45148">
        <ele>714</ele>
        <time>2014-04-29T10:11:44Z</time>
      </trkpt>
      <trkpt lat="43.83179" lon="6.45087">
        <ele>708</ele>
        <time>2014-04-29T10:11:49Z</time>
      </trkpt>
      <trkpt lat="43.83175" lon="6.45037">
        <ele>710</ele>
        <time>2014-04-29T10:11:53Z</time>
      </trkpt>
      <trkpt lat="43.83163" lon="6.44988">
        <ele>702</ele>
        <time>2014-04-29T10:11:57Z</time>
      </trkpt>
      <trkpt lat="43.83172" lon="6.4494">
        <ele>705</ele>
        <time>2014-04-29T10:12:01Z</time>
      </trkpt>
      <trkpt lat="43.83192" lon="6.44897">
        <ele>706</ele>
        <time>2014-04-29T10:12:05Z</time>
      </trkpt>
      <trkpt lat="43.83201" lon="6.4485">
        <ele>706</ele>
        <time>2014-04-29T10:12:09Z</time>
      </trkpt>
      <trkpt lat="43.83208" lon="6.44779">
        <ele>704</ele>
        <time>2014-04-29T10:12:15Z</time>
      </trkpt>
      <trkpt lat="43.83204" lon="6.44707">
        <ele>716</ele>
        <time>2014-04-29T10:12:21Z</time>
      </trkpt>
      <trkpt lat="43.83188" lon="6.44623">
        <ele>747</ele>
        <time>2014-04-29T10:12:29Z</time>
      </trkpt>
      <trkpt lat="43.83164" lon="6.44536">
        <ele>753</ele>
        <time>2014-04-29T10:12:38Z</time>
      </trkpt>
      <trkpt lat="43.83149" lon="6.44503">
        <ele>764</ele>
        <time>2014-04-29T10:12:42Z</time>
      </trkpt>
      <trkpt lat="43.8311" lon="6.44464">
        <ele>734</ele>
        <time>2014-04-29T10:12:48Z</time>
      </trkpt>
      <trkpt lat="43.83099" lon="6.44406">
        <ele>714</ele>
        <time>2014-04-29T10:12:56Z</time>
      </trkpt>
      <trkpt lat="43.83112" lon="6.44354">
        <ele>712</ele>
        <time>2014-04-29T10:13:02Z</time>
      </trkpt>
      <trkpt lat="43.83124" lon="6.44321">
        <ele>699</ele>
        <time>2014-04-29T10:13:06Z</time>
      </trkpt>
      <trkpt lat="43.83144" lon="6.44298">
        <ele>697</ele>
        <time>2014-04-29T10:13:10Z</time>
      </trkpt>
      <trkpt lat="43.83182" lon="6.44274">
        <ele>697</ele>
        <time>2014-04-29T10:13:16Z</time>
      </trkpt>
      <trkpt lat="43.83234" lon="6.44238">
        <ele>690</ele>
        <time>2014-04-29T10:13:24Z</time>
      </trkpt>
      <trkpt lat="43.83255" lon="6.44211">
        <ele>699</ele>
        <time>2014-04-29T10:13:28Z</time>
      </trkpt>
      <trkpt lat="43.83283" lon="6.44164">
        <ele>690</ele>
        <time>2014-04-29T10:13:34Z</time>
      </trkpt>
      <trkpt lat="43.83302" lon="6.4411">
        <ele>690</ele>
        <time>2014-04-29T10:13:40Z</time>
      </trkpt>
      <trkpt lat="43.83317" lon="6.44075">
        <ele>686</ele>
        <time>2014-04-29T10:13:44Z</time>
      </trkpt>
      <trkpt lat="43.83347" lon="6.43983">
        <ele>694</ele>
        <time>2014-04-29T10:13:54Z</time>
      </trkpt>
      <trkpt lat="43.83354" lon="6.43943">
        <ele>697</ele>
        <time>2014-04-29T10:13:58Z</time>
      </trkpt>
      <trkpt lat="43.83351" lon="6.43858">
        <ele>693</ele>
        <time>2014-04-29T10:14:06Z</time>
      </trkpt>
      <trkpt lat="43.83345" lon="6.43816">
        <ele>690</ele>
        <time>2014-04-29T10:14:10Z</time>
      </trkpt>
      <trkpt lat="43.83331" lon="6.43754">
        <ele>683</ele>
        <time>2014-04-29T10:14:16Z</time>
      </trkpt>
      <trkpt lat="43.83321" lon="6.43693">
        <ele>683</ele>
        <time>2014-04-29T10:14:22Z</time>
      </trkpt>
      <trkpt lat="43.83307" lon="6.43608">
        <ele>685</ele>
        <time>2014-04-29T10:14:30Z</time>
      </trkpt>
      <trkpt lat="43.83298" lon="6.43545">
        <ele>691</ele>
        <time>2014-04-29T10:14:36Z</time>
      </trkpt>
      <trkpt lat="43.8328" lon="6.43512">
        <ele>690</ele>
        <time>2014-04-29T10:14:40Z</time>
      </trkpt>
      <trkpt lat="43.83255" lon="6.43487">
        <ele>693</ele>
        <time>2014-04-29T10:14:44Z</time>
      </trkpt>
      <trkpt lat="43.83204" lon="6.43439">
        <ele>686</ele>
        <time>2014-04-29T10:14:52Z</time>
      </trkpt>
      <trkpt lat="43.83192" lon="6.43425">
        <ele>685</ele>
        <time>2014-04-29T10:14:54Z</time>
      </trkpt>
      <trkpt lat="43.83148" lon="6.43363">
        <ele>681</ele>
        <time>2014-04-29T10:15:02Z</time>
      </trkpt>
      <trkpt lat="43.83128" lon="6.43304">
        <ele>682</ele>
        <time>2014-04-29T10:15:08Z</time>
      </trkpt>
      <trkpt lat="43.83127" lon="6.43237">
        <ele>682</ele>
        <time>2014-04-29T10:15:14Z</time>
      </trkpt>
      <trkpt lat="43.83117" lon="6.43172">
        <ele>681</ele>
        <time>2014-04-29T10:15:20Z</time>
      </trkpt>
      <trkpt lat="43.83101" lon="6.43133">
        <ele>681</ele>
        <time>2014-04-29T10:15:24Z</time>
      </trkpt>
      <trkpt lat="43.83069" lon="6.43055">
        <ele>677</ele>
        <time>2014-04-29T10:15:32Z</time>
      </trkpt>
      <trkpt lat="43.83051" lon="6.42993">
        <ele>676</ele>
        <time>2014-04-29T10:15:38Z</time>
      </trkpt>
      <trkpt lat="43.83044" lon="6.42928">
        <ele>676</ele>
        <time>2014-04-29T10:15:44Z</time>
      </trkpt>
      <trkpt lat="43.83046" lon="6.42885">
        <ele>677</ele>
        <time>2014-04-29T10:15:48Z</time>
      </trkpt>
      <trkpt lat="43.83039" lon="6.42828">
        <ele>678</ele>
        <time>2014-04-29T10:15:54Z</time>
      </trkpt>
      <trkpt lat="43.83021" lon="6.42793">
        <ele>677</ele>
        <time>2014-04-29T10:15:58Z</time>
      </trkpt>
      <trkpt lat="43.82998" lon="6.42762">
        <ele>674</ele>
        <time>2014-04-29T10:16:02Z</time>
      </trkpt>
      <trkpt lat="43.82963" lon="6.42722">
        <ele>676</ele>
        <time>2014-04-29T10:16:08Z</time>
      </trkpt>
      <trkpt lat="43.8295" lon="6.42683">
        <ele>677</ele>
        <time>2014-04-29T10:16:12Z</time>
      </trkpt>
      <trkpt lat="43.82914" lon="6.42645">
        <ele>680</ele>
        <time>2014-04-29T10:16:18Z</time>
      </trkpt>
      <trkpt lat="43.82885" lon="6.42631">
        <ele>682</ele>
        <time>2014-04-29T10:16:22Z</time>
      </trkpt>
      <trkpt lat="43.82858" lon="6.42613">
        <ele>683</ele>
        <time>2014-04-29T10:16:26Z</time>
      </trkpt>
      <trkpt lat="43.82801" lon="6.42594">
        <ele>682</ele>
        <time>2014-04-29T10:16:34Z</time>
      </trkpt>
      <trkpt lat="43.82757" lon="6.42599">
        <ele>683</ele>
        <time>2014-04-29T10:16:40Z</time>
      </trkpt>
      <trkpt lat="43.82732" lon="6.42622">
        <ele>688</ele>
        <time>2014-04-29T10:16:44Z</time>
      </trkpt>
      <trkpt lat="43.82699" lon="6.42667">
        <ele>682</ele>
        <time>2014-04-29T10:16:50Z</time>
      </trkpt>
      <trkpt lat="43.82673" lon="6.42716">
        <ele>680</ele>
        <time>2014-04-29T10:16:56Z</time>
      </trkpt>
      <trkpt lat="43.82657" lon="6.42751">
        <ele>681</ele>
        <time>2014-04-29T10:17:00Z</time>
      </trkpt>
      <trkpt lat="43.82644" lon="6.42811">
        <ele>680</ele>
        <time>2014-04-29T10:17:06Z</time>
      </trkpt>
      <trkpt lat="43.82639" lon="6.42898">
        <ele>675</ele>
        <time>2014-04-29T10:17:14Z</time>
      </trkpt>
      <trkpt lat="43.82634" lon="6.42942">
        <ele>673</ele>
        <time>2014-04-29T10:17:18Z</time>
      </trkpt>
      <trkpt lat="43.8261" lon="6.43022">
        <ele>670</ele>
        <time>2014-04-29T10:17:26Z</time>
      </trkpt>
      <trkpt lat="43.82587" lon="6.43047">
        <ele>669</ele>
        <time>2014-04-29T10:17:30Z</time>
      </trkpt>
      <trkpt lat="43.82542" lon="6.43047">
        <ele>675</ele>
        <time>2014-04-29T10:17:36Z</time>
      </trkpt>
      <trkpt lat="43.82482" lon="6.43049">
        <ele>679</ele>
        <time>2014-04-29T10:17:44Z</time>
      </trkpt>
      <trkpt lat="43.82451" lon="6.43051">
        <ele>679</ele>
        <time>2014-04-29T10:17:48Z</time>
      </trkpt>
      <trkpt lat="43.8242" lon="6.43059">
        <ele>677</ele>
        <time>2014-04-29T10:17:52Z</time>
      </trkpt>
      <trkpt lat="43.82392" lon="6.43076">
        <ele>675</ele>
        <time>2014-04-29T10:17:56Z</time>
      </trkpt>
      <trkpt lat="43.82366" lon="6.43098">
        <ele>670</ele>
        <time>2014-04-29T10:18:00Z</time>
      </trkpt>
      <trkpt lat="43.82343" lon="6.43124">
        <ele>669</ele>
        <time>2014-04-29T10:18:04Z</time>
      </trkpt>
      <trkpt lat="43.82317" lon="6.43137">
        <ele>668</ele>
        <time>2014-04-29T10:18:08Z</time>
      </trkpt>
      <trkpt lat="43.82287" lon="6.43128">
        <ele>668</ele>
        <time>2014-04-29T10:18:12Z</time>
      </trkpt>
      <trkpt lat="43.8224" lon="6.43111">
        <ele>670</ele>
        <time>2014-04-29T10:18:18Z</time>
      </trkpt>
      <trkpt lat="43.8221" lon="6.43109">
        <ele>670</ele>
        <time>2014-04-29T10:18:22Z</time>
      </trkpt>
      <trkpt lat="43.82183" lon="6.43127">
        <ele>670</ele>
        <time>2014-04-29T10:18:26Z</time>
      </trkpt>
      <trkpt lat="43.82153" lon="6.43134">
        <ele>675</ele>
        <time>2014-04-29T10:18:30Z</time>
      </trkpt>
      <trkpt lat="43.82123" lon="6.4313">
        <ele>679</ele>
        <time>2014-04-29T10:18:34Z</time>
      </trkpt>
      <trkpt lat="43.82104" lon="6.43149">
        <ele>677</ele>
        <time>2014-04-29T10:18:38Z</time>
      </trkpt>
      <trkpt lat="43.82084" lon="6.43184">
        <ele>669</ele>
        <time>2014-04-29T10:18:42Z</time>
      </trkpt>
      <trkpt lat="43.82053" lon="6.43224">
        <ele>682</ele>
        <time>2014-04-29T10:18:47Z</time>
      </trkpt>
      <trkpt lat="43.82034" lon="6.43259">
        <ele>674</ele>
        <time>2014-04-29T10:18:51Z</time>
      </trkpt>
      <trkpt lat="43.82008" lon="6.43336">
        <ele>670</ele>
        <time>2014-04-29T10:18:59Z</time>
      </trkpt>
      <trkpt lat="43.8196" lon="6.43388">
        <ele>678</ele>
        <time>2014-04-29T10:19:07Z</time>
      </trkpt>
      <trkpt lat="43.81942" lon="6.43421">
        <ele>673</ele>
        <time>2014-04-29T10:19:11Z</time>
      </trkpt>
      <trkpt lat="43.81928" lon="6.43453">
        <ele>671</ele>
        <time>2014-04-29T10:19:15Z</time>
      </trkpt>
      <trkpt lat="43.81905" lon="6.4351">
        <ele>674</ele>
        <time>2014-04-29T10:19:23Z</time>
      </trkpt>
      <trkpt lat="43.81887" lon="6.4355">
        <ele>679</ele>
        <time>2014-04-29T10:19:29Z</time>
      </trkpt>
      <trkpt lat="43.81861" lon="6.4359">
        <ele>677</ele>
        <time>2014-04-29T10:19:35Z</time>
      </trkpt>
      <trkpt lat="43.81817" lon="6.43622">
        <ele>681</ele>
        <time>2014-04-29T10:19:43Z</time>
      </trkpt>
      <trkpt lat="43.81795" lon="6.43637">
        <ele>680</ele>
        <time>2014-04-29T10:19:46Z</time>
      </trkpt>
      <trkpt lat="43.81752" lon="6.43655">
        <ele>677</ele>
        <time>2014-04-29T10:19:52Z</time>
      </trkpt>
      <trkpt lat="43.81723" lon="6.4366">
        <ele>689</ele>
        <time>2014-04-29T10:19:56Z</time>
      </trkpt>
      <trkpt lat="43.81666" lon="6.43662">
        <ele>692</ele>
        <time>2014-04-29T10:21:27Z</time>
      </trkpt>
      <trkpt lat="43.81633" lon="6.43689">
        <ele>695</ele>
        <time>2014-04-29T10:21:41Z</time>
      </trkpt>
      <trkpt lat="43.81588" lon="6.43711">
        <ele>696</ele>
        <time>2014-04-29T10:21:54Z</time>
      </trkpt>
      <trkpt lat="43.81584" lon="6.43744">
        <ele>680</ele>
        <time>2014-04-29T10:21:57Z</time>
      </trkpt>
      <trkpt lat="43.81568" lon="6.43783">
        <ele>684</ele>
        <time>2014-04-29T10:22:03Z</time>
      </trkpt>
      <trkpt lat="43.81535" lon="6.43818">
        <ele>681</ele>
        <time>2014-04-29T10:22:09Z</time>
      </trkpt>
      <trkpt lat="43.81494" lon="6.43817">
        <ele>673</ele>
        <time>2014-04-29T10:22:15Z</time>
      </trkpt>
      <trkpt lat="43.81439" lon="6.4383">
        <ele>683</ele>
        <time>2014-04-29T10:22:26Z</time>
      </trkpt>
      <trkpt lat="43.81433" lon="6.43841">
        <ele>709</ele>
        <time>2014-04-29T10:24:09Z</time>
      </trkpt>
      <trkpt lat="43.80553" lon="6.44013">
        <ele>656</ele>
        <time>2014-04-29T10:32:19Z</time>
      </trkpt>
      <trkpt lat="43.80556" lon="6.43997">
        <ele>661</ele>
        <time>2014-04-29T10:34:26Z</time>
      </trkpt>
      <trkpt lat="43.80538" lon="6.44016">
        <ele>657</ele>
        <time>2014-04-29T10:34:32Z</time>
      </trkpt>
      <trkpt lat="43.8051" lon="6.44061">
        <ele>653</ele>
        <time>2014-04-29T10:34:44Z</time>
      </trkpt>
      <trkpt lat="43.80483" lon="6.44083">
        <ele>652</ele>
        <time>2014-04-29T10:34:51Z</time>
      </trkpt>
      <trkpt lat="43.80441" lon="6.44084">
        <ele>650</ele>
        <time>2014-04-29T10:35:00Z</time>
      </trkpt>
      <trkpt lat="43.80422" lon="6.44028">
        <ele>654</ele>
        <time>2014-04-29T10:35:10Z</time>
      </trkpt>
      <trkpt lat="43.80432" lon="6.43984">
        <ele>659</ele>
        <time>2014-04-29T10:35:15Z</time>
      </trkpt>
      <trkpt lat="43.80426" lon="6.43938">
        <ele>660</ele>
        <time>2014-04-29T10:35:21Z</time>
      </trkpt>
      <trkpt lat="43.80417" lon="6.43882">
        <ele>669</ele>
        <time>2014-04-29T10:35:28Z</time>
      </trkpt>
      <trkpt lat="43.80405" lon="6.43843">
        <ele>667</ele>
        <time>2014-04-29T10:35:32Z</time>
      </trkpt>
      <trkpt lat="43.80365" lon="6.43807">
        <ele>673</ele>
        <time>2014-04-29T10:35:40Z</time>
      </trkpt>
      <trkpt lat="43.80316" lon="6.43785">
        <ele>667</ele>
        <time>2014-04-29T10:35:48Z</time>
      </trkpt>
      <trkpt lat="43.80271" lon="6.43764">
        <ele>669</ele>
        <time>2014-04-29T10:35:56Z</time>
      </trkpt>
      <trkpt lat="43.80228" lon="6.43772">
        <ele>665</ele>
        <time>2014-04-29T10:36:02Z</time>
      </trkpt>
      <trkpt lat="43.80185" lon="6.43786">
        <ele>663</ele>
        <time>2014-04-29T10:36:08Z</time>
      </trkpt>
      <trkpt lat="43.80152" lon="6.43775">
        <ele>665</ele>
        <time>2014-04-29T10:36:14Z</time>
      </trkpt>
      <trkpt lat="43.80112" lon="6.43786">
        <ele>663</ele>
        <time>2014-04-29T10:36:19Z</time>
      </trkpt>
      <trkpt lat="43.80083" lon="6.43801">
        <ele>659</ele>
        <time>2014-04-29T10:36:23Z</time>
      </trkpt>
      <trkpt lat="43.80031" lon="6.43831">
        <ele>656</ele>
        <time>2014-04-29T10:36:31Z</time>
      </trkpt>
      <trkpt lat="43.79992" lon="6.43826">
        <ele>653</ele>
        <time>2014-04-29T10:36:37Z</time>
      </trkpt>
      <trkpt lat="43.79959" lon="6.4379">
        <ele>659</ele>
        <time>2014-04-29T10:36:43Z</time>
      </trkpt>
      <trkpt lat="43.7992" lon="6.43783">
        <ele>660</ele>
        <time>2014-04-29T10:36:49Z</time>
      </trkpt>
      <trkpt lat="43.79881" lon="6.43799">
        <ele>660</ele>
        <time>2014-04-29T10:36:55Z</time>
      </trkpt>
      <trkpt lat="43.79867" lon="6.43799">
        <ele>661</ele>
        <time>2014-04-29T10:36:57Z</time>
      </trkpt>
      <trkpt lat="43.79829" lon="6.43812">
        <ele>662</ele>
        <time>2014-04-29T10:37:03Z</time>
      </trkpt>
      <trkpt lat="43.79765" lon="6.43831">
        <ele>663</ele>
        <time>2014-04-29T10:37:13Z</time>
      </trkpt>
      <trkpt lat="43.79738" lon="6.43832">
        <ele>662</ele>
        <time>2014-04-29T10:37:17Z</time>
      </trkpt>
      <trkpt lat="43.79697" lon="6.43838">
        <ele>652</ele>
        <time>2014-04-29T10:37:23Z</time>
      </trkpt>
      <trkpt lat="43.79672" lon="6.4383">
        <ele>657</ele>
        <time>2014-04-29T10:37:27Z</time>
      </trkpt>
      <trkpt lat="43.79623" lon="6.4379">
        <ele>656</ele>
        <time>2014-04-29T10:37:35Z</time>
      </trkpt>
      <trkpt lat="43.79603" lon="6.43739">
        <ele>658</ele>
        <time>2014-04-29T10:37:41Z</time>
      </trkpt>
      <trkpt lat="43.79593" lon="6.43698">
        <ele>659</ele>
        <time>2014-04-29T10:37:45Z</time>
      </trkpt>
      <trkpt lat="43.7958" lon="6.43662">
        <ele>654</ele>
        <time>2014-04-29T10:37:49Z</time>
      </trkpt>
      <trkpt lat="43.79562" lon="6.4363">
        <ele>654</ele>
        <time>2014-04-29T10:37:53Z</time>
      </trkpt>
      <trkpt lat="43.79537" lon="6.43604">
        <ele>653</ele>
        <time>2014-04-29T10:37:57Z</time>
      </trkpt>
      <trkpt lat="43.79485" lon="6.43557">
        <ele>649</ele>
        <time>2014-04-29T10:38:05Z</time>
      </trkpt>
      <trkpt lat="43.79448" lon="6.43515">
        <ele>648</ele>
        <time>2014-04-29T10:38:11Z</time>
      </trkpt>
      <trkpt lat="43.79407" lon="6.43445">
        <ele>644</ele>
        <time>2014-04-29T10:38:19Z</time>
      </trkpt>
      <trkpt lat="43.79398" lon="6.43425">
        <ele>644</ele>
        <time>2014-04-29T10:38:21Z</time>
      </trkpt>
      <trkpt lat="43.79382" lon="6.43364">
        <ele>647</ele>
        <time>2014-04-29T10:38:27Z</time>
      </trkpt>
      <trkpt lat="43.79353" lon="6.43352">
        <ele>647</ele>
        <time>2014-04-29T10:38:31Z</time>
      </trkpt>
      <trkpt lat="43.79319" lon="6.43357">
        <ele>644</ele>
        <time>2014-04-29T10:38:35Z</time>
      </trkpt>
      <trkpt lat="43.79289" lon="6.43338">
        <ele>642</ele>
        <time>2014-04-29T10:38:39Z</time>
      </trkpt>
      <trkpt lat="43.7926" lon="6.43315">
        <ele>644</ele>
        <time>2014-04-29T10:38:43Z</time>
      </trkpt>
      <trkpt lat="43.79247" lon="6.43275">
        <ele>641</ele>
        <time>2014-04-29T10:38:47Z</time>
      </trkpt>
      <trkpt lat="43.79222" lon="6.43249">
        <ele>645</ele>
        <time>2014-04-29T10:38:51Z</time>
      </trkpt>
      <trkpt lat="43.79215" lon="6.43212">
        <ele>646</ele>
        <time>2014-04-29T10:38:55Z</time>
      </trkpt>
      <trkpt lat="43.79244" lon="6.43157">
        <ele>648</ele>
        <time>2014-04-29T10:39:03Z</time>
      </trkpt>
      <trkpt lat="43.79263" lon="6.43112">
        <ele>654</ele>
        <time>2014-04-29T10:39:09Z</time>
      </trkpt>
      <trkpt lat="43.79249" lon="6.43065">
        <ele>653</ele>
        <time>2014-04-29T10:39:15Z</time>
      </trkpt>
      <trkpt lat="43.79225" lon="6.43008">
        <ele>659</ele>
        <time>2014-04-29T10:39:22Z</time>
      </trkpt>
      <trkpt lat="43.79194" lon="6.42972">
        <ele>668</ele>
        <time>2014-04-29T10:39:28Z</time>
      </trkpt>
      <trkpt lat="43.7912" lon="6.42965">
        <ele>686</ele>
        <time>2014-04-29T10:39:40Z</time>
      </trkpt>
      <trkpt lat="43.79093" lon="6.42953">
        <ele>693</ele>
        <time>2014-04-29T10:39:45Z</time>
      </trkpt>
      <trkpt lat="43.79074" lon="6.42918">
        <ele>714</ele>
        <time>2014-04-29T10:39:51Z</time>
      </trkpt>
      <trkpt lat="43.79052" lon="6.42872">
        <ele>719</ele>
        <time>2014-04-29T10:40:00Z</time>
      </trkpt>
      <trkpt lat="43.79044" lon="6.42831">
        <ele>719</ele>
        <time>2014-04-29T10:40:04Z</time>
      </trkpt>
      <trkpt lat="43.79069" lon="6.42712">
        <ele>719</ele>
        <time>2014-04-29T10:40:10Z</time>
      </trkpt>
      <trkpt lat="43.79068" lon="6.42617">
        <ele>722</ele>
        <time>2014-04-29T10:40:17Z</time>
      </trkpt>
      <trkpt lat="43.79042" lon="6.42575">
        <ele>734</ele>
        <time>2014-04-29T10:40:24Z</time>
      </trkpt>
      <trkpt lat="43.79015" lon="6.42526">
        <ele>745</ele>
        <time>2014-04-29T10:40:33Z</time>
      </trkpt>
      <trkpt lat="43.79017" lon="6.42512">
        <ele>747</ele>
        <time>2014-04-29T10:40:35Z</time>
      </trkpt>
      <trkpt lat="43.79076" lon="6.42391">
        <ele>785</ele>
        <time>2014-04-29T10:40:40Z</time>
      </trkpt>
      <trkpt lat="43.79093" lon="6.42347">
        <ele>804</ele>
        <time>2014-04-29T10:40:43Z</time>
      </trkpt>
      <trkpt lat="43.79114" lon="6.42301">
        <ele>831</ele>
        <time>2014-04-29T10:40:48Z</time>
      </trkpt>
      <trkpt lat="43.79133" lon="6.42273">
        <ele>838</ele>
        <time>2014-04-29T10:40:52Z</time>
      </trkpt>
      <trkpt lat="43.79173" lon="6.42222">
        <ele>857</ele>
        <time>2014-04-29T10:41:02Z</time>
      </trkpt>
      <trkpt lat="43.79199" lon="6.42189">
        <ele>860</ele>
        <time>2014-04-29T10:41:10Z</time>
      </trkpt>
      <trkpt lat="43.79248" lon="6.42182">
        <ele>860</ele>
        <time>2014-04-29T10:43:41Z</time>
      </trkpt>
      <trkpt lat="43.79286" lon="6.4215">
        <ele>863</ele>
        <time>2014-04-29T10:43:53Z</time>
      </trkpt>
      <trkpt lat="43.79303" lon="6.42131">
        <ele>863</ele>
        <time>2014-04-29T10:43:59Z</time>
      </trkpt>
      <trkpt lat="43.7932" lon="6.42087">
        <ele>864</ele>
        <time>2014-04-29T10:44:08Z</time>
      </trkpt>
      <trkpt lat="43.79338" lon="6.42063">
        <ele>870</ele>
        <time>2014-04-29T10:44:14Z</time>
      </trkpt>
      <trkpt lat="43.79369" lon="6.42019">
        <ele>872</ele>
        <time>2014-04-29T10:44:26Z</time>
      </trkpt>
      <trkpt lat="43.79389" lon="6.4198">
        <ele>867</ele>
        <time>2014-04-29T10:44:35Z</time>
      </trkpt>
      <trkpt lat="43.79413" lon="6.41927">
        <ele>860</ele>
        <time>2014-04-29T10:44:47Z</time>
      </trkpt>
      <trkpt lat="43.79425" lon="6.4187">
        <ele>870</ele>
        <time>2014-04-29T10:44:59Z</time>
      </trkpt>
      <trkpt lat="43.79439" lon="6.41848">
        <ele>870</ele>
        <time>2014-04-29T10:45:05Z</time>
      </trkpt>
      <trkpt lat="43.7947" lon="6.41812">
        <ele>875</ele>
        <time>2014-04-29T10:45:17Z</time>
      </trkpt>
      <trkpt lat="43.79484" lon="6.4179">
        <ele>873</ele>
        <time>2014-04-29T10:45:23Z</time>
      </trkpt>
      <trkpt lat="43.79512" lon="6.41732">
        <ele>874</ele>
        <time>2014-04-29T10:45:38Z</time>
      </trkpt>
      <trkpt lat="43.79534" lon="6.41702">
        <ele>882</ele>
        <time>2014-04-29T10:45:47Z</time>
      </trkpt>
      <trkpt lat="43.79568" lon="6.4165">
        <ele>879</ele>
        <time>2014-04-29T10:46:02Z</time>
      </trkpt>
      <trkpt lat="43.79594" lon="6.41605">
        <ele>891</ele>
        <time>2014-04-29T10:46:14Z</time>
      </trkpt>
      <trkpt lat="43.79608" lon="6.41564">
        <ele>877</ele>
        <time>2014-04-29T10:46:23Z</time>
      </trkpt>
      <trkpt lat="43.79625" lon="6.41523">
        <ele>878</ele>
        <time>2014-04-29T10:46:32Z</time>
      </trkpt>
      <trkpt lat="43.79631" lon="6.41473">
        <ele>864</ele>
        <time>2014-04-29T10:46:42Z</time>
      </trkpt>
      <trkpt lat="43.79654" lon="6.4145">
        <ele>864</ele>
        <time>2014-04-29T10:46:50Z</time>
      </trkpt>
      <trkpt lat="43.79678" lon="6.41394">
        <ele>874</ele>
        <time>2014-04-29T10:47:02Z</time>
      </trkpt>
      <trkpt lat="43.79677" lon="6.41334">
        <ele>864</ele>
        <time>2014-04-29T10:47:14Z</time>
      </trkpt>
      <trkpt lat="43.79712" lon="6.41295">
        <ele>870</ele>
        <time>2014-04-29T10:48:15Z</time>
      </trkpt>
      <trkpt lat="43.79702" lon="6.41248">
        <ele>856</ele>
        <time>2014-04-29T10:48:20Z</time>
      </trkpt>
      <trkpt lat="43.79672" lon="6.41213">
        <ele>853</ele>
        <time>2014-04-29T10:48:32Z</time>
      </trkpt>
      <trkpt lat="43.7967" lon="6.41184">
        <ele>851</ele>
        <time>2014-04-29T10:50:16Z</time>
      </trkpt>
      <trkpt lat="43.79663" lon="6.41154">
        <ele>823</ele>
        <time>2014-04-29T10:50:23Z</time>
      </trkpt>
      <trkpt lat="43.7963" lon="6.41112">
        <ele>780</ele>
        <time>2014-04-29T10:50:36Z</time>
      </trkpt>
      <trkpt lat="43.79629" lon="6.41055">
        <ele>749</ele>
        <time>2014-04-29T10:50:49Z</time>
      </trkpt>
      <trkpt lat="43.79622" lon="6.41009">
        <ele>748</ele>
        <time>2014-04-29T10:50:58Z</time>
      </trkpt>
      <trkpt lat="43.79625" lon="6.40979">
        <ele>745</ele>
        <time>2014-04-29T10:51:04Z</time>
      </trkpt>
      <trkpt lat="43.79602" lon="6.40952">
        <ele>739</ele>
        <time>2014-04-29T10:51:11Z</time>
      </trkpt>
      <trkpt lat="43.79592" lon="6.40922">
        <ele>727</ele>
        <time>2014-04-29T10:51:17Z</time>
      </trkpt>
      <trkpt lat="43.79598" lon="6.40876">
        <ele>732</ele>
        <time>2014-04-29T10:51:26Z</time>
      </trkpt>
      <trkpt lat="43.79619" lon="6.40835">
        <ele>735</ele>
        <time>2014-04-29T10:51:35Z</time>
      </trkpt>
      <trkpt lat="43.79613" lon="6.40804">
        <ele>741</ele>
        <time>2014-04-29T10:51:41Z</time>
      </trkpt>
      <trkpt lat="43.79571" lon="6.40771">
        <ele>735</ele>
        <time>2014-04-29T10:51:53Z</time>
      </trkpt>
      <trkpt lat="43.7955" lon="6.40759">
        <ele>734</ele>
        <time>2014-04-29T10:51:59Z</time>
      </trkpt>
      <trkpt lat="43.79505" lon="6.40741">
        <ele>742</ele>
        <time>2014-04-29T10:52:11Z</time>
      </trkpt>
      <trkpt lat="43.79472" lon="6.40729">
        <ele>750</ele>
        <time>2014-04-29T10:52:20Z</time>
      </trkpt>
      <trkpt lat="43.7943" lon="6.40752">
        <ele>740</ele>
        <time>2014-04-29T10:52:32Z</time>
      </trkpt>
      <trkpt lat="43.7939" lon="6.40775">
        <ele>728</ele>
        <time>2014-04-29T10:52:44Z</time>
      </trkpt>
      <trkpt lat="43.79348" lon="6.40743">
        <ele>746</ele>
        <time>2014-04-29T10:52:56Z</time>
      </trkpt>
      <trkpt lat="43.79324" lon="6.40696">
        <ele>739</ele>
        <time>2014-04-29T10:53:08Z</time>
      </trkpt>
      <trkpt lat="43.79332" lon="6.40665">
        <ele>753</ele>
        <time>2014-04-29T10:53:15Z</time>
      </trkpt>
      <trkpt lat="43.79338" lon="6.40616">
        <ele>753</ele>
        <time>2014-04-29T10:54:40Z</time>
      </trkpt>
      <trkpt lat="43.79367" lon="6.40569">
        <ele>751</ele>
        <time>2014-04-29T10:54:49Z</time>
      </trkpt>
      <trkpt lat="43.79367" lon="6.40486">
        <ele>753</ele>
        <time>2014-04-29T10:54:57Z</time>
      </trkpt>
      <trkpt lat="43.7934" lon="6.40439">
        <ele>749</ele>
        <time>2014-04-29T10:55:02Z</time>
      </trkpt>
      <trkpt lat="43.79323" lon="6.40428">
        <ele>732</ele>
        <time>2014-04-29T10:55:04Z</time>
      </trkpt>
      <trkpt lat="43.79299" lon="6.40393">
        <ele>727</ele>
        <time>2014-04-29T10:55:08Z</time>
      </trkpt>
      <trkpt lat="43.79294" lon="6.40351">
        <ele>726</ele>
        <time>2014-04-29T10:55:12Z</time>
      </trkpt>
      <trkpt lat="43.79311" lon="6.40297">
        <ele>724</ele>
        <time>2014-04-29T10:55:16Z</time>
      </trkpt>
      <trkpt lat="43.7932" lon="6.40224">
        <ele>719</ele>
        <time>2014-04-29T10:55:21Z</time>
      </trkpt>
      <trkpt lat="43.79325" lon="6.40171">
        <ele>721</ele>
        <time>2014-04-29T10:55:25Z</time>
      </trkpt>
      <trkpt lat="43.79315" lon="6.40132">
        <ele>720</ele>
        <time>2014-04-29T10:55:29Z</time>
      </trkpt>
      <trkpt lat="43.79281" lon="6.40119">
        <ele>716</ele>
        <time>2014-04-29T10:55:33Z</time>
      </trkpt>
      <trkpt lat="43.79248" lon="6.40097">
        <ele>703</ele>
        <time>2014-04-29T10:55:37Z</time>
      </trkpt>
      <trkpt lat="43.79205" lon="6.40075">
        <ele>714</ele>
        <time>2014-04-29T10:55:42Z</time>
      </trkpt>
      <trkpt lat="43.7916" lon="6.40068">
        <ele>683</ele>
        <time>2014-04-29T10:55:47Z</time>
      </trkpt>
      <trkpt lat="43.79128" lon="6.40051">
        <ele>677</ele>
        <time>2014-04-29T10:55:51Z</time>
      </trkpt>
      <trkpt lat="43.79072" lon="6.40049">
        <ele>652</ele>
        <time>2014-04-29T10:55:59Z</time>
      </trkpt>
      <trkpt lat="43.79054" lon="6.40025">
        <ele>658</ele>
        <time>2014-04-29T10:56:03Z</time>
      </trkpt>
      <trkpt lat="43.79047" lon="6.39983">
        <ele>668</ele>
        <time>2014-04-29T10:56:07Z</time>
      </trkpt>
      <trkpt lat="43.79066" lon="6.39923">
        <ele>673</ele>
        <time>2014-04-29T10:56:14Z</time>
      </trkpt>
      <trkpt lat="43.79073" lon="6.39891">
        <ele>673</ele>
        <time>2014-04-29T10:56:18Z</time>
      </trkpt>
      <trkpt lat="43.79075" lon="6.39852">
        <ele>679</ele>
        <time>2014-04-29T10:56:22Z</time>
      </trkpt>
      <trkpt lat="43.79073" lon="6.39812">
        <ele>679</ele>
        <time>2014-04-29T10:56:26Z</time>
      </trkpt>
      <trkpt lat="43.79069" lon="6.39748">
        <ele>693</ele>
        <time>2014-04-29T10:57:03Z</time>
      </trkpt>
      <trkpt lat="43.79043" lon="6.39689">
        <ele>672</ele>
        <time>2014-04-29T10:57:11Z</time>
      </trkpt>
      <trkpt lat="43.79031" lon="6.39668">
        <ele>659</ele>
        <time>2014-04-29T10:57:14Z</time>
      </trkpt>
      <trkpt lat="43.79001" lon="6.39629">
        <ele>668</ele>
        <time>2014-04-29T10:57:20Z</time>
      </trkpt>
      <trkpt lat="43.78964" lon="6.39591">
        <ele>644</ele>
        <time>2014-04-29T10:57:29Z</time>
      </trkpt>
      <trkpt lat="43.78945" lon="6.39595">
        <ele>640</ele>
        <time>2014-04-29T11:05:11Z</time>
      </trkpt>
      <trkpt lat="43.78922" lon="6.39587">
        <ele>636</ele>
        <time>2014-04-29T11:07:18Z</time>
      </trkpt>
      <trkpt lat="43.78917" lon="6.39586">
        <ele>636</ele>
        <time>2014-04-29T11:07:56Z</time>
      </trkpt>
      <trkpt lat="43.7887" lon="6.39579">
        <ele>669</ele>
        <time>2014-04-29T11:08:23Z</time>
      </trkpt>
      <trkpt lat="43.78841" lon="6.3959">
        <ele>675</ele>
        <time>2014-04-29T11:08:48Z</time>
      </trkpt>
      <trkpt lat="43.78805" lon="6.39607">
        <ele>702</ele>
        <time>2014-04-29T11:09:08Z</time>
      </trkpt>
      <trkpt lat="43.78777" lon="6.39608">
        <ele>715</ele>
        <time>2014-04-29T11:09:25Z</time>
      </trkpt>
      <trkpt lat="43.78746" lon="6.39606">
        <ele>787</ele>
        <time>2014-04-29T11:09:38Z</time>
      </trkpt>
      <trkpt lat="43.78733" lon="6.39625">
        <ele>791</ele>
        <time>2014-04-29T11:10:11Z</time>
      </trkpt>
      <trkpt lat="43.78717" lon="6.39642">
        <ele>799</ele>
        <time>2014-04-29T11:10:23Z</time>
      </trkpt>
      <trkpt lat="43.78025" lon="6.39295">
        <ele>906</ele>
        <time>2014-04-29T11:21:34Z</time>
      </trkpt>
      <trkpt lat="43.7801" lon="6.39281">
        <ele>904</ele>
        <time>2014-04-29T11:21:43Z</time>
      </trkpt>
      <trkpt lat="43.77985" lon="6.39285">
        <ele>899</ele>
        <time>2014-04-29T11:22:13Z</time>
      </trkpt>
      <trkpt lat="43.78033" lon="6.39202">
        <ele>908</ele>
        <time>2014-04-29T11:23:07Z</time>
      </trkpt>
      <trkpt lat="43.78044" lon="6.39155">
        <ele>919</ele>
        <time>2014-04-29T11:23:17Z</time>
      </trkpt>
      <trkpt lat="43.7803" lon="6.39201">
        <ele>908</ele>
        <time>2014-04-29T11:23:44Z</time>
      </trkpt>
      <trkpt lat="43.78016" lon="6.39243">
        <ele>903</ele>
        <time>2014-04-29T11:24:07Z</time>
      </trkpt>
      <trkpt lat="43.77975" lon="6.39292">
        <ele>899</ele>
        <time>2014-04-29T11:26:06Z</time>
      </trkpt>
      <trkpt lat="43.77961" lon="6.39266">
        <ele>897</ele>
        <time>2014-04-29T11:27:06Z</time>
      </trkpt>
      <trkpt lat="43.77935" lon="6.39283">
        <ele>898</ele>
        <time>2014-04-29T11:29:01Z</time>
      </trkpt>
      <trkpt lat="43.77895" lon="6.39273">
        <ele>899</ele>
        <time>2014-04-29T11:29:18Z</time>
      </trkpt>
      <trkpt lat="43.77871" lon="6.39254">
        <ele>899</ele>
        <time>2014-04-29T11:30:03Z</time>
      </trkpt>
      <trkpt lat="43.77843" lon="6.39271">
        <ele>900</ele>
        <time>2014-04-29T11:30:18Z</time>
      </trkpt>
      <trkpt lat="43.77877" lon="6.39271">
        <ele>900</ele>
        <time>2014-04-29T11:30:30Z</time>
      </trkpt>
      <trkpt lat="43.77839" lon="6.39251">
        <ele>896</ele>
        <time>2014-04-29T11:31:09Z</time>
      </trkpt>
      <trkpt lat="43.77816" lon="6.39249">
        <ele>898</ele>
        <time>2014-04-29T11:31:19Z</time>
      </trkpt>
      <trkpt lat="43.77781" lon="6.39268">
        <ele>913</ele>
        <time>2014-04-29T11:31:46Z</time>
      </trkpt>
      <trkpt lat="43.77745" lon="6.39261">
        <ele>914</ele>
        <time>2014-04-29T11:32:15Z</time>
      </trkpt>
      <trkpt lat="43.77718" lon="6.39257">
        <ele>921</ele>
        <time>2014-04-29T11:32:39Z</time>
      </trkpt>
      <trkpt lat="43.77737" lon="6.39209">
        <ele>900</ele>
        <time>2014-04-29T11:33:18Z</time>
      </trkpt>
      <trkpt lat="43.77708" lon="6.39234">
        <ele>904</ele>
        <time>2014-04-29T11:33:58Z</time>
      </trkpt>
      <trkpt lat="43.7767" lon="6.39241">
        <ele>913</ele>
        <time>2014-04-29T11:34:18Z</time>
      </trkpt>
      <trkpt lat="43.77617" lon="6.39292">
        <ele>944</ele>
        <time>2014-04-29T11:34:34Z</time>
      </trkpt>
      <trkpt lat="43.77624" lon="6.39283">
        <ele>942</ele>
        <time>2014-04-29T11:34:41Z</time>
      </trkpt>
      <trkpt lat="43.7781" lon="6.38957">
        <ele>967</ele>
        <time>2014-04-29T11:34:55Z</time>
      </trkpt>
      <trkpt lat="43.77786" lon="6.39001">
        <ele>953</ele>
        <time>2014-04-29T11:35:17Z</time>
      </trkpt>
      <trkpt lat="43.77765" lon="6.39036">
        <ele>949</ele>
        <time>2014-04-29T11:37:20Z</time>
      </trkpt>
      <trkpt lat="43.77748" lon="6.39083">
        <ele>928</ele>
        <time>2014-04-29T11:38:20Z</time>
      </trkpt>
      <trkpt lat="43.77737" lon="6.39032">
        <ele>944</ele>
        <time>2014-04-29T11:39:31Z</time>
      </trkpt>
      <trkpt lat="43.77752" lon="6.38923">
        <ele>980</ele>
        <time>2014-04-29T11:39:36Z</time>
      </trkpt>
      <trkpt lat="43.77713" lon="6.38921">
        <ele>971</ele>
        <time>2014-04-29T11:39:56Z</time>
      </trkpt>
      <trkpt lat="43.77675" lon="6.38913">
        <ele>974</ele>
        <time>2014-04-29T11:40:16Z</time>
      </trkpt>
      <trkpt lat="43.7764" lon="6.38892">
        <ele>969</ele>
        <time>2014-04-29T11:40:44Z</time>
      </trkpt>
      <trkpt lat="43.77619" lon="6.38892">
        <ele>966</ele>
        <time>2014-04-29T11:40:56Z</time>
      </trkpt>
      <trkpt lat="43.77584" lon="6.38925">
        <ele>943</ele>
        <time>2014-04-29T11:41:05Z</time>
      </trkpt>
      <trkpt lat="43.77552" lon="6.38949">
        <ele>923</ele>
        <time>2014-04-29T11:41:14Z</time>
      </trkpt>
      <trkpt lat="43.77509" lon="6.38966">
        <ele>916</ele>
        <time>2014-04-29T11:41:29Z</time>
      </trkpt>
      <trkpt lat="43.77471" lon="6.38977">
        <ele>903</ele>
        <time>2014-04-29T11:41:46Z</time>
      </trkpt>
      <trkpt lat="43.7743" lon="6.38986">
        <ele>899</ele>
        <time>2014-04-29T11:42:03Z</time>
      </trkpt>
      <trkpt lat="43.77391" lon="6.38988">
        <ele>900</ele>
        <time>2014-04-29T11:42:21Z</time>
      </trkpt>
      <trkpt lat="43.7737" lon="6.38984">
        <ele>903</ele>
        <time>2014-04-29T11:42:35Z</time>
      </trkpt>
      <trkpt lat="43.77337" lon="6.38963">
        <ele>904</ele>
        <time>2014-04-29T11:42:56Z</time>
      </trkpt>
      <trkpt lat="43.77305" lon="6.38964">
        <ele>907</ele>
        <time>2014-04-29T11:43:11Z</time>
      </trkpt>
      <trkpt lat="43.77257" lon="6.38975">
        <ele>907</ele>
        <time>2014-04-29T11:43:32Z</time>
      </trkpt>
      <trkpt lat="43.77235" lon="6.38972">
        <ele>925</ele>
        <time>2014-04-29T11:43:41Z</time>
      </trkpt>
      <trkpt lat="43.77209" lon="6.38984">
        <ele>939</ele>
        <time>2014-04-29T11:43:50Z</time>
      </trkpt>
      <trkpt lat="43.77186" lon="6.38997">
        <ele>964</ele>
        <time>2014-04-29T11:43:57Z</time>
      </trkpt>
      <trkpt lat="43.77377" lon="6.38767">
        <ele>916</ele>
        <time>2014-04-29T11:44:00Z</time>
      </trkpt>
      <trkpt lat="43.77355" lon="6.38751">
        <ele>908</ele>
        <time>2014-04-29T11:44:02Z</time>
      </trkpt>
      <trkpt lat="43.77332" lon="6.38723">
        <ele>897</ele>
        <time>2014-04-29T11:44:11Z</time>
      </trkpt>
      <trkpt lat="43.77271" lon="6.38677">
        <ele>890</ele>
        <time>2014-04-29T11:45:57Z</time>
      </trkpt>
      <trkpt lat="43.77243" lon="6.38623">
        <ele>883</ele>
        <time>2014-04-29T11:46:31Z</time>
      </trkpt>
      <trkpt lat="43.77236" lon="6.386">
        <ele>884</ele>
        <time>2014-04-29T11:46:54Z</time>
      </trkpt>
      <trkpt lat="43.76953" lon="6.38751">
        <ele>1086</ele>
        <time>2014-04-29T11:47:19Z</time>
      </trkpt>
      <trkpt lat="43.76931" lon="6.38739">
        <ele>1024</ele>
        <time>2014-04-29T11:47:40Z</time>
      </trkpt>
      <trkpt lat="43.76906" lon="6.38754">
        <ele>1072</ele>
        <time>2014-04-29T11:47:48Z</time>
      </trkpt>
      <trkpt lat="43.76878" lon="6.38745">
        <ele>916</ele>
        <time>2014-04-29T11:48:02Z</time>
      </trkpt>
      <trkpt lat="43.76912" lon="6.38687">
        <ele>854</ele>
        <time>2014-04-29T11:48:43Z</time>
      </trkpt>
      <trkpt lat="43.76894" lon="6.38702">
        <ele>884</ele>
        <time>2014-04-29T11:50:17Z</time>
      </trkpt>
      <trkpt lat="43.7688" lon="6.38668">
        <ele>851</ele>
        <time>2014-04-29T11:50:41Z</time>
      </trkpt>
      <trkpt lat="43.76888" lon="6.38644">
        <ele>783</ele>
        <time>2014-04-29T11:50:50Z</time>
      </trkpt>
      <trkpt lat="43.76916" lon="6.38583">
        <ele>735</ele>
        <time>2014-04-29T11:51:00Z</time>
      </trkpt>
      <trkpt lat="43.76923" lon="6.38566">
        <ele>744</ele>
        <time>2014-04-29T11:51:02Z</time>
      </trkpt>
      <trkpt lat="43.76974" lon="6.38394">
        <ele>847</ele>
        <time>2014-04-29T11:51:22Z</time>
      </trkpt>
      <trkpt lat="43.76977" lon="6.38372">
        <ele>856</ele>
        <time>2014-04-29T11:51:27Z</time>
      </trkpt>
      <trkpt lat="43.76984" lon="6.38339">
        <ele>879</ele>
        <time>2014-04-29T11:51:42Z</time>
      </trkpt>
      <trkpt lat="43.76954" lon="6.38307">
        <ele>912</ele>
        <time>2014-04-29T11:52:06Z</time>
      </trkpt>
      <trkpt lat="43.76923" lon="6.38271">
        <ele>917</ele>
        <time>2014-04-29T11:52:27Z</time>
      </trkpt>
      <trkpt lat="43.76889" lon="6.38223">
        <ele>930</ele>
        <time>2014-04-29T11:52:53Z</time>
      </trkpt>
      <trkpt lat="43.76852" lon="6.38174">
        <ele>935</ele>
        <time>2014-04-29T11:53:23Z</time>
      </trkpt>
      <trkpt lat="43.76826" lon="6.38135">
        <ele>947</ele>
        <time>2014-04-29T11:53:41Z</time>
      </trkpt>
      <trkpt lat="43.76792" lon="6.38115">
        <ele>949</ele>
        <time>2014-04-29T11:54:14Z</time>
      </trkpt>
      <trkpt lat="43.76774" lon="6.38102">
        <ele>951</ele>
        <time>2014-04-29T11:54:28Z</time>
      </trkpt>
      <trkpt lat="43.76738" lon="6.38086">
        <ele>951</ele>
        <time>2014-04-29T11:54:50Z</time>
      </trkpt>
      <trkpt lat="43.7671" lon="6.38073">
        <ele>969</ele>
        <time>2014-04-29T11:55:01Z</time>
      </trkpt>
      <trkpt lat="43.76689" lon="6.38048">
        <ele>974</ele>
        <time>2014-04-29T11:55:16Z</time>
      </trkpt>
      <trkpt lat="43.76641" lon="6.38024">
        <ele>991</ele>
        <time>2014-04-29T11:55:44Z</time>
      </trkpt>
      <trkpt lat="43.76597" lon="6.38018">
        <ele>1000</ele>
        <time>2014-04-29T11:56:02Z</time>
      </trkpt>
      <trkpt lat="43.76573" lon="6.38007">
        <ele>1003</ele>
        <time>2014-04-29T11:56:10Z</time>
      </trkpt>
      <trkpt lat="43.7653" lon="6.37985">
        <ele>1021</ele>
        <time>2014-04-29T11:56:33Z</time>
      </trkpt>
      <trkpt lat="43.76502" lon="6.37971">
        <ele>1024</ele>
        <time>2014-04-29T11:56:50Z</time>
      </trkpt>
      <trkpt lat="43.76455" lon="6.37958">
        <ele>1017</ele>
        <time>2014-04-29T11:57:18Z</time>
      </trkpt>
      <trkpt lat="43.76395" lon="6.37948">
        <ele>995</ele>
        <time>2014-04-29T11:57:47Z</time>
      </trkpt>
      <trkpt lat="43.76356" lon="6.37931">
        <ele>990</ele>
        <time>2014-04-29T11:58:23Z</time>
      </trkpt>
      <trkpt lat="43.7633" lon="6.37922">
        <ele>987</ele>
        <time>2014-04-29T11:58:43Z</time>
      </trkpt>
      <trkpt lat="43.76263" lon="6.37886">
        <ele>1006</ele>
        <time>2014-04-29T12:00:27Z</time>
      </trkpt>
      <trkpt lat="43.76228" lon="6.37869">
        <ele>1001</ele>
        <time>2014-04-29T12:00:53Z</time>
      </trkpt>
      <trkpt lat="43.762" lon="6.37865">
        <ele>1000</ele>
        <time>2014-04-29T12:01:05Z</time>
      </trkpt>
      <trkpt lat="43.76147" lon="6.37869">
        <ele>901</ele>
        <time>2014-04-29T12:01:46Z</time>
      </trkpt>
      <trkpt lat="43.76116" lon="6.37867">
        <ele>857</ele>
        <time>2014-04-29T12:02:11Z</time>
      </trkpt>
      <trkpt lat="43.76069" lon="6.37868">
        <ele>698</ele>
        <time>2014-04-29T12:02:31Z</time>
      </trkpt>
      <trkpt lat="43.7603" lon="6.37849">
        <ele>667</ele>
        <time>2014-04-29T12:02:51Z</time>
      </trkpt>
      <trkpt lat="43.76008" lon="6.37832">
        <ele>643</ele>
        <time>2014-04-29T12:03:03Z</time>
      </trkpt>
      <trkpt lat="43.7598" lon="6.37819">
        <ele>609</ele>
        <time>2014-04-29T12:03:19Z</time>
      </trkpt>
      <trkpt lat="43.75951" lon="6.37812">
        <ele>608</ele>
        <time>2014-04-29T12:03:35Z</time>
      </trkpt>
      <trkpt lat="43.75915" lon="6.37794">
        <ele>612</ele>
        <time>2014-04-29T12:04:03Z</time>
      </trkpt>
      <trkpt lat="43.75892" lon="6.3779">
        <ele>614</ele>
        <time>2014-04-29T12:04:24Z</time>
      </trkpt>
      <trkpt lat="43.75863" lon="6.37795">
        <ele>616</ele>
        <time>2014-04-29T12:04:47Z</time>
      </trkpt>
      <trkpt lat="43.75841" lon="6.37787">
        <ele>617</ele>
        <time>2014-04-29T12:05:08Z</time>
      </trkpt>
      <trkpt lat="43.75812" lon="6.37808">
        <ele>623</ele>
        <time>2014-04-29T12:05:32Z</time>
      </trkpt>
      <trkpt lat="43.75778" lon="6.37846">
        <ele>618</ele>
        <time>2014-04-29T12:08:42Z</time>
      </trkpt>
      <trkpt lat="43.75737" lon="6.37827">
        <ele>624</ele>
        <time>2014-04-29T12:09:28Z</time>
      </trkpt>
      <trkpt lat="43.75713" lon="6.37801">
        <ele>623</ele>
        <time>2014-04-29T12:09:46Z</time>
      </trkpt>
      <trkpt lat="43.75678" lon="6.37804">
        <ele>622</ele>
        <time>2014-04-29T12:10:31Z</time>
      </trkpt>
      <trkpt lat="43.75658" lon="6.37819">
        <ele>622</ele>
        <time>2014-04-29T12:10:46Z</time>
      </trkpt>
      <trkpt lat="43.75621" lon="6.37831">
        <ele>622</ele>
        <time>2014-04-29T12:11:04Z</time>
      </trkpt>
      <trkpt lat="43.75568" lon="6.37829">
        <ele>622</ele>
        <time>2014-04-29T12:11:33Z</time>
      </trkpt>
      <trkpt lat="43.755" lon="6.3782">
        <ele>619</ele>
        <time>2014-04-29T12:12:13Z</time>
      </trkpt>
      <trkpt lat="43.75466" lon="6.37833">
        <ele>618</ele>
        <time>2014-04-29T12:12:36Z</time>
      </trkpt>
      <trkpt lat="43.75433" lon="6.37839">
        <ele>616</ele>
        <time>2014-04-29T12:13:04Z</time>
      </trkpt>
      <trkpt lat="43.75381" lon="6.37845">
        <ele>615</ele>
        <time>2014-04-29T12:13:34Z</time>
      </trkpt>
      <trkpt lat="43.75335" lon="6.37844">
        <ele>616</ele>
        <time>2014-04-29T12:14:10Z</time>
      </trkpt>
      <trkpt lat="43.75295" lon="6.37888">
        <ele>745</ele>
        <time>2014-04-29T12:14:36Z</time>
      </trkpt>
      <trkpt lat="43.7528" lon="6.37847">
        <ele>760</ele>
        <time>2014-04-29T12:14:59Z</time>
      </trkpt>
      <trkpt lat="43.75256" lon="6.37842">
        <ele>803</ele>
        <time>2014-04-29T12:15:19Z</time>
      </trkpt>
      <trkpt lat="43.75215" lon="6.37853">
        <ele>890</ele>
        <time>2014-04-29T12:16:03Z</time>
      </trkpt>
      <trkpt lat="43.7518" lon="6.37884">
        <ele>908</ele>
        <time>2014-04-29T12:16:47Z</time>
      </trkpt>
      <trkpt lat="43.75163" lon="6.37915">
        <ele>921</ele>
        <time>2014-04-29T12:17:13Z</time>
      </trkpt>
      <trkpt lat="43.75146" lon="6.37909">
        <ele>918</ele>
        <time>2014-04-29T12:17:19Z</time>
      </trkpt>
      <trkpt lat="43.75106" lon="6.3788">
        <ele>915</ele>
        <time>2014-04-29T12:19:02Z</time>
      </trkpt>
      <trkpt lat="43.75099" lon="6.37871">
        <ele>914</ele>
        <time>2014-04-29T12:21:55Z</time>
      </trkpt>
      <trkpt lat="43.75142" lon="6.37809">
        <ele>926</ele>
        <time>2014-04-28T16:06:19Z</time>
      </trkpt>
      <trkpt lat="43.75178" lon="6.37817">
        <ele>919</ele>
        <time>2014-04-29T12:22:21Z</time>
      </trkpt>
      <trkpt lat="43.75103" lon="6.37899">
        <ele>915</ele>
        <time>2014-04-29T12:23:04Z</time>
      </trkpt>
      <trkpt lat="43.75112" lon="6.3793">
        <ele>919</ele>
        <time>2014-04-29T12:23:34Z</time>
      </trkpt>
      <trkpt lat="43.75084" lon="6.37883">
        <ele>914</ele>
        <time>2014-04-29T12:23:38Z</time>
      </trkpt>
      <trkpt lat="43.75102" lon="6.3793">
        <ele>918</ele>
        <time>2014-04-29T12:23:49Z</time>
      </trkpt>
      <trkpt lat="43.75082" lon="6.37916">
        <ele>912</ele>
        <time>2014-04-29T12:23:58Z</time>
      </trkpt>
      <trkpt lat="43.75069" lon="6.37893">
        <ele>910</ele>
        <time>2014-04-29T12:24:39Z</time>
      </trkpt>
      <trkpt lat="43.75043" lon="6.37868">
        <ele>908</ele>
        <time>2014-04-29T12:24:50Z</time>
      </trkpt>
      <trkpt lat="43.75021" lon="6.37809">
        <ele>908</ele>
        <time>2014-04-29T12:26:03Z</time>
      </trkpt>
      <trkpt lat="43.75" lon="6.37809">
        <ele>906</ele>
        <time>2014-04-29T12:26:23Z</time>
      </trkpt>
      <trkpt lat="43.75116" lon="6.37796">
        <ele>926</ele>
        <time>2014-04-29T12:26:58Z</time>
      </trkpt>
      <trkpt lat="43.75114" lon="6.37823">
        <ele>922</ele>
        <time>2014-04-29T12:32:37Z</time>
      </trkpt>
      <trkpt lat="43.75067" lon="6.37869">
        <ele>909</ele>
        <time>2014-04-29T12:32:45Z</time>
      </trkpt>
      <trkpt lat="43.75081" lon="6.37787">
        <ele>914</ele>
        <time>2014-04-29T12:32:58Z</time>
      </trkpt>
      <trkpt lat="43.75082" lon="6.37744">
        <ele>925</ele>
        <time>2014-04-29T12:33:14Z</time>
      </trkpt>
      <trkpt lat="43.7505" lon="6.37706">
        <ele>930</ele>
        <time>2014-04-29T12:34:01Z</time>
      </trkpt>
      <trkpt lat="43.75029" lon="6.37731">
        <ele>924</ele>
        <time>2014-04-29T12:34:21Z</time>
      </trkpt>
      <trkpt lat="43.75014" lon="6.37808">
        <ele>907</ele>
        <time>2014-04-29T12:35:36Z</time>
      </trkpt>
      <trkpt lat="43.74985" lon="6.37773">
        <ele>903</ele>
        <time>2014-04-29T12:35:52Z</time>
      </trkpt>
      <trkpt lat="43.75019" lon="6.37767">
        <ele>911</ele>
        <time>2014-04-29T12:35:57Z</time>
      </trkpt>
      <trkpt lat="43.75048" lon="6.3777">
        <ele>913</ele>
        <time>2014-04-29T12:36:03Z</time>
      </trkpt>
      <trkpt lat="43.751" lon="6.37755">
        <ele>927</ele>
        <time>2014-04-29T12:36:21Z</time>
      </trkpt>
      <trkpt lat="43.75125" lon="6.37751">
        <ele>932</ele>
        <time>2014-04-29T12:36:32Z</time>
      </trkpt>
      <trkpt lat="43.75094" lon="6.37733">
        <ele>942</ele>
        <time>2014-04-29T12:36:58Z</time>
      </trkpt>
      <trkpt lat="43.75074" lon="6.37747">
        <ele>926</ele>
        <time>2014-04-29T12:37:30Z</time>
      </trkpt>
      <trkpt lat="43.75044" lon="6.37718">
        <ele>928</ele>
        <time>2014-04-29T12:38:02Z</time>
      </trkpt>
      <trkpt lat="43.74982" lon="6.37723">
        <ele>911</ele>
        <time>2014-04-29T12:38:34Z</time>
      </trkpt>
      <trkpt lat="43.74957" lon="6.37719">
        <ele>910</ele>
        <time>2014-04-29T12:38:50Z</time>
      </trkpt>
      <trkpt lat="43.74912" lon="6.37724">
        <ele>900</ele>
        <time>2014-04-29T12:39:06Z</time>
      </trkpt>
      <trkpt lat="43.74889" lon="6.37758">
        <ele>893</ele>
        <time>2014-04-29T12:39:23Z</time>
      </trkpt>
      <trkpt lat="43.74859" lon="6.37769">
        <ele>890</ele>
        <time>2014-04-29T12:39:31Z</time>
      </trkpt>
      <trkpt lat="43.74833" lon="6.37765">
        <ele>890</ele>
        <time>2014-04-29T12:39:47Z</time>
      </trkpt>
      <trkpt lat="43.74803" lon="6.37777">
        <ele>885</ele>
        <time>2014-04-29T12:39:55Z</time>
      </trkpt>
      <trkpt lat="43.74776" lon="6.37793">
        <ele>883</ele>
        <time>2014-04-29T12:40:03Z</time>
      </trkpt>
      <trkpt lat="43.74736" lon="6.37782">
        <ele>880</ele>
        <time>2014-04-29T12:40:25Z</time>
      </trkpt>
      <trkpt lat="43.74558" lon="6.3776">
        <ele>759</ele>
        <time>2014-04-29T12:40:49Z</time>
      </trkpt>
      <trkpt lat="43.74505" lon="6.37769">
        <ele>696</ele>
        <time>2014-04-29T12:40:52Z</time>
      </trkpt>
      <trkpt lat="43.74461" lon="6.37793">
        <ele>660</ele>
        <time>2014-04-29T12:40:58Z</time>
      </trkpt>
      <trkpt lat="43.74417" lon="6.37802">
        <ele>659</ele>
        <time>2014-04-29T12:55:21Z</time>
      </trkpt>
      <trkpt lat="43.7436" lon="6.37776">
        <ele>659</ele>
        <time>2014-04-29T12:58:14Z</time>
      </trkpt>
      <trkpt lat="43.74345" lon="6.37747">
        <ele>651</ele>
        <time>2014-04-29T12:59:37Z</time>
      </trkpt>
      <trkpt lat="43.74331" lon="6.37705">
        <ele>622</ele>
        <time>2014-04-29T13:00:52Z</time>
      </trkpt>
      <trkpt lat="43.74348" lon="6.37665">
        <ele>603</ele>
        <time>2014-04-29T13:01:14Z</time>
      </trkpt>
      <trkpt lat="43.74367" lon="6.37626">
        <ele>598</ele>
        <time>2014-04-29T13:01:38Z</time>
      </trkpt>
      <trkpt lat="43.7438" lon="6.37587">
        <ele>594</ele>
        <time>2014-04-29T13:01:54Z</time>
      </trkpt>
      <trkpt lat="43.74396" lon="6.37519">
        <ele>581</ele>
        <time>2014-04-29T13:05:54Z</time>
      </trkpt>
      <trkpt lat="43.74391" lon="6.37478">
        <ele>579</ele>
        <time>2014-04-29T13:12:01Z</time>
      </trkpt>
      <trkpt lat="43.74401" lon="6.37433">
        <ele>579</ele>
        <time>2014-04-29T13:12:32Z</time>
      </trkpt>
      <trkpt lat="43.7437" lon="6.37421">
        <ele>580</ele>
        <time>2014-04-29T13:13:02Z</time>
      </trkpt>
      <trkpt lat="43.74355" lon="6.3742">
        <ele>581</ele>
        <time>2014-04-29T13:13:36Z</time>
      </trkpt>
      <trkpt lat="43.744" lon="6.37438">
        <ele>579</ele>
        <time>2014-04-29T13:13:48Z</time>
      </trkpt>
      <trkpt lat="43.74378" lon="6.37393">
        <ele>596</ele>
        <time>2014-04-29T13:14:27Z</time>
      </trkpt>
      <trkpt lat="43.74362" lon="6.37358">
        <ele>608</ele>
        <time>2014-04-29T13:14:58Z</time>
      </trkpt>
      <trkpt lat="43.74344" lon="6.37307">
        <ele>654</ele>
        <time>2014-04-29T13:15:27Z</time>
      </trkpt>
      <trkpt lat="43.74331" lon="6.3726">
        <ele>701</ele>
        <time>2014-04-29T13:15:47Z</time>
      </trkpt>
      <trkpt lat="43.74324" lon="6.37207">
        <ele>730</ele>
        <time>2014-04-29T13:16:20Z</time>
      </trkpt>
      <trkpt lat="43.74309" lon="6.37183">
        <ele>736</ele>
        <time>2014-04-29T13:16:44Z</time>
      </trkpt>
      <trkpt lat="43.74311" lon="6.37128">
        <ele>744</ele>
        <time>2014-04-29T13:17:31Z</time>
      </trkpt>
      <trkpt lat="43.74296" lon="6.371">
        <ele>747</ele>
        <time>2014-04-29T13:17:49Z</time>
      </trkpt>
      <trkpt lat="43.74297" lon="6.37073">
        <ele>744</ele>
        <time>2014-04-29T13:18:01Z</time>
      </trkpt>
      <trkpt lat="43.74244" lon="6.37064">
        <ele>780</ele>
        <time>2014-04-29T13:18:08Z</time>
      </trkpt>
      <trkpt lat="43.74257" lon="6.37034">
        <ele>755</ele>
        <time>2014-04-29T13:18:43Z</time>
      </trkpt>
      <trkpt lat="43.74266" lon="6.37021">
        <ele>754</ele>
        <time>2014-04-29T13:20:37Z</time>
      </trkpt>
      <trkpt lat="43.7424" lon="6.36997">
        <ele>771</ele>
        <time>2014-04-29T13:22:39Z</time>
      </trkpt>
      <trkpt lat="43.74264" lon="6.37009">
        <ele>756</ele>
        <time>2014-04-29T13:23:43Z</time>
      </trkpt>
      <trkpt lat="43.74243" lon="6.3697">
        <ele>778</ele>
        <time>2014-04-29T13:24:22Z</time>
      </trkpt>
      <trkpt lat="43.74237" lon="6.36901">
        <ele>781</ele>
        <time>2014-04-29T13:25:07Z</time>
      </trkpt>
      <trkpt lat="43.74223" lon="6.36859">
        <ele>781</ele>
        <time>2014-04-29T13:25:46Z</time>
      </trkpt>
      <trkpt lat="43.74203" lon="6.36801">
        <ele>724</ele>
        <time>2014-04-29T13:26:18Z</time>
      </trkpt>
      <trkpt lat="43.74194" lon="6.36762">
        <ele>682</ele>
        <time>2014-04-29T13:26:38Z</time>
      </trkpt>
      <trkpt lat="43.74187" lon="6.36725">
        <ele>629</ele>
        <time>2014-04-29T13:27:01Z</time>
      </trkpt>
      <trkpt lat="43.74188" lon="6.36676">
        <ele>620</ele>
        <time>2014-04-29T13:27:28Z</time>
      </trkpt>
      <trkpt lat="43.74167" lon="6.36616">
        <ele>619</ele>
        <time>2014-04-29T13:27:59Z</time>
      </trkpt>
      <trkpt lat="43.74151" lon="6.36581">
        <ele>597</ele>
        <time>2014-04-29T13:28:23Z</time>
      </trkpt>
      <trkpt lat="43.74136" lon="6.3656">
        <ele>593</ele>
        <time>2014-04-29T13:28:34Z</time>
      </trkpt>
      <trkpt lat="43.74107" lon="6.36495">
        <ele>593</ele>
        <time>2014-04-29T13:29:03Z</time>
      </trkpt>
      <trkpt lat="43.74066" lon="6.36454">
        <ele>583</ele>
        <time>2014-04-29T13:29:31Z</time>
      </trkpt>
      <trkpt lat="43.74053" lon="6.36434">
        <ele>584</ele>
        <time>2014-04-29T13:29:42Z</time>
      </trkpt>
      <trkpt lat="43.74036" lon="6.36386">
        <ele>588</ele>
        <time>2014-04-29T13:30:03Z</time>
      </trkpt>
      <trkpt lat="43.74013" lon="6.3634">
        <ele>584</ele>
        <time>2014-04-29T13:30:27Z</time>
      </trkpt>
      <trkpt lat="43.73998" lon="6.36324">
        <ele>579</ele>
        <time>2014-04-29T13:30:37Z</time>
      </trkpt>
      <trkpt lat="43.73974" lon="6.36295">
        <ele>584</ele>
        <time>2014-04-29T13:30:56Z</time>
      </trkpt>
      <trkpt lat="43.73961" lon="6.36271">
        <ele>584</ele>
        <time>2014-04-29T13:31:11Z</time>
      </trkpt>
      <trkpt lat="43.73935" lon="6.36235">
        <ele>588</ele>
        <time>2014-04-29T13:31:38Z</time>
      </trkpt>
      <trkpt lat="43.73902" lon="6.36198">
        <ele>583</ele>
        <time>2014-04-29T13:32:13Z</time>
      </trkpt>
      <trkpt lat="43.7388" lon="6.36161">
        <ele>594</ele>
        <time>2014-04-29T13:32:49Z</time>
      </trkpt>
      <trkpt lat="43.73847" lon="6.36126">
        <ele>593</ele>
        <time>2014-04-29T13:33:22Z</time>
      </trkpt>
      <trkpt lat="43.73811" lon="6.36094">
        <ele>586</ele>
        <time>2014-04-29T13:33:46Z</time>
      </trkpt>
      <trkpt lat="43.73781" lon="6.36057">
        <ele>589</ele>
        <time>2014-04-29T13:34:06Z</time>
      </trkpt>
      <trkpt lat="43.73744" lon="6.36023">
        <ele>585</ele>
        <time>2014-04-29T13:34:32Z</time>
      </trkpt>
      <trkpt lat="43.73708" lon="6.36002">
        <ele>584</ele>
        <time>2014-04-29T13:34:58Z</time>
      </trkpt>
      <trkpt lat="43.73703" lon="6.35978">
        <ele>631</ele>
        <time>2014-04-29T13:35:10Z</time>
      </trkpt>
      <trkpt lat="43.73693" lon="6.36001">
        <ele>583</ele>
        <time>2014-04-29T13:35:19Z</time>
      </trkpt>
      <trkpt lat="43.73699" lon="6.35986">
        <ele>627</ele>
        <time>2014-04-29T13:35:31Z</time>
      </trkpt>
      <trkpt lat="43.73683" lon="6.35977">
        <ele>631</ele>
        <time>2014-04-29T13:36:15Z</time>
      </trkpt>
      <trkpt lat="43.73659" lon="6.35948">
        <ele>753</ele>
        <time>2014-04-29T13:36:31Z</time>
      </trkpt>
      <trkpt lat="43.73683" lon="6.35925">
        <ele>700</ele>
        <time>2014-04-29T13:36:38Z</time>
      </trkpt>
      <trkpt lat="43.73721" lon="6.35919">
        <ele>656</ele>
        <time>2014-04-29T13:36:59Z</time>
      </trkpt>
      <trkpt lat="43.73741" lon="6.35901">
        <ele>707</ele>
        <time>2014-04-29T13:37:07Z</time>
      </trkpt>
      <trkpt lat="43.73752" lon="6.35866">
        <ele>723</ele>
        <time>2014-04-29T13:37:23Z</time>
      </trkpt>
      <trkpt lat="43.73738" lon="6.35813">
        <ele>824</ele>
        <time>2014-04-29T13:37:32Z</time>
      </trkpt>
      <trkpt lat="43.73758" lon="6.35791">
        <ele>807</ele>
        <time>2014-04-29T13:37:36Z</time>
      </trkpt>
      <trkpt lat="43.73786" lon="6.35744">
        <ele>839</ele>
        <time>2014-04-29T13:37:49Z</time>
      </trkpt>
      <trkpt lat="43.73798" lon="6.35692">
        <ele>849</ele>
        <time>2014-04-29T13:38:05Z</time>
      </trkpt>
      <trkpt lat="43.73787" lon="6.35667">
        <ele>844</ele>
        <time>2014-04-29T13:38:15Z</time>
      </trkpt>
      <trkpt lat="43.73762" lon="6.35638">
        <ele>833</ele>
        <time>2014-04-29T13:38:23Z</time>
      </trkpt>
      <trkpt lat="43.73748" lon="6.35617">
        <ele>801</ele>
        <time>2014-04-29T13:38:29Z</time>
      </trkpt>
      <trkpt lat="43.73737" lon="6.35564">
        <ele>790</ele>
        <time>2014-04-29T13:38:52Z</time>
      </trkpt>
      <trkpt lat="43.73691" lon="6.35552">
        <ele>788</ele>
        <time>2014-04-29T13:39:03Z</time>
      </trkpt>
      <trkpt lat="43.73663" lon="6.35539">
        <ele>784</ele>
        <time>2014-04-29T13:39:18Z</time>
      </trkpt>
      <trkpt lat="43.7365" lon="6.35505">
        <ele>781</ele>
        <time>2014-04-29T13:39:35Z</time>
      </trkpt>
      <trkpt lat="43.7362" lon="6.35477">
        <ele>785</ele>
        <time>2014-04-29T13:40:04Z</time>
      </trkpt>
      <trkpt lat="43.73608" lon="6.35458">
        <ele>788</ele>
        <time>2014-04-29T13:40:15Z</time>
      </trkpt>
      <trkpt lat="43.73583" lon="6.35406">
        <ele>812</ele>
        <time>2014-04-29T13:40:55Z</time>
      </trkpt>
      <trkpt lat="43.73628" lon="6.35364">
        <ele>800</ele>
        <time>2014-04-29T13:41:02Z</time>
      </trkpt>
      <trkpt lat="43.73663" lon="6.35324">
        <ele>793</ele>
        <time>2014-04-29T13:41:10Z</time>
      </trkpt>
      <trkpt lat="43.73682" lon="6.35268">
        <ele>762</ele>
        <time>2014-04-29T13:41:34Z</time>
      </trkpt>
      <trkpt lat="43.73666" lon="6.3521">
        <ele>757</ele>
        <time>2014-04-29T13:42:00Z</time>
      </trkpt>
      <trkpt lat="43.73662" lon="6.35142">
        <ele>732</ele>
        <time>2014-04-29T13:42:45Z</time>
      </trkpt>
      <trkpt lat="43.73672" lon="6.35093">
        <ele>691</ele>
        <time>2014-04-29T13:43:02Z</time>
      </trkpt>
      <trkpt lat="43.73689" lon="6.35074">
        <ele>672</ele>
        <time>2014-04-29T13:43:10Z</time>
      </trkpt>
      <trkpt lat="43.73714" lon="6.35051">
        <ele>648</ele>
        <time>2014-04-29T13:43:18Z</time>
      </trkpt>
      <trkpt lat="43.73751" lon="6.35027">
        <ele>594</ele>
        <time>2014-04-29T13:43:48Z</time>
      </trkpt>
      <trkpt lat="43.73793" lon="6.3499">
        <ele>581</ele>
        <time>2014-04-29T13:44:11Z</time>
      </trkpt>
      <trkpt lat="43.73829" lon="6.34956">
        <ele>579</ele>
        <time>2014-04-29T13:44:37Z</time>
      </trkpt>
      <trkpt lat="43.73868" lon="6.34933">
        <ele>595</ele>
        <time>2014-04-29T13:45:03Z</time>
      </trkpt>
      <trkpt lat="43.73908" lon="6.34889">
        <ele>581</ele>
        <time>2014-04-29T13:45:28Z</time>
      </trkpt>
      <trkpt lat="43.73921" lon="6.34873">
        <ele>596</ele>
        <time>2014-04-29T13:45:44Z</time>
      </trkpt>
      <trkpt lat="43.73934" lon="6.34839">
        <ele>586</ele>
        <time>2014-04-29T13:46:18Z</time>
      </trkpt>
      <trkpt lat="43.73933" lon="6.34843">
        <ele>587</ele>
        <time>2014-04-29T13:46:31Z</time>
      </trkpt>
      <trkpt lat="43.73935" lon="6.34823">
        <ele>573</ele>
        <time>2014-04-29T13:46:53Z</time>
      </trkpt>
      <trkpt lat="43.73939" lon="6.34782">
        <ele>572</ele>
        <time>2014-04-29T13:47:16Z</time>
      </trkpt>
      <trkpt lat="43.73971" lon="6.34768">
        <ele>574</ele>
        <time>2014-04-29T13:47:43Z</time>
      </trkpt>
      <trkpt lat="43.74003" lon="6.34737">
        <ele>571</ele>
        <time>2014-04-29T13:48:14Z</time>
      </trkpt>
      <trkpt lat="43.74023" lon="6.34735">
        <ele>574</ele>
        <time>2014-04-29T13:48:31Z</time>
      </trkpt>
      <trkpt lat="43.74045" lon="6.3469">
        <ele>573</ele>
        <time>2014-04-29T13:49:00Z</time>
      </trkpt>
      <trkpt lat="43.74079" lon="6.34689">
        <ele>574</ele>
        <time>2014-04-29T13:50:03Z</time>
      </trkpt>
      <trkpt lat="43.741" lon="6.34678">
        <ele>587</ele>
        <time>2014-04-29T13:50:26Z</time>
      </trkpt>
      <trkpt lat="43.74136" lon="6.34684">
        <ele>600</ele>
        <time>2014-04-29T13:51:28Z</time>
      </trkpt>
      <trkpt lat="43.74164" lon="6.34664">
        <ele>598</ele>
        <time>2014-04-29T13:51:55Z</time>
      </trkpt>
      <trkpt lat="43.74205" lon="6.34633">
        <ele>610</ele>
        <time>2014-04-29T13:55:44Z</time>
      </trkpt>
      <trkpt lat="43.74185" lon="6.34693">
        <ele>631</ele>
        <time>2014-04-29T13:56:32Z</time>
      </trkpt>
      <trkpt lat="43.74166" lon="6.34721">
        <ele>614</ele>
        <time>2014-04-29T13:57:08Z</time>
      </trkpt>
      <trkpt lat="43.74162" lon="6.34752">
        <ele>638</ele>
        <time>2014-04-29T13:58:02Z</time>
      </trkpt>
      <trkpt lat="43.74179" lon="6.34742">
        <ele>639</ele>
        <time>2014-04-29T13:58:23Z</time>
      </trkpt>
      <trkpt lat="43.74177" lon="6.34773">
        <ele>663</ele>
        <time>2014-04-29T13:59:05Z</time>
      </trkpt>
      <trkpt lat="43.74168" lon="6.34793">
        <ele>671</ele>
        <time>2014-04-29T13:59:35Z</time>
      </trkpt>
      <trkpt lat="43.74204" lon="6.34794">
        <ele>678</ele>
        <time>2014-04-29T14:00:16Z</time>
      </trkpt>
      <trkpt lat="43.74221" lon="6.34781">
        <ele>679</ele>
        <time>2014-04-29T14:00:37Z</time>
      </trkpt>
      <trkpt lat="43.74234" lon="6.3479">
        <ele>684</ele>
        <time>2014-04-29T14:01:29Z</time>
      </trkpt>
      <trkpt lat="43.74226" lon="6.34815">
        <ele>691</ele>
        <time>2014-04-29T14:01:50Z</time>
      </trkpt>
      <trkpt lat="43.74213" lon="6.3484">
        <ele>725</ele>
        <time>2014-04-29T14:02:40Z</time>
      </trkpt>
      <trkpt lat="43.74242" lon="6.34827">
        <ele>706</ele>
        <time>2014-04-29T14:03:05Z</time>
      </trkpt>
      <trkpt lat="43.74274" lon="6.34803">
        <ele>726</ele>
        <time>2014-04-29T14:03:41Z</time>
      </trkpt>
      <trkpt lat="43.74302" lon="6.34769">
        <ele>724</ele>
        <time>2014-04-29T14:04:23Z</time>
      </trkpt>
      <trkpt lat="43.74315" lon="6.34795">
        <ele>736</ele>
        <time>2014-04-29T14:05:23Z</time>
      </trkpt>
      <trkpt lat="43.74336" lon="6.34801">
        <ele>771</ele>
        <time>2014-04-29T14:06:19Z</time>
      </trkpt>
      <trkpt lat="43.74348" lon="6.34754">
        <ele>744</ele>
        <time>2014-04-29T14:08:33Z</time>
      </trkpt>
      <trkpt lat="43.74365" lon="6.34742">
        <ele>728</ele>
        <time>2014-04-29T14:08:55Z</time>
      </trkpt>
      <trkpt lat="43.74374" lon="6.34776">
        <ele>766</ele>
        <time>2014-04-29T14:09:55Z</time>
      </trkpt>
      <trkpt lat="43.74407" lon="6.34825">
        <ele>796</ele>
        <time>2014-04-29T14:11:33Z</time>
      </trkpt>
      <trkpt lat="43.74437" lon="6.34808">
        <ele>797</ele>
        <time>2014-04-29T14:11:57Z</time>
      </trkpt>
      <trkpt lat="43.74478" lon="6.34809">
        <ele>801</ele>
        <time>2014-04-29T14:12:43Z</time>
      </trkpt>
      <trkpt lat="43.74485" lon="6.3482">
        <ele>807</ele>
        <time>2014-04-29T14:13:47Z</time>
      </trkpt>
      <trkpt lat="43.74458" lon="6.34836">
        <ele>835</ele>
        <time>2014-04-29T14:14:19Z</time>
      </trkpt>
      <trkpt lat="43.74432" lon="6.34854">
        <ele>834</ele>
        <time>2014-04-29T14:14:46Z</time>
      </trkpt>
      <trkpt lat="43.74403" lon="6.34853">
        <ele>824</ele>
        <time>2014-04-29T14:15:13Z</time>
      </trkpt>
      <trkpt lat="43.74396" lon="6.34859">
        <ele>827</ele>
        <time>2014-04-29T14:15:55Z</time>
      </trkpt>
      <trkpt lat="43.74424" lon="6.34869">
        <ele>841</ele>
        <time>2014-04-29T14:16:23Z</time>
      </trkpt>
      <trkpt lat="43.74471" lon="6.34856">
        <ele>840</ele>
        <time>2014-04-29T14:16:55Z</time>
      </trkpt>
      <trkpt lat="43.74511" lon="6.34858">
        <ele>840</ele>
        <time>2014-04-29T14:17:26Z</time>
      </trkpt>
      <trkpt lat="43.74532" lon="6.34853">
        <ele>841</ele>
        <time>2014-04-29T14:19:40Z</time>
      </trkpt>
      <trkpt lat="43.74568" lon="6.34879">
        <ele>846</ele>
        <time>2014-04-29T14:20:47Z</time>
      </trkpt>
      <trkpt lat="43.74613" lon="6.34905">
        <ele>852</ele>
        <time>2014-04-29T14:21:16Z</time>
      </trkpt>
      <trkpt lat="43.74639" lon="6.34926">
        <ele>874</ele>
        <time>2014-04-29T14:21:36Z</time>
      </trkpt>
      <trkpt lat="43.7468" lon="6.34933">
        <ele>880</ele>
        <time>2014-04-29T14:21:58Z</time>
      </trkpt>
      <trkpt lat="43.74696" lon="6.34895">
        <ele>869</ele>
        <time>2014-04-29T14:22:25Z</time>
      </trkpt>
      <trkpt lat="43.74707" lon="6.34871">
        <ele>868</ele>
        <time>2014-04-29T14:22:41Z</time>
      </trkpt>
      <trkpt lat="43.74732" lon="6.34823">
        <ele>863</ele>
        <time>2014-04-29T14:23:17Z</time>
      </trkpt>
      <trkpt lat="43.74747" lon="6.34806">
        <ele>862</ele>
        <time>2014-04-29T14:23:33Z</time>
      </trkpt>
      <trkpt lat="43.74779" lon="6.34775">
        <ele>881</ele>
        <time>2014-04-29T14:24:02Z</time>
      </trkpt>
      <trkpt lat="43.74797" lon="6.34742">
        <ele>883</ele>
        <time>2014-04-29T14:24:23Z</time>
      </trkpt>
      <trkpt lat="43.74796" lon="6.34693">
        <ele>888</ele>
        <time>2014-04-29T14:24:58Z</time>
      </trkpt>
      <trkpt lat="43.7478" lon="6.34661">
        <ele>901</ele>
        <time>2014-04-29T14:25:19Z</time>
      </trkpt>
      <trkpt lat="43.74746" lon="6.34639">
        <ele>881</ele>
        <time>2014-04-29T14:25:55Z</time>
      </trkpt>
      <trkpt lat="43.7472" lon="6.34622">
        <ele>881</ele>
        <time>2014-04-29T14:26:21Z</time>
      </trkpt>
      <trkpt lat="43.74698" lon="6.34597">
        <ele>880</ele>
        <time>2014-04-29T14:26:47Z</time>
      </trkpt>
      <trkpt lat="43.74674" lon="6.34575">
        <ele>889</ele>
        <time>2014-04-29T14:27:11Z</time>
      </trkpt>
      <trkpt lat="43.74648" lon="6.34525">
        <ele>880</ele>
        <time>2014-04-29T14:29:25Z</time>
      </trkpt>
      <trkpt lat="43.74639" lon="6.34485">
        <ele>890</ele>
        <time>2014-04-29T14:37:59Z</time>
      </trkpt>
      <trkpt lat="43.74643" lon="6.34436">
        <ele>891</ele>
        <time>2014-04-29T14:38:06Z</time>
      </trkpt>
      <trkpt lat="43.74642" lon="6.34368">
        <ele>887</ele>
        <time>2014-04-29T14:38:13Z</time>
      </trkpt>
      <trkpt lat="43.74644" lon="6.34337">
        <ele>890</ele>
        <time>2014-04-29T14:38:17Z</time>
      </trkpt>
      <trkpt lat="43.74627" lon="6.34257">
        <ele>880</ele>
        <time>2014-04-29T14:38:29Z</time>
      </trkpt>
      <trkpt lat="43.74611" lon="6.34192">
        <ele>883</ele>
        <time>2014-04-29T14:39:21Z</time>
      </trkpt>
      <trkpt lat="43.74586" lon="6.34148">
        <ele>884</ele>
        <time>2014-04-29T14:39:29Z</time>
      </trkpt>
      <trkpt lat="43.74564" lon="6.34116">
        <ele>876</ele>
        <time>2014-04-29T14:39:33Z</time>
      </trkpt>
      <trkpt lat="43.74554" lon="6.34091">
        <ele>877</ele>
        <time>2014-04-29T14:39:36Z</time>
      </trkpt>
      <trkpt lat="43.7457" lon="6.34035">
        <ele>878</ele>
        <time>2014-04-29T14:39:42Z</time>
      </trkpt>
      <trkpt lat="43.74557" lon="6.33981">
        <ele>877</ele>
        <time>2014-04-29T14:39:47Z</time>
      </trkpt>
      <trkpt lat="43.74546" lon="6.33945">
        <ele>879</ele>
        <time>2014-04-29T14:39:50Z</time>
      </trkpt>
      <trkpt lat="43.7455" lon="6.33891">
        <ele>883</ele>
        <time>2014-04-29T14:39:55Z</time>
      </trkpt>
      <trkpt lat="43.74546" lon="6.33849">
        <ele>885</ele>
        <time>2014-04-29T14:39:59Z</time>
      </trkpt>
      <trkpt lat="43.74528" lon="6.33792">
        <ele>879</ele>
        <time>2014-04-29T14:40:06Z</time>
      </trkpt>
      <trkpt lat="43.74548" lon="6.33725">
        <ele>866</ele>
        <time>2014-04-29T14:40:14Z</time>
      </trkpt>
      <trkpt lat="43.74574" lon="6.3369">
        <ele>862</ele>
        <time>2014-04-29T14:40:19Z</time>
      </trkpt>
      <trkpt lat="43.74587" lon="6.33646">
        <ele>855</ele>
        <time>2014-04-29T14:40:24Z</time>
      </trkpt>
      <trkpt lat="43.74644" lon="6.33595">
        <ele>858</ele>
        <time>2014-04-29T14:40:33Z</time>
      </trkpt>
      <trkpt lat="43.74666" lon="6.33565">
        <ele>855</ele>
        <time>2014-04-29T14:40:37Z</time>
      </trkpt>
      <trkpt lat="43.74677" lon="6.33526">
        <ele>871</ele>
        <time>2014-04-29T14:40:41Z</time>
      </trkpt>
      <trkpt lat="43.74659" lon="6.33481">
        <ele>853</ele>
        <time>2014-04-29T14:40:49Z</time>
      </trkpt>
      <trkpt lat="43.74662" lon="6.33443">
        <ele>855</ele>
        <time>2014-04-29T14:41:57Z</time>
      </trkpt>
      <trkpt lat="43.74679" lon="6.33405">
        <ele>871</ele>
        <time>2014-04-29T14:42:03Z</time>
      </trkpt>
      <trkpt lat="43.7468" lon="6.33369">
        <ele>878</ele>
        <time>2014-04-29T14:42:07Z</time>
      </trkpt>
      <trkpt lat="43.74671" lon="6.33318">
        <ele>882</ele>
        <time>2014-04-29T14:42:12Z</time>
      </trkpt>
      <trkpt lat="43.74687" lon="6.33267">
        <ele>883</ele>
        <time>2014-04-29T14:42:18Z</time>
      </trkpt>
      <trkpt lat="43.74696" lon="6.3323">
        <ele>881</ele>
        <time>2014-04-29T14:42:22Z</time>
      </trkpt>
      <trkpt lat="43.74693" lon="6.33195">
        <ele>879</ele>
        <time>2014-04-29T14:42:26Z</time>
      </trkpt>
      <trkpt lat="43.74696" lon="6.33142">
        <ele>875</ele>
        <time>2014-04-29T14:42:59Z</time>
      </trkpt>
      <trkpt lat="43.74702" lon="6.33084">
        <ele>873</ele>
        <time>2014-04-29T14:43:11Z</time>
      </trkpt>
      <trkpt lat="43.74732" lon="6.33056">
        <ele>857</ele>
        <time>2014-04-29T14:43:28Z</time>
      </trkpt>
      <trkpt lat="43.74745" lon="6.33036">
        <ele>853</ele>
        <time>2014-04-29T14:43:32Z</time>
      </trkpt>
      <trkpt lat="43.74752" lon="6.32994">
        <ele>852</ele>
        <time>2014-04-29T14:43:38Z</time>
      </trkpt>
      <trkpt lat="43.74753" lon="6.32946">
        <ele>843</ele>
        <time>2014-04-29T14:43:47Z</time>
      </trkpt>
      <trkpt lat="43.74779" lon="6.32903">
        <ele>829</ele>
        <time>2014-04-29T14:45:23Z</time>
      </trkpt>
      <trkpt lat="43.74805" lon="6.32862">
        <ele>825</ele>
        <time>2014-04-29T14:45:31Z</time>
      </trkpt>
      <trkpt lat="43.7484" lon="6.32838">
        <ele>816</ele>
        <time>2014-04-29T14:45:39Z</time>
      </trkpt>
      <trkpt lat="43.74879" lon="6.32856">
        <ele>816</ele>
        <time>2014-04-29T14:45:47Z</time>
      </trkpt>
      <trkpt lat="43.74916" lon="6.32892">
        <ele>824</ele>
        <time>2014-04-29T14:45:57Z</time>
      </trkpt>
      <trkpt lat="43.74954" lon="6.3292">
        <ele>838</ele>
        <time>2014-04-29T14:46:07Z</time>
      </trkpt>
      <trkpt lat="43.75015" lon="6.32955">
        <ele>834</ele>
        <time>2014-04-29T14:46:25Z</time>
      </trkpt>
      <trkpt lat="43.75033" lon="6.32975">
        <ele>836</ele>
        <time>2014-04-29T14:46:31Z</time>
      </trkpt>
      <trkpt lat="43.75058" lon="6.33019">
        <ele>851</ele>
        <time>2014-04-29T14:46:43Z</time>
      </trkpt>
      <trkpt lat="43.7509" lon="6.3305">
        <ele>853</ele>
        <time>2014-04-29T14:46:55Z</time>
      </trkpt>
      <trkpt lat="43.75135" lon="6.33066">
        <ele>854</ele>
        <time>2014-04-29T14:47:07Z</time>
      </trkpt>
      <trkpt lat="43.75159" lon="6.33041">
        <ele>853</ele>
        <time>2014-04-29T14:47:15Z</time>
      </trkpt>
      <trkpt lat="43.75141" lon="6.32977">
        <ele>844</ele>
        <time>2014-04-29T14:47:27Z</time>
      </trkpt>
      <trkpt lat="43.75152" lon="6.32913">
        <ele>839</ele>
        <time>2014-04-29T14:47:39Z</time>
      </trkpt>
      <trkpt lat="43.75168" lon="6.32871">
        <ele>850</ele>
        <time>2014-04-29T14:47:48Z</time>
      </trkpt>
      <trkpt lat="43.7518" lon="6.3285">
        <ele>845</ele>
        <time>2014-04-29T14:47:54Z</time>
      </trkpt>
      <trkpt lat="43.75208" lon="6.32836">
        <ele>852</ele>
        <time>2014-04-29T14:48:03Z</time>
      </trkpt>
      <trkpt lat="43.75258" lon="6.32844">
        <ele>869</ele>
        <time>2014-04-29T14:48:15Z</time>
      </trkpt>
      <trkpt lat="43.75297" lon="6.32843">
        <ele>879</ele>
        <time>2014-04-29T14:48:24Z</time>
      </trkpt>
      <trkpt lat="43.75331" lon="6.32814">
        <ele>864</ele>
        <time>2014-04-29T14:48:34Z</time>
      </trkpt>
      <trkpt lat="43.75333" lon="6.32773">
        <ele>852</ele>
        <time>2014-04-29T14:48:40Z</time>
      </trkpt>
      <trkpt lat="43.75341" lon="6.32716">
        <ele>857</ele>
        <time>2014-04-29T14:48:48Z</time>
      </trkpt>
      <trkpt lat="43.75363" lon="6.32684">
        <ele>856</ele>
        <time>2014-04-29T14:48:54Z</time>
      </trkpt>
      <trkpt lat="43.75399" lon="6.32681">
        <ele>867</ele>
        <time>2014-04-29T14:49:00Z</time>
      </trkpt>
      <trkpt lat="43.75418" lon="6.32661">
        <ele>872</ele>
        <time>2014-04-29T14:49:04Z</time>
      </trkpt>
      <trkpt lat="43.7542" lon="6.32622">
        <ele>865</ele>
        <time>2014-04-29T14:49:08Z</time>
      </trkpt>
      <trkpt lat="43.75428" lon="6.32581">
        <ele>839</ele>
        <time>2014-04-29T14:49:12Z</time>
      </trkpt>
      <trkpt lat="43.75463" lon="6.32561">
        <ele>839</ele>
        <time>2014-04-29T14:49:16Z</time>
      </trkpt>
      <trkpt lat="43.755" lon="6.32548">
        <ele>859</ele>
        <time>2014-04-29T14:49:20Z</time>
      </trkpt>
      <trkpt lat="43.75518" lon="6.32536">
        <ele>857</ele>
        <time>2014-04-29T14:49:22Z</time>
      </trkpt>
      <trkpt lat="43.75556" lon="6.32489">
        <ele>836</ele>
        <time>2014-04-29T14:49:27Z</time>
      </trkpt>
      <trkpt lat="43.75589" lon="6.32452">
        <ele>856</ele>
        <time>2014-04-29T14:49:31Z</time>
      </trkpt>
      <trkpt lat="43.75609" lon="6.32405">
        <ele>847</ele>
        <time>2014-04-29T14:49:35Z</time>
      </trkpt>
      <trkpt lat="43.75604" lon="6.32361">
        <ele>848</ele>
        <time>2014-04-29T14:49:38Z</time>
      </trkpt>
      <trkpt lat="43.75605" lon="6.32334">
        <ele>846</ele>
        <time>2014-04-29T14:49:40Z</time>
      </trkpt>
      <trkpt lat="43.75607" lon="6.32268">
        <ele>856</ele>
        <time>2014-04-29T14:49:45Z</time>
      </trkpt>
      <trkpt lat="43.75601" lon="6.32222">
        <ele>855</ele>
        <time>2014-04-29T14:49:49Z</time>
      </trkpt>
      <trkpt lat="43.75609" lon="6.32155">
        <ele>845</ele>
        <time>2014-04-29T14:49:55Z</time>
      </trkpt>
      <trkpt lat="43.75607" lon="6.3211">
        <ele>840</ele>
        <time>2014-04-29T14:49:59Z</time>
      </trkpt>
      <trkpt lat="43.75597" lon="6.32072">
        <ele>830</ele>
        <time>2014-04-29T14:50:03Z</time>
      </trkpt>
      <trkpt lat="43.7559" lon="6.32038">
        <ele>825</ele>
        <time>2014-04-29T14:51:24Z</time>
      </trkpt>
      <trkpt lat="43.75617" lon="6.32028">
        <ele>821</ele>
        <time>2014-04-29T14:51:32Z</time>
      </trkpt>
      <trkpt lat="43.75639" lon="6.32053">
        <ele>822</ele>
        <time>2014-04-29T14:52:37Z</time>
      </trkpt>
      <trkpt lat="43.75684" lon="6.32065">
        <ele>816</ele>
        <time>2014-04-29T14:52:47Z</time>
      </trkpt>
      <trkpt lat="43.75711" lon="6.32075">
        <ele>816</ele>
        <time>2014-04-29T14:52:51Z</time>
      </trkpt>
      <trkpt lat="43.75741" lon="6.32072">
        <ele>818</ele>
        <time>2014-04-29T14:52:55Z</time>
      </trkpt>
      <trkpt lat="43.75771" lon="6.3205">
        <ele>817</ele>
        <time>2014-04-29T14:52:59Z</time>
      </trkpt>
      <trkpt lat="43.75803" lon="6.32">
        <ele>782</ele>
        <time>2014-04-29T14:53:05Z</time>
      </trkpt>
      <trkpt lat="43.75837" lon="6.31964">
        <ele>785</ele>
        <time>2014-04-29T14:53:11Z</time>
      </trkpt>
      <trkpt lat="43.75875" lon="6.3195">
        <ele>784</ele>
        <time>2014-04-29T14:54:47Z</time>
      </trkpt>
      <trkpt lat="43.75907" lon="6.3197">
        <ele>795</ele>
        <time>2014-04-29T14:54:53Z</time>
      </trkpt>
      <trkpt lat="43.75955" lon="6.31962">
        <ele>813</ele>
        <time>2014-04-29T14:55:01Z</time>
      </trkpt>
      <trkpt lat="43.75984" lon="6.31923">
        <ele>813</ele>
        <time>2014-04-29T14:55:07Z</time>
      </trkpt>
      <trkpt lat="43.75993" lon="6.31858">
        <ele>795</ele>
        <time>2014-04-29T14:55:14Z</time>
      </trkpt>
      <trkpt lat="43.75967" lon="6.31753">
        <ele>792</ele>
        <time>2014-04-29T14:55:25Z</time>
      </trkpt>
      <trkpt lat="43.75964" lon="6.31709">
        <ele>801</ele>
        <time>2014-04-29T14:55:31Z</time>
      </trkpt>
      <trkpt lat="43.75988" lon="6.31662">
        <ele>806</ele>
        <time>2014-04-29T14:55:40Z</time>
      </trkpt>
      <trkpt lat="43.76016" lon="6.31621">
        <ele>803</ele>
        <time>2014-04-29T14:55:49Z</time>
      </trkpt>
      <trkpt lat="43.76039" lon="6.31592">
        <ele>800</ele>
        <time>2014-04-29T14:55:56Z</time>
      </trkpt>
      <trkpt lat="43.76062" lon="6.316">
        <ele>800</ele>
        <time>2014-04-29T14:56:02Z</time>
      </trkpt>
      <trkpt lat="43.76108" lon="6.31633">
        <ele>801</ele>
        <time>2014-04-29T14:56:14Z</time>
      </trkpt>
      <trkpt lat="43.76146" lon="6.3167">
        <ele>824</ele>
        <time>2014-04-29T14:56:24Z</time>
      </trkpt>
      <trkpt lat="43.76187" lon="6.31688">
        <ele>826</ele>
        <time>2014-04-29T14:56:34Z</time>
      </trkpt>
      <trkpt lat="43.76218" lon="6.3168">
        <ele>825</ele>
        <time>2014-04-29T14:56:41Z</time>
      </trkpt>
      <trkpt lat="43.76253" lon="6.31656">
        <ele>796</ele>
        <time>2014-04-29T14:56:49Z</time>
      </trkpt>
      <trkpt lat="43.76283" lon="6.31695">
        <ele>811</ele>
        <time>2014-04-29T14:56:57Z</time>
      </trkpt>
      <trkpt lat="43.76304" lon="6.31745">
        <ele>816</ele>
        <time>2014-04-29T14:57:05Z</time>
      </trkpt>
      <trkpt lat="43.76323" lon="6.3176">
        <ele>832</ele>
        <time>2014-04-29T14:57:09Z</time>
      </trkpt>
      <trkpt lat="43.76365" lon="6.31778">
        <ele>818</ele>
        <time>2014-04-29T14:57:17Z</time>
      </trkpt>
      <trkpt lat="43.764" lon="6.31821">
        <ele>821</ele>
        <time>2014-04-29T14:57:25Z</time>
      </trkpt>
      <trkpt lat="43.76415" lon="6.31848">
        <ele>834</ele>
        <time>2014-04-29T14:57:29Z</time>
      </trkpt>
      <trkpt lat="43.76433" lon="6.31892">
        <ele>824</ele>
        <time>2014-04-29T14:57:35Z</time>
      </trkpt>
      <trkpt lat="43.76473" lon="6.31937">
        <ele>829</ele>
        <time>2014-04-29T14:57:43Z</time>
      </trkpt>
      <trkpt lat="43.76487" lon="6.31969">
        <ele>831</ele>
        <time>2014-04-29T14:57:47Z</time>
      </trkpt>
      <trkpt lat="43.76506" lon="6.32028">
        <ele>823</ele>
        <time>2014-04-29T14:57:55Z</time>
      </trkpt>
      <trkpt lat="43.7653" lon="6.32065">
        <ele>824</ele>
        <time>2014-04-29T14:58:01Z</time>
      </trkpt>
      <trkpt lat="43.76548" lon="6.3209">
        <ele>835</ele>
        <time>2014-04-29T14:58:05Z</time>
      </trkpt>
      <trkpt lat="43.76583" lon="6.3214">
        <ele>838</ele>
        <time>2014-04-29T14:58:13Z</time>
      </trkpt>
      <trkpt lat="43.76604" lon="6.32178">
        <ele>833</ele>
        <time>2014-04-29T14:58:19Z</time>
      </trkpt>
      <trkpt lat="43.76613" lon="6.3221">
        <ele>834</ele>
        <time>2014-04-29T14:58:24Z</time>
      </trkpt>
      <trkpt lat="43.76635" lon="6.3227">
        <ele>845</ele>
        <time>2014-04-29T14:58:32Z</time>
      </trkpt>
      <trkpt lat="43.76651" lon="6.32327">
        <ele>843</ele>
        <time>2014-04-29T14:58:40Z</time>
      </trkpt>
      <trkpt lat="43.7667" lon="6.32366">
        <ele>841</ele>
        <time>2014-04-29T14:58:46Z</time>
      </trkpt>
      <trkpt lat="43.76707" lon="6.32426">
        <ele>852</ele>
        <time>2014-04-29T14:58:56Z</time>
      </trkpt>
      <trkpt lat="43.76712" lon="6.3244">
        <ele>852</ele>
        <time>2014-04-29T14:58:58Z</time>
      </trkpt>
      <trkpt lat="43.76728" lon="6.32499">
        <ele>850</ele>
        <time>2014-04-29T14:59:06Z</time>
      </trkpt>
      <trkpt lat="43.76746" lon="6.32536">
        <ele>861</ele>
        <time>2014-04-29T14:59:12Z</time>
      </trkpt>
      <trkpt lat="43.7676" lon="6.32592">
        <ele>852</ele>
        <time>2014-04-29T14:59:20Z</time>
      </trkpt>
      <trkpt lat="43.76761" lon="6.32658">
        <ele>858</ele>
        <time>2014-04-29T14:59:30Z</time>
      </trkpt>
      <trkpt lat="43.76775" lon="6.32713">
        <ele>858</ele>
        <time>2014-04-29T14:59:40Z</time>
      </trkpt>
      <trkpt lat="43.76773" lon="6.3274">
        <ele>859</ele>
        <time>2014-04-29T14:59:44Z</time>
      </trkpt>
      <trkpt lat="43.76755" lon="6.32791">
        <ele>861</ele>
        <time>2014-04-29T14:59:53Z</time>
      </trkpt>
      <trkpt lat="43.76802" lon="6.32793">
        <ele>858</ele>
        <time>2014-04-29T15:00:03Z</time>
      </trkpt>
      <trkpt lat="43.76833" lon="6.32753">
        <ele>851</ele>
        <time>2014-04-29T15:00:13Z</time>
      </trkpt>
      <trkpt lat="43.76828" lon="6.32797">
        <ele>857</ele>
        <time>2014-04-29T15:00:25Z</time>
      </trkpt>
      <trkpt lat="43.76807" lon="6.32862">
        <ele>861</ele>
        <time>2014-04-29T15:00:40Z</time>
      </trkpt>
      <trkpt lat="43.76804" lon="6.32905">
        <ele>863</ele>
        <time>2014-04-29T15:00:49Z</time>
      </trkpt>
      <trkpt lat="43.7682" lon="6.32981">
        <ele>867</ele>
        <time>2014-04-29T15:01:04Z</time>
      </trkpt>
      <trkpt lat="43.76856" lon="6.33018">
        <ele>869</ele>
        <time>2014-04-29T15:01:15Z</time>
      </trkpt>
      <trkpt lat="43.76892" lon="6.33056">
        <ele>872</ele>
        <time>2014-04-29T15:01:26Z</time>
      </trkpt>
      <trkpt lat="43.7693" lon="6.33076">
        <ele>876</ele>
        <time>2014-04-29T15:01:35Z</time>
      </trkpt>
      <trkpt lat="43.76964" lon="6.331">
        <ele>877</ele>
        <time>2014-04-29T15:01:43Z</time>
      </trkpt>
      <trkpt lat="43.76982" lon="6.3312">
        <ele>877</ele>
        <time>2014-04-29T15:01:49Z</time>
      </trkpt>
      <trkpt lat="43.77017" lon="6.33167">
        <ele>879</ele>
        <time>2014-04-29T15:02:01Z</time>
      </trkpt>
      <trkpt lat="43.77053" lon="6.33222">
        <ele>884</ele>
        <time>2014-04-29T15:02:15Z</time>
      </trkpt>
      <trkpt lat="43.77081" lon="6.33274">
        <ele>886</ele>
        <time>2014-04-29T15:02:25Z</time>
      </trkpt>
      <trkpt lat="43.77114" lon="6.33324">
        <ele>890</ele>
        <time>2014-04-29T15:02:36Z</time>
      </trkpt>
      <trkpt lat="43.77132" lon="6.3337">
        <ele>888</ele>
        <time>2014-04-29T15:02:44Z</time>
      </trkpt>
      <trkpt lat="43.77146" lon="6.33438">
        <ele>889</ele>
        <time>2014-04-29T15:05:12Z</time>
      </trkpt>
      <trkpt lat="43.77183" lon="6.33466">
        <ele>894</ele>
        <time>2014-04-29T15:05:24Z</time>
      </trkpt>
      <trkpt lat="43.77214" lon="6.33511">
        <ele>894</ele>
        <time>2014-04-29T15:05:36Z</time>
      </trkpt>
      <trkpt lat="43.77229" lon="6.33569">
        <ele>893</ele>
        <time>2014-04-29T15:05:48Z</time>
      </trkpt>
      <trkpt lat="43.77256" lon="6.33609">
        <ele>897</ele>
        <time>2014-04-29T15:06:00Z</time>
      </trkpt>
      <trkpt lat="43.77297" lon="6.33587">
        <ele>901</ele>
        <time>2014-04-29T15:06:12Z</time>
      </trkpt>
      <trkpt lat="43.77325" lon="6.33607">
        <ele>903</ele>
        <time>2014-04-29T15:06:21Z</time>
      </trkpt>
      <trkpt lat="43.77353" lon="6.33657">
        <ele>909</ele>
        <time>2014-04-29T15:06:33Z</time>
      </trkpt>
      <trkpt lat="43.77374" lon="6.33675">
        <ele>909</ele>
        <time>2014-04-29T15:06:39Z</time>
      </trkpt>
      <trkpt lat="43.77407" lon="6.3369">
        <ele>911</ele>
        <time>2014-04-29T15:06:48Z</time>
      </trkpt>
      <trkpt lat="43.7744" lon="6.33706">
        <ele>917</ele>
        <time>2014-04-29T15:06:57Z</time>
      </trkpt>
      <trkpt lat="43.77482" lon="6.33725">
        <ele>919</ele>
        <time>2014-04-29T15:07:09Z</time>
      </trkpt>
      <trkpt lat="43.77496" lon="6.33765">
        <ele>919</ele>
        <time>2014-04-29T15:07:18Z</time>
      </trkpt>
      <trkpt lat="43.77473" lon="6.33813">
        <ele>919</ele>
        <time>2014-04-29T15:07:30Z</time>
      </trkpt>
      <trkpt lat="43.77455" lon="6.33869">
        <ele>920</ele>
        <time>2014-04-29T15:07:42Z</time>
      </trkpt>
      <trkpt lat="43.7745" lon="6.33901">
        <ele>921</ele>
        <time>2014-04-29T15:07:48Z</time>
      </trkpt>
      <trkpt lat="43.77454" lon="6.33967">
        <ele>923</ele>
        <time>2014-04-29T15:08:00Z</time>
      </trkpt>
      <trkpt lat="43.7747" lon="6.34025">
        <ele>924</ele>
        <time>2014-04-29T15:08:10Z</time>
      </trkpt>
      <trkpt lat="43.77487" lon="6.34058">
        <ele>924</ele>
        <time>2014-04-29T15:08:16Z</time>
      </trkpt>
      <trkpt lat="43.7752" lon="6.34106">
        <ele>924</ele>
        <time>2014-04-29T15:08:26Z</time>
      </trkpt>
      <trkpt lat="43.77544" lon="6.34095">
        <ele>924</ele>
        <time>2014-04-29T15:09:15Z</time>
      </trkpt>
      <trkpt lat="43.77538" lon="6.34044">
        <ele>928</ele>
        <time>2014-04-29T15:09:25Z</time>
      </trkpt>
      <trkpt lat="43.77528" lon="6.33979">
        <ele>930</ele>
        <time>2014-04-29T15:09:35Z</time>
      </trkpt>
      <trkpt lat="43.77526" lon="6.33952">
        <ele>929</ele>
        <time>2014-04-29T15:09:39Z</time>
      </trkpt>
      <trkpt lat="43.77552" lon="6.33963">
        <ele>929</ele>
        <time>2014-04-29T15:09:45Z</time>
      </trkpt>
      <trkpt lat="43.77562" lon="6.34025">
        <ele>927</ele>
        <time>2014-04-29T15:09:50Z</time>
      </trkpt>
      <trkpt lat="43.77572" lon="6.34069">
        <ele>926</ele>
        <time>2014-04-29T15:09:53Z</time>
      </trkpt>
      <trkpt lat="43.77587" lon="6.3413">
        <ele>920</ele>
        <time>2014-04-29T15:09:57Z</time>
      </trkpt>
      <trkpt lat="43.77628" lon="6.34159">
        <ele>919</ele>
        <time>2014-04-29T15:10:01Z</time>
      </trkpt>
      <trkpt lat="43.77652" lon="6.3416">
        <ele>918</ele>
        <time>2014-04-29T15:10:03Z</time>
      </trkpt>
      <trkpt lat="43.77697" lon="6.34164">
        <ele>918</ele>
        <time>2014-04-29T15:10:07Z</time>
      </trkpt>
      <trkpt lat="43.77738" lon="6.34168">
        <ele>917</ele>
        <time>2014-04-29T15:10:11Z</time>
      </trkpt>
      <trkpt lat="43.77767" lon="6.34169">
        <ele>917</ele>
        <time>2014-04-29T15:10:14Z</time>
      </trkpt>
      <trkpt lat="43.77822" lon="6.34174">
        <ele>919</ele>
        <time>2014-04-29T15:10:20Z</time>
      </trkpt>
      <trkpt lat="43.77855" lon="6.34174">
        <ele>920</ele>
        <time>2014-04-29T15:10:24Z</time>
      </trkpt>
      <trkpt lat="43.77886" lon="6.34152">
        <ele>925</ele>
        <time>2014-04-29T15:10:30Z</time>
      </trkpt>
      <trkpt lat="43.77896" lon="6.34107">
        <ele>927</ele>
        <time>2014-04-29T15:10:39Z</time>
      </trkpt>
      <trkpt lat="43.77916" lon="6.34058">
        <ele>930</ele>
        <time>2014-04-29T15:10:52Z</time>
      </trkpt>
      <trkpt lat="43.77938" lon="6.34036">
        <ele>934</ele>
        <time>2014-04-29T15:11:01Z</time>
      </trkpt>
      <trkpt lat="43.77956" lon="6.34026">
        <ele>934</ele>
        <time>2014-04-29T15:11:07Z</time>
      </trkpt>
      <trkpt lat="43.77974" lon="6.33994">
        <ele>936</ele>
        <time>2014-04-29T15:11:19Z</time>
      </trkpt>
      <trkpt lat="43.77957" lon="6.33959">
        <ele>937</ele>
        <time>2014-04-29T15:11:30Z</time>
      </trkpt>
      <trkpt lat="43.77935" lon="6.33944">
        <ele>937</ele>
        <time>2014-04-29T15:17:27Z</time>
      </trkpt>
      <trkpt lat="43.77916" lon="6.3391">
        <ele>940</ele>
        <time>2014-04-29T15:17:36Z</time>
      </trkpt>
      <trkpt lat="43.77886" lon="6.33853">
        <ele>943</ele>
        <time>2014-04-29T15:17:51Z</time>
      </trkpt>
      <trkpt lat="43.77876" lon="6.33831">
        <ele>946</ele>
        <time>2014-04-29T15:17:57Z</time>
      </trkpt>
      <trkpt lat="43.77848" lon="6.33779">
        <ele>947</ele>
        <time>2014-04-29T15:18:12Z</time>
      </trkpt>
      <trkpt lat="43.77817" lon="6.33721">
        <ele>951</ele>
        <time>2014-04-29T15:18:30Z</time>
      </trkpt>
      <trkpt lat="43.77795" lon="6.33682">
        <ele>953</ele>
        <time>2014-04-29T15:18:42Z</time>
      </trkpt>
      <trkpt lat="43.77771" lon="6.33631">
        <ele>959</ele>
        <time>2014-04-29T15:18:57Z</time>
      </trkpt>
      <trkpt lat="43.77759" lon="6.33589">
        <ele>962</ele>
        <time>2014-04-29T15:19:09Z</time>
      </trkpt>
      <trkpt lat="43.77747" lon="6.33564">
        <ele>965</ele>
        <time>2014-04-29T15:19:17Z</time>
      </trkpt>
      <trkpt lat="43.77712" lon="6.33511">
        <ele>968</ele>
        <time>2014-04-29T15:19:34Z</time>
      </trkpt>
      <trkpt lat="43.77702" lon="6.33489">
        <ele>974</ele>
        <time>2014-04-29T15:19:40Z</time>
      </trkpt>
      <trkpt lat="43.77671" lon="6.33425">
        <ele>974</ele>
        <time>2014-04-29T15:19:55Z</time>
      </trkpt>
      <trkpt lat="43.77651" lon="6.33389">
        <ele>974</ele>
        <time>2014-04-29T15:20:02Z</time>
      </trkpt>
      <trkpt lat="43.77616" lon="6.33353">
        <ele>974</ele>
        <time>2014-04-29T15:20:10Z</time>
      </trkpt>
      <trkpt lat="43.77572" lon="6.3333">
        <ele>975</ele>
        <time>2014-04-29T15:20:18Z</time>
      </trkpt>
      <trkpt lat="43.77536" lon="6.33294">
        <ele>978</ele>
        <time>2014-04-29T15:20:28Z</time>
      </trkpt>
      <trkpt lat="43.77493" lon="6.3324">
        <ele>982</ele>
        <time>2014-04-29T15:20:41Z</time>
      </trkpt>
      <trkpt lat="43.77458" lon="6.33203">
        <ele>984</ele>
        <time>2014-04-29T15:20:49Z</time>
      </trkpt>
      <trkpt lat="43.77437" lon="6.33191">
        <ele>984</ele>
        <time>2014-04-29T15:20:53Z</time>
      </trkpt>
      <trkpt lat="43.77402" lon="6.33183">
        <ele>979</ele>
        <time>2014-04-29T15:20:59Z</time>
      </trkpt>
      <trkpt lat="43.7737" lon="6.33172">
        <ele>975</ele>
        <time>2014-04-29T15:21:05Z</time>
      </trkpt>
      <trkpt lat="43.77342" lon="6.33133">
        <ele>983</ele>
        <time>2014-04-29T15:21:13Z</time>
      </trkpt>
      <trkpt lat="43.77318" lon="6.33067">
        <ele>982</ele>
        <time>2014-04-29T15:21:25Z</time>
      </trkpt>
      <trkpt lat="43.77297" lon="6.33">
        <ele>981</ele>
        <time>2014-04-29T15:21:37Z</time>
      </trkpt>
      <trkpt lat="43.77288" lon="6.32949">
        <ele>985</ele>
        <time>2014-04-29T15:21:46Z</time>
      </trkpt>
      <trkpt lat="43.77291" lon="6.32884">
        <ele>990</ele>
        <time>2014-04-29T15:21:57Z</time>
      </trkpt>
      <trkpt lat="43.77306" lon="6.3281">
        <ele>996</ele>
        <time>2014-04-29T15:22:09Z</time>
      </trkpt>
      <trkpt lat="43.77307" lon="6.32756">
        <ele>998</ele>
        <time>2014-04-29T15:22:18Z</time>
      </trkpt>
      <trkpt lat="43.77299" lon="6.32709">
        <ele>1001</ele>
        <time>2014-04-29T15:22:26Z</time>
      </trkpt>
      <trkpt lat="43.77272" lon="6.32645">
        <ele>1004</ele>
        <time>2014-04-29T15:22:38Z</time>
      </trkpt>
      <trkpt lat="43.7727" lon="6.32612">
        <ele>1006</ele>
        <time>2014-04-29T15:22:44Z</time>
      </trkpt>
      <trkpt lat="43.77277" lon="6.32561">
        <ele>1010</ele>
        <time>2014-04-29T15:22:53Z</time>
      </trkpt>
      <trkpt lat="43.77268" lon="6.32508">
        <ele>1008</ele>
        <time>2014-04-29T15:23:01Z</time>
      </trkpt>
      <trkpt lat="43.77252" lon="6.32487">
        <ele>1011</ele>
        <time>2014-04-29T15:23:05Z</time>
      </trkpt>
      <trkpt lat="43.77221" lon="6.32446">
        <ele>1008</ele>
        <time>2014-04-29T15:23:14Z</time>
      </trkpt>
      <trkpt lat="43.77211" lon="6.32434">
        <ele>1009</ele>
        <time>2014-04-29T15:23:17Z</time>
      </trkpt>
      <trkpt lat="43.7717" lon="6.32406">
        <ele>1016</ele>
        <time>2014-04-29T15:23:27Z</time>
      </trkpt>
      <trkpt lat="43.77135" lon="6.32359">
        <ele>1012</ele>
        <time>2014-04-29T15:23:39Z</time>
      </trkpt>
      <trkpt lat="43.77096" lon="6.3232">
        <ele>1018</ele>
        <time>2014-04-29T15:23:50Z</time>
      </trkpt>
      <trkpt lat="43.77078" lon="6.32296">
        <ele>1013</ele>
        <time>2014-04-29T15:23:56Z</time>
      </trkpt>
      <trkpt lat="43.77048" lon="6.3224">
        <ele>1021</ele>
        <time>2014-04-29T15:24:08Z</time>
      </trkpt>
      <trkpt lat="43.77032" lon="6.32197">
        <ele>1021</ele>
        <time>2014-04-29T15:24:17Z</time>
      </trkpt>
      <trkpt lat="43.77016" lon="6.32133">
        <ele>1024</ele>
        <time>2014-04-29T15:24:29Z</time>
      </trkpt>
      <trkpt lat="43.77013" lon="6.32093">
        <ele>1023</ele>
        <time>2014-04-29T15:24:35Z</time>
      </trkpt>
      <trkpt lat="43.77011" lon="6.32028">
        <ele>1026</ele>
        <time>2014-04-29T15:24:43Z</time>
      </trkpt>
      <trkpt lat="43.7701" lon="6.31998">
        <ele>1024</ele>
        <time>2014-04-29T15:24:47Z</time>
      </trkpt>
      <trkpt lat="43.76997" lon="6.31958">
        <ele>1012</ele>
        <time>2014-04-29T15:24:54Z</time>
      </trkpt>
      <trkpt lat="43.7699" lon="6.31927">
        <ele>1015</ele>
        <time>2014-04-29T15:25:00Z</time>
      </trkpt>
      <trkpt lat="43.76998" lon="6.31866">
        <ele>1011</ele>
        <time>2014-04-29T15:25:10Z</time>
      </trkpt>
      <trkpt lat="43.77015" lon="6.31807">
        <ele>1029</ele>
        <time>2014-04-29T15:25:18Z</time>
      </trkpt>
      <trkpt lat="43.77028" lon="6.31761">
        <ele>1031</ele>
        <time>2014-04-29T15:25:24Z</time>
      </trkpt>
      <trkpt lat="43.77023" lon="6.31731">
        <ele>1034</ele>
        <time>2014-04-29T15:25:28Z</time>
      </trkpt>
      <trkpt lat="43.77007" lon="6.31696">
        <ele>1037</ele>
        <time>2014-04-29T15:25:34Z</time>
      </trkpt>
      <trkpt lat="43.7699" lon="6.31671">
        <ele>1030</ele>
        <time>2014-04-29T15:25:40Z</time>
      </trkpt>
      <trkpt lat="43.76961" lon="6.31631">
        <ele>1032</ele>
        <time>2014-04-29T15:26:57Z</time>
      </trkpt>
      <trkpt lat="43.76954" lon="6.31597">
        <ele>1033</ele>
        <time>2014-04-29T15:27:03Z</time>
      </trkpt>
      <trkpt lat="43.76921" lon="6.31561">
        <ele>1036</ele>
        <time>2014-04-29T15:27:11Z</time>
      </trkpt>
      <trkpt lat="43.76876" lon="6.31524">
        <ele>1031</ele>
        <time>2014-04-29T15:27:19Z</time>
      </trkpt>
      <trkpt lat="43.76856" lon="6.31477">
        <ele>1031</ele>
        <time>2014-04-29T15:27:25Z</time>
      </trkpt>
      <trkpt lat="43.76843" lon="6.3139">
        <ele>1029</ele>
        <time>2014-04-29T15:27:33Z</time>
      </trkpt>
      <trkpt lat="43.76838" lon="6.31368">
        <ele>1029</ele>
        <time>2014-04-29T15:27:35Z</time>
      </trkpt>
      <trkpt lat="43.76813" lon="6.31289">
        <ele>1017</ele>
        <time>2014-04-29T15:27:42Z</time>
      </trkpt>
      <trkpt lat="43.76804" lon="6.31266">
        <ele>1018</ele>
        <time>2014-04-29T15:27:44Z</time>
      </trkpt>
      <trkpt lat="43.76783" lon="6.31223">
        <ele>1022</ele>
        <time>2014-04-29T15:27:48Z</time>
      </trkpt>
      <trkpt lat="43.76751" lon="6.31174">
        <ele>1019</ele>
        <time>2014-04-29T15:27:53Z</time>
      </trkpt>
      <trkpt lat="43.76739" lon="6.31138">
        <ele>1010</ele>
        <time>2014-04-29T15:27:56Z</time>
      </trkpt>
      <trkpt lat="43.76736" lon="6.31085">
        <ele>1013</ele>
        <time>2014-04-29T15:28:00Z</time>
      </trkpt>
      <trkpt lat="43.7675" lon="6.31032">
        <ele>1019</ele>
        <time>2014-04-29T15:28:04Z</time>
      </trkpt>
      <trkpt lat="43.76777" lon="6.3097">
        <ele>1011</ele>
        <time>2014-04-29T15:28:09Z</time>
      </trkpt>
      <trkpt lat="43.76796" lon="6.30919">
        <ele>1010</ele>
        <time>2014-04-29T15:28:13Z</time>
      </trkpt>
      <trkpt lat="43.76826" lon="6.3088">
        <ele>996</ele>
        <time>2014-04-29T15:28:17Z</time>
      </trkpt>
      <trkpt lat="43.7686" lon="6.30859">
        <ele>1000</ele>
        <time>2014-04-29T15:28:21Z</time>
      </trkpt>
      <trkpt lat="43.76887" lon="6.30874">
        <ele>1002</ele>
        <time>2014-04-29T15:28:24Z</time>
      </trkpt>
      <trkpt lat="43.76926" lon="6.30899">
        <ele>1006</ele>
        <time>2014-04-29T15:28:29Z</time>
      </trkpt>
      <trkpt lat="43.76956" lon="6.30923">
        <ele>1016</ele>
        <time>2014-04-29T15:28:33Z</time>
      </trkpt>
      <trkpt lat="43.7699" lon="6.30931">
        <ele>1013</ele>
        <time>2014-04-29T15:28:37Z</time>
      </trkpt>
      <trkpt lat="43.77017" lon="6.30899">
        <ele>1009</ele>
        <time>2014-04-29T15:28:41Z</time>
      </trkpt>
      <trkpt lat="43.77011" lon="6.30839">
        <ele>1003</ele>
        <time>2014-04-29T15:28:45Z</time>
      </trkpt>
      <trkpt lat="43.77015" lon="6.30778">
        <ele>999</ele>
        <time>2014-04-29T15:28:49Z</time>
      </trkpt>
      <trkpt lat="43.77026" lon="6.30734">
        <ele>991</ele>
        <time>2014-04-29T15:28:52Z</time>
      </trkpt>
      <trkpt lat="43.7705" lon="6.30677">
        <ele>992</ele>
        <time>2014-04-29T15:28:56Z</time>
      </trkpt>
      <trkpt lat="43.77077" lon="6.30629">
        <ele>990</ele>
        <time>2014-04-29T15:29:00Z</time>
      </trkpt>
      <trkpt lat="43.77058" lon="6.3058">
        <ele>991</ele>
        <time>2014-04-29T15:29:04Z</time>
      </trkpt>
      <trkpt lat="43.77039" lon="6.3056">
        <ele>987</ele>
        <time>2014-04-29T15:29:06Z</time>
      </trkpt>
      <trkpt lat="43.77011" lon="6.30538">
        <ele>984</ele>
        <time>2014-04-29T15:29:09Z</time>
      </trkpt>
      <trkpt lat="43.76992" lon="6.30504">
        <ele>975</ele>
        <time>2014-04-29T15:29:12Z</time>
      </trkpt>
      <trkpt lat="43.76987" lon="6.30476">
        <ele>973</ele>
        <time>2014-04-29T15:29:14Z</time>
      </trkpt>
      <trkpt lat="43.76988" lon="6.30404">
        <ele>972</ele>
        <time>2014-04-29T15:29:19Z</time>
      </trkpt>
      <trkpt lat="43.76994" lon="6.30378">
        <ele>970</ele>
        <time>2014-04-29T15:29:21Z</time>
      </trkpt>
      <trkpt lat="43.7702" lon="6.3036">
        <ele>975</ele>
        <time>2014-04-29T15:29:24Z</time>
      </trkpt>
      <trkpt lat="43.77039" lon="6.30361">
        <ele>975</ele>
        <time>2014-04-29T15:29:26Z</time>
      </trkpt>
      <trkpt lat="43.77077" lon="6.30372">
        <ele>977</ele>
        <time>2014-04-29T15:29:30Z</time>
      </trkpt>
      <trkpt lat="43.7711" lon="6.30346">
        <ele>981</ele>
        <time>2014-04-29T15:29:34Z</time>
      </trkpt>
      <trkpt lat="43.77119" lon="6.30319">
        <ele>974</ele>
        <time>2014-04-29T15:29:36Z</time>
      </trkpt>
      <trkpt lat="43.77121" lon="6.30258">
        <ele>971</ele>
        <time>2014-04-29T15:29:40Z</time>
      </trkpt>
      <trkpt lat="43.77132" lon="6.30216">
        <ele>964</ele>
        <time>2014-04-29T15:29:43Z</time>
      </trkpt>
      <trkpt lat="43.77147" lon="6.30193">
        <ele>963</ele>
        <time>2014-04-29T15:29:45Z</time>
      </trkpt>
      <trkpt lat="43.77178" lon="6.30153">
        <ele>966</ele>
        <time>2014-04-29T15:29:49Z</time>
      </trkpt>
      <trkpt lat="43.77201" lon="6.30102">
        <ele>966</ele>
        <time>2014-04-29T15:29:53Z</time>
      </trkpt>
      <trkpt lat="43.77204" lon="6.30041">
        <ele>958</ele>
        <time>2014-04-29T15:29:57Z</time>
      </trkpt>
      <trkpt lat="43.77196" lon="6.29979">
        <ele>953</ele>
        <time>2014-04-29T15:30:01Z</time>
      </trkpt>
      <trkpt lat="43.77193" lon="6.29934">
        <ele>952</ele>
        <time>2014-04-29T15:30:04Z</time>
      </trkpt>
      <trkpt lat="43.77213" lon="6.29884">
        <ele>948</ele>
        <time>2014-04-29T15:30:08Z</time>
      </trkpt>
      <trkpt lat="43.77245" lon="6.2984">
        <ele>946</ele>
        <time>2014-04-29T15:30:12Z</time>
      </trkpt>
      <trkpt lat="43.77273" lon="6.29808">
        <ele>946</ele>
        <time>2014-04-29T15:30:15Z</time>
      </trkpt>
      <trkpt lat="43.77307" lon="6.29787">
        <ele>948</ele>
        <time>2014-04-29T15:30:18Z</time>
      </trkpt>
      <trkpt lat="43.77328" lon="6.29744">
        <ele>945</ele>
        <time>2014-04-29T15:30:21Z</time>
      </trkpt>
      <trkpt lat="43.77347" lon="6.29676">
        <ele>941</ele>
        <time>2014-04-29T15:30:25Z</time>
      </trkpt>
      <trkpt lat="43.77353" lon="6.2966">
        <ele>933</ele>
        <time>2014-04-29T15:30:26Z</time>
      </trkpt>
      <trkpt lat="43.77382" lon="6.29598">
        <ele>933</ele>
        <time>2014-04-29T15:30:30Z</time>
      </trkpt>
      <trkpt lat="43.77407" lon="6.29533">
        <ele>921</ele>
        <time>2014-04-29T15:30:34Z</time>
      </trkpt>
      <trkpt lat="43.77437" lon="6.29475">
        <ele>927</ele>
        <time>2014-04-29T15:30:38Z</time>
      </trkpt>
      <trkpt lat="43.77463" lon="6.29436">
        <ele>928</ele>
        <time>2014-04-29T15:30:41Z</time>
      </trkpt>
      <trkpt lat="43.77468" lon="6.2937">
        <ele>918</ele>
        <time>2014-04-29T15:30:45Z</time>
      </trkpt>
      <trkpt lat="43.77458" lon="6.29337">
        <ele>915</ele>
        <time>2014-04-29T15:30:47Z</time>
      </trkpt>
      <trkpt lat="43.77466" lon="6.2929">
        <ele>907</ele>
        <time>2014-04-29T15:30:50Z</time>
      </trkpt>
      <trkpt lat="43.77498" lon="6.29238">
        <ele>903</ele>
        <time>2014-04-29T15:30:54Z</time>
      </trkpt>
      <trkpt lat="43.77535" lon="6.29192">
        <ele>911</ele>
        <time>2014-04-29T15:30:58Z</time>
      </trkpt>
      <trkpt lat="43.77564" lon="6.2916">
        <ele>906</ele>
        <time>2014-04-29T15:31:01Z</time>
      </trkpt>
      <trkpt lat="43.77577" lon="6.29132">
        <ele>902</ele>
        <time>2014-04-29T15:31:03Z</time>
      </trkpt>
      <trkpt lat="43.77587" lon="6.29079">
        <ele>904</ele>
        <time>2014-04-29T15:31:06Z</time>
      </trkpt>
      <trkpt lat="43.77599" lon="6.29017">
        <ele>906</ele>
        <time>2014-04-29T15:31:10Z</time>
      </trkpt>
      <trkpt lat="43.77599" lon="6.28959">
        <ele>901</ele>
        <time>2014-04-29T15:31:14Z</time>
      </trkpt>
      <trkpt lat="43.77605" lon="6.28928">
        <ele>898</ele>
        <time>2014-04-29T15:31:16Z</time>
      </trkpt>
      <trkpt lat="43.7761" lon="6.2886">
        <ele>897</ele>
        <time>2014-04-29T15:31:20Z</time>
      </trkpt>
      <trkpt lat="43.7761" lon="6.28807">
        <ele>893</ele>
        <time>2014-04-29T15:31:23Z</time>
      </trkpt>
      <trkpt lat="43.77611" lon="6.28734">
        <ele>889</ele>
        <time>2014-04-29T15:31:27Z</time>
      </trkpt>
      <trkpt lat="43.77601" lon="6.28662">
        <ele>880</ele>
        <time>2014-04-29T15:31:31Z</time>
      </trkpt>
      <trkpt lat="43.77585" lon="6.28598">
        <ele>879</ele>
        <time>2014-04-29T15:31:35Z</time>
      </trkpt>
      <trkpt lat="43.77588" lon="6.28525">
        <ele>878</ele>
        <time>2014-04-29T15:31:39Z</time>
      </trkpt>
      <trkpt lat="43.77608" lon="6.2846">
        <ele>869</ele>
        <time>2014-04-29T15:31:43Z</time>
      </trkpt>
      <trkpt lat="43.77638" lon="6.28405">
        <ele>855</ele>
        <time>2014-04-29T15:31:47Z</time>
      </trkpt>
      <trkpt lat="43.77678" lon="6.28365">
        <ele>858</ele>
        <time>2014-04-29T15:31:51Z</time>
      </trkpt>
      <trkpt lat="43.77819" lon="6.28343">
        <ele>857</ele>
        <time>2014-04-29T15:32:03Z</time>
      </trkpt>
      <trkpt lat="43.77866" lon="6.28323">
        <ele>842</ele>
        <time>2014-04-29T15:32:07Z</time>
      </trkpt>
      <trkpt lat="43.7791" lon="6.28292">
        <ele>840</ele>
        <time>2014-04-29T15:32:11Z</time>
      </trkpt>
      <trkpt lat="43.77961" lon="6.28271">
        <ele>845</ele>
        <time>2014-04-29T15:32:15Z</time>
      </trkpt>
      <trkpt lat="43.78013" lon="6.28259">
        <ele>845</ele>
        <time>2014-04-29T15:32:19Z</time>
      </trkpt>
      <trkpt lat="43.78058" lon="6.28256">
        <ele>849</ele>
        <time>2014-04-29T15:32:23Z</time>
      </trkpt>
      <trkpt lat="43.78084" lon="6.28246">
        <ele>840</ele>
        <time>2014-04-29T15:32:27Z</time>
      </trkpt>
      <trkpt lat="43.78057" lon="6.28227">
        <ele>829</ele>
        <time>2014-04-29T15:33:07Z</time>
      </trkpt>
      <trkpt lat="43.78007" lon="6.28236">
        <ele>831</ele>
        <time>2014-04-29T15:33:15Z</time>
      </trkpt>
      <trkpt lat="43.7797" lon="6.28229">
        <ele>822</ele>
        <time>2014-04-29T15:33:19Z</time>
      </trkpt>
      <trkpt lat="43.77927" lon="6.2823">
        <ele>821</ele>
        <time>2014-04-29T15:33:23Z</time>
      </trkpt>
      <trkpt lat="43.77838" lon="6.28257">
        <ele>822</ele>
        <time>2014-04-29T15:33:31Z</time>
      </trkpt>
      <trkpt lat="43.77791" lon="6.28258">
        <ele>826</ele>
        <time>2014-04-29T15:33:35Z</time>
      </trkpt>
      <trkpt lat="43.77741" lon="6.28251">
        <ele>819</ele>
        <time>2014-04-29T15:33:39Z</time>
      </trkpt>
      <trkpt lat="43.77644" lon="6.2823">
        <ele>809</ele>
        <time>2014-04-29T15:33:47Z</time>
      </trkpt>
      <trkpt lat="43.77607" lon="6.28229">
        <ele>807</ele>
        <time>2014-04-29T15:33:51Z</time>
      </trkpt>
      <trkpt lat="43.7764" lon="6.28198">
        <ele>805</ele>
        <time>2014-04-29T15:33:59Z</time>
      </trkpt>
      <trkpt lat="43.77752" lon="6.28188">
        <ele>796</ele>
        <time>2014-04-29T15:34:11Z</time>
      </trkpt>
      <trkpt lat="43.77845" lon="6.28148">
        <ele>786</ele>
        <time>2014-04-29T15:34:19Z</time>
      </trkpt>
      <trkpt lat="43.77938" lon="6.28072">
        <ele>770</ele>
        <time>2014-04-29T15:34:27Z</time>
      </trkpt>
      <trkpt lat="43.7799" lon="6.2805">
        <ele>769</ele>
        <time>2014-04-29T15:34:31Z</time>
      </trkpt>
      <trkpt lat="43.78032" lon="6.28021">
        <ele>771</ele>
        <time>2014-04-29T15:34:35Z</time>
      </trkpt>
      <trkpt lat="43.78065" lon="6.27985">
        <ele>763</ele>
        <time>2014-04-29T15:34:39Z</time>
      </trkpt>
      <trkpt lat="43.78076" lon="6.2794">
        <ele>758</ele>
        <time>2014-04-29T15:34:43Z</time>
      </trkpt>
      <trkpt lat="43.78083" lon="6.27894">
        <ele>749</ele>
        <time>2014-04-29T15:34:47Z</time>
      </trkpt>
      <trkpt lat="43.78104" lon="6.27853">
        <ele>758</ele>
        <time>2014-04-29T15:34:51Z</time>
      </trkpt>
      <trkpt lat="43.7819" lon="6.27712">
        <ele>747</ele>
        <time>2014-04-29T15:35:04Z</time>
      </trkpt>
      <trkpt lat="43.7822" lon="6.27683">
        <ele>748</ele>
        <time>2014-04-29T15:35:08Z</time>
      </trkpt>
      <trkpt lat="43.78252" lon="6.27662">
        <ele>753</ele>
        <time>2014-04-29T15:35:12Z</time>
      </trkpt>
      <trkpt lat="43.78293" lon="6.27541">
        <ele>734</ele>
        <time>2014-04-29T15:35:22Z</time>
      </trkpt>
      <trkpt lat="43.78317" lon="6.27509">
        <ele>738</ele>
        <time>2014-04-29T15:35:25Z</time>
      </trkpt>
      <trkpt lat="43.78335" lon="6.2747">
        <ele>753</ele>
        <time>2014-04-29T15:35:28Z</time>
      </trkpt>
      <trkpt lat="43.78342" lon="6.27441">
        <ele>747</ele>
        <time>2014-04-29T15:35:30Z</time>
      </trkpt>
      <trkpt lat="43.78351" lon="6.27384">
        <ele>732</ele>
        <time>2014-04-29T15:35:34Z</time>
      </trkpt>
      <trkpt lat="43.78368" lon="6.27346">
        <ele>730</ele>
        <time>2014-04-29T15:35:37Z</time>
      </trkpt>
      <trkpt lat="43.7839" lon="6.27312">
        <ele>720</ele>
        <time>2014-04-29T15:35:40Z</time>
      </trkpt>
      <trkpt lat="43.78412" lon="6.27277">
        <ele>716</ele>
        <time>2014-04-29T15:35:43Z</time>
      </trkpt>
      <trkpt lat="43.78445" lon="6.27239">
        <ele>723</ele>
        <time>2014-04-29T15:35:48Z</time>
      </trkpt>
      <trkpt lat="43.78446" lon="6.27166">
        <ele>703</ele>
        <time>2014-04-29T15:35:55Z</time>
      </trkpt>
      <trkpt lat="43.7845" lon="6.27128">
        <ele>706</ele>
        <time>2014-04-29T15:35:58Z</time>
      </trkpt>
      <trkpt lat="43.78459" lon="6.27078">
        <ele>719</ele>
        <time>2014-04-29T15:36:02Z</time>
      </trkpt>
      <trkpt lat="43.78452" lon="6.27039">
        <ele>721</ele>
        <time>2014-04-29T15:36:05Z</time>
      </trkpt>
      <trkpt lat="43.7844" lon="6.26984">
        <ele>721</ele>
        <time>2014-04-29T15:36:09Z</time>
      </trkpt>
      <trkpt lat="43.78437" lon="6.26956">
        <ele>724</ele>
        <time>2014-04-29T15:36:11Z</time>
      </trkpt>
      <trkpt lat="43.78433" lon="6.26898">
        <ele>718</ele>
        <time>2014-04-29T15:36:15Z</time>
      </trkpt>
      <trkpt lat="43.78432" lon="6.26839">
        <ele>715</ele>
        <time>2014-04-29T15:36:19Z</time>
      </trkpt>
      <trkpt lat="43.78432" lon="6.26796">
        <ele>719</ele>
        <time>2014-04-29T15:36:22Z</time>
      </trkpt>
      <trkpt lat="43.78449" lon="6.26744">
        <ele>716</ele>
        <time>2014-04-29T15:36:26Z</time>
      </trkpt>
      <trkpt lat="43.78486" lon="6.26711">
        <ele>713</ele>
        <time>2014-04-29T15:36:30Z</time>
      </trkpt>
      <trkpt lat="43.78516" lon="6.26685">
        <ele>707</ele>
        <time>2014-04-29T15:36:33Z</time>
      </trkpt>
      <trkpt lat="43.78548" lon="6.2667">
        <ele>708</ele>
        <time>2014-04-29T15:36:36Z</time>
      </trkpt>
      <trkpt lat="43.78569" lon="6.26672">
        <ele>705</ele>
        <time>2014-04-29T15:36:38Z</time>
      </trkpt>
      <trkpt lat="43.78607" lon="6.26658">
        <ele>696</ele>
        <time>2014-04-29T15:36:42Z</time>
      </trkpt>
      <trkpt lat="43.78642" lon="6.26623">
        <ele>694</ele>
        <time>2014-04-29T15:36:46Z</time>
      </trkpt>
      <trkpt lat="43.78685" lon="6.26596">
        <ele>694</ele>
        <time>2014-04-29T15:36:50Z</time>
      </trkpt>
      <trkpt lat="43.78729" lon="6.2658">
        <ele>674</ele>
        <time>2014-04-29T15:36:54Z</time>
      </trkpt>
      <trkpt lat="43.7876" lon="6.26598">
        <ele>690</ele>
        <time>2014-04-29T15:36:58Z</time>
      </trkpt>
      <trkpt lat="43.78802" lon="6.26639">
        <ele>695</ele>
        <time>2014-04-29T15:37:46Z</time>
      </trkpt>
      <trkpt lat="43.78869" lon="6.26666">
        <ele>695</ele>
        <time>2014-04-29T15:37:58Z</time>
      </trkpt>
      <trkpt lat="43.789" lon="6.26654">
        <ele>700</ele>
        <time>2014-04-29T15:38:02Z</time>
      </trkpt>
      <trkpt lat="43.78915" lon="6.26601">
        <ele>680</ele>
        <time>2014-04-29T15:38:06Z</time>
      </trkpt>
      <trkpt lat="43.78936" lon="6.26547">
        <ele>668</ele>
        <time>2014-04-29T15:38:10Z</time>
      </trkpt>
      <trkpt lat="43.78975" lon="6.26528">
        <ele>668</ele>
        <time>2014-04-29T15:38:14Z</time>
      </trkpt>
      <trkpt lat="43.79017" lon="6.26525">
        <ele>677</ele>
        <time>2014-04-29T15:38:18Z</time>
      </trkpt>
      <trkpt lat="43.79056" lon="6.26509">
        <ele>675</ele>
        <time>2014-04-29T15:38:22Z</time>
      </trkpt>
      <trkpt lat="43.79095" lon="6.26503">
        <ele>668</ele>
        <time>2014-04-29T15:38:26Z</time>
      </trkpt>
      <trkpt lat="43.79131" lon="6.26517">
        <ele>677</ele>
        <time>2014-04-29T15:38:30Z</time>
      </trkpt>
      <trkpt lat="43.79166" lon="6.26521">
        <ele>672</ele>
        <time>2014-04-29T15:38:34Z</time>
      </trkpt>
      <trkpt lat="43.79204" lon="6.26516">
        <ele>670</ele>
        <time>2014-04-29T15:38:38Z</time>
      </trkpt>
      <trkpt lat="43.79244" lon="6.26518">
        <ele>664</ele>
        <time>2014-04-29T15:38:42Z</time>
      </trkpt>
      <trkpt lat="43.79318" lon="6.26506">
        <ele>671</ele>
        <time>2014-04-29T15:38:50Z</time>
      </trkpt>
      <trkpt lat="43.79384" lon="6.26442">
        <ele>667</ele>
        <time>2014-04-29T15:38:58Z</time>
      </trkpt>
      <trkpt lat="43.79403" lon="6.26384">
        <ele>648</ele>
        <time>2014-04-29T15:39:02Z</time>
      </trkpt>
      <trkpt lat="43.79456" lon="6.26274">
        <ele>642</ele>
        <time>2014-04-29T15:39:10Z</time>
      </trkpt>
      <trkpt lat="43.79484" lon="6.26248">
        <ele>628</ele>
        <time>2014-04-29T15:39:14Z</time>
      </trkpt>
      <trkpt lat="43.79512" lon="6.2627">
        <ele>643</ele>
        <time>2014-04-29T15:39:18Z</time>
      </trkpt>
      <trkpt lat="43.79532" lon="6.26301">
        <ele>648</ele>
        <time>2014-04-29T15:39:22Z</time>
      </trkpt>
      <trkpt lat="43.79555" lon="6.26318">
        <ele>649</ele>
        <time>2014-04-29T15:39:26Z</time>
      </trkpt>
      <trkpt lat="43.79583" lon="6.26323">
        <ele>652</ele>
        <time>2014-04-29T15:39:30Z</time>
      </trkpt>
      <trkpt lat="43.79612" lon="6.26317">
        <ele>649</ele>
        <time>2014-04-29T15:39:34Z</time>
      </trkpt>
      <trkpt lat="43.79674" lon="6.2629">
        <ele>662</ele>
        <time>2014-04-29T15:39:42Z</time>
      </trkpt>
      <trkpt lat="43.79731" lon="6.26246">
        <ele>651</ele>
        <time>2014-04-29T15:39:50Z</time>
      </trkpt>
      <trkpt lat="43.79808" lon="6.26166">
        <ele>674</ele>
        <time>2014-04-29T15:40:02Z</time>
      </trkpt>
      <trkpt lat="43.79803" lon="6.26127">
        <ele>666</ele>
        <time>2014-04-29T15:40:06Z</time>
      </trkpt>
      <trkpt lat="43.79788" lon="6.26093">
        <ele>657</ele>
        <time>2014-04-29T15:40:10Z</time>
      </trkpt>
      <trkpt lat="43.79803" lon="6.26039">
        <ele>649</ele>
        <time>2014-04-29T15:40:18Z</time>
      </trkpt>
      <trkpt lat="43.79829" lon="6.25989">
        <ele>641</ele>
        <time>2014-04-29T15:40:26Z</time>
      </trkpt>
      <trkpt lat="43.79849" lon="6.25972">
        <ele>648</ele>
        <time>2014-04-29T15:40:30Z</time>
      </trkpt>
      <trkpt lat="43.79886" lon="6.25962">
        <ele>651</ele>
        <time>2014-04-29T15:40:38Z</time>
      </trkpt>
      <trkpt lat="43.79905" lon="6.25948">
        <ele>649</ele>
        <time>2014-04-29T15:41:14Z</time>
      </trkpt>
      <trkpt lat="43.79948" lon="6.25954">
        <ele>657</ele>
        <time>2014-04-29T15:41:26Z</time>
      </trkpt>
      <trkpt lat="43.79994" lon="6.2597">
        <ele>660</ele>
        <time>2014-04-29T15:41:34Z</time>
      </trkpt>
      <trkpt lat="43.80049" lon="6.2597">
        <ele>683</ele>
        <time>2014-04-29T15:41:42Z</time>
      </trkpt>
      <trkpt lat="43.80072" lon="6.25948">
        <ele>679</ele>
        <time>2014-04-29T15:41:46Z</time>
      </trkpt>
      <trkpt lat="43.80078" lon="6.25907">
        <ele>655</ele>
        <time>2014-04-29T15:41:50Z</time>
      </trkpt>
      <trkpt lat="43.8008" lon="6.25865">
        <ele>634</ele>
        <time>2014-04-29T15:41:54Z</time>
      </trkpt>
      <trkpt lat="43.80076" lon="6.25827">
        <ele>620</ele>
        <time>2014-04-29T15:41:58Z</time>
      </trkpt>
      <trkpt lat="43.80052" lon="6.25793">
        <ele>622</ele>
        <time>2014-04-29T15:42:06Z</time>
      </trkpt>
      <trkpt lat="43.80034" lon="6.25758">
        <ele>618</ele>
        <time>2014-04-29T15:42:54Z</time>
      </trkpt>
      <trkpt lat="43.80047" lon="6.25727">
        <ele>617</ele>
        <time>2014-04-29T15:43:02Z</time>
      </trkpt>
      <trkpt lat="43.8007" lon="6.25708">
        <ele>623</ele>
        <time>2014-04-29T15:43:07Z</time>
      </trkpt>
      <trkpt lat="43.80108" lon="6.25666">
        <ele>658</ele>
        <time>2014-04-29T15:43:17Z</time>
      </trkpt>
      <trkpt lat="43.80121" lon="6.25648">
        <ele>660</ele>
        <time>2014-04-29T15:43:21Z</time>
      </trkpt>
      <trkpt lat="43.80137" lon="6.25601">
        <ele>656</ele>
        <time>2014-04-29T15:44:41Z</time>
      </trkpt>
      <trkpt lat="43.80164" lon="6.25567">
        <ele>643</ele>
        <time>2014-04-29T15:44:49Z</time>
      </trkpt>
      <trkpt lat="43.80206" lon="6.25538">
        <ele>670</ele>
        <time>2014-04-29T15:44:57Z</time>
      </trkpt>
      <trkpt lat="43.80224" lon="6.25514">
        <ele>670</ele>
        <time>2014-04-29T15:45:01Z</time>
      </trkpt>
      <trkpt lat="43.80246" lon="6.25449">
        <ele>633</ele>
        <time>2014-04-29T15:45:09Z</time>
      </trkpt>
      <trkpt lat="43.80293" lon="6.25432">
        <ele>656</ele>
        <time>2014-04-29T15:45:17Z</time>
      </trkpt>
      <trkpt lat="43.80319" lon="6.2544">
        <ele>658</ele>
        <time>2014-04-29T15:45:21Z</time>
      </trkpt>
      <trkpt lat="43.80345" lon="6.25437">
        <ele>669</ele>
        <time>2014-04-29T15:45:25Z</time>
      </trkpt>
      <trkpt lat="43.80391" lon="6.25394">
        <ele>635</ele>
        <time>2014-04-29T15:45:33Z</time>
      </trkpt>
      <trkpt lat="43.80418" lon="6.25398">
        <ele>648</ele>
        <time>2014-04-29T15:45:37Z</time>
      </trkpt>
      <trkpt lat="43.80538" lon="6.25396">
        <ele>644</ele>
        <time>2014-04-29T15:45:53Z</time>
      </trkpt>
      <trkpt lat="43.80569" lon="6.25402">
        <ele>648</ele>
        <time>2014-04-29T15:45:57Z</time>
      </trkpt>
      <trkpt lat="43.80593" lon="6.25422">
        <ele>666</ele>
        <time>2014-04-29T15:46:01Z</time>
      </trkpt>
      <trkpt lat="43.80615" lon="6.25446">
        <ele>674</ele>
        <time>2014-04-29T15:46:05Z</time>
      </trkpt>
      <trkpt lat="43.80645" lon="6.25451">
        <ele>671</ele>
        <time>2014-04-29T15:46:09Z</time>
      </trkpt>
      <trkpt lat="43.80677" lon="6.25442">
        <ele>654</ele>
        <time>2014-04-29T15:46:13Z</time>
      </trkpt>
      <trkpt lat="43.80774" lon="6.25479">
        <ele>657</ele>
        <time>2014-04-29T15:46:25Z</time>
      </trkpt>
      <trkpt lat="43.8081" lon="6.25485">
        <ele>658</ele>
        <time>2014-04-29T15:46:29Z</time>
      </trkpt>
      <trkpt lat="43.80847" lon="6.25484">
        <ele>659</ele>
        <time>2014-04-29T15:46:33Z</time>
      </trkpt>
      <trkpt lat="43.8088" lon="6.25461">
        <ele>654</ele>
        <time>2014-04-29T15:46:37Z</time>
      </trkpt>
      <trkpt lat="43.80916" lon="6.25448">
        <ele>651</ele>
        <time>2014-04-29T15:46:41Z</time>
      </trkpt>
      <trkpt lat="43.80952" lon="6.25461">
        <ele>649</ele>
        <time>2014-04-29T15:46:45Z</time>
      </trkpt>
      <trkpt lat="43.80981" lon="6.25488">
        <ele>650</ele>
        <time>2014-04-29T15:46:49Z</time>
      </trkpt>
      <trkpt lat="43.81035" lon="6.25553">
        <ele>660</ele>
        <time>2014-04-29T15:46:57Z</time>
      </trkpt>
      <trkpt lat="43.81068" lon="6.25535">
        <ele>656</ele>
        <time>2014-04-29T15:47:01Z</time>
      </trkpt>
      <trkpt lat="43.81096" lon="6.25507">
        <ele>649</ele>
        <time>2014-04-29T15:47:05Z</time>
      </trkpt>
      <trkpt lat="43.81169" lon="6.25513">
        <ele>653</ele>
        <time>2014-04-29T15:47:13Z</time>
      </trkpt>
      <trkpt lat="43.81205" lon="6.25506">
        <ele>662</ele>
        <time>2014-04-29T15:47:17Z</time>
      </trkpt>
      <trkpt lat="43.81215" lon="6.2546">
        <ele>647</ele>
        <time>2014-04-29T15:47:21Z</time>
      </trkpt>
      <trkpt lat="43.8122" lon="6.25412">
        <ele>635</ele>
        <time>2014-04-29T15:47:25Z</time>
      </trkpt>
      <trkpt lat="43.81242" lon="6.25369">
        <ele>633</ele>
        <time>2014-04-29T15:47:29Z</time>
      </trkpt>
      <trkpt lat="43.81272" lon="6.25335">
        <ele>651</ele>
        <time>2014-04-29T15:47:33Z</time>
      </trkpt>
      <trkpt lat="43.81288" lon="6.25289">
        <ele>650</ele>
        <time>2014-04-29T15:47:37Z</time>
      </trkpt>
      <trkpt lat="43.81288" lon="6.25238">
        <ele>647</ele>
        <time>2014-04-29T15:47:41Z</time>
      </trkpt>
      <trkpt lat="43.81278" lon="6.25112">
        <ele>643</ele>
        <time>2014-04-29T15:47:53Z</time>
      </trkpt>
      <trkpt lat="43.8128" lon="6.25043">
        <ele>638</ele>
        <time>2014-04-29T15:48:01Z</time>
      </trkpt>
      <trkpt lat="43.81294" lon="6.25025">
        <ele>639</ele>
        <time>2014-04-29T15:48:05Z</time>
      </trkpt>
      <trkpt lat="43.81325" lon="6.25044">
        <ele>644</ele>
        <time>2014-04-29T15:48:12Z</time>
      </trkpt>
      <trkpt lat="43.8136" lon="6.25039">
        <ele>660</ele>
        <time>2014-04-29T15:48:20Z</time>
      </trkpt>
      <trkpt lat="43.81395" lon="6.25021">
        <ele>662</ele>
        <time>2014-04-29T15:48:29Z</time>
      </trkpt>
      <trkpt lat="43.81417" lon="6.25007">
        <ele>668</ele>
        <time>2014-04-29T15:48:35Z</time>
      </trkpt>
      <trkpt lat="43.81435" lon="6.2497">
        <ele>670</ele>
        <time>2014-04-29T15:48:43Z</time>
      </trkpt>
      <trkpt lat="43.81426" lon="6.24907">
        <ele>662</ele>
        <time>2014-04-29T15:48:53Z</time>
      </trkpt>
      <trkpt lat="43.81443" lon="6.2487">
        <ele>665</ele>
        <time>2014-04-29T15:49:00Z</time>
      </trkpt>
      <trkpt lat="43.81462" lon="6.24843">
        <ele>666</ele>
        <time>2014-04-29T15:49:06Z</time>
      </trkpt>
      <trkpt lat="43.81506" lon="6.24811">
        <ele>677</ele>
        <time>2014-04-29T15:49:17Z</time>
      </trkpt>
      <trkpt lat="43.81516" lon="6.2477">
        <ele>676</ele>
        <time>2014-04-29T15:49:24Z</time>
      </trkpt>
      <trkpt lat="43.81507" lon="6.24731">
        <ele>674</ele>
        <time>2014-04-29T15:49:30Z</time>
      </trkpt>
      <trkpt lat="43.8152" lon="6.24681">
        <ele>677</ele>
        <time>2014-04-29T15:49:38Z</time>
      </trkpt>
      <trkpt lat="43.8152" lon="6.24629">
        <ele>679</ele>
        <time>2014-04-29T15:49:46Z</time>
      </trkpt>
      <trkpt lat="43.81488" lon="6.24571">
        <ele>675</ele>
        <time>2014-04-29T15:49:56Z</time>
      </trkpt>
      <trkpt lat="43.81475" lon="6.24514">
        <ele>675</ele>
        <time>2014-04-29T15:50:02Z</time>
      </trkpt>
      <trkpt lat="43.81475" lon="6.24446">
        <ele>670</ele>
        <time>2014-04-29T15:50:07Z</time>
      </trkpt>
      <trkpt lat="43.81483" lon="6.24406">
        <ele>666</ele>
        <time>2014-04-29T15:50:10Z</time>
      </trkpt>
      <trkpt lat="43.81498" lon="6.24349">
        <ele>661</ele>
        <time>2014-04-29T15:50:14Z</time>
      </trkpt>
      <trkpt lat="43.81525" lon="6.24303">
        <ele>660</ele>
        <time>2014-04-29T15:50:18Z</time>
      </trkpt>
      <trkpt lat="43.81544" lon="6.24286">
        <ele>660</ele>
        <time>2014-04-29T15:50:20Z</time>
      </trkpt>
      <trkpt lat="43.81586" lon="6.24264">
        <ele>663</ele>
        <time>2014-04-29T15:50:24Z</time>
      </trkpt>
      <trkpt lat="43.81617" lon="6.24252">
        <ele>665</ele>
        <time>2014-04-29T15:50:27Z</time>
      </trkpt>
      <trkpt lat="43.8165" lon="6.24248">
        <ele>659</ele>
        <time>2014-04-29T15:50:30Z</time>
      </trkpt>
      <trkpt lat="43.81689" lon="6.24272">
        <ele>666</ele>
        <time>2014-04-29T15:50:34Z</time>
      </trkpt>
      <trkpt lat="43.81729" lon="6.24321">
        <ele>667</ele>
        <time>2014-04-29T15:50:39Z</time>
      </trkpt>
      <trkpt lat="43.81757" lon="6.24349">
        <ele>670</ele>
        <time>2014-04-29T15:50:43Z</time>
      </trkpt>
      <trkpt lat="43.81778" lon="6.24327">
        <ele>666</ele>
        <time>2014-04-29T15:50:46Z</time>
      </trkpt>
      <trkpt lat="43.81795" lon="6.24262">
        <ele>665</ele>
        <time>2014-04-29T15:50:51Z</time>
      </trkpt>
      <trkpt lat="43.81807" lon="6.2422">
        <ele>661</ele>
        <time>2014-04-29T15:50:54Z</time>
      </trkpt>
      <trkpt lat="43.8181" lon="6.24191">
        <ele>660</ele>
        <time>2014-04-29T15:50:56Z</time>
      </trkpt>
      <trkpt lat="43.81804" lon="6.24145">
        <ele>655</ele>
        <time>2014-04-29T15:50:59Z</time>
      </trkpt>
      <trkpt lat="43.81804" lon="6.24081">
        <ele>651</ele>
        <time>2014-04-29T15:51:03Z</time>
      </trkpt>
      <trkpt lat="43.81814" lon="6.24034">
        <ele>651</ele>
        <time>2014-04-29T15:51:06Z</time>
      </trkpt>
      <trkpt lat="43.81822" lon="6.23971">
        <ele>650</ele>
        <time>2014-04-29T15:51:10Z</time>
      </trkpt>
      <trkpt lat="43.8183" lon="6.23926">
        <ele>653</ele>
        <time>2014-04-29T15:51:13Z</time>
      </trkpt>
      <trkpt lat="43.81856" lon="6.23854">
        <ele>658</ele>
        <time>2014-04-29T15:51:19Z</time>
      </trkpt>
      <trkpt lat="43.81868" lon="6.23833">
        <ele>656</ele>
        <time>2014-04-29T15:51:21Z</time>
      </trkpt>
      <trkpt lat="43.81888" lon="6.23792">
        <ele>657</ele>
        <time>2014-04-29T15:51:25Z</time>
      </trkpt>
      <trkpt lat="43.81903" lon="6.23734">
        <ele>656</ele>
        <time>2014-04-29T15:51:30Z</time>
      </trkpt>
      <trkpt lat="43.81897" lon="6.23678">
        <ele>655</ele>
        <time>2014-04-29T15:51:34Z</time>
      </trkpt>
      <trkpt lat="43.81912" lon="6.23619">
        <ele>650</ele>
        <time>2014-04-29T15:51:38Z</time>
      </trkpt>
      <trkpt lat="43.81916" lon="6.23586">
        <ele>652</ele>
        <time>2014-04-29T15:51:40Z</time>
      </trkpt>
      <trkpt lat="43.81911" lon="6.23517">
        <ele>643</ele>
        <time>2014-04-29T15:51:44Z</time>
      </trkpt>
      <trkpt lat="43.81924" lon="6.23467">
        <ele>643</ele>
        <time>2014-04-29T15:51:47Z</time>
      </trkpt>
      <trkpt lat="43.81944" lon="6.23445">
        <ele>641</ele>
        <time>2014-04-29T15:51:49Z</time>
      </trkpt>
      <trkpt lat="43.8199" lon="6.23428">
        <ele>640</ele>
        <time>2014-04-29T15:51:53Z</time>
      </trkpt>
      <trkpt lat="43.8201" lon="6.23388">
        <ele>631</ele>
        <time>2014-04-29T15:51:56Z</time>
      </trkpt>
      <trkpt lat="43.82035" lon="6.23356">
        <ele>628</ele>
        <time>2014-04-29T15:51:59Z</time>
      </trkpt>
      <trkpt lat="43.82078" lon="6.2333">
        <ele>623</ele>
        <time>2014-04-29T15:52:03Z</time>
      </trkpt>
      <trkpt lat="43.82113" lon="6.2328">
        <ele>620</ele>
        <time>2014-04-29T15:52:07Z</time>
      </trkpt>
      <trkpt lat="43.82156" lon="6.23241">
        <ele>614</ele>
        <time>2014-04-29T15:52:11Z</time>
      </trkpt>
      <trkpt lat="43.82193" lon="6.23224">
        <ele>615</ele>
        <time>2014-04-29T15:52:14Z</time>
      </trkpt>
      <trkpt lat="43.82243" lon="6.23209">
        <ele>614</ele>
        <time>2014-04-29T15:52:18Z</time>
      </trkpt>
      <trkpt lat="43.82277" lon="6.23207">
        <ele>611</ele>
        <time>2014-04-29T15:52:21Z</time>
      </trkpt>
      <trkpt lat="43.82319" lon="6.23235">
        <ele>612</ele>
        <time>2014-04-29T15:52:25Z</time>
      </trkpt>
      <trkpt lat="43.82365" lon="6.23249">
        <ele>608</ele>
        <time>2014-04-29T15:52:29Z</time>
      </trkpt>
      <trkpt lat="43.8239" lon="6.23241">
        <ele>607</ele>
        <time>2014-04-29T15:52:31Z</time>
      </trkpt>
      <trkpt lat="43.82423" lon="6.23217">
        <ele>608</ele>
        <time>2014-04-29T15:52:34Z</time>
      </trkpt>
      <trkpt lat="43.82462" lon="6.23172">
        <ele>605</ele>
        <time>2014-04-29T15:52:38Z</time>
      </trkpt>
      <trkpt lat="43.82523" lon="6.23095">
        <ele>598</ele>
        <time>2014-04-29T15:52:44Z</time>
      </trkpt>
      <trkpt lat="43.82549" lon="6.23052">
        <ele>591</ele>
        <time>2014-04-29T15:52:47Z</time>
      </trkpt>
      <trkpt lat="43.82556" lon="6.23001">
        <ele>589</ele>
        <time>2014-04-29T15:52:50Z</time>
      </trkpt>
      <trkpt lat="43.82564" lon="6.22944">
        <ele>581</ele>
        <time>2014-04-29T15:52:54Z</time>
      </trkpt>
      <trkpt lat="43.82593" lon="6.22922">
        <ele>582</ele>
        <time>2014-04-29T15:52:57Z</time>
      </trkpt>
      <trkpt lat="43.8264" lon="6.22902">
        <ele>576</ele>
        <time>2014-04-29T15:53:01Z</time>
      </trkpt>
      <trkpt lat="43.82677" lon="6.22882">
        <ele>575</ele>
        <time>2014-04-29T15:53:04Z</time>
      </trkpt>
      <trkpt lat="43.82689" lon="6.22874">
        <ele>574</ele>
        <time>2014-04-29T15:53:05Z</time>
      </trkpt>
      <trkpt lat="43.82736" lon="6.22832">
        <ele>568</ele>
        <time>2014-04-29T15:53:09Z</time>
      </trkpt>
      <trkpt lat="43.8276" lon="6.22813">
        <ele>566</ele>
        <time>2014-04-29T15:53:11Z</time>
      </trkpt>
      <trkpt lat="43.82808" lon="6.22792">
        <ele>564</ele>
        <time>2014-04-29T15:53:16Z</time>
      </trkpt>
      <trkpt lat="43.82794" lon="6.22754">
        <ele>562</ele>
        <time>2014-04-29T15:53:22Z</time>
      </trkpt>
      <trkpt lat="43.82742" lon="6.22748">
        <ele>559</ele>
        <time>2014-04-29T15:53:28Z</time>
      </trkpt>
      <trkpt lat="43.82759" lon="6.22705">
        <ele>555</ele>
        <time>2014-04-29T15:53:34Z</time>
      </trkpt>
      <trkpt lat="43.82793" lon="6.22673">
        <ele>554</ele>
        <time>2014-04-29T15:53:38Z</time>
      </trkpt>
      <trkpt lat="43.82812" lon="6.22657">
        <ele>548</ele>
        <time>2014-04-29T15:53:40Z</time>
      </trkpt>
      <trkpt lat="43.82853" lon="6.22671">
        <ele>548</ele>
        <time>2014-04-29T15:53:44Z</time>
      </trkpt>
      <trkpt lat="43.82883" lon="6.22718">
        <ele>546</ele>
        <time>2014-04-29T15:53:48Z</time>
      </trkpt>
      <trkpt lat="43.82906" lon="6.22779">
        <ele>553</ele>
        <time>2014-04-29T15:53:53Z</time>
      </trkpt>
      <trkpt lat="43.82926" lon="6.22773">
        <ele>544</ele>
        <time>2014-04-29T15:53:59Z</time>
      </trkpt>
      <trkpt lat="43.82912" lon="6.22736">
        <ele>545</ele>
        <time>2014-04-29T15:54:03Z</time>
      </trkpt>
      <trkpt lat="43.82897" lon="6.22705">
        <ele>544</ele>
        <time>2014-04-29T15:54:06Z</time>
      </trkpt>
      <trkpt lat="43.82877" lon="6.22638">
        <ele>537</ele>
        <time>2014-04-29T15:54:11Z</time>
      </trkpt>
      <trkpt lat="43.82869" lon="6.22624">
        <ele>537</ele>
        <time>2014-04-29T15:54:12Z</time>
      </trkpt>
      <trkpt lat="43.82842" lon="6.2258">
        <ele>535</ele>
        <time>2014-04-29T15:54:16Z</time>
      </trkpt>
      <trkpt lat="43.82819" lon="6.22526">
        <ele>534</ele>
        <time>2014-04-29T15:54:22Z</time>
      </trkpt>
      <trkpt lat="43.82819" lon="6.22474">
        <ele>529</ele>
        <time>2014-04-29T15:54:36Z</time>
      </trkpt>
      <trkpt lat="43.82847" lon="6.2247">
        <ele>526</ele>
        <time>2014-04-29T15:54:40Z</time>
      </trkpt>
      <trkpt lat="43.82894" lon="6.22481">
        <ele>524</ele>
        <time>2014-04-29T15:54:45Z</time>
      </trkpt>
      <trkpt lat="43.82915" lon="6.22485">
        <ele>523</ele>
        <time>2014-04-29T15:54:47Z</time>
      </trkpt>
      <trkpt lat="43.82967" lon="6.22493">
        <ele>521</ele>
        <time>2014-04-29T15:54:52Z</time>
      </trkpt>
      <trkpt lat="43.83022" lon="6.22502">
        <ele>524</ele>
        <time>2014-04-29T15:54:58Z</time>
      </trkpt>
      <trkpt lat="43.83067" lon="6.225">
        <ele>526</ele>
        <time>2014-04-29T15:55:04Z</time>
      </trkpt>
      <trkpt lat="43.83102" lon="6.22488">
        <ele>529</ele>
        <time>2014-04-29T15:55:10Z</time>
      </trkpt>
      <trkpt lat="43.83143" lon="6.22451">
        <ele>530</ele>
        <time>2014-04-29T15:55:20Z</time>
      </trkpt>
      <trkpt lat="43.83178" lon="6.22402">
        <ele>533</ele>
        <time>2014-04-29T15:55:31Z</time>
      </trkpt>
      <trkpt lat="43.83207" lon="6.22353">
        <ele>534</ele>
        <time>2014-04-29T16:01:40Z</time>
      </trkpt>
      <trkpt lat="43.83234" lon="6.2231">
        <ele>532</ele>
        <time>2014-04-29T16:01:50Z</time>
      </trkpt>
      <trkpt lat="43.83258" lon="6.2227">
        <ele>535</ele>
        <time>2014-04-29T16:01:58Z</time>
      </trkpt>
      <trkpt lat="43.8327" lon="6.22251">
        <ele>534</ele>
        <time>2014-04-29T16:02:02Z</time>
      </trkpt>
      <trkpt lat="43.83297" lon="6.22208">
        <ele>533</ele>
        <time>2014-04-29T16:02:11Z</time>
      </trkpt>
      <trkpt lat="43.83326" lon="6.2217">
        <ele>534</ele>
        <time>2014-04-29T16:02:19Z</time>
      </trkpt>
      <trkpt lat="43.8334" lon="6.22151">
        <ele>535</ele>
        <time>2014-04-29T16:02:23Z</time>
      </trkpt>
      <trkpt lat="43.83368" lon="6.22129">
        <ele>537</ele>
        <time>2014-04-29T16:02:30Z</time>
      </trkpt>
      <trkpt lat="43.83399" lon="6.22112">
        <ele>537</ele>
        <time>2014-04-29T16:02:39Z</time>
      </trkpt>
      <trkpt lat="43.83438" lon="6.22084">
        <ele>543</ele>
        <time>2014-04-29T16:02:51Z</time>
      </trkpt>
      <trkpt lat="43.83464" lon="6.22109">
        <ele>548</ele>
        <time>2014-04-29T16:03:03Z</time>
      </trkpt>
      <trkpt lat="43.83451" lon="6.22131">
        <ele>547</ele>
        <time>2014-04-29T16:03:09Z</time>
      </trkpt>
      <trkpt lat="43.83413" lon="6.22181">
        <ele>543</ele>
        <time>2014-04-29T16:03:24Z</time>
      </trkpt>
      <trkpt lat="43.83402" lon="6.22229">
        <ele>544</ele>
        <time>2014-04-29T16:03:36Z</time>
      </trkpt>
      <trkpt lat="43.83428" lon="6.22227">
        <ele>553</ele>
        <time>2014-04-29T16:03:45Z</time>
      </trkpt>
      <trkpt lat="43.83466" lon="6.22196">
        <ele>555</ele>
        <time>2014-04-29T16:03:57Z</time>
      </trkpt>
      <trkpt lat="43.83498" lon="6.22186">
        <ele>557</ele>
        <time>2014-04-29T16:04:06Z</time>
      </trkpt>
      <trkpt lat="43.83517" lon="6.22135">
        <ele>561</ele>
        <time>2014-04-29T16:04:18Z</time>
      </trkpt>
      <trkpt lat="43.83547" lon="6.22096">
        <ele>562</ele>
        <time>2014-04-29T16:04:30Z</time>
      </trkpt>
      <trkpt lat="43.83578" lon="6.22093">
        <ele>564</ele>
        <time>2014-04-29T16:04:39Z</time>
      </trkpt>
      <trkpt lat="43.83598" lon="6.22086">
        <ele>570</ele>
        <time>2014-04-29T16:04:45Z</time>
      </trkpt>
      <trkpt lat="43.83638" lon="6.2207">
        <ele>565</ele>
        <time>2014-04-29T16:04:57Z</time>
      </trkpt>
      <trkpt lat="43.83681" lon="6.22082">
        <ele>570</ele>
        <time>2014-04-29T16:05:09Z</time>
      </trkpt>
      <trkpt lat="43.83722" lon="6.22097">
        <ele>580</ele>
        <time>2014-04-29T16:05:21Z</time>
      </trkpt>
      <trkpt lat="43.83743" lon="6.22105">
        <ele>580</ele>
        <time>2014-04-29T16:05:27Z</time>
      </trkpt>
      <trkpt lat="43.83774" lon="6.22123">
        <ele>584</ele>
        <time>2014-04-29T16:05:36Z</time>
      </trkpt>
      <trkpt lat="43.83792" lon="6.22139">
        <ele>586</ele>
        <time>2014-04-29T16:05:42Z</time>
      </trkpt>
      <trkpt lat="43.8381" lon="6.22173">
        <ele>594</ele>
        <time>2014-04-29T16:05:51Z</time>
      </trkpt>
      <trkpt lat="43.8385" lon="6.22163">
        <ele>588</ele>
        <time>2014-04-29T16:06:03Z</time>
      </trkpt>
      <trkpt lat="43.83863" lon="6.22139">
        <ele>587</ele>
        <time>2014-04-29T16:06:09Z</time>
      </trkpt>
      <trkpt lat="43.83892" lon="6.22125">
        <ele>588</ele>
        <time>2014-04-29T16:06:18Z</time>
      </trkpt>
      <trkpt lat="43.83926" lon="6.22155">
        <ele>592</ele>
        <time>2014-04-29T16:06:30Z</time>
      </trkpt>
      <trkpt lat="43.83959" lon="6.22195">
        <ele>598</ele>
        <time>2014-04-29T16:06:42Z</time>
      </trkpt>
      <trkpt lat="43.84011" lon="6.22201">
        <ele>599</ele>
        <time>2014-04-29T16:06:53Z</time>
      </trkpt>
      <trkpt lat="43.84052" lon="6.22187">
        <ele>601</ele>
        <time>2014-04-29T16:07:01Z</time>
      </trkpt>
      <trkpt lat="43.84086" lon="6.22157">
        <ele>600</ele>
        <time>2014-04-29T16:07:09Z</time>
      </trkpt>
      <trkpt lat="43.84104" lon="6.22143">
        <ele>600</ele>
        <time>2014-04-29T16:07:13Z</time>
      </trkpt>
      <trkpt lat="43.84133" lon="6.22132">
        <ele>601</ele>
        <time>2014-04-29T16:07:19Z</time>
      </trkpt>
      <trkpt lat="43.84145" lon="6.22104">
        <ele>599</ele>
        <time>2014-04-29T16:07:23Z</time>
      </trkpt>
      <trkpt lat="43.84183" lon="6.22045">
        <ele>594</ele>
        <time>2014-04-29T16:07:30Z</time>
      </trkpt>
      <trkpt lat="43.84207" lon="6.22018">
        <ele>592</ele>
        <time>2014-04-29T16:07:33Z</time>
      </trkpt>
      <trkpt lat="43.84248" lon="6.21988">
        <ele>586</ele>
        <time>2014-04-29T16:07:37Z</time>
      </trkpt>
      <trkpt lat="43.84296" lon="6.21969">
        <ele>584</ele>
        <time>2014-04-29T16:07:41Z</time>
      </trkpt>
      <trkpt lat="43.84335" lon="6.21957">
        <ele>584</ele>
        <time>2014-04-29T16:07:44Z</time>
      </trkpt>
      <trkpt lat="43.84386" lon="6.21939">
        <ele>584</ele>
        <time>2014-04-29T16:07:48Z</time>
      </trkpt>
      <trkpt lat="43.84422" lon="6.2192">
        <ele>582</ele>
        <time>2014-04-29T16:07:51Z</time>
      </trkpt>
      <trkpt lat="43.84443" lon="6.21899">
        <ele>578</ele>
        <time>2014-04-29T16:07:53Z</time>
      </trkpt>
      <trkpt lat="43.8447" lon="6.21861">
        <ele>576</ele>
        <time>2014-04-29T16:07:56Z</time>
      </trkpt>
      <trkpt lat="43.84494" lon="6.21799">
        <ele>571</ele>
        <time>2014-04-29T16:08:00Z</time>
      </trkpt>
      <trkpt lat="43.845" lon="6.21747">
        <ele>571</ele>
        <time>2014-04-29T16:08:03Z</time>
      </trkpt>
      <trkpt lat="43.84498" lon="6.21681">
        <ele>569</ele>
        <time>2014-04-29T16:08:07Z</time>
      </trkpt>
      <trkpt lat="43.84483" lon="6.21627">
        <ele>570</ele>
        <time>2014-04-29T16:08:11Z</time>
      </trkpt>
      <trkpt lat="43.84464" lon="6.21575">
        <ele>572</ele>
        <time>2014-04-29T16:08:16Z</time>
      </trkpt>
      <trkpt lat="43.84443" lon="6.21549">
        <ele>572</ele>
        <time>2014-04-29T16:08:20Z</time>
      </trkpt>
      <trkpt lat="43.84412" lon="6.21502">
        <ele>571</ele>
        <time>2014-04-29T16:08:26Z</time>
      </trkpt>
      <trkpt lat="43.8439" lon="6.21474">
        <ele>572</ele>
        <time>2014-04-29T16:08:30Z</time>
      </trkpt>
      <trkpt lat="43.84347" lon="6.21449">
        <ele>572</ele>
        <time>2014-04-29T16:08:36Z</time>
      </trkpt>
      <trkpt lat="43.84286" lon="6.21429">
        <ele>571</ele>
        <time>2014-04-29T16:08:44Z</time>
      </trkpt>
      <trkpt lat="43.84257" lon="6.21412">
        <ele>572</ele>
        <time>2014-04-29T16:08:48Z</time>
      </trkpt>
      <trkpt lat="43.84231" lon="6.21392">
        <ele>569</ele>
        <time>2014-04-29T16:08:52Z</time>
      </trkpt>
      <trkpt lat="43.84215" lon="6.21332">
        <ele>570</ele>
        <time>2014-04-29T16:09:00Z</time>
      </trkpt>
      <trkpt lat="43.8422" lon="6.21291">
        <ele>570</ele>
        <time>2014-04-29T16:09:06Z</time>
      </trkpt>
      <trkpt lat="43.84233" lon="6.21235">
        <ele>572</ele>
        <time>2014-04-29T16:09:14Z</time>
      </trkpt>
      <trkpt lat="43.8425" lon="6.21191">
        <ele>580</ele>
        <time>2014-04-29T16:09:20Z</time>
      </trkpt>
      <trkpt lat="43.84271" lon="6.21123">
        <ele>578</ele>
        <time>2014-04-29T16:09:28Z</time>
      </trkpt>
      <trkpt lat="43.84288" lon="6.21059">
        <ele>575</ele>
        <time>2014-04-29T16:09:34Z</time>
      </trkpt>
      <trkpt lat="43.84295" lon="6.21037">
        <ele>575</ele>
        <time>2014-04-29T16:09:36Z</time>
      </trkpt>
      <trkpt lat="43.84321" lon="6.20952">
        <ele>574</ele>
        <time>2014-04-29T16:09:44Z</time>
      </trkpt>
      <trkpt lat="43.84346" lon="6.20877">
        <ele>579</ele>
        <time>2014-04-29T16:09:52Z</time>
      </trkpt>
      <trkpt lat="43.84363" lon="6.20823">
        <ele>577</ele>
        <time>2014-04-29T16:09:58Z</time>
      </trkpt>
      <trkpt lat="43.84387" lon="6.20755">
        <ele>578</ele>
        <time>2014-04-29T16:10:06Z</time>
      </trkpt>
      <trkpt lat="43.84408" lon="6.20706">
        <ele>578</ele>
        <time>2014-04-29T16:10:12Z</time>
      </trkpt>
      <trkpt lat="43.84415" lon="6.20689">
        <ele>578</ele>
        <time>2014-04-29T16:10:14Z</time>
      </trkpt>
      <trkpt lat="43.84436" lon="6.20622">
        <ele>581</ele>
        <time>2014-04-29T16:10:22Z</time>
      </trkpt>
      <trkpt lat="43.84452" lon="6.20577">
        <ele>581</ele>
        <time>2014-04-29T16:10:28Z</time>
      </trkpt>
      <trkpt lat="43.84465" lon="6.20554">
        <ele>582</ele>
        <time>2014-04-29T16:10:32Z</time>
      </trkpt>
      <trkpt lat="43.84492" lon="6.20515">
        <ele>583</ele>
        <time>2014-04-29T16:10:40Z</time>
      </trkpt>
      <trkpt lat="43.84506" lon="6.20497">
        <ele>585</ele>
        <time>2014-04-29T16:10:44Z</time>
      </trkpt>
      <trkpt lat="43.8455" lon="6.20451">
        <ele>588</ele>
        <time>2014-04-29T16:10:56Z</time>
      </trkpt>
      <trkpt lat="43.84595" lon="6.20409">
        <ele>591</ele>
        <time>2014-04-29T16:11:08Z</time>
      </trkpt>
      <trkpt lat="43.84616" lon="6.20385">
        <ele>592</ele>
        <time>2014-04-29T16:11:14Z</time>
      </trkpt>
      <trkpt lat="43.84621" lon="6.20344">
        <ele>591</ele>
        <time>2014-04-29T16:11:21Z</time>
      </trkpt>
      <trkpt lat="43.84615" lon="6.20301">
        <ele>590</ele>
        <time>2014-04-29T16:11:27Z</time>
      </trkpt>
      <trkpt lat="43.84641" lon="6.20256">
        <ele>591</ele>
        <time>2014-04-29T16:11:35Z</time>
      </trkpt>
      <trkpt lat="43.84674" lon="6.20201">
        <ele>596</ele>
        <time>2014-04-29T16:11:45Z</time>
      </trkpt>
      <trkpt lat="43.84695" lon="6.20168">
        <ele>597</ele>
        <time>2014-04-29T16:11:51Z</time>
      </trkpt>
      <trkpt lat="43.84728" lon="6.20113">
        <ele>598</ele>
        <time>2014-04-29T16:12:01Z</time>
      </trkpt>
      <trkpt lat="43.84753" lon="6.2007">
        <ele>599</ele>
        <time>2014-04-29T16:12:09Z</time>
      </trkpt>
      <trkpt lat="43.8477" lon="6.2004">
        <ele>601</ele>
        <time>2014-04-29T16:12:15Z</time>
      </trkpt>
      <trkpt lat="43.84791" lon="6.19998">
        <ele>605</ele>
        <time>2014-04-29T16:12:23Z</time>
      </trkpt>
      <trkpt lat="43.84805" lon="6.19973">
        <ele>606</ele>
        <time>2014-04-29T16:12:28Z</time>
      </trkpt>
      <trkpt lat="43.84828" lon="6.19932">
        <ele>607</ele>
        <time>2014-04-29T16:12:37Z</time>
      </trkpt>
      <trkpt lat="43.84847" lon="6.19888">
        <ele>610</ele>
        <time>2014-04-29T16:12:46Z</time>
      </trkpt>
      <trkpt lat="43.84864" lon="6.1984">
        <ele>611</ele>
        <time>2014-04-29T16:12:55Z</time>
      </trkpt>
      <trkpt lat="43.84877" lon="6.1981">
        <ele>616</ele>
        <time>2014-04-29T16:13:01Z</time>
      </trkpt>
      <trkpt lat="43.84904" lon="6.19772">
        <ele>616</ele>
        <time>2014-04-29T16:13:10Z</time>
      </trkpt>
      <trkpt lat="43.84919" lon="6.19743">
        <ele>616</ele>
        <time>2014-04-29T16:13:16Z</time>
      </trkpt>
      <trkpt lat="43.84934" lon="6.19704">
        <ele>616</ele>
        <time>2014-04-29T16:13:23Z</time>
      </trkpt>
      <trkpt lat="43.84962" lon="6.19665">
        <ele>619</ele>
        <time>2014-04-29T16:13:32Z</time>
      </trkpt>
      <trkpt lat="43.85002" lon="6.19625">
        <ele>621</ele>
        <time>2014-04-29T16:13:44Z</time>
      </trkpt>
      <trkpt lat="43.85024" lon="6.19608">
        <ele>623</ele>
        <time>2014-04-29T16:13:50Z</time>
      </trkpt>
      <trkpt lat="43.8506" lon="6.19588">
        <ele>624</ele>
        <time>2014-04-29T16:13:59Z</time>
      </trkpt>
      <trkpt lat="43.85114" lon="6.19566">
        <ele>630</ele>
        <time>2014-04-29T16:14:12Z</time>
      </trkpt>
      <trkpt lat="43.85161" lon="6.19557">
        <ele>630</ele>
        <time>2014-04-29T16:14:23Z</time>
      </trkpt>
      <trkpt lat="43.85187" lon="6.19564">
        <ele>629</ele>
        <time>2014-04-29T16:14:29Z</time>
      </trkpt>
      <trkpt lat="43.85223" lon="6.19562">
        <ele>629</ele>
        <time>2014-04-29T16:14:38Z</time>
      </trkpt>
      <trkpt lat="43.85271" lon="6.1955">
        <ele>632</ele>
        <time>2014-04-29T16:14:50Z</time>
      </trkpt>
      <trkpt lat="43.85307" lon="6.19542">
        <ele>634</ele>
        <time>2014-04-29T16:14:59Z</time>
      </trkpt>
      <trkpt lat="43.85344" lon="6.19544">
        <ele>641</ele>
        <time>2014-04-29T16:15:08Z</time>
      </trkpt>
      <trkpt lat="43.85399" lon="6.19583">
        <ele>643</ele>
        <time>2014-04-29T16:15:23Z</time>
      </trkpt>
      <trkpt lat="43.85429" lon="6.196">
        <ele>644</ele>
        <time>2014-04-29T16:15:32Z</time>
      </trkpt>
      <trkpt lat="43.85463" lon="6.19645">
        <ele>645</ele>
        <time>2014-04-29T16:15:44Z</time>
      </trkpt>
      <trkpt lat="43.85503" lon="6.19679">
        <ele>647</ele>
        <time>2014-04-29T16:15:56Z</time>
      </trkpt>
      <trkpt lat="43.85535" lon="6.19703">
        <ele>650</ele>
        <time>2014-04-29T16:16:05Z</time>
      </trkpt>
      <trkpt lat="43.85576" lon="6.19734">
        <ele>651</ele>
        <time>2014-04-29T16:16:17Z</time>
      </trkpt>
      <trkpt lat="43.85607" lon="6.19756">
        <ele>656</ele>
        <time>2014-04-29T16:16:26Z</time>
      </trkpt>
      <trkpt lat="43.85633" lon="6.19811">
        <ele>657</ele>
        <time>2014-04-29T16:16:38Z</time>
      </trkpt>
      <trkpt lat="43.85648" lon="6.19785">
        <ele>660</ele>
        <time>2014-04-29T16:16:49Z</time>
      </trkpt>
      <trkpt lat="43.85636" lon="6.19756">
        <ele>660</ele>
        <time>2014-04-29T16:16:55Z</time>
      </trkpt>
      <trkpt lat="43.85622" lon="6.19711">
        <ele>667</ele>
        <time>2014-04-29T16:17:04Z</time>
      </trkpt>
      <trkpt lat="43.85608" lon="6.19683">
        <ele>666</ele>
        <time>2014-04-29T16:17:10Z</time>
      </trkpt>
      <trkpt lat="43.85578" lon="6.1963">
        <ele>662</ele>
        <time>2014-04-29T16:17:22Z</time>
      </trkpt>
      <trkpt lat="43.85547" lon="6.19579">
        <ele>672</ele>
        <time>2014-04-29T16:17:34Z</time>
      </trkpt>
      <trkpt lat="43.85542" lon="6.19547">
        <ele>673</ele>
        <time>2014-04-29T16:17:43Z</time>
      </trkpt>
      <trkpt lat="43.85569" lon="6.19584">
        <ele>669</ele>
        <time>2014-04-29T16:17:52Z</time>
      </trkpt>
      <trkpt lat="43.85604" lon="6.19622">
        <ele>679</ele>
        <time>2014-04-29T16:18:02Z</time>
      </trkpt>
      <trkpt lat="43.85633" lon="6.19654">
        <ele>680</ele>
        <time>2014-04-29T16:18:11Z</time>
      </trkpt>
      <trkpt lat="43.8566" lon="6.19713">
        <ele>671</ele>
        <time>2014-04-29T16:18:23Z</time>
      </trkpt>
      <trkpt lat="43.85684" lon="6.19752">
        <ele>673</ele>
        <time>2014-04-29T16:18:32Z</time>
      </trkpt>
      <trkpt lat="43.85717" lon="6.19778">
        <ele>677</ele>
        <time>2014-04-29T16:18:41Z</time>
      </trkpt>
      <trkpt lat="43.85751" lon="6.19789">
        <ele>690</ele>
        <time>2014-04-29T16:18:50Z</time>
      </trkpt>
      <trkpt lat="43.85774" lon="6.19805">
        <ele>690</ele>
        <time>2014-04-29T16:18:56Z</time>
      </trkpt>
      <trkpt lat="43.85814" lon="6.19845">
        <ele>687</ele>
        <time>2014-04-29T16:19:08Z</time>
      </trkpt>
      <trkpt lat="43.85844" lon="6.19872">
        <ele>698</ele>
        <time>2014-04-29T16:19:17Z</time>
      </trkpt>
      <trkpt lat="43.85852" lon="6.19847">
        <ele>699</ele>
        <time>2014-04-29T16:19:23Z</time>
      </trkpt>
      <trkpt lat="43.85823" lon="6.19807">
        <ele>694</ele>
        <time>2014-04-29T16:19:32Z</time>
      </trkpt>
      <trkpt lat="43.85794" lon="6.19755">
        <ele>695</ele>
        <time>2014-04-29T16:19:43Z</time>
      </trkpt>
      <trkpt lat="43.85772" lon="6.19735">
        <ele>704</ele>
        <time>2014-04-29T16:19:49Z</time>
      </trkpt>
      <trkpt lat="43.8574" lon="6.19707">
        <ele>694</ele>
        <time>2014-04-29T16:19:58Z</time>
      </trkpt>
      <trkpt lat="43.85711" lon="6.1965">
        <ele>704</ele>
        <time>2014-04-29T16:20:10Z</time>
      </trkpt>
      <trkpt lat="43.85697" lon="6.19602">
        <ele>706</ele>
        <time>2014-04-29T16:20:19Z</time>
      </trkpt>
      <trkpt lat="43.85686" lon="6.1957">
        <ele>713</ele>
        <time>2014-04-29T16:20:25Z</time>
      </trkpt>
      <trkpt lat="43.85657" lon="6.19513">
        <ele>706</ele>
        <time>2014-04-29T16:20:37Z</time>
      </trkpt>
      <trkpt lat="43.85635" lon="6.1947">
        <ele>713</ele>
        <time>2014-04-29T16:20:46Z</time>
      </trkpt>
      <trkpt lat="43.85608" lon="6.1941">
        <ele>721</ele>
        <time>2014-04-29T16:20:58Z</time>
      </trkpt>
      <trkpt lat="43.8559" lon="6.19366">
        <ele>725</ele>
        <time>2014-04-29T16:21:07Z</time>
      </trkpt>
      <trkpt lat="43.85564" lon="6.1931">
        <ele>721</ele>
        <time>2014-04-29T16:21:19Z</time>
      </trkpt>
      <trkpt lat="43.85543" lon="6.19265">
        <ele>722</ele>
        <time>2014-04-29T16:21:28Z</time>
      </trkpt>
      <trkpt lat="43.85519" lon="6.19207">
        <ele>725</ele>
        <time>2014-04-29T16:21:40Z</time>
      </trkpt>
      <trkpt lat="43.85491" lon="6.19153">
        <ele>720</ele>
        <time>2014-04-29T16:21:52Z</time>
      </trkpt>
      <trkpt lat="43.85471" lon="6.19106">
        <ele>718</ele>
        <time>2014-04-29T16:22:00Z</time>
      </trkpt>
      <trkpt lat="43.85446" lon="6.19061">
        <ele>717</ele>
        <time>2014-04-29T16:26:10Z</time>
      </trkpt>
      <trkpt lat="43.85435" lon="6.19034">
        <ele>717</ele>
        <time>2014-04-29T16:26:15Z</time>
      </trkpt>
      <trkpt lat="43.85408" lon="6.18975">
        <ele>714</ele>
        <time>2014-04-29T16:26:23Z</time>
      </trkpt>
      <trkpt lat="43.85376" lon="6.18906">
        <ele>711</ele>
        <time>2014-04-29T16:26:31Z</time>
      </trkpt>
      <trkpt lat="43.85342" lon="6.18831">
        <ele>709</ele>
        <time>2014-04-29T16:26:39Z</time>
      </trkpt>
      <trkpt lat="43.85305" lon="6.1875">
        <ele>706</ele>
        <time>2014-04-29T16:26:47Z</time>
      </trkpt>
      <trkpt lat="43.85286" lon="6.18708">
        <ele>705</ele>
        <time>2014-04-29T16:26:51Z</time>
      </trkpt>
      <trkpt lat="43.85247" lon="6.18625">
        <ele>702</ele>
        <time>2014-04-29T16:26:59Z</time>
      </trkpt>
      <trkpt lat="43.85228" lon="6.18581">
        <ele>701</ele>
        <time>2014-04-29T16:27:03Z</time>
      </trkpt>
      <trkpt lat="43.8521" lon="6.18535">
        <ele>700</ele>
        <time>2014-04-29T16:27:07Z</time>
      </trkpt>
      <trkpt lat="43.85199" lon="6.18498">
        <ele>699</ele>
        <time>2014-04-29T16:27:10Z</time>
      </trkpt>
      <trkpt lat="43.85189" lon="6.18446">
        <ele>698</ele>
        <time>2014-04-29T16:27:14Z</time>
      </trkpt>
      <trkpt lat="43.85186" lon="6.18407">
        <ele>697</ele>
        <time>2014-04-29T16:27:17Z</time>
      </trkpt>
      <trkpt lat="43.85186" lon="6.18368">
        <ele>697</ele>
        <time>2014-04-29T16:27:20Z</time>
      </trkpt>
      <trkpt lat="43.85192" lon="6.18306">
        <ele>695</ele>
        <time>2014-04-29T16:27:25Z</time>
      </trkpt>
      <trkpt lat="43.85207" lon="6.18236">
        <ele>694</ele>
        <time>2014-04-29T16:27:31Z</time>
      </trkpt>
      <trkpt lat="43.85232" lon="6.18148">
        <ele>693</ele>
        <time>2014-04-29T16:27:39Z</time>
      </trkpt>
      <trkpt lat="43.85249" lon="6.18081">
        <ele>694</ele>
        <time>2014-04-29T16:27:45Z</time>
      </trkpt>
      <trkpt lat="43.85254" lon="6.18035">
        <ele>695</ele>
        <time>2014-04-29T16:27:49Z</time>
      </trkpt>
      <trkpt lat="43.85253" lon="6.17986">
        <ele>693</ele>
        <time>2014-04-29T16:27:53Z</time>
      </trkpt>
      <trkpt lat="43.85248" lon="6.17949">
        <ele>690</ele>
        <time>2014-04-29T16:27:56Z</time>
      </trkpt>
      <trkpt lat="43.85235" lon="6.17901">
        <ele>690</ele>
        <time>2014-04-29T16:28:00Z</time>
      </trkpt>
      <trkpt lat="43.85211" lon="6.17831">
        <ele>688</ele>
        <time>2014-04-29T16:28:06Z</time>
      </trkpt>
      <trkpt lat="43.85185" lon="6.17763">
        <ele>686</ele>
        <time>2014-04-29T16:28:12Z</time>
      </trkpt>
      <trkpt lat="43.85173" lon="6.17729">
        <ele>686</ele>
        <time>2014-04-29T16:28:15Z</time>
      </trkpt>
      <trkpt lat="43.85152" lon="6.1767">
        <ele>683</ele>
        <time>2014-04-29T16:28:20Z</time>
      </trkpt>
      <trkpt lat="43.85131" lon="6.17612">
        <ele>682</ele>
        <time>2014-04-29T16:28:25Z</time>
      </trkpt>
      <trkpt lat="43.85109" lon="6.17541">
        <ele>682</ele>
        <time>2014-04-29T16:28:31Z</time>
      </trkpt>
      <trkpt lat="43.85105" lon="6.17515">
        <ele>681</ele>
        <time>2014-04-29T16:28:33Z</time>
      </trkpt>
      <trkpt lat="43.85097" lon="6.1745">
        <ele>681</ele>
        <time>2014-04-29T16:28:38Z</time>
      </trkpt>
      <trkpt lat="43.85092" lon="6.17412">
        <ele>679</ele>
        <time>2014-04-29T16:28:41Z</time>
      </trkpt>
      <trkpt lat="43.85084" lon="6.17349">
        <ele>678</ele>
        <time>2014-04-29T16:28:46Z</time>
      </trkpt>
      <trkpt lat="43.85075" lon="6.173">
        <ele>673</ele>
        <time>2014-04-29T16:28:50Z</time>
      </trkpt>
      <trkpt lat="43.85067" lon="6.17265">
        <ele>673</ele>
        <time>2014-04-29T16:28:53Z</time>
      </trkpt>
      <trkpt lat="43.85045" lon="6.17212">
        <ele>672</ele>
        <time>2014-04-29T16:28:58Z</time>
      </trkpt>
      <trkpt lat="43.85034" lon="6.17193">
        <ele>672</ele>
        <time>2014-04-29T16:29:00Z</time>
      </trkpt>
      <trkpt lat="43.84995" lon="6.17146">
        <ele>671</ele>
        <time>2014-04-29T16:29:06Z</time>
      </trkpt>
      <trkpt lat="43.84952" lon="6.17106">
        <ele>670</ele>
        <time>2014-04-29T16:29:12Z</time>
      </trkpt>
      <trkpt lat="43.84916" lon="6.17057">
        <ele>666</ele>
        <time>2014-04-29T16:29:18Z</time>
      </trkpt>
      <trkpt lat="43.84893" lon="6.16993">
        <ele>665</ele>
        <time>2014-04-29T16:29:24Z</time>
      </trkpt>
      <trkpt lat="43.84869" lon="6.16904">
        <ele>664</ele>
        <time>2014-04-29T16:29:32Z</time>
      </trkpt>
      <trkpt lat="43.84861" lon="6.16882">
        <ele>664</ele>
        <time>2014-04-29T16:29:34Z</time>
      </trkpt>
      <trkpt lat="43.84842" lon="6.16841">
        <ele>662</ele>
        <time>2014-04-29T16:29:38Z</time>
      </trkpt>
      <trkpt lat="43.84799" lon="6.16763">
        <ele>660</ele>
        <time>2014-04-29T16:29:46Z</time>
      </trkpt>
      <trkpt lat="43.84778" lon="6.16723">
        <ele>660</ele>
        <time>2014-04-29T16:29:50Z</time>
      </trkpt>
      <trkpt lat="43.8474" lon="6.16654">
        <ele>656</ele>
        <time>2014-04-29T16:29:57Z</time>
      </trkpt>
      <trkpt lat="43.84729" lon="6.16635">
        <ele>656</ele>
        <time>2014-04-29T16:29:59Z</time>
      </trkpt>
      <trkpt lat="43.84702" lon="6.16585">
        <ele>655</ele>
        <time>2014-04-29T16:30:04Z</time>
      </trkpt>
      <trkpt lat="43.84671" lon="6.16528">
        <ele>654</ele>
        <time>2014-04-29T16:30:10Z</time>
      </trkpt>
      <trkpt lat="43.84642" lon="6.16473">
        <ele>652</ele>
        <time>2014-04-29T16:30:16Z</time>
      </trkpt>
      <trkpt lat="43.84613" lon="6.16418">
        <ele>652</ele>
        <time>2014-04-29T16:30:22Z</time>
      </trkpt>
      <trkpt lat="43.84573" lon="6.16345">
        <ele>651</ele>
        <time>2014-04-29T16:30:30Z</time>
      </trkpt>
      <trkpt lat="43.84553" lon="6.16308">
        <ele>651</ele>
        <time>2014-04-29T16:30:34Z</time>
      </trkpt>
      <trkpt lat="43.8451" lon="6.16232">
        <ele>651</ele>
        <time>2014-04-29T16:30:42Z</time>
      </trkpt>
      <trkpt lat="43.84481" lon="6.16183">
        <ele>648</ele>
        <time>2014-04-29T16:30:47Z</time>
      </trkpt>
      <trkpt lat="43.84446" lon="6.16145">
        <ele>649</ele>
        <time>2014-04-29T16:30:52Z</time>
      </trkpt>
      <trkpt lat="43.84404" lon="6.16124">
        <ele>645</ele>
        <time>2014-04-29T16:30:57Z</time>
      </trkpt>
      <trkpt lat="43.84384" lon="6.16087">
        <ele>645</ele>
        <time>2014-04-29T16:31:01Z</time>
      </trkpt>
      <trkpt lat="43.84363" lon="6.1603">
        <ele>646</ele>
        <time>2014-04-29T16:31:07Z</time>
      </trkpt>
      <trkpt lat="43.84335" lon="6.15954">
        <ele>647</ele>
        <time>2014-04-29T16:31:15Z</time>
      </trkpt>
      <trkpt lat="43.84329" lon="6.15894">
        <ele>644</ele>
        <time>2014-04-29T16:31:21Z</time>
      </trkpt>
      <trkpt lat="43.84343" lon="6.15858">
        <ele>647</ele>
        <time>2014-04-29T16:31:25Z</time>
      </trkpt>
      <trkpt lat="43.84359" lon="6.15826">
        <ele>647</ele>
        <time>2014-04-29T16:31:29Z</time>
      </trkpt>
      <trkpt lat="43.84386" lon="6.15773">
        <ele>648</ele>
        <time>2014-04-29T16:31:35Z</time>
      </trkpt>
      <trkpt lat="43.84396" lon="6.15733">
        <ele>648</ele>
        <time>2014-04-29T16:31:39Z</time>
      </trkpt>
      <trkpt lat="43.84398" lon="6.15697">
        <ele>648</ele>
        <time>2014-04-29T16:31:43Z</time>
      </trkpt>
      <trkpt lat="43.84412" lon="6.15658">
        <ele>647</ele>
        <time>2014-04-29T16:31:49Z</time>
      </trkpt>
      <trkpt lat="43.84452" lon="6.15635">
        <ele>647</ele>
        <time>2014-04-29T16:31:57Z</time>
      </trkpt>
      <trkpt lat="43.84497" lon="6.1562">
        <ele>647</ele>
        <time>2014-04-29T16:32:05Z</time>
      </trkpt>
      <trkpt lat="43.84518" lon="6.156">
        <ele>649</ele>
        <time>2014-04-29T16:32:09Z</time>
      </trkpt>
      <trkpt lat="43.84545" lon="6.15535">
        <ele>648</ele>
        <time>2014-04-29T16:32:17Z</time>
      </trkpt>
      <trkpt lat="43.84578" lon="6.15456">
        <ele>648</ele>
        <time>2014-04-29T16:32:27Z</time>
      </trkpt>
      <trkpt lat="43.84588" lon="6.15423">
        <ele>649</ele>
        <time>2014-04-29T16:32:31Z</time>
      </trkpt>
      <trkpt lat="43.84595" lon="6.15369">
        <ele>650</ele>
        <time>2014-04-29T16:32:37Z</time>
      </trkpt>
      <trkpt lat="43.84618" lon="6.15309">
        <ele>651</ele>
        <time>2014-04-29T16:32:45Z</time>
      </trkpt>
      <trkpt lat="43.84637" lon="6.1527">
        <ele>652</ele>
        <time>2014-04-29T16:32:51Z</time>
      </trkpt>
      <trkpt lat="43.84669" lon="6.15208">
        <ele>656</ele>
        <time>2014-04-29T16:33:01Z</time>
      </trkpt>
      <trkpt lat="43.84696" lon="6.15164">
        <ele>654</ele>
        <time>2014-04-29T16:33:09Z</time>
      </trkpt>
      <trkpt lat="43.84739" lon="6.15144">
        <ele>656</ele>
        <time>2014-04-29T16:33:19Z</time>
      </trkpt>
      <trkpt lat="43.84797" lon="6.15133">
        <ele>660</ele>
        <time>2014-04-29T16:33:31Z</time>
      </trkpt>
      <trkpt lat="43.84847" lon="6.15125">
        <ele>662</ele>
        <time>2014-04-29T16:33:39Z</time>
      </trkpt>
      <trkpt lat="43.84902" lon="6.15115">
        <ele>662</ele>
        <time>2014-04-29T16:33:47Z</time>
      </trkpt>
      <trkpt lat="43.8496" lon="6.15105">
        <ele>663</ele>
        <time>2014-04-29T16:33:55Z</time>
      </trkpt>
      <trkpt lat="43.85009" lon="6.15097">
        <ele>662</ele>
        <time>2014-04-29T16:34:01Z</time>
      </trkpt>
      <trkpt lat="43.85033" lon="6.15069">
        <ele>655</ele>
        <time>2014-04-29T16:34:05Z</time>
      </trkpt>
      <trkpt lat="43.85033" lon="6.15019">
        <ele>653</ele>
        <time>2014-04-29T16:34:09Z</time>
      </trkpt>
      <trkpt lat="43.85025" lon="6.14953">
        <ele>649</ele>
        <time>2014-04-29T16:34:14Z</time>
      </trkpt>
      <trkpt lat="43.85014" lon="6.14867">
        <ele>648</ele>
        <time>2014-04-29T16:34:21Z</time>
      </trkpt>
      <trkpt lat="43.85023" lon="6.14807">
        <ele>648</ele>
        <time>2014-04-29T16:34:27Z</time>
      </trkpt>
      <trkpt lat="43.85051" lon="6.14727">
        <ele>650</ele>
        <time>2014-04-29T16:34:35Z</time>
      </trkpt>
      <trkpt lat="43.85046" lon="6.14675">
        <ele>651</ele>
        <time>2014-04-29T16:34:41Z</time>
      </trkpt>
      <trkpt lat="43.8503" lon="6.14654">
        <ele>653</ele>
        <time>2014-04-29T16:34:45Z</time>
      </trkpt>
      <trkpt lat="43.85019" lon="6.14605">
        <ele>655</ele>
        <time>2014-04-29T16:34:53Z</time>
      </trkpt>
      <trkpt lat="43.85022" lon="6.14535">
        <ele>659</ele>
        <time>2014-04-29T16:35:05Z</time>
      </trkpt>
      <trkpt lat="43.85029" lon="6.14473">
        <ele>660</ele>
        <time>2014-04-29T16:35:15Z</time>
      </trkpt>
      <trkpt lat="43.85032" lon="6.14407">
        <ele>662</ele>
        <time>2014-04-29T16:35:26Z</time>
      </trkpt>
      <trkpt lat="43.85054" lon="6.14346">
        <ele>664</ele>
        <time>2014-04-29T16:35:38Z</time>
      </trkpt>
      <trkpt lat="43.85088" lon="6.14305">
        <ele>666</ele>
        <time>2014-04-29T16:35:48Z</time>
      </trkpt>
      <trkpt lat="43.85122" lon="6.14278">
        <ele>666</ele>
        <time>2014-04-29T16:35:56Z</time>
      </trkpt>
      <trkpt lat="43.8514" lon="6.14255">
        <ele>666</ele>
        <time>2014-04-29T16:36:00Z</time>
      </trkpt>
      <trkpt lat="43.85181" lon="6.14194">
        <ele>661</ele>
        <time>2014-04-29T16:36:08Z</time>
      </trkpt>
      <trkpt lat="43.85194" lon="6.14178">
        <ele>660</ele>
        <time>2014-04-29T16:36:10Z</time>
      </trkpt>
      <trkpt lat="43.85236" lon="6.14135">
        <ele>659</ele>
        <time>2014-04-29T16:36:16Z</time>
      </trkpt>
      <trkpt lat="43.85271" lon="6.14094">
        <ele>656</ele>
        <time>2014-04-29T16:36:21Z</time>
      </trkpt>
      <trkpt lat="43.85297" lon="6.14052">
        <ele>654</ele>
        <time>2014-04-29T16:36:25Z</time>
      </trkpt>
      <trkpt lat="43.85334" lon="6.14029">
        <ele>651</ele>
        <time>2014-04-29T16:36:29Z</time>
      </trkpt>
      <trkpt lat="43.85356" lon="6.14033">
        <ele>650</ele>
        <time>2014-04-29T16:36:31Z</time>
      </trkpt>
      <trkpt lat="43.854" lon="6.14043">
        <ele>649</ele>
        <time>2014-04-29T16:36:35Z</time>
      </trkpt>
      <trkpt lat="43.85445" lon="6.14052">
        <ele>647</ele>
        <time>2014-04-29T16:36:39Z</time>
      </trkpt>
      <trkpt lat="43.8549" lon="6.14062">
        <ele>647</ele>
        <time>2014-04-29T16:36:43Z</time>
      </trkpt>
      <trkpt lat="43.85534" lon="6.14071">
        <ele>647</ele>
        <time>2014-04-29T16:36:47Z</time>
      </trkpt>
      <trkpt lat="43.85575" lon="6.14076">
        <ele>645</ele>
        <time>2014-04-29T16:36:51Z</time>
      </trkpt>
      <trkpt lat="43.85614" lon="6.14066">
        <ele>644</ele>
        <time>2014-04-29T16:36:55Z</time>
      </trkpt>
      <trkpt lat="43.85652" lon="6.14052">
        <ele>644</ele>
        <time>2014-04-29T16:36:59Z</time>
      </trkpt>
      <trkpt lat="43.85691" lon="6.14038">
        <ele>638</ele>
        <time>2014-04-29T16:37:03Z</time>
      </trkpt>
      <trkpt lat="43.8573" lon="6.14014">
        <ele>635</ele>
        <time>2014-04-29T16:37:07Z</time>
      </trkpt>
      <trkpt lat="43.85766" lon="6.13975">
        <ele>631</ele>
        <time>2014-04-29T16:37:11Z</time>
      </trkpt>
      <trkpt lat="43.85793" lon="6.13947">
        <ele>631</ele>
        <time>2014-04-29T16:37:14Z</time>
      </trkpt>
      <trkpt lat="43.85813" lon="6.13933">
        <ele>630</ele>
        <time>2014-04-29T16:37:16Z</time>
      </trkpt>
      <trkpt lat="43.85851" lon="6.13908">
        <ele>627</ele>
        <time>2014-04-29T16:37:20Z</time>
      </trkpt>
      <trkpt lat="43.85902" lon="6.13863">
        <ele>626</ele>
        <time>2014-04-29T16:37:26Z</time>
      </trkpt>
      <trkpt lat="43.85917" lon="6.13846">
        <ele>626</ele>
        <time>2014-04-29T16:37:28Z</time>
      </trkpt>
      <trkpt lat="43.85942" lon="6.13804">
        <ele>624</ele>
        <time>2014-04-29T16:37:32Z</time>
      </trkpt>
      <trkpt lat="43.85981" lon="6.1378">
        <ele>622</ele>
        <time>2014-04-29T16:37:36Z</time>
      </trkpt>
      <trkpt lat="43.86016" lon="6.13782">
        <ele>621</ele>
        <time>2014-04-29T16:37:39Z</time>
      </trkpt>
      <trkpt lat="43.86058" lon="6.13787">
        <ele>621</ele>
        <time>2014-04-29T16:37:43Z</time>
      </trkpt>
      <trkpt lat="43.86102" lon="6.1376">
        <ele>619</ele>
        <time>2014-04-29T16:37:49Z</time>
      </trkpt>
      <trkpt lat="43.86127" lon="6.13729">
        <ele>618</ele>
        <time>2014-04-29T16:37:53Z</time>
      </trkpt>
      <trkpt lat="43.86177" lon="6.13664">
        <ele>619</ele>
        <time>2014-04-29T16:38:01Z</time>
      </trkpt>
      <trkpt lat="43.86209" lon="6.13622">
        <ele>621</ele>
        <time>2014-04-29T16:38:07Z</time>
      </trkpt>
      <trkpt lat="43.86252" lon="6.13632">
        <ele>625</ele>
        <time>2014-04-29T16:38:15Z</time>
      </trkpt>
      <trkpt lat="43.86278" lon="6.13658">
        <ele>625</ele>
        <time>2014-04-29T16:38:21Z</time>
      </trkpt>
      <trkpt lat="43.86297" lon="6.13666">
        <ele>626</ele>
        <time>2014-04-29T16:38:25Z</time>
      </trkpt>
      <trkpt lat="43.86336" lon="6.13655">
        <ele>629</ele>
        <time>2014-04-29T16:38:33Z</time>
      </trkpt>
      <trkpt lat="43.8638" lon="6.13632">
        <ele>632</ele>
        <time>2014-04-29T16:38:43Z</time>
      </trkpt>
      <trkpt lat="43.86418" lon="6.13615">
        <ele>636</ele>
        <time>2014-04-29T16:38:51Z</time>
      </trkpt>
      <trkpt lat="43.86436" lon="6.13612">
        <ele>636</ele>
        <time>2014-04-29T16:38:55Z</time>
      </trkpt>
      <trkpt lat="43.86475" lon="6.13617">
        <ele>637</ele>
        <time>2014-04-29T16:39:04Z</time>
      </trkpt>
      <trkpt lat="43.86523" lon="6.13623">
        <ele>640</ele>
        <time>2014-04-29T16:39:16Z</time>
      </trkpt>
      <trkpt lat="43.86547" lon="6.13626">
        <ele>640</ele>
        <time>2014-04-29T16:39:22Z</time>
      </trkpt>
      <trkpt lat="43.86582" lon="6.13631">
        <ele>640</ele>
        <time>2014-04-29T16:39:31Z</time>
      </trkpt>
      <trkpt lat="43.86619" lon="6.13636">
        <ele>643</ele>
        <time>2014-04-29T16:39:40Z</time>
      </trkpt>
      <trkpt lat="43.86667" lon="6.13642">
        <ele>648</ele>
        <time>2014-04-29T16:39:52Z</time>
      </trkpt>
      <trkpt lat="43.86704" lon="6.13646">
        <ele>650</ele>
        <time>2014-04-29T16:40:01Z</time>
      </trkpt>
      <trkpt lat="43.86727" lon="6.13642">
        <ele>651</ele>
        <time>2014-04-29T16:40:07Z</time>
      </trkpt>
      <trkpt lat="43.86741" lon="6.13588">
        <ele>654</ele>
        <time>2014-04-29T16:40:19Z</time>
      </trkpt>
      <trkpt lat="43.86764" lon="6.13535">
        <ele>659</ele>
        <time>2014-04-29T16:40:31Z</time>
      </trkpt>
      <trkpt lat="43.86799" lon="6.13493">
        <ele>662</ele>
        <time>2014-04-29T16:40:43Z</time>
      </trkpt>
      <trkpt lat="43.86801" lon="6.13433">
        <ele>663</ele>
        <time>2014-04-29T16:40:55Z</time>
      </trkpt>
      <trkpt lat="43.86774" lon="6.13396">
        <ele>667</ele>
        <time>2014-04-29T16:41:04Z</time>
      </trkpt>
      <trkpt lat="43.86738" lon="6.13351">
        <ele>666</ele>
        <time>2014-04-29T16:41:16Z</time>
      </trkpt>
      <trkpt lat="43.86716" lon="6.13337">
        <ele>666</ele>
        <time>2014-04-29T16:41:22Z</time>
      </trkpt>
      <trkpt lat="43.8668" lon="6.13324">
        <ele>671</ele>
        <time>2014-04-29T16:41:31Z</time>
      </trkpt>
      <trkpt lat="43.86659" lon="6.1331">
        <ele>671</ele>
        <time>2014-04-29T16:41:37Z</time>
      </trkpt>
      <trkpt lat="43.86606" lon="6.13274">
        <ele>675</ele>
        <time>2014-04-29T16:41:52Z</time>
      </trkpt>
      <trkpt lat="43.86585" lon="6.13257">
        <ele>678</ele>
        <time>2014-04-29T16:41:58Z</time>
      </trkpt>
      <trkpt lat="43.86548" lon="6.13221">
        <ele>678</ele>
        <time>2014-04-29T16:42:10Z</time>
      </trkpt>
      <trkpt lat="43.86529" lon="6.13165">
        <ele>682</ele>
        <time>2014-04-29T16:42:22Z</time>
      </trkpt>
      <trkpt lat="43.8653" lon="6.13114">
        <ele>685</ele>
        <time>2014-04-29T16:42:31Z</time>
      </trkpt>
      <trkpt lat="43.86522" lon="6.13082">
        <ele>688</ele>
        <time>2014-04-29T16:42:37Z</time>
      </trkpt>
      <trkpt lat="43.86488" lon="6.13015">
        <ele>687</ele>
        <time>2014-04-29T16:42:52Z</time>
      </trkpt>
      <trkpt lat="43.86466" lon="6.12976">
        <ele>691</ele>
        <time>2014-04-29T16:43:01Z</time>
      </trkpt>
      <trkpt lat="43.86428" lon="6.12934">
        <ele>692</ele>
        <time>2014-04-29T16:43:13Z</time>
      </trkpt>
      <trkpt lat="43.86394" lon="6.12887">
        <ele>692</ele>
        <time>2014-04-29T16:43:25Z</time>
      </trkpt>
      <trkpt lat="43.86394" lon="6.12853">
        <ele>694</ele>
        <time>2014-04-29T16:43:31Z</time>
      </trkpt>
      <trkpt lat="43.86418" lon="6.1281">
        <ele>697</ele>
        <time>2014-04-29T16:43:39Z</time>
      </trkpt>
      <trkpt lat="43.86448" lon="6.12794">
        <ele>698</ele>
        <time>2014-04-29T16:43:45Z</time>
      </trkpt>
      <trkpt lat="43.86469" lon="6.12792">
        <ele>698</ele>
        <time>2014-04-29T16:43:49Z</time>
      </trkpt>
      <trkpt lat="43.86502" lon="6.12791">
        <ele>698</ele>
        <time>2014-04-29T16:43:55Z</time>
      </trkpt>
      <trkpt lat="43.86546" lon="6.12793">
        <ele>698</ele>
        <time>2014-04-29T16:44:03Z</time>
      </trkpt>
      <trkpt lat="43.86567" lon="6.12795">
        <ele>698</ele>
        <time>2014-04-29T16:44:07Z</time>
      </trkpt>
      <trkpt lat="43.86608" lon="6.12805">
        <ele>699</ele>
        <time>2014-04-29T16:44:15Z</time>
      </trkpt>
      <trkpt lat="43.8665" lon="6.12816">
        <ele>699</ele>
        <time>2014-04-29T16:44:23Z</time>
      </trkpt>
      <trkpt lat="43.86683" lon="6.12827">
        <ele>699</ele>
        <time>2014-04-29T16:44:29Z</time>
      </trkpt>
      <trkpt lat="43.86705" lon="6.12834">
        <ele>700</ele>
        <time>2014-04-29T16:44:33Z</time>
      </trkpt>
      <trkpt lat="43.86748" lon="6.12849">
        <ele>700</ele>
        <time>2014-04-29T16:44:41Z</time>
      </trkpt>
      <trkpt lat="43.8679" lon="6.12867">
        <ele>700</ele>
        <time>2014-04-29T16:44:49Z</time>
      </trkpt>
      <trkpt lat="43.86822" lon="6.12881">
        <ele>700</ele>
        <time>2014-04-29T16:44:55Z</time>
      </trkpt>
      <trkpt lat="43.86867" lon="6.12898">
        <ele>699</ele>
        <time>2014-04-29T16:45:03Z</time>
      </trkpt>
      <trkpt lat="43.86912" lon="6.1291">
        <ele>700</ele>
        <time>2014-04-29T16:45:11Z</time>
      </trkpt>
      <trkpt lat="43.86946" lon="6.1291">
        <ele>700</ele>
        <time>2014-04-29T16:45:17Z</time>
      </trkpt>
      <trkpt lat="43.86994" lon="6.12901">
        <ele>701</ele>
        <time>2014-04-29T16:45:25Z</time>
      </trkpt>
      <trkpt lat="43.87019" lon="6.129">
        <ele>701</ele>
        <time>2014-04-29T16:45:29Z</time>
      </trkpt>
      <trkpt lat="43.87068" lon="6.12908">
        <ele>702</ele>
        <time>2014-04-29T16:45:37Z</time>
      </trkpt>
      <trkpt lat="43.87115" lon="6.12922">
        <ele>703</ele>
        <time>2014-04-29T16:45:45Z</time>
      </trkpt>
      <trkpt lat="43.87163" lon="6.12937">
        <ele>703</ele>
        <time>2014-04-29T16:45:53Z</time>
      </trkpt>
      <trkpt lat="43.87212" lon="6.12952">
        <ele>703</ele>
        <time>2014-04-29T16:46:01Z</time>
      </trkpt>
      <trkpt lat="43.87249" lon="6.1296">
        <ele>704</ele>
        <time>2014-04-29T16:46:07Z</time>
      </trkpt>
      <trkpt lat="43.87304" lon="6.12967">
        <ele>704</ele>
        <time>2014-04-29T16:47:27Z</time>
      </trkpt>
      <trkpt lat="43.87367" lon="6.12974">
        <ele>706</ele>
        <time>2014-04-29T16:47:42Z</time>
      </trkpt>
      <trkpt lat="43.87409" lon="6.12981">
        <ele>707</ele>
        <time>2014-04-29T16:47:50Z</time>
      </trkpt>
      <trkpt lat="43.87461" lon="6.12993">
        <ele>708</ele>
        <time>2014-04-29T16:48:00Z</time>
      </trkpt>
      <trkpt lat="43.87484" lon="6.12999">
        <ele>708</ele>
        <time>2014-04-29T16:48:04Z</time>
      </trkpt>
      <trkpt lat="43.8752" lon="6.13008">
        <ele>709</ele>
        <time>2014-04-29T16:48:10Z</time>
      </trkpt>
      <trkpt lat="43.87568" lon="6.13021">
        <ele>709</ele>
        <time>2014-04-29T16:48:18Z</time>
      </trkpt>
      <trkpt lat="43.87593" lon="6.13027">
        <ele>709</ele>
        <time>2014-04-29T16:48:22Z</time>
      </trkpt>
      <trkpt lat="43.8766" lon="6.13041">
        <ele>709</ele>
        <time>2014-04-29T16:48:32Z</time>
      </trkpt>
      <trkpt lat="43.87689" lon="6.13048">
        <ele>710</ele>
        <time>2014-04-29T16:48:36Z</time>
      </trkpt>
      <trkpt lat="43.87749" lon="6.13065">
        <ele>712</ele>
        <time>2014-04-29T16:48:44Z</time>
      </trkpt>
      <trkpt lat="43.87809" lon="6.13085">
        <ele>713</ele>
        <time>2014-04-29T16:48:52Z</time>
      </trkpt>
      <trkpt lat="43.87854" lon="6.13102">
        <ele>713</ele>
        <time>2014-04-29T16:48:58Z</time>
      </trkpt>
      <trkpt lat="43.87897" lon="6.1312">
        <ele>714</ele>
        <time>2014-04-29T16:49:04Z</time>
      </trkpt>
      <trkpt lat="43.87942" lon="6.13134">
        <ele>714</ele>
        <time>2014-04-29T16:49:10Z</time>
      </trkpt>
      <trkpt lat="43.88001" lon="6.13149">
        <ele>714</ele>
        <time>2014-04-29T16:49:18Z</time>
      </trkpt>
      <trkpt lat="43.88032" lon="6.13156">
        <ele>714</ele>
        <time>2014-04-29T16:49:22Z</time>
      </trkpt>
      <trkpt lat="43.88093" lon="6.13173">
        <ele>715</ele>
        <time>2014-04-29T16:49:30Z</time>
      </trkpt>
      <trkpt lat="43.88127" lon="6.1318">
        <ele>716</ele>
        <time>2014-04-29T16:49:34Z</time>
      </trkpt>
      <trkpt lat="43.88174" lon="6.13176">
        <ele>717</ele>
        <time>2014-04-29T16:49:40Z</time>
      </trkpt>
      <trkpt lat="43.88188" lon="6.13176">
        <ele>717</ele>
        <time>2014-04-29T16:49:42Z</time>
      </trkpt>
      <trkpt lat="43.88241" lon="6.13182">
        <ele>718</ele>
        <time>2014-04-29T16:49:50Z</time>
      </trkpt>
      <trkpt lat="43.88282" lon="6.13188">
        <ele>720</ele>
        <time>2014-04-29T16:49:56Z</time>
      </trkpt>
      <trkpt lat="43.88335" lon="6.13194">
        <ele>720</ele>
        <time>2014-04-29T16:50:04Z</time>
      </trkpt>
      <trkpt lat="43.88362" lon="6.13197">
        <ele>720</ele>
        <time>2014-04-29T16:50:08Z</time>
      </trkpt>
      <trkpt lat="43.88419" lon="6.13207">
        <ele>718</ele>
        <time>2014-04-29T16:50:16Z</time>
      </trkpt>
      <trkpt lat="43.88466" lon="6.1322">
        <ele>717</ele>
        <time>2014-04-29T16:50:22Z</time>
      </trkpt>
      <trkpt lat="43.88506" lon="6.13255">
        <ele>718</ele>
        <time>2014-04-29T16:50:27Z</time>
      </trkpt>
      <trkpt lat="43.88544" lon="6.13278">
        <ele>717</ele>
        <time>2014-04-29T16:50:31Z</time>
      </trkpt>
      <trkpt lat="43.88577" lon="6.13282">
        <ele>716</ele>
        <time>2014-04-29T16:50:34Z</time>
      </trkpt>
      <trkpt lat="43.88611" lon="6.13276">
        <ele>714</ele>
        <time>2014-04-29T16:50:37Z</time>
      </trkpt>
      <trkpt lat="43.88657" lon="6.13263">
        <ele>713</ele>
        <time>2014-04-29T16:50:41Z</time>
      </trkpt>
      <trkpt lat="43.88694" lon="6.13262">
        <ele>712</ele>
        <time>2014-04-29T16:50:44Z</time>
      </trkpt>
      <trkpt lat="43.88718" lon="6.1326">
        <ele>711</ele>
        <time>2014-04-29T16:50:46Z</time>
      </trkpt>
      <trkpt lat="43.88755" lon="6.13249">
        <ele>706</ele>
        <time>2014-04-29T16:50:49Z</time>
      </trkpt>
      <trkpt lat="43.88803" lon="6.13225">
        <ele>703</ele>
        <time>2014-04-29T16:50:53Z</time>
      </trkpt>
      <trkpt lat="43.88851" lon="6.13206">
        <ele>702</ele>
        <time>2014-04-29T16:50:57Z</time>
      </trkpt>
      <trkpt lat="43.88872" lon="6.13196">
        <ele>702</ele>
        <time>2014-04-29T16:50:59Z</time>
      </trkpt>
      <trkpt lat="43.88911" lon="6.13203">
        <ele>703</ele>
        <time>2014-04-29T16:51:03Z</time>
      </trkpt>
      <trkpt lat="43.88934" lon="6.13235">
        <ele>707</ele>
        <time>2014-04-29T16:51:07Z</time>
      </trkpt>
      <trkpt lat="43.88956" lon="6.13254">
        <ele>706</ele>
        <time>2014-04-29T16:51:11Z</time>
      </trkpt>
      <trkpt lat="43.89002" lon="6.13286">
        <ele>713</ele>
        <time>2014-04-29T16:51:21Z</time>
      </trkpt>
      <trkpt lat="43.89026" lon="6.13304">
        <ele>713</ele>
        <time>2014-04-29T16:51:27Z</time>
      </trkpt>
      <trkpt lat="43.89061" lon="6.13352">
        <ele>712</ele>
        <time>2014-04-29T16:51:39Z</time>
      </trkpt>
      <trkpt lat="43.89087" lon="6.13351">
        <ele>718</ele>
        <time>2014-04-29T16:51:48Z</time>
      </trkpt>
      <trkpt lat="43.89065" lon="6.13317">
        <ele>716</ele>
        <time>2014-04-29T16:51:57Z</time>
      </trkpt>
      <trkpt lat="43.89046" lon="6.13294">
        <ele>715</ele>
        <time>2014-04-29T16:52:03Z</time>
      </trkpt>
      <trkpt lat="43.89016" lon="6.13248">
        <ele>716</ele>
        <time>2014-04-29T16:52:15Z</time>
      </trkpt>
      <trkpt lat="43.89003" lon="6.1322">
        <ele>717</ele>
        <time>2014-04-29T16:52:21Z</time>
      </trkpt>
      <trkpt lat="43.89026" lon="6.13171">
        <ele>719</ele>
        <time>2014-04-29T16:52:33Z</time>
      </trkpt>
      <trkpt lat="43.89083" lon="6.13152">
        <ele>724</ele>
        <time>2014-04-29T16:52:48Z</time>
      </trkpt>
      <trkpt lat="43.89119" lon="6.13146">
        <ele>727</ele>
        <time>2014-04-29T16:52:57Z</time>
      </trkpt>
      <trkpt lat="43.8914" lon="6.13138">
        <ele>728</ele>
        <time>2014-04-29T16:53:02Z</time>
      </trkpt>
      <trkpt lat="43.89175" lon="6.13117">
        <ele>730</ele>
        <time>2014-04-29T16:53:10Z</time>
      </trkpt>
      <trkpt lat="43.89225" lon="6.13089">
        <ele>730</ele>
        <time>2014-04-29T16:53:22Z</time>
      </trkpt>
      <trkpt lat="43.8927" lon="6.13065">
        <ele>732</ele>
        <time>2014-04-29T16:53:32Z</time>
      </trkpt>
      <trkpt lat="43.89287" lon="6.13055">
        <ele>732</ele>
        <time>2014-04-29T16:53:36Z</time>
      </trkpt>
      <trkpt lat="43.89341" lon="6.13026">
        <ele>733</ele>
        <time>2014-04-29T16:53:46Z</time>
      </trkpt>
      <trkpt lat="43.89365" lon="6.13014">
        <ele>733</ele>
        <time>2014-04-29T16:53:50Z</time>
      </trkpt>
      <trkpt lat="43.89412" lon="6.12989">
        <ele>733</ele>
        <time>2014-04-29T16:53:58Z</time>
      </trkpt>
      <trkpt lat="43.89424" lon="6.12982">
        <ele>733</ele>
        <time>2014-04-29T16:54:00Z</time>
      </trkpt>
      <trkpt lat="43.89472" lon="6.12956">
        <ele>733</ele>
        <time>2014-04-29T16:54:08Z</time>
      </trkpt>
      <trkpt lat="43.89495" lon="6.12944">
        <ele>733</ele>
        <time>2014-04-29T16:54:12Z</time>
      </trkpt>
      <trkpt lat="43.89543" lon="6.12918">
        <ele>733</ele>
        <time>2014-04-29T16:54:20Z</time>
      </trkpt>
      <trkpt lat="43.89591" lon="6.12893">
        <ele>730</ele>
        <time>2014-04-29T16:54:28Z</time>
      </trkpt>
      <trkpt lat="43.89636" lon="6.12902">
        <ele>727</ele>
        <time>2014-04-29T16:54:36Z</time>
      </trkpt>
      <trkpt lat="43.89639" lon="6.12939">
        <ele>725</ele>
        <time>2014-04-29T16:54:39Z</time>
      </trkpt>
      <trkpt lat="43.89631" lon="6.12992">
        <ele>725</ele>
        <time>2014-04-29T16:54:43Z</time>
      </trkpt>
      <trkpt lat="43.89597" lon="6.13046">
        <ele>723</ele>
        <time>2014-04-29T16:54:48Z</time>
      </trkpt>
      <trkpt lat="43.89581" lon="6.13098">
        <ele>728</ele>
        <time>2014-04-29T16:54:52Z</time>
      </trkpt>
      <trkpt lat="43.89586" lon="6.13158">
        <ele>721</ele>
        <time>2014-04-29T16:54:56Z</time>
      </trkpt>
      <trkpt lat="43.89597" lon="6.13201">
        <ele>715</ele>
        <time>2014-04-29T16:54:59Z</time>
      </trkpt>
      <trkpt lat="43.89591" lon="6.13258">
        <ele>722</ele>
        <time>2014-04-29T16:55:03Z</time>
      </trkpt>
      <trkpt lat="43.89582" lon="6.13307">
        <ele>731</ele>
        <time>2014-04-29T16:55:07Z</time>
      </trkpt>
      <trkpt lat="43.89609" lon="6.13327">
        <ele>719</ele>
        <time>2014-04-29T16:55:10Z</time>
      </trkpt>
      <trkpt lat="43.89654" lon="6.13343">
        <ele>715</ele>
        <time>2014-04-29T16:55:14Z</time>
      </trkpt>
      <trkpt lat="43.8969" lon="6.13385">
        <ele>706</ele>
        <time>2014-04-29T16:55:18Z</time>
      </trkpt>
      <trkpt lat="43.89704" lon="6.13432">
        <ele>714</ele>
        <time>2014-04-29T16:55:21Z</time>
      </trkpt>
      <trkpt lat="43.89719" lon="6.13458">
        <ele>713</ele>
        <time>2014-04-29T16:55:23Z</time>
      </trkpt>
      <trkpt lat="43.89758" lon="6.135">
        <ele>702</ele>
        <time>2014-04-29T16:55:27Z</time>
      </trkpt>
      <trkpt lat="43.89767" lon="6.13512">
        <ele>704</ele>
        <time>2014-04-29T16:55:28Z</time>
      </trkpt>
      <trkpt lat="43.89795" lon="6.13566">
        <ele>702</ele>
        <time>2014-04-29T16:55:32Z</time>
      </trkpt>
      <trkpt lat="43.89834" lon="6.13601">
        <ele>691</ele>
        <time>2014-04-29T16:55:36Z</time>
      </trkpt>
      <trkpt lat="43.89867" lon="6.13651">
        <ele>691</ele>
        <time>2014-04-29T16:55:40Z</time>
      </trkpt>
      <trkpt lat="43.89888" lon="6.13714">
        <ele>696</ele>
        <time>2014-04-29T16:55:44Z</time>
      </trkpt>
      <trkpt lat="43.89907" lon="6.13739">
        <ele>692</ele>
        <time>2014-04-29T16:55:46Z</time>
      </trkpt>
      <trkpt lat="43.89935" lon="6.13799">
        <ele>687</ele>
        <time>2014-04-29T16:55:50Z</time>
      </trkpt>
      <trkpt lat="43.89979" lon="6.13825">
        <ele>683</ele>
        <time>2014-04-29T16:55:54Z</time>
      </trkpt>
      <trkpt lat="43.90003" lon="6.1384">
        <ele>680</ele>
        <time>2014-04-29T16:55:56Z</time>
      </trkpt>
      <trkpt lat="43.90033" lon="6.13877">
        <ele>680</ele>
        <time>2014-04-29T16:55:59Z</time>
      </trkpt>
      <trkpt lat="43.90078" lon="6.13899">
        <ele>678</ele>
        <time>2014-04-29T16:56:03Z</time>
      </trkpt>
      <trkpt lat="43.90111" lon="6.1388">
        <ele>666</ele>
        <time>2014-04-29T16:56:06Z</time>
      </trkpt>
      <trkpt lat="43.90149" lon="6.13892">
        <ele>663</ele>
        <time>2014-04-29T16:56:10Z</time>
      </trkpt>
      <trkpt lat="43.90161" lon="6.1396">
        <ele>673</ele>
        <time>2014-04-29T16:56:15Z</time>
      </trkpt>
      <trkpt lat="43.90185" lon="6.14">
        <ele>668</ele>
        <time>2014-04-29T16:56:19Z</time>
      </trkpt>
      <trkpt lat="43.90205" lon="6.13999">
        <ele>666</ele>
        <time>2014-04-29T16:56:21Z</time>
      </trkpt>
      <trkpt lat="43.90238" lon="6.13983">
        <ele>665</ele>
        <time>2014-04-29T16:56:24Z</time>
      </trkpt>
      <trkpt lat="43.90278" lon="6.13945">
        <ele>656</ele>
        <time>2014-04-29T16:56:28Z</time>
      </trkpt>
      <trkpt lat="43.903" lon="6.1393">
        <ele>655</ele>
        <time>2014-04-29T16:56:30Z</time>
      </trkpt>
      <trkpt lat="43.90336" lon="6.13912">
        <ele>649</ele>
        <time>2014-04-29T16:56:33Z</time>
      </trkpt>
      <trkpt lat="43.90381" lon="6.13879">
        <ele>642</ele>
        <time>2014-04-29T16:56:37Z</time>
      </trkpt>
      <trkpt lat="43.90415" lon="6.1387">
        <ele>640</ele>
        <time>2014-04-29T16:56:40Z</time>
      </trkpt>
      <trkpt lat="43.90423" lon="6.13921">
        <ele>640</ele>
        <time>2014-04-29T16:56:46Z</time>
      </trkpt>
      <trkpt lat="43.90408" lon="6.13954">
        <ele>647</ele>
        <time>2014-04-29T16:56:49Z</time>
      </trkpt>
      <trkpt lat="43.90403" lon="6.13979">
        <ele>647</ele>
        <time>2014-04-29T16:56:51Z</time>
      </trkpt>
      <trkpt lat="43.90424" lon="6.1401">
        <ele>643</ele>
        <time>2014-04-29T16:56:55Z</time>
      </trkpt>
      <trkpt lat="43.90462" lon="6.1399">
        <ele>636</ele>
        <time>2014-04-29T16:56:59Z</time>
      </trkpt>
      <trkpt lat="43.90507" lon="6.14004">
        <ele>628</ele>
        <time>2014-04-29T16:57:03Z</time>
      </trkpt>
      <trkpt lat="43.90529" lon="6.14043">
        <ele>625</ele>
        <time>2014-04-29T16:57:06Z</time>
      </trkpt>
      <trkpt lat="43.90528" lon="6.14109">
        <ele>632</ele>
        <time>2014-04-29T16:57:10Z</time>
      </trkpt>
      <trkpt lat="43.90515" lon="6.14149">
        <ele>634</ele>
        <time>2014-04-29T16:57:13Z</time>
      </trkpt>
      <trkpt lat="43.90541" lon="6.14182">
        <ele>638</ele>
        <time>2014-04-29T16:57:17Z</time>
      </trkpt>
      <trkpt lat="43.90559" lon="6.1417">
        <ele>636</ele>
        <time>2014-04-29T16:57:19Z</time>
      </trkpt>
      <trkpt lat="43.90597" lon="6.14115">
        <ele>624</ele>
        <time>2014-04-29T16:57:24Z</time>
      </trkpt>
      <trkpt lat="43.90625" lon="6.1406">
        <ele>614</ele>
        <time>2014-04-29T16:57:28Z</time>
      </trkpt>
      <trkpt lat="43.90664" lon="6.14018">
        <ele>608</ele>
        <time>2014-04-29T16:57:32Z</time>
      </trkpt>
      <trkpt lat="43.907" lon="6.14001">
        <ele>610</ele>
        <time>2014-04-29T16:57:35Z</time>
      </trkpt>
      <trkpt lat="43.90738" lon="6.13991">
        <ele>604</ele>
        <time>2014-04-29T16:57:38Z</time>
      </trkpt>
      <trkpt lat="43.9076" lon="6.13973">
        <ele>601</ele>
        <time>2014-04-29T16:57:40Z</time>
      </trkpt>
      <trkpt lat="43.90811" lon="6.13917">
        <ele>596</ele>
        <time>2014-04-29T16:57:45Z</time>
      </trkpt>
      <trkpt lat="43.90855" lon="6.13877">
        <ele>590</ele>
        <time>2014-04-29T16:57:49Z</time>
      </trkpt>
      <trkpt lat="43.90881" lon="6.13838">
        <ele>589</ele>
        <time>2014-04-29T16:57:52Z</time>
      </trkpt>
      <trkpt lat="43.90912" lon="6.13779">
        <ele>582</ele>
        <time>2014-04-29T16:57:56Z</time>
      </trkpt>
      <trkpt lat="43.90933" lon="6.13734">
        <ele>578</ele>
        <time>2014-04-29T16:57:59Z</time>
      </trkpt>
      <trkpt lat="43.90957" lon="6.137">
        <ele>576</ele>
        <time>2014-04-29T16:58:02Z</time>
      </trkpt>
      <trkpt lat="43.90996" lon="6.13716">
        <ele>576</ele>
        <time>2014-04-29T16:58:06Z</time>
      </trkpt>
      <trkpt lat="43.91008" lon="6.13744">
        <ele>574</ele>
        <time>2014-04-29T16:58:08Z</time>
      </trkpt>
      <trkpt lat="43.91016" lon="6.13794">
        <ele>570</ele>
        <time>2014-04-29T16:58:11Z</time>
      </trkpt>
      <trkpt lat="43.91013" lon="6.13827">
        <ele>573</ele>
        <time>2014-04-29T16:58:13Z</time>
      </trkpt>
      <trkpt lat="43.91004" lon="6.13893">
        <ele>569</ele>
        <time>2014-04-29T16:58:17Z</time>
      </trkpt>
      <trkpt lat="43.90997" lon="6.13941">
        <ele>578</ele>
        <time>2014-04-29T16:58:20Z</time>
      </trkpt>
      <trkpt lat="43.9102" lon="6.13986">
        <ele>573</ele>
        <time>2014-04-29T16:58:24Z</time>
      </trkpt>
      <trkpt lat="43.91041" lon="6.13982">
        <ele>572</ele>
        <time>2014-04-29T16:58:26Z</time>
      </trkpt>
      <trkpt lat="43.91084" lon="6.13957">
        <ele>565</ele>
        <time>2014-04-29T16:58:30Z</time>
      </trkpt>
      <trkpt lat="43.9113" lon="6.13936">
        <ele>561</ele>
        <time>2014-04-29T16:58:34Z</time>
      </trkpt>
      <trkpt lat="43.91157" lon="6.13906">
        <ele>554</ele>
        <time>2014-04-29T16:58:40Z</time>
      </trkpt>
      <trkpt lat="43.91127" lon="6.13912">
        <ele>555</ele>
        <time>2014-04-29T16:58:44Z</time>
      </trkpt>
      <trkpt lat="43.91123" lon="6.13878">
        <ele>554</ele>
        <time>2014-04-29T16:58:50Z</time>
      </trkpt>
      <trkpt lat="43.91147" lon="6.13858">
        <ele>551</ele>
        <time>2014-04-29T16:58:53Z</time>
      </trkpt>
      <trkpt lat="43.9119" lon="6.13815">
        <ele>541</ele>
        <time>2014-04-29T16:58:58Z</time>
      </trkpt>
      <trkpt lat="43.91233" lon="6.1384">
        <ele>542</ele>
        <time>2014-04-29T16:59:03Z</time>
      </trkpt>
      <trkpt lat="43.91265" lon="6.13846">
        <ele>539</ele>
        <time>2014-04-29T16:59:06Z</time>
      </trkpt>
      <trkpt lat="43.91288" lon="6.13834">
        <ele>538</ele>
        <time>2014-04-29T16:59:08Z</time>
      </trkpt>
      <trkpt lat="43.91337" lon="6.13814">
        <ele>531</ele>
        <time>2014-04-29T16:59:12Z</time>
      </trkpt>
      <trkpt lat="43.91374" lon="6.13799">
        <ele>529</ele>
        <time>2014-04-29T16:59:15Z</time>
      </trkpt>
      <trkpt lat="43.91398" lon="6.13786">
        <ele>528</ele>
        <time>2014-04-29T16:59:17Z</time>
      </trkpt>
      <trkpt lat="43.91419" lon="6.13766">
        <ele>531</ele>
        <time>2014-04-29T16:59:19Z</time>
      </trkpt>
      <trkpt lat="43.91433" lon="6.13734">
        <ele>529</ele>
        <time>2014-04-29T16:59:21Z</time>
      </trkpt>
      <trkpt lat="43.91439" lon="6.13698">
        <ele>529</ele>
        <time>2014-04-29T16:59:23Z</time>
      </trkpt>
      <trkpt lat="43.91447" lon="6.13626">
        <ele>525</ele>
        <time>2014-04-29T16:59:27Z</time>
      </trkpt>
      <trkpt lat="43.91454" lon="6.1359">
        <ele>524</ele>
        <time>2014-04-29T16:59:29Z</time>
      </trkpt>
      <trkpt lat="43.91465" lon="6.13556">
        <ele>520</ele>
        <time>2014-04-29T16:59:31Z</time>
      </trkpt>
      <trkpt lat="43.91479" lon="6.13526">
        <ele>518</ele>
        <time>2014-04-29T16:59:33Z</time>
      </trkpt>
      <trkpt lat="43.91515" lon="6.13483">
        <ele>511</ele>
        <time>2014-04-29T16:59:37Z</time>
      </trkpt>
      <trkpt lat="43.9156" lon="6.13463">
        <ele>511</ele>
        <time>2014-04-29T16:59:41Z</time>
      </trkpt>
      <trkpt lat="43.91606" lon="6.13452">
        <ele>509</ele>
        <time>2014-04-29T16:59:45Z</time>
      </trkpt>
      <trkpt lat="43.91647" lon="6.13428">
        <ele>506</ele>
        <time>2014-04-29T16:59:49Z</time>
      </trkpt>
      <trkpt lat="43.91691" lon="6.13429">
        <ele>502</ele>
        <time>2014-04-29T16:59:53Z</time>
      </trkpt>
      <trkpt lat="43.91719" lon="6.13457">
        <ele>503</ele>
        <time>2014-04-29T16:59:56Z</time>
      </trkpt>
      <trkpt lat="43.91749" lon="6.13478">
        <ele>504</ele>
        <time>2014-04-29T16:59:59Z</time>
      </trkpt>
      <trkpt lat="43.9177" lon="6.13487">
        <ele>500</ele>
        <time>2014-04-29T17:00:01Z</time>
      </trkpt>
      <trkpt lat="43.91801" lon="6.135">
        <ele>499</ele>
        <time>2014-04-29T17:00:04Z</time>
      </trkpt>
      <trkpt lat="43.91844" lon="6.13514">
        <ele>499</ele>
        <time>2014-04-29T17:00:08Z</time>
      </trkpt>
      <trkpt lat="43.91886" lon="6.1351">
        <ele>498</ele>
        <time>2014-04-29T17:00:12Z</time>
      </trkpt>
      <trkpt lat="43.91923" lon="6.13486">
        <ele>492</ele>
        <time>2014-04-29T17:00:16Z</time>
      </trkpt>
      <trkpt lat="43.91939" lon="6.13467">
        <ele>491</ele>
        <time>2014-04-29T17:00:18Z</time>
      </trkpt>
      <trkpt lat="43.91963" lon="6.13434">
        <ele>489</ele>
        <time>2014-04-29T17:00:21Z</time>
      </trkpt>
      <trkpt lat="43.91995" lon="6.1339">
        <ele>486</ele>
        <time>2014-04-29T17:00:25Z</time>
      </trkpt>
      <trkpt lat="43.92014" lon="6.13383">
        <ele>484</ele>
        <time>2014-04-29T17:00:27Z</time>
      </trkpt>
      <trkpt lat="43.92045" lon="6.13403">
        <ele>485</ele>
        <time>2014-04-29T17:00:31Z</time>
      </trkpt>
      <trkpt lat="43.92085" lon="6.13433">
        <ele>486</ele>
        <time>2014-04-29T17:00:37Z</time>
      </trkpt>
      <trkpt lat="43.92121" lon="6.13454">
        <ele>486</ele>
        <time>2014-04-29T17:00:43Z</time>
      </trkpt>
      <trkpt lat="43.92158" lon="6.13495">
        <ele>487</ele>
        <time>2014-04-29T17:00:51Z</time>
      </trkpt>
      <trkpt lat="43.92175" lon="6.13532">
        <ele>485</ele>
        <time>2014-04-29T17:00:55Z</time>
      </trkpt>
      <trkpt lat="43.92184" lon="6.13566">
        <ele>485</ele>
        <time>2014-04-29T17:00:59Z</time>
      </trkpt>
      <trkpt lat="43.92195" lon="6.13613">
        <ele>485</ele>
        <time>2014-04-29T17:01:05Z</time>
      </trkpt>
      <trkpt lat="43.92201" lon="6.13647">
        <ele>485</ele>
        <time>2014-04-29T17:01:09Z</time>
      </trkpt>
      <trkpt lat="43.92209" lon="6.13702">
        <ele>485</ele>
        <time>2014-04-29T17:01:15Z</time>
      </trkpt>
      <trkpt lat="43.92215" lon="6.13738">
        <ele>486</ele>
        <time>2014-04-29T17:01:19Z</time>
      </trkpt>
      <trkpt lat="43.92224" lon="6.13801">
        <ele>486</ele>
        <time>2014-04-29T17:01:27Z</time>
      </trkpt>
      <trkpt lat="43.92249" lon="6.13859">
        <ele>488</ele>
        <time>2014-04-29T17:01:35Z</time>
      </trkpt>
      <trkpt lat="43.92279" lon="6.13895">
        <ele>486</ele>
        <time>2014-04-29T17:01:41Z</time>
      </trkpt>
      <trkpt lat="43.92308" lon="6.13924">
        <ele>488</ele>
        <time>2014-04-29T17:01:47Z</time>
      </trkpt>
      <trkpt lat="43.92351" lon="6.13972">
        <ele>488</ele>
        <time>2014-04-29T17:01:57Z</time>
      </trkpt>
      <trkpt lat="43.92389" lon="6.14023">
        <ele>489</ele>
        <time>2014-04-29T17:02:05Z</time>
      </trkpt>
      <trkpt lat="43.92433" lon="6.14077">
        <ele>488</ele>
        <time>2014-04-29T17:02:13Z</time>
      </trkpt>
      <trkpt lat="43.92474" lon="6.14097">
        <ele>490</ele>
        <time>2014-04-29T17:02:19Z</time>
      </trkpt>
      <trkpt lat="43.92529" lon="6.14103">
        <ele>490</ele>
        <time>2014-04-29T17:02:27Z</time>
      </trkpt>
      <trkpt lat="43.92581" lon="6.14108">
        <ele>490</ele>
        <time>2014-04-29T17:02:35Z</time>
      </trkpt>
      <trkpt lat="43.9262" lon="6.14111">
        <ele>491</ele>
        <time>2014-04-29T17:02:41Z</time>
      </trkpt>
      <trkpt lat="43.92659" lon="6.14119">
        <ele>492</ele>
        <time>2014-04-29T17:02:47Z</time>
      </trkpt>
      <trkpt lat="43.92706" lon="6.14144">
        <ele>493</ele>
        <time>2014-04-29T17:02:55Z</time>
      </trkpt>
      <trkpt lat="43.92749" lon="6.14179">
        <ele>495</ele>
        <time>2014-04-29T17:03:03Z</time>
      </trkpt>
      <trkpt lat="43.92794" lon="6.14223">
        <ele>495</ele>
        <time>2014-04-29T17:03:11Z</time>
      </trkpt>
      <trkpt lat="43.92814" lon="6.14251">
        <ele>497</ele>
        <time>2014-04-29T17:03:15Z</time>
      </trkpt>
      <trkpt lat="43.9283" lon="6.14281">
        <ele>498</ele>
        <time>2014-04-29T17:03:19Z</time>
      </trkpt>
      <trkpt lat="43.92843" lon="6.14315">
        <ele>496</ele>
        <time>2014-04-29T17:03:23Z</time>
      </trkpt>
      <trkpt lat="43.92853" lon="6.14351">
        <ele>496</ele>
        <time>2014-04-29T17:03:27Z</time>
      </trkpt>
      <trkpt lat="43.92859" lon="6.14419">
        <ele>498</ele>
        <time>2014-04-29T17:03:36Z</time>
      </trkpt>
      <trkpt lat="43.92863" lon="6.14494">
        <ele>498</ele>
        <time>2014-04-29T17:06:16Z</time>
      </trkpt>
      <trkpt lat="43.92871" lon="6.14559">
        <ele>500</ele>
        <time>2014-04-29T17:06:24Z</time>
      </trkpt>
      <trkpt lat="43.92892" lon="6.14624">
        <ele>501</ele>
        <time>2014-04-29T17:06:32Z</time>
      </trkpt>
      <trkpt lat="43.92917" lon="6.14669">
        <ele>498</ele>
        <time>2014-04-29T17:06:38Z</time>
      </trkpt>
      <trkpt lat="43.92957" lon="6.14725">
        <ele>498</ele>
        <time>2014-04-29T17:06:46Z</time>
      </trkpt>
      <trkpt lat="43.92975" lon="6.14758">
        <ele>498</ele>
        <time>2014-04-29T17:06:50Z</time>
      </trkpt>
      <trkpt lat="43.92987" lon="6.14794">
        <ele>499</ele>
        <time>2014-04-29T17:06:54Z</time>
      </trkpt>
      <trkpt lat="43.93003" lon="6.14867">
        <ele>497</ele>
        <time>2014-04-29T17:07:02Z</time>
      </trkpt>
      <trkpt lat="43.93007" lon="6.14885">
        <ele>497</ele>
        <time>2014-04-29T17:07:04Z</time>
      </trkpt>
      <trkpt lat="43.93026" lon="6.14973">
        <ele>498</ele>
        <time>2014-04-29T17:07:14Z</time>
      </trkpt>
      <trkpt lat="43.93043" lon="6.15046">
        <ele>500</ele>
        <time>2014-04-29T17:07:22Z</time>
      </trkpt>
      <trkpt lat="43.93056" lon="6.15105">
        <ele>502</ele>
        <time>2014-04-29T17:07:28Z</time>
      </trkpt>
      <trkpt lat="43.93071" lon="6.15166">
        <ele>499</ele>
        <time>2014-04-29T17:07:34Z</time>
      </trkpt>
      <trkpt lat="43.93089" lon="6.1523">
        <ele>498</ele>
        <time>2014-04-29T17:07:40Z</time>
      </trkpt>
      <trkpt lat="43.93099" lon="6.15248">
        <ele>499</ele>
        <time>2014-04-29T17:07:42Z</time>
      </trkpt>
      <trkpt lat="43.9314" lon="6.15318">
        <ele>501</ele>
        <time>2014-04-29T17:07:50Z</time>
      </trkpt>
      <trkpt lat="43.93183" lon="6.15379">
        <ele>500</ele>
        <time>2014-04-29T17:07:58Z</time>
      </trkpt>
      <trkpt lat="43.93194" lon="6.15393">
        <ele>500</ele>
        <time>2014-04-29T17:08:00Z</time>
      </trkpt>
      <trkpt lat="43.9324" lon="6.1544">
        <ele>503</ele>
        <time>2014-04-29T17:08:08Z</time>
      </trkpt>
      <trkpt lat="43.93283" lon="6.1549">
        <ele>498</ele>
        <time>2014-04-29T17:08:16Z</time>
      </trkpt>
      <trkpt lat="43.93314" lon="6.15536">
        <ele>503</ele>
        <time>2014-04-29T17:08:22Z</time>
      </trkpt>
      <trkpt lat="43.93349" lon="6.1558">
        <ele>501</ele>
        <time>2014-04-29T17:08:28Z</time>
      </trkpt>
      <trkpt lat="43.93388" lon="6.15618">
        <ele>504</ele>
        <time>2014-04-29T17:08:34Z</time>
      </trkpt>
      <trkpt lat="43.93437" lon="6.1566">
        <ele>500</ele>
        <time>2014-04-29T17:08:42Z</time>
      </trkpt>
      <trkpt lat="43.93469" lon="6.15691">
        <ele>503</ele>
        <time>2014-04-29T17:08:48Z</time>
      </trkpt>
      <trkpt lat="43.93487" lon="6.15714">
        <ele>503</ele>
        <time>2014-04-29T17:08:52Z</time>
      </trkpt>
      <trkpt lat="43.93519" lon="6.15773">
        <ele>502</ele>
        <time>2014-04-29T17:09:00Z</time>
      </trkpt>
      <trkpt lat="43.9355" lon="6.15836">
        <ele>506</ele>
        <time>2014-04-29T17:09:08Z</time>
      </trkpt>
      <trkpt lat="43.93573" lon="6.15884">
        <ele>507</ele>
        <time>2014-04-29T17:09:14Z</time>
      </trkpt>
      <trkpt lat="43.93597" lon="6.15937">
        <ele>506</ele>
        <time>2014-04-29T17:09:20Z</time>
      </trkpt>
      <trkpt lat="43.93625" lon="6.1599">
        <ele>505</ele>
        <time>2014-04-29T17:09:26Z</time>
      </trkpt>
      <trkpt lat="43.93635" lon="6.16006">
        <ele>509</ele>
        <time>2014-04-29T17:09:28Z</time>
      </trkpt>
      <trkpt lat="43.93676" lon="6.16069">
        <ele>504</ele>
        <time>2014-04-29T17:09:36Z</time>
      </trkpt>
      <trkpt lat="43.93697" lon="6.16101">
        <ele>508</ele>
        <time>2014-04-29T17:09:40Z</time>
      </trkpt>
      <trkpt lat="43.9374" lon="6.16167">
        <ele>511</ele>
        <time>2014-04-29T17:09:48Z</time>
      </trkpt>
      <trkpt lat="43.93773" lon="6.16217">
        <ele>510</ele>
        <time>2014-04-29T17:09:54Z</time>
      </trkpt>
      <trkpt lat="43.93794" lon="6.16248">
        <ele>510</ele>
        <time>2014-04-29T17:09:58Z</time>
      </trkpt>
      <trkpt lat="43.93831" lon="6.1629">
        <ele>519</ele>
        <time>2014-04-29T17:10:04Z</time>
      </trkpt>
      <trkpt lat="43.93886" lon="6.16339">
        <ele>518</ele>
        <time>2014-04-29T17:10:12Z</time>
      </trkpt>
      <trkpt lat="43.93927" lon="6.16377">
        <ele>510</ele>
        <time>2014-04-29T17:10:18Z</time>
      </trkpt>
      <trkpt lat="43.93951" lon="6.16406">
        <ele>510</ele>
        <time>2014-04-29T17:10:22Z</time>
      </trkpt>
      <trkpt lat="43.93973" lon="6.16439">
        <ele>516</ele>
        <time>2014-04-29T17:10:26Z</time>
      </trkpt>
      <trkpt lat="43.94012" lon="6.16508">
        <ele>515</ele>
        <time>2014-04-29T17:10:34Z</time>
      </trkpt>
      <trkpt lat="43.94028" lon="6.16546">
        <ele>515</ele>
        <time>2014-04-29T17:10:38Z</time>
      </trkpt>
      <trkpt lat="43.9404" lon="6.16586">
        <ele>517</ele>
        <time>2014-04-29T17:10:42Z</time>
      </trkpt>
      <trkpt lat="43.94061" lon="6.16667">
        <ele>514</ele>
        <time>2014-04-29T17:10:50Z</time>
      </trkpt>
      <trkpt lat="43.94073" lon="6.16707">
        <ele>514</ele>
        <time>2014-04-29T17:10:54Z</time>
      </trkpt>
      <trkpt lat="43.94096" lon="6.16762">
        <ele>512</ele>
        <time>2014-04-29T17:11:00Z</time>
      </trkpt>
      <trkpt lat="43.9411" lon="6.16799">
        <ele>512</ele>
        <time>2014-04-29T17:11:04Z</time>
      </trkpt>
      <trkpt lat="43.9412" lon="6.16861">
        <ele>514</ele>
        <time>2014-04-29T17:11:10Z</time>
      </trkpt>
      <trkpt lat="43.9413" lon="6.16898">
        <ele>514</ele>
        <time>2014-04-29T17:11:14Z</time>
      </trkpt>
      <trkpt lat="43.94145" lon="6.16927">
        <ele>514</ele>
        <time>2014-04-29T17:11:18Z</time>
      </trkpt>
      <trkpt lat="43.94168" lon="6.16948">
        <ele>513</ele>
        <time>2014-04-29T17:11:22Z</time>
      </trkpt>
      <trkpt lat="43.94223" lon="6.16967">
        <ele>513</ele>
        <time>2014-04-29T17:11:30Z</time>
      </trkpt>
      <trkpt lat="43.94253" lon="6.16983">
        <ele>512</ele>
        <time>2014-04-29T17:11:34Z</time>
      </trkpt>
      <trkpt lat="43.94285" lon="6.1701">
        <ele>513</ele>
        <time>2014-04-29T17:11:38Z</time>
      </trkpt>
      <trkpt lat="43.9432" lon="6.17049">
        <ele>513</ele>
        <time>2014-04-29T17:11:43Z</time>
      </trkpt>
      <trkpt lat="43.94334" lon="6.17064">
        <ele>512</ele>
        <time>2014-04-29T17:11:45Z</time>
      </trkpt>
      <trkpt lat="43.94367" lon="6.17116">
        <ele>516</ele>
        <time>2014-04-29T17:11:51Z</time>
      </trkpt>
      <trkpt lat="43.944" lon="6.17164">
        <ele>515</ele>
        <time>2014-04-29T17:11:57Z</time>
      </trkpt>
      <trkpt lat="43.94433" lon="6.17234">
        <ele>521</ele>
        <time>2014-04-29T17:12:05Z</time>
      </trkpt>
      <trkpt lat="43.94452" lon="6.17268">
        <ele>525</ele>
        <time>2014-04-29T17:12:09Z</time>
      </trkpt>
      <trkpt lat="43.94486" lon="6.17312">
        <ele>521</ele>
        <time>2014-04-29T17:12:15Z</time>
      </trkpt>
      <trkpt lat="43.94514" lon="6.17333">
        <ele>513</ele>
        <time>2014-04-29T17:12:19Z</time>
      </trkpt>
      <trkpt lat="43.9456" lon="6.17358">
        <ele>514</ele>
        <time>2014-04-29T17:12:25Z</time>
      </trkpt>
      <trkpt lat="43.9459" lon="6.17376">
        <ele>510</ele>
        <time>2014-04-29T17:12:29Z</time>
      </trkpt>
      <trkpt lat="43.9463" lon="6.17417">
        <ele>512</ele>
        <time>2014-04-29T17:12:35Z</time>
      </trkpt>
      <trkpt lat="43.94664" lon="6.17464">
        <ele>514</ele>
        <time>2014-04-29T17:12:41Z</time>
      </trkpt>
      <trkpt lat="43.94685" lon="6.17494">
        <ele>513</ele>
        <time>2014-04-29T17:12:45Z</time>
      </trkpt>
      <trkpt lat="43.94725" lon="6.1755">
        <ele>516</ele>
        <time>2014-04-29T17:12:53Z</time>
      </trkpt>
      <trkpt lat="43.94746" lon="6.17575">
        <ele>516</ele>
        <time>2014-04-29T17:12:57Z</time>
      </trkpt>
      <trkpt lat="43.94769" lon="6.17597">
        <ele>520</ele>
        <time>2014-04-29T17:13:01Z</time>
      </trkpt>
      <trkpt lat="43.94805" lon="6.1762">
        <ele>521</ele>
        <time>2014-04-29T17:13:07Z</time>
      </trkpt>
      <trkpt lat="43.9483" lon="6.17636">
        <ele>522</ele>
        <time>2014-04-29T17:13:11Z</time>
      </trkpt>
      <trkpt lat="43.9487" lon="6.17663">
        <ele>517</ele>
        <time>2014-04-29T17:13:17Z</time>
      </trkpt>
      <trkpt lat="43.94928" lon="6.17691">
        <ele>520</ele>
        <time>2014-04-29T17:13:25Z</time>
      </trkpt>
      <trkpt lat="43.94967" lon="6.17718">
        <ele>522</ele>
        <time>2014-04-29T17:13:31Z</time>
      </trkpt>
      <trkpt lat="43.95019" lon="6.17756">
        <ele>525</ele>
        <time>2014-04-29T17:13:39Z</time>
      </trkpt>
      <trkpt lat="43.95068" lon="6.17798">
        <ele>526</ele>
        <time>2014-04-29T17:13:47Z</time>
      </trkpt>
      <trkpt lat="43.95115" lon="6.17842">
        <ele>526</ele>
        <time>2014-04-29T17:13:55Z</time>
      </trkpt>
      <trkpt lat="43.95162" lon="6.1789">
        <ele>526</ele>
        <time>2014-04-29T17:14:03Z</time>
      </trkpt>
      <trkpt lat="43.9521" lon="6.17939">
        <ele>527</ele>
        <time>2014-04-29T17:14:11Z</time>
      </trkpt>
      <trkpt lat="43.95233" lon="6.17962">
        <ele>527</ele>
        <time>2014-04-29T17:14:15Z</time>
      </trkpt>
      <trkpt lat="43.95289" lon="6.18022">
        <ele>528</ele>
        <time>2014-04-29T17:14:25Z</time>
      </trkpt>
      <trkpt lat="43.95302" lon="6.18033">
        <ele>528</ele>
        <time>2014-04-29T17:14:27Z</time>
      </trkpt>
      <trkpt lat="43.95342" lon="6.18056">
        <ele>524</ele>
        <time>2014-04-29T17:14:33Z</time>
      </trkpt>
      <trkpt lat="43.95392" lon="6.18087">
        <ele>526</ele>
        <time>2014-04-29T17:14:41Z</time>
      </trkpt>
      <trkpt lat="43.95434" lon="6.18117">
        <ele>524</ele>
        <time>2014-04-29T17:14:47Z</time>
      </trkpt>
      <trkpt lat="43.95475" lon="6.18148">
        <ele>524</ele>
        <time>2014-04-29T17:14:53Z</time>
      </trkpt>
      <trkpt lat="43.95512" lon="6.18173">
        <ele>526</ele>
        <time>2014-04-29T17:14:59Z</time>
      </trkpt>
      <trkpt lat="43.95562" lon="6.18208">
        <ele>526</ele>
        <time>2014-04-29T17:15:07Z</time>
      </trkpt>
      <trkpt lat="43.95616" lon="6.18253">
        <ele>525</ele>
        <time>2014-04-29T17:15:15Z</time>
      </trkpt>
      <trkpt lat="43.9568" lon="6.18315">
        <ele>526</ele>
        <time>2014-04-29T17:15:25Z</time>
      </trkpt>
      <trkpt lat="43.95692" lon="6.18326">
        <ele>526</ele>
        <time>2014-04-29T17:15:27Z</time>
      </trkpt>
      <trkpt lat="43.95727" lon="6.18361">
        <ele>529</ele>
        <time>2014-04-29T17:15:33Z</time>
      </trkpt>
      <trkpt lat="43.95777" lon="6.18401">
        <ele>527</ele>
        <time>2014-04-29T17:15:41Z</time>
      </trkpt>
      <trkpt lat="43.95833" lon="6.18446">
        <ele>529</ele>
        <time>2014-04-29T17:15:49Z</time>
      </trkpt>
      <trkpt lat="43.9589" lon="6.18491">
        <ele>527</ele>
        <time>2014-04-29T17:15:57Z</time>
      </trkpt>
      <trkpt lat="43.95916" lon="6.18512">
        <ele>531</ele>
        <time>2014-04-29T17:16:01Z</time>
      </trkpt>
      <trkpt lat="43.95961" lon="6.18551">
        <ele>532</ele>
        <time>2014-04-29T17:16:09Z</time>
      </trkpt>
      <trkpt lat="43.9598" lon="6.18569">
        <ele>532</ele>
        <time>2014-04-29T17:16:13Z</time>
      </trkpt>
      <trkpt lat="43.96007" lon="6.18598">
        <ele>533</ele>
        <time>2014-04-29T17:16:19Z</time>
      </trkpt>
      <trkpt lat="43.96059" lon="6.18652">
        <ele>534</ele>
        <time>2014-04-29T17:16:29Z</time>
      </trkpt>
      <trkpt lat="43.96095" lon="6.18685">
        <ele>535</ele>
        <time>2014-04-29T17:16:35Z</time>
      </trkpt>
      <trkpt lat="43.96147" lon="6.18736">
        <ele>535</ele>
        <time>2014-04-29T17:16:43Z</time>
      </trkpt>
      <trkpt lat="43.9617" lon="6.18752">
        <ele>535</ele>
        <time>2014-04-29T17:16:46Z</time>
      </trkpt>
      <trkpt lat="43.96219" lon="6.18776">
        <ele>536</ele>
        <time>2014-04-29T17:16:52Z</time>
      </trkpt>
      <trkpt lat="43.9625" lon="6.18786">
        <ele>536</ele>
        <time>2014-04-29T17:16:56Z</time>
      </trkpt>
      <trkpt lat="43.96296" lon="6.18816">
        <ele>532</ele>
        <time>2014-04-29T17:17:02Z</time>
      </trkpt>
      <trkpt lat="43.96344" lon="6.18851">
        <ele>535</ele>
        <time>2014-04-29T17:17:08Z</time>
      </trkpt>
      <trkpt lat="43.96398" lon="6.18881">
        <ele>537</ele>
        <time>2014-04-29T17:17:16Z</time>
      </trkpt>
      <trkpt lat="43.96436" lon="6.18896">
        <ele>537</ele>
        <time>2014-04-29T17:17:22Z</time>
      </trkpt>
      <trkpt lat="43.96449" lon="6.18902">
        <ele>537</ele>
        <time>2014-04-29T17:17:24Z</time>
      </trkpt>
      <trkpt lat="43.9651" lon="6.18926">
        <ele>540</ele>
        <time>2014-04-29T17:17:34Z</time>
      </trkpt>
      <trkpt lat="43.9655" lon="6.18948">
        <ele>540</ele>
        <time>2014-04-29T17:17:40Z</time>
      </trkpt>
      <trkpt lat="43.96592" lon="6.18974">
        <ele>539</ele>
        <time>2014-04-29T17:17:46Z</time>
      </trkpt>
      <trkpt lat="43.9665" lon="6.19011">
        <ele>541</ele>
        <time>2014-04-29T17:17:54Z</time>
      </trkpt>
      <trkpt lat="43.96679" lon="6.19031">
        <ele>539</ele>
        <time>2014-04-29T17:17:58Z</time>
      </trkpt>
      <trkpt lat="43.96725" lon="6.19059">
        <ele>539</ele>
        <time>2014-04-29T17:18:04Z</time>
      </trkpt>
      <trkpt lat="43.96771" lon="6.19087">
        <ele>542</ele>
        <time>2014-04-29T17:18:10Z</time>
      </trkpt>
      <trkpt lat="43.96804" lon="6.19104">
        <ele>543</ele>
        <time>2014-04-29T17:18:14Z</time>
      </trkpt>
      <trkpt lat="43.9687" lon="6.19138">
        <ele>543</ele>
        <time>2014-04-29T17:18:22Z</time>
      </trkpt>
      <trkpt lat="43.96951" lon="6.19175">
        <ele>546</ele>
        <time>2014-04-29T17:18:32Z</time>
      </trkpt>
      <trkpt lat="43.96999" lon="6.19193">
        <ele>545</ele>
        <time>2014-04-29T17:18:38Z</time>
      </trkpt>
      <trkpt lat="43.97041" lon="6.19211">
        <ele>543</ele>
        <time>2014-04-29T17:18:44Z</time>
      </trkpt>
      <trkpt lat="43.97089" lon="6.19231">
        <ele>543</ele>
        <time>2014-04-29T17:18:52Z</time>
      </trkpt>
      <trkpt lat="43.97124" lon="6.19245">
        <ele>543</ele>
        <time>2014-04-29T17:18:58Z</time>
      </trkpt>
      <trkpt lat="43.97147" lon="6.19256">
        <ele>546</ele>
        <time>2014-04-29T17:19:02Z</time>
      </trkpt>
      <trkpt lat="43.97183" lon="6.19273">
        <ele>545</ele>
        <time>2014-04-29T17:19:08Z</time>
      </trkpt>
      <trkpt lat="43.97235" lon="6.193">
        <ele>544</ele>
        <time>2014-04-29T17:19:16Z</time>
      </trkpt>
      <trkpt lat="43.97275" lon="6.19327">
        <ele>542</ele>
        <time>2014-04-29T17:19:22Z</time>
      </trkpt>
      <trkpt lat="43.97312" lon="6.19357">
        <ele>544</ele>
        <time>2014-04-29T17:19:27Z</time>
      </trkpt>
      <trkpt lat="43.97362" lon="6.19394">
        <ele>545</ele>
        <time>2014-04-29T17:19:33Z</time>
      </trkpt>
      <trkpt lat="43.97389" lon="6.19409">
        <ele>545</ele>
        <time>2014-04-29T17:19:36Z</time>
      </trkpt>
      <trkpt lat="43.97436" lon="6.19429">
        <ele>550</ele>
        <time>2014-04-29T17:19:41Z</time>
      </trkpt>
      <trkpt lat="43.97473" lon="6.19445">
        <ele>551</ele>
        <time>2014-04-29T17:19:45Z</time>
      </trkpt>
      <trkpt lat="43.97529" lon="6.1947">
        <ele>549</ele>
        <time>2014-04-29T17:19:52Z</time>
      </trkpt>
      <trkpt lat="43.97559" lon="6.19486">
        <ele>549</ele>
        <time>2014-04-29T17:19:56Z</time>
      </trkpt>
      <trkpt lat="43.97591" lon="6.19508">
        <ele>549</ele>
        <time>2014-04-29T17:20:00Z</time>
      </trkpt>
      <trkpt lat="43.97638" lon="6.1953">
        <ele>549</ele>
        <time>2014-04-29T17:20:06Z</time>
      </trkpt>
      <trkpt lat="43.97666" lon="6.19547">
        <ele>549</ele>
        <time>2014-04-29T17:20:10Z</time>
      </trkpt>
      <trkpt lat="43.9769" lon="6.1957">
        <ele>546</ele>
        <time>2014-04-29T17:20:14Z</time>
      </trkpt>
      <trkpt lat="43.97734" lon="6.19626">
        <ele>552</ele>
        <time>2014-04-29T17:20:22Z</time>
      </trkpt>
      <trkpt lat="43.9776" lon="6.19651">
        <ele>551</ele>
        <time>2014-04-29T17:20:26Z</time>
      </trkpt>
      <trkpt lat="43.97802" lon="6.19675">
        <ele>559</ele>
        <time>2014-04-29T17:20:32Z</time>
      </trkpt>
      <trkpt lat="43.97862" lon="6.19696">
        <ele>556</ele>
        <time>2014-04-29T17:20:40Z</time>
      </trkpt>
      <trkpt lat="43.9791" lon="6.19702">
        <ele>555</ele>
        <time>2014-04-29T17:20:46Z</time>
      </trkpt>
      <trkpt lat="43.97945" lon="6.19699">
        <ele>553</ele>
        <time>2014-04-29T17:20:50Z</time>
      </trkpt>
      <trkpt lat="43.98013" lon="6.19685">
        <ele>551</ele>
        <time>2014-04-29T17:20:58Z</time>
      </trkpt>
      <trkpt lat="43.9806" lon="6.19676">
        <ele>551</ele>
        <time>2014-04-29T17:21:04Z</time>
      </trkpt>
      <trkpt lat="43.98105" lon="6.1967">
        <ele>550</ele>
        <time>2014-04-29T17:21:10Z</time>
      </trkpt>
      <trkpt lat="43.98137" lon="6.19673">
        <ele>550</ele>
        <time>2014-04-29T17:21:14Z</time>
      </trkpt>
      <trkpt lat="43.98201" lon="6.1968">
        <ele>550</ele>
        <time>2014-04-29T17:21:22Z</time>
      </trkpt>
      <trkpt lat="43.98245" lon="6.19685">
        <ele>550</ele>
        <time>2014-04-29T17:21:28Z</time>
      </trkpt>
      <trkpt lat="43.98317" lon="6.19693">
        <ele>552</ele>
        <time>2014-04-29T17:21:38Z</time>
      </trkpt>
      <trkpt lat="43.98359" lon="6.19696">
        <ele>553</ele>
        <time>2014-04-29T17:21:44Z</time>
      </trkpt>
      <trkpt lat="43.98417" lon="6.19709">
        <ele>551</ele>
        <time>2014-04-29T17:21:52Z</time>
      </trkpt>
      <trkpt lat="43.98479" lon="6.19729">
        <ele>552</ele>
        <time>2014-04-29T17:22:00Z</time>
      </trkpt>
      <trkpt lat="43.98529" lon="6.19746">
        <ele>552</ele>
        <time>2014-04-29T17:22:06Z</time>
      </trkpt>
      <trkpt lat="43.98597" lon="6.19769">
        <ele>553</ele>
        <time>2014-04-29T17:22:14Z</time>
      </trkpt>
      <trkpt lat="43.98629" lon="6.19781">
        <ele>554</ele>
        <time>2014-04-29T17:22:18Z</time>
      </trkpt>
      <trkpt lat="43.98675" lon="6.19797">
        <ele>555</ele>
        <time>2014-04-29T17:22:24Z</time>
      </trkpt>
      <trkpt lat="43.98705" lon="6.19808">
        <ele>555</ele>
        <time>2014-04-29T17:22:28Z</time>
      </trkpt>
      <trkpt lat="43.98776" lon="6.19832">
        <ele>554</ele>
        <time>2014-04-29T17:22:38Z</time>
      </trkpt>
      <trkpt lat="43.98832" lon="6.19849">
        <ele>555</ele>
        <time>2014-04-29T17:22:46Z</time>
      </trkpt>
      <trkpt lat="43.98873" lon="6.19865">
        <ele>557</ele>
        <time>2014-04-29T17:22:52Z</time>
      </trkpt>
      <trkpt lat="43.98887" lon="6.19868">
        <ele>557</ele>
        <time>2014-04-29T17:22:54Z</time>
      </trkpt>
      <trkpt lat="43.98941" lon="6.19884">
        <ele>558</ele>
        <time>2014-04-29T17:23:02Z</time>
      </trkpt>
      <trkpt lat="43.98989" lon="6.19881">
        <ele>557</ele>
        <time>2014-04-29T17:23:10Z</time>
      </trkpt>
      <trkpt lat="43.99032" lon="6.19846">
        <ele>556</ele>
        <time>2014-04-29T17:23:18Z</time>
      </trkpt>
      <trkpt lat="43.99046" lon="6.19815">
        <ele>556</ele>
        <time>2014-04-29T17:23:22Z</time>
      </trkpt>
      <trkpt lat="43.99053" lon="6.19765">
        <ele>556</ele>
        <time>2014-04-29T17:23:28Z</time>
      </trkpt>
      <trkpt lat="43.99053" lon="6.19692">
        <ele>556</ele>
        <time>2014-04-29T17:23:38Z</time>
      </trkpt>
      <trkpt lat="43.99047" lon="6.19619">
        <ele>556</ele>
        <time>2014-04-29T17:23:48Z</time>
      </trkpt>
      <trkpt lat="43.99059" lon="6.19561">
        <ele>563</ele>
        <time>2014-04-29T17:23:56Z</time>
      </trkpt>
      <trkpt lat="43.99082" lon="6.19554">
        <ele>563</ele>
        <time>2014-04-29T17:24:00Z</time>
      </trkpt>
      <trkpt lat="43.99137" lon="6.19554">
        <ele>567</ele>
        <time>2014-04-29T17:24:11Z</time>
      </trkpt>
      <trkpt lat="43.9916" lon="6.19558">
        <ele>566</ele>
        <time>2014-04-29T17:24:16Z</time>
      </trkpt>
      <trkpt lat="43.99206" lon="6.19563">
        <ele>569</ele>
        <time>2014-04-29T17:24:27Z</time>
      </trkpt>
      <trkpt lat="43.9923" lon="6.19568">
        <ele>568</ele>
        <time>2014-04-29T17:24:32Z</time>
      </trkpt>
      <trkpt lat="43.99284" lon="6.19572">
        <ele>571</ele>
        <time>2014-04-29T17:24:44Z</time>
      </trkpt>
      <trkpt lat="43.99334" lon="6.19564">
        <ele>572</ele>
        <time>2014-04-29T17:24:55Z</time>
      </trkpt>
      <trkpt lat="43.99381" lon="6.19541">
        <ele>576</ele>
        <time>2014-04-29T17:25:06Z</time>
      </trkpt>
      <trkpt lat="43.99427" lon="6.19533">
        <ele>578</ele>
        <time>2014-04-29T17:25:16Z</time>
      </trkpt>
      <trkpt lat="43.99458" lon="6.19533">
        <ele>578</ele>
        <time>2014-04-29T17:25:23Z</time>
      </trkpt>
      <trkpt lat="43.99481" lon="6.19539">
        <ele>578</ele>
        <time>2014-04-29T17:25:28Z</time>
      </trkpt>
      <trkpt lat="43.99517" lon="6.19555">
        <ele>579</ele>
        <time>2014-04-29T17:25:36Z</time>
      </trkpt>
      <trkpt lat="43.99549" lon="6.19576">
        <ele>579</ele>
        <time>2014-04-29T17:25:45Z</time>
      </trkpt>
      <trkpt lat="43.99589" lon="6.19601">
        <ele>578</ele>
        <time>2014-04-29T17:26:01Z</time>
      </trkpt>
      <trkpt lat="43.99632" lon="6.19628">
        <ele>578</ele>
        <time>2014-04-29T17:26:13Z</time>
      </trkpt>
      <trkpt lat="43.99669" lon="6.1964">
        <ele>581</ele>
        <time>2014-04-29T17:26:22Z</time>
      </trkpt>
      <trkpt lat="43.99705" lon="6.19652">
        <ele>582</ele>
        <time>2014-04-29T17:26:32Z</time>
      </trkpt>
      <trkpt lat="43.99736" lon="6.19657">
        <ele>581</ele>
        <time>2014-04-29T17:26:41Z</time>
      </trkpt>
      <trkpt lat="43.99771" lon="6.19645">
        <ele>586</ele>
        <time>2014-04-29T17:26:49Z</time>
      </trkpt>
      <trkpt lat="43.99786" lon="6.19655">
        <ele>587</ele>
        <time>2014-04-29T17:28:56Z</time>
      </trkpt>
    </trkseg>
  </trk>
</gpx>